ECMWFFLT1_700_spd_000.txt.gz
Wind_Speed
23 23 22 24 26 29 29 27 26 23 20 20 20 20 21 20 18 16 16 17 17 16 15 14 14 14 13 13 14 13 12 12 11 10 8 7 7 7 8 9 10 11 12 13 14 15 16 17 18 19 22 25 25 22 20 18 17 16 15 15 14 13 13
22 23 22 22 24 28 29 29 29 27 24 21 19 19 21 22 21 18 15 15 16 15 16 16 15 15 15 16 17 17 16 15 14 14 12 12 11 11 12 12 13 13 14 14 15 16 16 17 18 19 21 24 25 23 20 18 17 16 14 14 13 13 14
23 23 22 22 22 24 26 28 30 31 29 25 23 21 20 21 22 20 16 15 15 16 16 16 16 17 18 19 19 19 20 19 18 17 16 15 15 15 15 15 15 15 16 15 15 16 17 17 18 19 20 23 24 23 20 17 15 14 13 12 12 13 14
25 24 23 22 21 20 22 25 28 31 31 27 25 23 21 20 20 20 19 17 16 17 17 15 16 18 21 23 23 23 24 23 22 21 20 20 19 19 18 17 17 17 17 17 17 17 18 18 19 20 20 21 23 22 19 16 15 13 12 12 12 14 14
24 25 25 23 21 21 21 23 26 28 29 28 26 24 23 21 21 22 21 19 19 20 19 19 21 23 23 25 26 27 27 27 25 24 23 23 23 23 21 20 19 19 19 19 18 18 19 19 20 21 21 21 22 21 17 15 14 13 12 13 13 14 14
24 24 25 24 21 21 22 23 24 25 26 27 25 23 22 22 22 22 22 21 21 21 22 24 25 26 26 27 27 29 30 30 29 29 26 25 26 27 25 23 22 21 21 21 20 19 20 20 21 21 22 22 21 19 16 14 13 13 13 13 14 14 15
24 23 23 23 20 18 20 21 23 23 22 22 22 22 22 23 23 22 22 23 23 23 24 25 25 26 27 27 28 30 32 33 33 32 29 26 26 29 28 26 24 23 23 23 21 21 21 21 21 22 23 23 22 18 15 13 13 13 14 14 14 15 15
21 19 18 19 17 16 17 19 20 22 22 22 22 23 24 24 23 22 23 23 22 23 24 23 23 24 26 28 29 30 32 34 34 33 30 27 26 27 29 29 27 25 25 24 22 23 22 21 22 22 23 24 22 18 14 13 13 13 14 15 14 14 14
17 15 15 16 16 17 18 17 17 20 21 22 23 24 23 23 22 22 23 23 23 24 24 22 22 23 26 29 30 30 32 34 35 33 33 32 31 29 27 27 28 27 27 26 26 25 23 22 22 22 23 24 22 18 14 13 13 14 14 15 14 14 15
16 14 16 17 17 18 19 18 18 20 22 24 25 25 24 24 24 24 25 24 25 24 23 22 23 25 28 30 31 32 34 36 36 34 34 35 36 34 29 26 27 28 27 26 27 26 23 23 23 23 22 23 22 18 14 13 13 13 14 14 14 14 15
16 15 17 17 16 18 21 21 20 21 23 24 24 24 24 24 24 25 26 25 24 24 23 24 25 27 30 31 33 35 37 38 38 37 37 38 40 41 36 29 26 27 27 26 26 25 23 23 24 24 22 23 22 17 14 13 12 12 13 13 13 13 15
17 17 19 16 14 16 19 21 20 20 21 22 21 22 22 22 23 23 23 22 22 22 22 24 26 28 30 32 34 37 38 40 42 43 43 44 45 45 38 30 27 28 27 27 26 23 22 23 25 24 21 21 21 17 13 12 11 12 13 12 12 12 13
19 19 20 17 15 16 18 19 19 19 20 20 19 19 18 18 19 20 21 21 21 20 21 22 24 26 28 31 35 37 38 40 43 45 47 49 49 47 40 32 31 32 30 28 26 21 21 23 25 24 20 20 20 16 13 12 12 13 13 11 10 11 12
22 22 22 19 18 19 19 18 18 18 20 20 18 17 16 14 15 16 18 19 18 18 19 19 20 22 25 28 33 36 36 37 40 43 48 50 49 47 43 35 35 38 34 27 24 22 21 23 24 23 21 20 19 16 13 13 13 13 12 10 10 11 13
25 25 24 21 21 23 21 18 18 18 20 20 19 18 16 14 13 14 15 16 16 17 17 17 18 19 21 24 28 33 36 40 45 48 51 53 49 46 44 37 34 41 41 31 23 23 23 23 23 23 20 18 18 17 15 15 15 14 12 12 12 12 13
25 27 27 26 25 24 21 19 18 19 20 21 20 20 17 14 12 14 15 16 17 18 17 18 20 20 21 23 26 29 34 40 49 53 56 58 53 46 46 40 35 41 45 34 22 23 24 23 22 22 17 16 17 18 18 17 16 15 15 15 15 14 14
26 29 32 30 26 24 22 21 22 22 22 21 20 19 17 14 14 16 18 20 21 21 21 22 23 24 26 27 28 30 32 39 48 57 64 65 55 45 46 45 41 44 45 32 21 23 25 21 21 21 17 16 18 19 19 19 18 17 18 18 18 18 18
26 30 35 32 26 24 24 24 25 25 24 22 21 20 18 17 19 21 22 23 23 22 23 24 25 26 27 30 32 30 30 36 44 54 62 57 43 35 38 42 43 47 49 40 29 27 26 21 20 21 19 17 18 19 20 20 19 19 20 21 21 21 22
26 31 35 32 25 23 23 22 23 25 25 24 23 22 20 20 22 23 22 23 23 24 25 26 27 27 28 33 36 33 30 32 36 45 54 44 29 23 25 31 35 41 47 47 41 35 31 25 21 19 18 18 18 20 21 20 20 21 21 22 23 23 24
29 33 34 29 24 23 22 20 22 25 25 23 22 20 20 21 23 23 24 25 27 28 29 28 29 30 30 34 37 35 34 34 33 41 48 40 28 24 22 25 30 36 41 44 43 38 35 29 22 17 16 18 20 21 22 22 23 24 23 24 24 24 26
32 35 33 28 24 25 23 21 21 22 21 20 20 19 21 23 25 27 27 28 28 27 27 27 28 30 31 33 35 33 33 35 34 38 43 40 34 31 29 28 28 30 35 40 39 36 34 29 23 17 17 20 22 24 25 25 26 27 27 26 26 26 26
32 30 28 26 24 24 23 21 20 19 19 20 21 22 23 24 24 23 23 23 22 22 22 24 28 30 30 32 32 31 31 33 34 38 42 41 38 37 35 31 25 28 36 39 38 38 34 29 22 18 19 20 23 25 27 28 30 32 31 29 28 27 27
27 26 25 25 24 23 22 20 19 19 19 19 19 20 19 17 15 14 15 16 16 18 20 23 27 29 31 32 32 32 32 33 34 38 42 40 39 39 38 31 26 29 34 36 38 37 30 24 21 19 21 22 25 28 29 31 34 35 34 32 30 29 28
27 27 27 26 23 23 22 20 18 18 18 16 14 14 13 11 10 10 11 13 16 18 20 23 25 28 30 31 32 33 34 33 34 38 40 38 37 40 40 34 30 29 29 30 29 25 23 22 22 22 23 25 28 30 31 34 38 39 38 35 31 29 29
26 25 24 23 24 23 20 16 15 14 14 14 13 12 11 10 9 12 16 19 21 22 23 25 27 28 30 31 31 33 34 33 33 35 36 34 36 39 41 34 26 21 21 20 18 21 23 22 23 25 26 28 31 32 33 36 38 40 41 37 30 28 29
21 21 20 20 22 23 19 13 12 12 12 13 13 13 12 12 13 20 26 27 27 28 29 30 30 30 31 30 28 28 29 30 31 32 33 33 35 40 40 27 14 15 18 19 21 23 23 24 26 28 31 33 35 35 36 37 39 39 39 35 29 27 29
23 24 22 20 21 21 17 12 12 14 15 16 17 18 19 20 23 29 32 31 32 34 35 35 35 33 32 29 25 24 25 27 30 30 32 33 33 36 34 20 11 15 19 22 27 26 23 24 29 32 35 38 39 40 40 41 41 38 34 31 28 27 28
25 24 22 21 20 18 17 15 13 12 14 16 19 23 25 27 30 33 34 33 34 35 36 36 36 34 31 27 24 24 25 27 28 30 30 29 27 27 27 20 18 21 22 22 25 25 23 26 32 37 37 35 35 37 37 34 33 31 29 27 26 26 27
25 23 21 21 19 18 18 17 15 14 15 17 20 23 27 29 31 33 33 32 32 33 33 33 32 32 30 27 24 25 27 27 28 30 30 26 23 22 22 23 25 26 25 23 23 25 27 30 34 33 28 24 26 29 28 26 27 27 27 26 25 25 27
24 24 24 25 24 22 22 23 24 23 22 20 21 24 28 30 31 32 32 30 29 30 29 29 29 28 27 26 26 27 28 28 28 30 28 25 24 23 21 24 26 26 25 24 24 26 25 23 23 19 17 18 22 24 23 24 27 28 26 25 24 25 27
26 27 29 31 30 29 28 29 30 28 25 22 23 25 29 30 29 29 29 27 26 27 26 26 26 25 25 26 27 28 27 26 26 27 26 25 25 23 20 22 24 25 25 25 25 25 21 16 15 20 25 22 18 18 19 24 27 27 25 24 24 26 26
27 28 29 29 30 30 32 32 30 28 26 24 24 26 28 29 28 27 27 25 24 24 24 24 24 24 25 25 24 23 23 23 23 24 23 22 22 21 19 19 22 26 28 28 28 25 19 16 21 29 27 18 13 15 20 24 26 25 24 24 25 25 25
27 27 28 29 31 32 33 31 29 28 28 28 28 28 29 30 30 30 30 27 23 23 23 22 22 22 22 21 20 20 21 22 22 22 22 21 20 18 16 16 22 27 27 28 27 24 21 24 28 25 18 13 15 18 22 23 24 24 24 24 25 25 26
29 29 30 32 33 32 30 30 31 32 35 35 35 35 36 36 35 32 29 24 20 19 19 18 18 18 17 18 19 19 20 21 21 22 24 22 18 17 16 14 18 20 20 21 24 25 26 27 23 17 14 15 18 20 22 23 23 23 24 25 25 26 27
31 31 31 31 31 29 28 32 35 37 39 40 39 37 35 32 28 24 21 18 16 16 16 15 15 14 14 15 16 15 16 18 18 20 21 18 14 14 14 11 9 10 10 14 18 21 22 20 16 13 14 16 17 19 21 22 22 24 25 26 27 28 29
31 32 31 29 29 28 27 29 31 32 33 33 32 30 25 21 18 17 17 17 16 14 12 12 12 12 13 13 11 11 14 15 16 17 16 12 10 10 9 6 6 6 7 12 15 16 16 14 12 12 14 15 17 19 20 22 24 25 26 27 28 29 30
29 30 29 30 30 30 29 28 27 26 25 23 22 20 18 16 14 13 13 14 12 9 8 8 8 9 10 9 8 10 13 14 14 14 12 9 9 10 10 10 10 11 12 15 16 15 13 11 10 11 13 16 17 20 22 25 27 27 28 29 29 30 30
31 31 30 30 30 29 29 28 26 23 20 18 18 17 15 14 12 11 11 11 9 7 8 9 9 9 7 5 6 9 11 12 13 12 9 9 10 12 14 14 13 14 16 18 19 18 16 13 12 12 14 17 19 22 25 28 29 29 30 30 30 30 29

ECMWFFLT1_700_spd_006.txt.gz
Wind_Speed
12 14 16 18 23 27 29 30 29 27 26 26 26 25 26 28 31 32 30 29 28 27 25 23 21 20 19 19 20 21 20 20 19 20 20 20 19 18 16 14 13 11 10 9 9 8 8 8 8 9 10 11 12 14 16 16 17 17 18 17 15 13 12
12 13 16 18 21 24 28 30 30 29 28 28 27 26 26 27 30 32 31 29 28 28 27 25 23 21 19 19 21 21 20 20 20 21 21 22 20 19 18 17 16 15 14 13 12 11 10 9 9 10 11 11 13 15 16 18 18 19 19 18 16 14 13
16 16 15 17 20 22 25 27 28 29 30 30 29 28 27 25 26 29 31 30 29 29 29 27 24 22 21 20 21 21 21 21 21 21 22 23 21 21 20 19 19 18 17 16 15 13 12 12 11 11 11 12 13 15 17 18 19 20 20 18 16 15 14
19 20 16 14 17 19 21 23 24 27 29 30 31 30 27 25 23 26 29 30 30 30 30 27 25 24 23 22 22 22 22 22 22 22 24 25 25 25 25 24 23 22 21 20 18 16 16 15 13 12 12 13 14 15 16 18 19 21 21 20 18 16 15
17 19 20 17 17 19 21 22 24 27 29 30 32 31 29 25 23 24 26 28 29 29 29 28 27 27 25 24 24 24 23 23 23 24 27 28 29 29 29 27 27 25 24 22 20 20 19 17 15 13 12 12 14 15 17 18 19 20 21 21 19 17 16
16 17 20 19 18 19 22 23 24 26 29 30 32 32 30 27 24 24 24 25 27 27 28 28 29 28 27 26 26 25 25 26 26 28 29 30 30 31 32 30 29 28 27 25 24 23 21 19 18 17 16 16 16 16 17 18 19 20 21 21 20 19 18
18 16 16 16 16 17 20 22 23 24 26 29 32 33 32 29 26 25 25 25 26 26 27 28 28 27 26 27 27 27 28 29 30 30 30 31 32 32 33 32 32 31 30 28 27 25 24 23 23 23 22 23 21 18 18 18 18 20 21 22 21 20 18
18 17 16 15 15 16 20 23 24 25 26 28 32 34 34 32 30 28 26 25 25 26 27 28 28 27 25 25 26 27 29 31 32 33 33 33 33 33 33 33 34 34 33 32 30 28 27 26 26 27 28 27 23 18 19 20 20 21 21 22 22 21 19
17 17 18 20 20 19 22 27 28 28 28 27 30 33 35 35 33 30 28 27 26 27 27 27 27 27 25 25 26 27 29 30 31 34 35 35 33 33 34 34 35 36 36 36 34 32 30 28 29 30 31 29 24 21 23 25 24 24 23 22 22 22 20
18 18 20 23 24 22 24 29 30 29 28 27 28 31 33 36 35 33 30 29 29 28 26 25 25 26 25 26 27 27 28 29 30 32 34 34 33 34 35 36 36 37 38 39 38 36 35 34 33 34 34 33 31 28 29 29 28 28 27 24 23 22 20
20 20 20 21 24 24 25 28 28 27 26 26 27 27 29 33 35 34 31 30 30 29 27 26 25 25 25 24 25 27 27 29 30 31 33 33 34 37 38 35 34 36 39 40 40 41 42 41 42 43 43 43 40 36 33 31 30 30 30 27 24 22 20
19 19 19 20 22 24 25 26 25 25 26 25 24 24 25 28 31 33 33 31 30 30 27 26 26 26 26 24 25 27 26 28 30 30 32 34 37 41 40 35 32 34 39 41 41 43 45 46 48 50 51 50 47 43 39 36 33 33 32 29 25 22 20
21 21 21 21 21 22 25 25 24 23 24 22 21 21 23 25 27 30 32 32 31 30 28 27 26 27 27 25 25 27 26 27 28 30 35 38 41 43 42 39 33 30 35 41 39 35 34 35 40 46 48 49 48 43 38 34 35 36 34 30 26 23 20
27 26 25 21 20 25 26 25 23 22 21 20 20 20 21 23 25 27 30 31 31 30 28 27 26 26 26 25 26 27 25 25 28 34 41 43 43 42 41 40 37 34 35 37 34 32 27 23 27 32 33 34 34 32 30 30 33 33 33 32 28 24 22
28 28 27 21 21 27 26 23 23 21 20 20 20 21 22 22 23 25 27 28 29 28 27 26 25 25 25 25 26 26 24 25 31 39 43 44 45 45 41 38 39 38 33 30 29 29 25 21 21 22 21 20 21 24 27 31 32 31 31 33 30 26 24
27 28 28 24 23 27 27 23 22 21 21 21 22 23 23 23 23 23 23 25 26 27 26 26 26 26 25 25 26 26 24 25 31 35 35 37 40 40 34 30 29 25 22 22 26 28 28 26 23 22 23 24 25 26 29 34 36 34 31 32 33 30 27
27 26 27 26 25 28 29 26 23 22 22 23 23 25 26 25 23 22 23 24 25 25 26 27 27 26 25 25 26 25 24 24 28 29 30 31 30 27 23 20 20 18 17 20 23 24 25 25 24 25 28 31 32 33 32 34 38 37 33 33 35 34 32
28 26 26 25 26 29 32 30 25 23 24 25 26 28 28 26 24 24 24 24 24 25 25 25 25 25 24 24 23 23 23 26 28 29 29 30 28 25 22 21 22 22 21 20 19 18 20 22 23 25 29 34 38 39 37 37 38 39 37 35 36 37 36
29 29 28 27 26 28 32 34 29 25 27 28 28 29 29 28 28 27 26 25 25 25 25 24 24 24 23 23 23 24 26 29 30 30 30 31 30 29 27 25 25 25 23 21 20 20 21 22 22 23 27 33 39 41 40 39 41 41 39 38 38 39 40
31 31 31 29 27 26 30 36 34 30 30 31 30 30 31 31 31 29 27 26 26 26 25 24 24 25 24 25 26 27 28 30 30 30 30 31 30 28 25 23 23 24 23 22 21 21 21 21 21 22 25 30 36 41 41 40 42 42 40 39 39 39 40
32 31 30 29 28 26 28 33 35 34 34 32 30 31 32 32 31 29 28 29 29 28 27 26 27 27 27 27 27 27 27 27 27 26 26 26 25 23 23 23 24 23 21 21 20 20 20 20 21 22 24 28 35 40 40 40 42 43 42 41 40 39 39
34 32 30 29 28 27 29 31 35 37 37 34 32 32 32 31 31 31 30 31 32 31 30 29 29 28 28 28 28 28 26 24 23 22 21 22 22 22 24 25 25 21 18 17 18 19 20 20 21 21 23 28 34 37 38 40 42 43 42 41 39 37 36
37 33 32 31 30 29 31 34 36 36 36 35 34 32 32 31 32 32 32 33 34 34 33 32 31 30 30 30 30 29 27 24 22 20 20 21 21 22 24 25 22 18 15 16 18 20 20 19 18 20 23 26 28 32 35 38 38 37 38 37 34 32 35
38 35 33 34 33 31 33 35 35 34 34 36 35 33 33 32 32 33 34 34 35 35 35 34 34 33 32 31 31 29 27 25 23 21 21 22 22 22 23 22 20 18 17 19 21 21 20 17 17 19 20 20 22 26 29 30 29 31 33 31 29 31 36
38 36 35 35 35 33 34 35 33 31 34 38 36 35 35 33 33 35 36 37 37 37 37 37 36 35 33 32 31 30 29 27 25 23 22 22 22 22 21 21 21 20 20 21 22 22 19 15 15 16 16 16 18 22 25 25 27 31 31 28 28 31 33
36 36 35 36 35 34 33 33 30 30 37 41 39 38 37 36 36 38 38 38 38 38 37 37 36 34 33 32 31 31 29 27 26 24 24 23 23 23 22 22 22 22 22 22 22 20 17 13 13 13 13 13 14 18 22 23 25 27 28 28 28 30 30
32 32 34 35 34 33 33 32 30 33 39 42 40 39 39 38 38 38 38 38 37 36 35 34 33 31 30 29 29 29 28 28 28 28 28 27 26 26 26 25 23 21 20 20 19 17 14 11 10 9 9 10 11 14 17 20 23 25 27 29 29 30 32
29 30 32 33 31 30 32 32 33 36 40 41 41 40 40 38 36 35 35 35 34 33 31 30 27 24 24 26 28 29 30 31 32 31 31 30 28 27 27 25 22 19 18 18 16 13 10 8 7 7 7 8 10 12 15 19 23 25 27 29 31 32 33
31 31 31 29 29 30 33 35 37 39 41 41 40 39 38 36 34 34 33 33 32 32 30 26 22 24 28 31 32 33 34 33 33 32 31 29 26 24 24 22 19 18 17 16 13 10 7 5 5 5 6 7 10 12 16 20 23 24 25 28 30 31 31
27 28 29 30 33 35 37 38 39 40 39 38 37 36 35 35 34 32 29 28 28 28 26 24 26 30 32 33 34 35 34 33 32 30 28 25 23 21 20 19 18 18 16 13 10 8 6 5 4 5 5 7 9 12 15 17 18 21 24 26 28 29 31
31 32 33 36 38 38 37 36 37 37 36 35 34 34 34 35 35 32 28 24 22 21 23 26 28 29 29 31 34 33 31 30 28 26 24 22 20 18 17 18 18 17 14 11 9 8 6 5 5 6 6 6 8 10 12 14 17 20 23 25 27 30 34
32 34 36 38 39 39 37 36 35 34 33 33 32 32 32 32 32 30 29 27 24 25 28 28 27 27 28 33 32 28 25 25 25 24 23 22 19 17 17 18 17 14 12 11 10 9 8 8 8 7 7 8 9 11 13 16 19 21 24 27 31 32 33
31 33 35 38 38 38 37 36 34 32 31 30 28 27 27 26 25 24 26 28 28 28 29 28 27 27 29 32 30 25 23 24 25 24 22 20 18 17 19 19 16 14 12 11 11 11 10 9 9 8 8 10 12 15 18 20 23 25 28 31 32 31 31
35 34 35 37 37 36 34 32 30 27 24 22 21 20 20 21 21 23 24 25 25 26 26 27 27 28 29 30 28 25 25 25 24 23 21 19 19 20 20 18 15 13 12 12 12 12 11 10 10 11 12 13 16 19 22 25 27 29 30 29 28 28 28
37 36 35 35 34 31 28 25 23 21 20 19 18 18 19 21 22 23 24 24 24 25 27 29 29 29 29 29 27 25 24 24 23 21 19 19 20 20 20 18 15 13 13 13 14 14 13 13 13 14 15 17 19 22 23 24 25 25 26 27 28 28 28
33 32 30 29 28 27 24 22 21 21 21 21 21 21 22 23 25 25 26 27 28 30 31 31 31 29 28 27 25 23 22 23 22 20 18 18 19 21 21 18 15 14 14 14 14 14 13 13 14 15 16 18 20 21 21 22 23 25 28 29 29 28 27
28 27 26 25 25 24 24 23 23 23 22 22 23 23 24 25 27 28 28 30 32 33 33 32 30 28 26 25 23 21 21 21 20 18 18 19 20 21 21 18 16 16 16 14 14 13 13 13 13 13 14 16 17 18 21 24 26 27 28 27 26 27 28
23 23 23 22 22 22 23 24 25 25 25 25 24 24 26 27 28 29 30 31 32 32 31 30 29 27 26 24 21 20 20 20 17 16 17 19 20 21 21 19 18 18 16 15 14 12 12 12 11 12 13 15 16 18 21 23 25 25 25 25 26 29 30

ECMWFFLT1_700_spd_009.txt.gz
Wind_Speed
25 20 20 29 28 22 19 17 18 20 21 22 21 23 24 24 25 26 27 28 28 27 25 25 25 23 21 19 18 18 19 19 19 19 19 20 20 20 20 20 19 17 16 16 15 15 13 12 11 10 10 10 10 11 12 13 13 14 14 14 14 14 14
24 21 19 26 27 23 20 18 18 20 21 21 21 23 25 24 24 24 25 27 28 27 26 26 26 24 22 20 19 19 19 19 19 19 19 21 21 22 22 21 20 19 19 18 17 16 14 12 11 11 12 12 12 13 14 14 15 16 15 15 15 15 15
24 22 17 24 27 24 21 21 20 20 21 21 22 23 24 25 23 22 22 25 27 28 28 28 28 26 23 21 20 20 19 19 19 19 19 21 21 22 22 22 21 21 21 20 19 17 15 13 12 13 14 15 16 16 16 17 17 18 18 17 17 17 17
24 24 20 24 27 24 21 22 21 21 22 21 22 22 24 25 23 21 21 22 26 29 29 29 29 27 25 23 22 21 21 20 19 19 20 21 21 22 23 22 22 22 22 22 21 20 19 16 15 16 17 18 19 19 20 21 20 20 21 21 20 20 18
22 23 23 25 26 22 21 21 20 21 22 22 22 23 25 26 24 22 22 22 26 30 30 29 29 28 27 25 24 23 22 21 20 20 21 22 22 23 24 24 24 24 24 24 23 22 22 21 20 21 21 21 22 23 24 24 24 24 26 26 24 22 21
21 20 21 25 25 19 18 19 19 20 21 22 24 24 25 27 26 25 23 22 26 30 32 31 30 30 29 28 26 25 23 22 21 21 21 22 23 24 25 26 26 26 26 25 24 24 25 25 25 25 25 26 27 28 28 28 27 27 29 29 25 22 22
22 21 18 19 21 16 14 17 19 22 23 24 25 25 24 26 27 27 25 24 25 29 32 33 32 31 31 30 28 27 25 24 23 22 22 24 25 27 29 30 29 28 28 26 26 27 29 29 29 30 30 31 32 33 33 32 30 29 31 33 30 27 26
22 25 19 17 19 15 12 13 17 21 25 28 28 26 25 26 28 28 27 25 25 28 31 33 34 32 31 31 30 28 27 25 24 24 25 27 28 31 33 33 32 32 31 30 30 32 33 32 32 33 34 37 39 38 37 35 32 31 34 39 39 36 35
20 24 21 17 19 17 14 14 17 21 25 28 30 28 25 27 29 30 29 27 26 28 29 30 32 33 32 30 29 29 27 27 27 27 29 29 30 33 35 35 34 34 32 31 33 36 37 36 35 33 34 39 44 43 41 39 37 36 37 40 42 40 39
16 21 21 18 18 16 15 15 17 20 24 27 31 30 27 27 30 31 30 29 28 28 27 29 30 30 30 29 28 28 27 28 29 29 32 34 32 33 36 35 34 34 33 31 32 34 35 34 33 30 29 35 41 45 45 43 42 42 42 41 40 39 39
18 20 21 21 21 17 15 16 18 21 25 28 32 32 27 27 30 32 32 31 30 28 27 29 28 27 28 27 26 27 27 27 29 31 35 37 36 35 36 35 34 33 33 33 30 28 27 28 29 27 27 30 34 39 44 46 46 46 46 44 41 39 38
22 24 23 24 23 19 17 18 21 22 25 30 33 32 28 26 28 32 33 32 32 30 28 27 26 27 27 26 25 26 26 26 29 33 36 36 36 37 35 33 32 30 31 32 29 24 23 24 26 27 28 29 30 32 37 42 44 45 45 45 42 39 36
25 28 25 22 19 18 18 19 23 25 26 29 32 31 28 26 26 31 34 33 34 33 29 27 26 27 28 26 24 25 25 26 29 32 33 33 33 33 34 32 30 28 29 29 28 25 23 22 23 26 28 29 27 28 32 37 39 40 41 41 40 39 36
27 29 26 21 17 16 17 20 24 27 25 26 29 29 27 25 25 30 33 33 34 34 33 31 29 28 30 27 25 25 25 27 30 31 30 31 30 30 33 33 29 27 28 27 25 24 23 22 21 24 28 29 27 27 31 35 36 36 36 36 37 38 36
24 27 26 24 21 17 17 20 24 27 24 24 27 27 26 27 26 30 34 34 34 36 35 33 30 29 31 29 27 27 28 29 30 30 30 31 30 29 30 30 27 27 28 27 23 20 21 21 19 21 25 28 28 29 31 33 35 35 35 34 36 37 36
24 24 24 26 26 20 16 18 24 26 24 26 27 27 28 29 28 29 31 32 33 36 37 35 32 30 30 31 30 30 30 31 31 30 29 29 28 27 28 27 26 27 28 28 25 22 21 20 19 21 24 28 31 33 34 35 37 37 37 36 36 37 37
27 25 24 28 31 25 18 17 23 24 26 28 27 29 30 28 27 26 27 28 29 33 37 36 33 31 31 32 33 32 33 34 33 31 29 27 26 26 27 27 26 27 28 28 26 24 23 21 20 22 25 28 31 33 34 36 38 39 39 39 38 38 39
28 28 25 26 31 29 21 18 21 22 27 30 28 30 30 27 27 26 25 26 26 29 34 36 34 33 33 33 34 34 35 35 33 30 28 27 26 27 27 28 28 28 28 27 25 24 23 22 21 24 27 29 30 30 32 34 37 38 39 40 41 41 41
28 28 26 28 34 32 24 19 20 21 26 33 32 31 30 28 28 28 27 27 27 29 33 35 34 34 34 34 34 35 35 33 31 29 28 27 27 28 28 29 29 28 26 24 23 23 23 23 24 27 29 31 31 31 32 34 36 37 38 40 41 41 41
32 31 31 33 34 33 27 26 26 23 26 34 36 34 33 32 30 29 29 29 29 30 32 33 34 33 33 33 34 35 35 32 30 28 28 28 29 29 29 29 28 26 23 23 23 23 23 24 26 29 31 32 32 31 32 35 36 37 37 38 39 40 41
37 37 39 37 34 34 33 34 33 28 27 35 39 38 37 35 32 31 33 33 32 31 31 31 32 31 31 33 35 35 33 30 29 28 29 30 29 29 28 28 27 24 22 22 22 22 23 25 26 28 29 31 32 32 33 35 37 38 37 36 37 38 40
41 41 47 47 43 42 41 38 36 30 27 34 41 41 39 37 35 35 36 35 33 32 31 30 31 31 32 34 35 34 31 30 30 30 30 29 27 27 26 26 24 23 22 21 22 23 23 24 25 27 28 29 31 32 34 36 37 37 36 35 35 36 39
42 45 51 51 47 44 42 40 37 31 28 33 40 43 41 39 38 37 35 34 33 33 32 32 33 33 34 35 34 33 32 32 31 30 28 26 25 25 24 23 21 20 20 21 22 22 22 23 25 27 28 30 31 32 34 35 36 35 32 31 32 34 35
43 44 46 45 44 43 42 40 35 30 28 31 38 45 44 41 39 37 35 34 34 34 34 34 35 35 35 35 35 35 35 33 30 28 26 25 24 23 21 20 19 20 20 21 22 23 24 25 27 28 30 30 31 31 31 31 32 31 29 30 30 30 28
43 42 43 42 43 43 41 39 36 31 29 30 36 43 43 40 39 38 36 36 36 35 36 36 36 36 36 36 36 35 33 31 28 26 24 23 21 21 20 20 21 23 24 25 25 25 26 27 28 29 29 29 29 29 28 28 29 29 28 28 28 25 21
40 42 43 42 42 42 40 39 37 33 30 29 32 37 39 40 40 40 38 38 37 37 38 38 37 37 37 37 36 33 30 27 24 22 20 20 21 22 23 25 27 28 29 28 27 27 27 27 28 29 28 26 27 27 26 25 25 24 23 24 23 21 19
39 41 42 43 43 41 39 39 38 35 31 30 29 31 35 40 43 42 40 39 39 39 40 39 39 38 38 36 34 31 27 22 18 17 19 24 27 28 29 31 31 30 29 27 26 26 26 26 27 27 26 26 25 24 23 22 21 20 20 20 20 18 18
36 38 40 42 42 40 39 40 39 36 33 30 28 28 31 37 43 44 42 41 41 41 41 40 39 38 36 34 31 28 23 18 17 20 24 30 33 33 33 32 30 28 27 26 25 25 25 25 25 25 25 25 22 20 20 20 19 17 18 18 17 17 17
31 33 37 41 41 39 39 40 38 36 34 32 30 29 31 38 43 44 43 42 42 42 41 40 38 37 36 33 30 25 22 20 21 24 28 32 33 33 31 28 26 25 24 24 24 23 23 24 23 23 23 22 20 18 18 17 15 14 15 16 16 17 17
27 29 32 37 39 39 39 40 38 35 33 31 30 31 35 40 42 42 41 41 40 40 38 37 36 34 33 31 29 25 23 24 26 28 29 30 30 28 25 22 22 23 23 23 23 22 22 22 21 21 21 20 19 18 17 15 12 12 13 14 14 15 15
27 27 28 31 35 36 36 36 35 32 31 30 32 35 38 40 39 39 39 39 38 36 34 33 31 29 27 27 25 23 23 25 26 27 27 27 26 24 22 21 22 22 22 22 22 21 20 20 20 20 20 19 18 17 14 12 12 11 11 12 12 13 13
23 24 26 30 33 33 33 33 33 32 33 34 36 39 41 39 38 37 36 35 34 32 31 29 26 23 23 22 21 21 22 23 24 23 23 24 25 25 24 23 23 23 22 22 21 19 19 19 19 20 19 17 16 15 12 11 12 12 12 12 12 12 12
27 28 29 29 30 30 30 31 32 33 35 37 39 40 39 37 35 33 31 30 29 27 24 23 22 21 21 20 20 20 21 22 22 22 22 23 24 25 24 24 23 23 22 21 20 19 19 19 19 19 18 17 16 14 12 12 14 14 13 13 13 13 15
35 35 35 34 33 34 34 36 37 38 38 39 39 37 34 32 29 27 25 23 21 19 18 18 19 21 22 22 21 22 21 21 22 22 22 22 23 24 24 23 22 22 21 20 17 16 17 18 18 18 18 16 15 14 12 13 15 15 14 14 15 16 17
35 35 37 39 41 41 40 39 38 38 37 36 34 32 29 26 22 19 17 16 15 15 16 16 18 19 21 23 23 23 22 21 22 22 21 21 22 22 22 21 21 22 21 19 17 16 17 17 17 18 18 17 16 15 14 15 15 15 15 15 14 15 18
36 36 37 39 40 41 39 37 36 34 32 30 28 25 23 20 18 17 16 15 15 15 16 17 18 19 20 22 22 21 20 19 20 19 19 20 21 21 20 21 21 21 20 19 18 19 19 19 19 19 19 18 17 16 15 16 16 15 15 15 14 16 19
38 38 38 37 36 35 34 32 31 30 28 26 24 21 20 19 19 18 16 15 15 16 17 18 18 18 18 18 17 17 17 18 18 17 18 20 20 20 20 21 21 20 19 19 20 20 20 20 20 20 19 18 17 16 15 15 14 14 14 15 16 17 19
32 33 34 34 32 31 29 27 26 25 24 23 22 21 20 19 20 20 20 20 20 20 20 18 17 17 17 16 16 16 16 17 18 18 19 20 20 19 20 20 19 19 19 20 21 21 20 20 20 19 19 18 16 15 14 14 13 13 14 16 17 19 20

ECMWFFLT1_700_spd_012.txt.gz
Wind_Speed
27 25 22 22 22 19 21 21 17 17 18 20 22 22 20 22 22 21 20 19 19 22 24 23 24 23 22 21 21 20 19 19 18 18 18 18 17 17 17 16 16 15 15 14 14 14 13 13 13 12 13 13 13 13 13 14 15 16 17 18 19 20 21
30 28 25 23 22 19 18 20 21 20 20 20 23 25 23 21 23 22 19 16 16 19 21 22 23 23 22 22 22 20 19 19 18 18 18 18 18 18 17 18 17 16 16 16 15 15 14 13 13 13 14 15 15 15 15 16 18 19 19 20 20 19 21
31 31 29 22 19 18 17 22 25 24 23 22 24 26 25 23 23 23 19 16 15 18 20 21 24 24 23 24 23 21 19 19 18 18 18 18 18 18 18 19 19 18 18 17 16 15 15 14 15 15 15 16 17 18 18 20 21 22 22 21 20 19 19
34 32 28 18 15 18 19 22 27 27 25 24 24 26 26 25 23 23 21 18 17 18 19 21 24 25 24 24 23 21 20 19 18 18 18 18 18 18 19 20 19 19 19 18 16 15 16 16 16 16 17 18 19 20 22 24 24 25 24 24 22 20 19
35 31 25 18 17 22 22 22 26 29 27 26 26 25 25 25 23 23 23 21 19 19 19 21 24 25 24 25 24 21 20 19 18 18 18 18 18 19 20 20 20 19 19 18 17 16 16 17 17 18 20 21 22 24 25 27 27 27 27 27 25 24 22
33 31 29 26 23 24 26 26 28 31 29 29 29 28 27 26 25 25 24 23 21 20 21 22 25 26 26 26 25 23 21 20 19 19 18 18 18 20 21 20 19 19 18 18 19 18 17 19 20 21 22 24 25 26 28 28 29 29 30 31 29 27 26
31 34 32 30 24 21 25 27 28 30 30 32 34 34 32 30 28 27 26 25 23 21 22 23 25 27 27 27 26 24 22 21 20 20 19 19 19 21 22 20 18 19 19 19 19 19 19 20 22 23 24 26 27 29 29 29 29 30 31 32 32 30 29
33 36 34 32 23 18 21 25 27 30 30 31 34 35 33 31 30 29 28 28 25 23 23 23 25 27 28 28 27 26 24 23 22 21 20 20 21 22 22 21 19 19 19 19 20 21 21 22 23 24 25 26 28 30 31 30 30 30 31 33 34 33 33
34 37 36 31 23 18 19 22 25 27 26 27 31 35 34 31 30 30 29 29 28 25 24 23 24 26 28 29 28 27 26 25 25 23 21 22 24 23 22 21 20 20 21 21 21 22 22 23 25 26 25 25 26 28 30 31 31 31 31 32 34 34 35
32 31 32 28 21 19 19 18 20 21 20 19 24 33 35 31 30 30 30 30 29 27 25 24 25 26 27 29 28 27 28 28 27 25 25 26 26 24 22 21 22 22 22 22 21 20 21 22 23 25 25 25 25 26 27 28 30 31 31 31 31 32 33
27 23 27 24 18 18 18 15 16 18 16 13 19 31 36 32 30 30 30 31 31 28 26 26 26 27 26 28 29 29 29 28 28 28 28 28 27 25 24 23 23 23 23 23 21 19 19 20 20 21 23 25 26 27 26 27 28 30 30 30 30 30 31
24 20 21 20 18 18 17 14 14 17 18 16 19 29 34 31 31 31 30 30 31 30 28 27 27 28 26 26 28 30 30 30 30 30 30 29 27 25 25 24 24 25 24 23 22 20 19 19 19 20 22 24 26 28 28 29 30 30 31 31 31 31 31
21 20 18 17 18 20 18 16 16 17 18 17 19 27 31 31 31 32 31 30 30 31 30 28 28 28 25 23 26 28 29 30 31 31 30 28 26 25 25 24 25 25 24 22 21 21 21 20 19 19 21 24 26 28 29 30 31 32 33 33 32 31 31
24 24 20 16 17 20 19 16 16 14 14 14 17 22 27 31 34 34 33 31 30 31 31 29 29 29 25 22 24 26 27 28 30 30 29 27 26 25 25 25 25 24 22 21 21 22 23 23 20 19 22 24 26 27 29 31 32 33 34 35 34 34 33
33 31 28 24 23 24 21 18 17 14 11 12 15 18 22 28 32 34 35 33 31 32 33 30 29 29 26 24 24 24 24 25 27 28 28 27 26 25 24 25 24 23 22 21 20 21 24 27 24 22 24 26 26 27 29 31 32 33 35 36 36 37 37
34 31 30 29 28 30 28 23 21 17 12 10 11 13 19 25 28 31 35 35 33 33 35 32 28 28 28 26 24 23 23 24 25 27 27 27 25 23 23 23 23 23 24 22 21 22 25 28 27 25 26 27 28 29 30 31 33 34 35 36 38 39 39
27 25 27 28 28 33 35 28 23 20 15 13 12 12 15 21 26 30 34 36 35 33 36 35 29 28 29 27 23 22 23 24 26 27 28 27 24 23 22 22 23 24 25 24 24 25 27 29 29 28 27 29 30 30 31 32 33 33 34 36 39 40 39
28 24 24 22 21 28 33 30 27 23 16 15 17 16 15 18 25 30 32 34 33 32 35 36 32 30 30 27 25 25 25 26 28 29 29 27 25 23 22 22 24 25 26 26 27 28 29 30 30 29 28 29 31 31 32 33 33 33 34 36 39 41 40
36 33 28 26 25 26 28 29 29 27 20 17 19 20 17 17 22 29 30 30 31 31 34 37 34 32 30 28 27 27 27 27 29 29 28 27 25 24 23 24 25 27 27 28 29 30 31 31 30 29 29 30 31 31 32 33 33 33 34 36 39 42 42
36 36 32 30 30 28 25 26 29 31 27 20 19 21 21 18 21 26 28 29 31 30 31 35 35 33 32 31 30 30 30 30 30 28 26 26 25 25 25 26 27 28 28 30 31 31 31 31 30 29 29 31 30 30 31 33 33 34 34 36 40 42 42
33 34 32 32 31 28 25 26 31 34 31 23 19 19 20 20 22 26 29 30 31 30 30 34 36 35 35 36 34 33 34 33 30 27 26 27 27 26 27 28 29 29 29 30 31 31 30 30 28 27 28 30 30 30 31 33 34 34 36 37 40 42 42
37 34 31 32 33 31 31 34 36 35 30 26 23 21 19 20 22 27 32 31 30 31 32 35 38 40 40 40 38 36 35 33 31 28 28 28 27 28 29 30 29 28 28 29 29 28 27 26 26 26 27 28 30 30 32 34 36 37 38 39 40 40 40
41 39 34 32 33 33 34 37 40 39 35 31 29 26 23 22 23 29 35 34 31 32 35 37 40 43 43 41 38 37 35 34 32 31 30 29 29 30 30 29 28 27 26 25 24 23 23 23 24 26 28 30 31 32 34 36 39 39 39 39 38 37 37
43 44 40 37 37 38 38 41 43 45 43 37 33 32 30 27 26 30 35 37 35 35 37 39 41 43 44 41 37 36 35 33 32 31 31 31 31 30 29 27 26 24 21 20 20 19 21 24 27 30 32 32 33 34 35 37 39 40 38 38 37 36 36
45 46 44 43 42 41 43 48 48 47 46 43 39 38 37 32 29 30 35 40 40 38 38 40 40 41 41 39 36 35 34 33 31 31 31 32 30 28 27 25 22 19 18 18 18 21 26 31 32 33 33 32 32 33 34 35 37 37 37 36 37 37 36
37 39 41 42 41 40 41 45 47 47 49 47 43 39 37 35 31 30 34 41 44 42 40 39 39 38 38 38 36 35 33 32 31 32 32 30 28 27 25 22 19 17 16 18 22 29 34 35 33 31 30 30 31 31 32 33 34 35 35 36 37 37 35
33 33 35 37 37 38 40 43 45 48 49 46 41 38 37 36 33 31 32 38 43 44 41 39 38 38 39 39 36 33 32 32 33 32 30 28 26 25 22 20 19 17 18 23 30 35 34 30 27 25 26 28 29 30 31 31 32 33 34 34 34 32 30
34 27 27 34 37 39 43 47 48 48 45 40 39 39 39 36 33 31 30 33 38 42 42 41 40 40 40 38 34 33 34 35 34 31 28 26 26 25 23 22 21 19 22 29 33 31 26 23 22 21 23 25 26 27 28 29 30 30 30 29 28 25 23
37 26 21 27 35 40 45 48 48 45 42 40 40 40 38 35 32 30 29 31 35 41 43 43 43 41 38 35 35 36 36 35 33 30 28 28 28 27 24 23 22 23 27 29 26 22 20 21 21 21 22 24 24 25 25 26 27 27 26 24 22 20 20
40 37 30 25 28 35 40 43 44 44 43 43 41 39 37 35 33 30 29 32 37 41 44 45 43 40 37 37 39 39 36 33 31 29 27 27 26 24 21 21 22 25 24 21 19 19 21 22 22 22 22 23 23 23 24 25 25 24 23 21 19 17 18
40 43 40 31 29 34 36 35 38 40 40 39 38 37 37 36 34 32 32 34 38 42 45 45 43 41 41 42 40 37 34 31 28 27 26 24 22 20 18 17 18 20 18 16 17 20 22 23 23 22 22 22 23 23 23 23 22 22 20 19 16 15 15
40 42 42 38 37 37 35 32 33 34 35 36 37 38 38 36 34 33 34 36 39 44 46 46 44 43 43 40 36 34 31 28 26 26 25 21 18 17 15 12 14 15 15 15 17 20 21 22 22 21 21 22 23 22 22 21 21 20 19 17 15 14 14
39 43 43 39 36 34 30 26 25 27 29 33 35 36 35 34 33 33 35 38 40 44 45 44 42 41 38 35 33 31 27 25 25 25 22 17 15 15 13 13 15 15 15 15 18 20 21 21 21 21 21 22 22 22 21 20 20 20 18 16 14 13 13
48 45 37 32 28 24 21 20 21 24 26 29 31 33 32 32 31 30 32 35 36 37 38 37 37 36 34 32 31 28 24 22 22 21 18 16 15 14 13 15 16 15 15 17 19 19 19 19 19 20 20 21 22 23 21 20 19 17 16 14 14 13 14
43 33 27 28 26 23 23 24 26 28 29 29 30 31 31 29 27 27 29 32 34 35 35 34 34 33 30 28 26 23 20 18 17 16 16 14 14 14 14 14 15 15 15 17 19 18 18 19 19 19 19 20 21 22 22 20 17 14 13 14 14 15 16
32 31 28 25 23 21 23 24 24 26 28 28 27 27 29 30 31 32 33 34 33 32 31 29 27 26 25 23 21 19 16 14 13 14 15 14 13 13 14 15 16 16 15 17 19 18 18 18 18 18 18 19 21 20 19 17 16 15 14 15 16 16 16
33 32 29 27 25 23 22 24 27 29 30 31 30 32 33 32 32 32 31 29 27 26 25 24 22 21 19 17 16 14 12 13 14 16 16 15 14 13 15 17 17 16 16 18 19 18 17 17 17 17 18 19 20 19 17 16 16 17 17 17 17 16 15
28 29 27 26 25 24 23 26 31 33 33 33 32 32 31 30 29 27 24 23 22 20 19 18 18 17 15 14 15 16 17 18 19 18 17 16 15 14 16 17 18 17 18 19 19 18 17 16 16 17 18 19 20 19 18 18 18 18 17 17 16 14 14

ECMWFFLT1_700_spd_015.txt.gz
Wind_Speed
37 39 38 38 37 33 29 26 24 22 22 22 21 19 19 19 18 17 18 18 18 19 21 23 24 25 24 23 22 21 19 18 17 17 17 17 16 15 14 14 14 14 13 12 11 10 10 8 8 10 8 7 10 12 12 12 13 13 14 14 14 16 17
38 38 39 39 35 31 28 26 23 20 20 23 24 22 20 20 19 17 17 16 16 17 19 21 23 24 23 22 22 21 20 19 18 17 16 16 16 14 13 14 14 13 13 11 10 10 9 8 8 9 9 9 12 14 13 14 14 14 15 16 17 18 18
41 39 39 35 30 28 27 25 24 21 20 23 25 23 21 21 20 19 18 16 15 15 17 20 22 23 23 22 22 22 21 20 19 17 16 16 16 14 14 15 14 13 13 12 11 9 8 8 8 9 10 11 14 16 16 15 15 15 16 17 18 20 20
37 38 38 32 28 29 28 25 24 23 22 24 25 23 22 22 21 21 20 18 17 16 16 18 19 20 21 22 23 23 23 22 20 18 16 17 17 15 15 15 13 12 13 12 10 8 6 6 7 8 10 12 15 16 17 17 16 16 17 18 19 21 22
31 35 39 34 30 31 29 26 25 25 25 26 27 26 25 24 23 23 22 20 19 17 16 17 18 19 20 22 24 24 24 23 21 18 17 17 18 17 15 14 12 12 12 12 10 8 8 7 7 8 10 12 14 16 17 18 18 18 18 19 21 22 23
30 32 35 33 32 31 29 28 26 24 25 27 28 28 27 27 26 25 24 22 21 20 18 19 20 19 19 22 26 25 25 25 22 19 18 19 19 17 15 13 12 12 12 11 10 10 10 9 8 9 10 12 14 15 16 18 19 20 20 21 23 24 25
30 29 29 28 29 29 29 29 26 22 23 26 28 28 28 27 26 26 25 25 24 23 22 21 20 20 20 22 26 27 26 26 23 21 20 20 20 17 15 13 13 13 12 10 9 10 11 11 11 11 12 14 15 15 15 16 18 20 21 22 23 25 26
35 32 30 28 27 28 29 30 25 21 23 26 28 28 27 25 26 27 28 27 26 25 24 23 22 21 21 22 26 27 27 26 24 23 22 22 20 17 15 13 13 13 13 10 8 7 8 10 12 13 14 15 16 15 16 16 16 18 20 21 22 24 26
39 36 34 31 29 27 28 30 27 22 21 25 27 28 27 26 27 28 29 29 28 27 26 24 23 23 22 23 26 28 28 27 26 26 25 23 21 17 14 13 13 13 12 10 8 7 6 8 11 13 14 16 16 16 17 16 17 18 20 22 22 23 24
36 34 33 33 32 29 29 32 30 23 21 22 25 28 29 28 28 28 29 30 29 28 26 25 24 24 24 24 25 28 28 28 28 28 27 25 21 17 15 15 14 13 12 11 10 9 8 8 10 12 13 14 15 16 16 17 18 19 21 23 24 25 25
34 33 33 32 32 33 33 32 29 23 20 20 22 26 29 29 28 27 27 28 29 29 26 26 26 26 26 25 26 28 29 29 30 30 29 27 23 19 17 17 15 13 13 12 11 11 10 10 11 12 14 15 15 16 17 18 19 20 21 23 25 27 28
33 31 34 36 36 37 35 31 26 21 19 17 18 22 26 27 25 23 22 24 28 29 27 27 27 27 27 26 26 27 28 30 31 31 30 28 24 20 19 19 17 15 14 13 13 13 13 12 13 14 16 16 17 18 19 21 22 22 23 24 25 28 29
33 32 34 38 39 38 34 29 25 22 19 18 18 20 22 24 23 21 19 20 23 28 29 28 28 29 29 28 27 26 27 30 31 31 30 28 24 22 21 20 19 17 15 14 15 15 14 14 14 15 17 18 19 20 21 23 25 26 26 27 27 28 29
29 35 37 36 38 37 33 29 25 23 22 21 21 22 22 23 23 21 19 17 19 24 28 29 30 30 30 29 28 27 26 27 29 30 30 27 25 24 23 22 20 18 16 15 16 16 15 15 15 16 19 21 22 22 24 25 27 28 29 30 30 30 31
17 27 32 33 36 35 30 29 28 25 24 23 24 24 24 22 22 20 18 17 18 21 26 29 31 31 32 30 29 28 26 25 28 29 29 28 27 27 25 23 21 18 16 15 15 16 17 17 18 19 20 22 23 25 26 27 29 29 30 32 33 33 33
12 17 23 28 33 32 27 27 28 26 24 24 24 25 25 23 20 18 16 17 19 21 24 28 31 32 32 31 29 28 25 25 27 28 28 29 28 28 26 24 22 20 18 17 16 16 18 19 21 22 23 23 25 26 27 28 29 30 31 32 34 35 35
15 16 21 26 29 28 26 26 26 25 25 26 26 25 24 22 20 18 18 19 21 24 23 26 30 32 31 30 29 27 26 26 27 27 28 28 27 27 26 24 22 21 20 20 19 19 20 21 23 24 24 25 26 27 28 28 29 30 32 33 35 36 36
20 20 22 24 25 24 24 23 22 23 26 29 29 27 25 23 21 20 20 20 22 25 25 25 28 31 31 29 27 27 27 27 27 27 27 27 27 26 25 23 22 22 22 22 21 22 22 23 24 25 26 27 28 29 29 28 29 31 32 34 35 35 36
24 23 21 20 22 24 27 30 27 23 24 29 31 29 26 24 23 22 22 20 21 25 26 26 27 29 29 29 27 27 28 28 28 28 28 27 26 25 24 23 23 23 23 23 23 23 24 24 25 26 27 27 28 28 28 28 30 32 33 33 34 35 36
25 26 25 25 24 26 31 34 29 22 20 24 28 29 26 23 22 22 21 19 20 25 27 27 28 28 27 28 28 28 29 29 29 28 28 27 25 24 24 24 24 23 23 24 24 24 25 25 26 27 27 26 25 25 27 29 31 33 33 33 34 35 36
29 30 31 30 29 29 30 31 28 25 24 25 25 27 28 24 20 19 20 19 20 24 27 28 27 27 26 27 28 29 30 31 31 30 29 27 25 25 25 25 25 25 25 25 25 25 26 26 26 25 24 23 23 24 26 29 31 33 34 34 35 36 37
29 30 31 32 32 30 30 31 31 29 27 27 27 29 31 28 22 18 18 19 20 23 26 27 27 27 27 27 27 29 30 32 33 33 33 30 27 26 26 27 27 26 25 25 26 26 26 25 24 22 21 20 20 22 26 29 32 34 34 34 35 36 37
26 25 26 29 34 35 34 35 35 32 29 29 28 29 29 28 24 22 20 19 20 23 26 28 28 29 29 28 27 29 31 33 35 35 35 33 30 27 26 26 25 25 26 26 27 26 25 23 21 19 18 18 19 24 30 34 35 35 33 32 33 34 35
27 26 21 21 29 34 36 36 36 33 31 32 32 32 30 28 27 26 25 22 20 21 25 29 30 30 30 29 29 30 33 35 36 37 36 34 30 27 26 24 24 25 26 26 27 26 24 21 19 17 17 18 21 26 32 36 35 33 32 31 31 32 32
28 29 28 28 29 31 31 32 34 34 33 34 37 38 36 33 32 31 30 28 25 24 25 28 31 32 31 31 32 33 35 37 37 38 38 34 31 28 25 25 26 26 26 26 27 25 22 19 17 16 18 21 23 27 31 32 31 31 30 29 29 30 30
28 30 35 37 36 36 37 38 38 37 37 36 37 40 40 38 38 38 36 34 34 33 30 28 30 33 34 34 35 36 38 38 39 39 38 35 32 29 26 27 28 27 27 27 27 24 20 18 17 18 20 22 24 26 28 27 27 28 28 28 28 29 29
32 32 33 35 36 38 41 45 45 42 40 39 37 38 41 41 42 44 42 39 41 40 35 30 30 34 37 38 37 38 39 40 41 41 38 35 34 31 30 30 29 28 27 27 24 22 21 18 17 18 19 21 24 25 25 25 25 26 26 26 26 27 26
36 35 29 27 31 36 38 43 46 44 42 43 43 42 43 43 44 47 47 46 46 43 37 34 33 36 40 41 39 37 39 41 43 41 38 35 34 33 33 32 29 27 26 26 25 23 20 17 16 17 20 24 27 26 25 25 25 25 24 24 24 24 24
35 36 29 22 25 33 38 40 41 38 36 38 42 44 45 45 45 48 49 49 48 44 39 37 37 38 41 44 43 40 40 42 42 40 37 35 34 34 34 31 28 27 28 28 26 22 19 17 17 19 23 27 29 28 26 26 25 23 22 22 22 22 22
32 32 30 23 20 26 34 39 41 40 36 32 34 38 42 44 47 48 49 47 45 44 42 41 40 39 43 46 47 45 45 44 43 40 37 36 36 35 31 28 28 30 30 28 23 19 17 16 16 17 21 25 28 27 25 25 24 22 21 21 21 20 20
33 30 29 27 25 24 27 32 37 40 39 34 33 36 40 45 48 49 46 45 44 45 45 44 41 41 43 47 50 51 50 48 45 43 39 37 35 32 30 30 31 30 26 23 18 15 13 14 14 16 20 24 27 26 24 23 23 21 20 19 18 18 18
37 36 34 32 33 32 31 31 32 34 36 37 38 40 42 45 49 52 51 48 46 45 45 44 43 42 44 48 52 54 53 51 49 45 40 36 33 32 32 31 29 24 21 17 14 10 10 13 16 19 22 25 26 24 22 21 21 19 18 17 17 16 16
38 40 40 38 38 38 39 39 39 38 38 39 41 44 44 42 43 48 51 50 47 46 46 45 44 44 46 50 54 56 55 52 47 42 37 35 35 35 32 28 23 20 17 15 13 12 15 19 24 26 25 25 24 22 19 19 18 17 16 15 15 15 14
37 39 42 43 43 42 42 44 45 45 46 46 46 49 49 44 42 45 50 50 50 50 51 50 49 49 50 51 52 51 47 43 40 37 37 38 36 32 27 23 19 17 15 14 14 16 19 23 26 26 25 24 22 19 17 16 15 15 14 14 14 14 14
37 38 40 43 46 47 46 46 45 46 48 49 49 51 55 52 47 50 54 55 56 55 53 50 49 47 44 42 40 38 36 36 37 38 36 34 31 26 22 19 16 14 12 12 13 13 15 18 21 22 22 21 20 16 13 13 13 13 14 14 14 15 14
34 36 38 41 46 49 49 49 49 47 45 47 50 52 54 52 49 53 56 54 52 48 44 41 40 37 34 31 32 34 37 37 36 34 30 26 24 22 19 17 14 11 12 14 15 16 17 18 18 19 19 19 18 13 11 12 13 13 14 15 15 15 15
30 32 34 37 45 53 55 54 53 50 49 49 50 51 49 43 42 47 49 44 38 34 32 33 33 31 30 31 34 36 34 32 29 26 23 21 20 18 14 12 13 17 21 24 26 26 23 20 18 17 17 18 16 12 11 13 13 13 14 15 15 15 15
25 25 23 19 22 34 43 48 49 50 49 46 43 39 36 34 35 35 33 30 28 25 25 26 27 29 33 33 32 29 28 25 23 21 19 17 16 14 12 14 19 23 26 27 27 25 20 17 16 16 16 16 15 12 11 12 13 13 14 15 15 15 15

ECMWFFLT1_700_spd_018.txt.gz
Wind_Speed
40 40 40 39 38 36 34 32 29 26 23 22 22 22 21 22 25 27 28 28 28 29 29 29 29 28 28 27 26 25 25 23 22 21 19 17 16 17 18 18 16 15 14 13 13 14 15 16 15 14 13 13 13 12 10 7 6 6 5 6 7 9 10
38 39 41 41 39 38 35 32 28 24 23 22 22 23 22 22 24 26 26 26 26 26 27 28 28 29 28 27 27 27 26 25 23 22 20 18 17 17 18 17 15 15 15 15 15 16 17 16 16 14 13 13 13 13 12 8 7 7 7 7 9 10 10
35 36 40 41 40 38 34 30 27 24 23 23 23 24 24 24 25 25 24 23 23 23 24 26 28 28 28 28 28 28 27 26 24 23 20 18 18 18 17 16 16 17 17 18 17 18 17 16 16 15 13 13 13 14 13 10 9 9 9 9 10 11 12
34 34 36 37 37 35 31 27 26 25 24 24 23 23 24 26 26 25 24 23 22 21 21 22 24 27 28 28 29 29 28 26 25 23 21 19 19 18 17 16 17 18 19 19 18 18 17 16 16 15 13 12 13 13 13 12 10 10 11 11 12 13 14
32 33 33 33 33 32 29 27 26 26 25 24 23 22 24 26 27 27 26 24 22 21 19 18 21 24 26 26 28 28 28 26 25 24 23 22 21 20 19 18 19 19 20 20 19 18 17 16 16 15 12 11 12 13 13 13 12 11 11 11 12 13 14
31 34 34 33 31 31 29 27 26 25 26 26 24 22 24 26 28 29 28 26 24 21 20 20 22 24 24 24 25 26 26 26 26 25 24 24 23 21 20 20 20 21 20 19 19 18 17 16 16 15 12 11 12 13 14 13 13 12 11 11 11 12 12
29 32 35 34 31 30 29 27 26 27 27 27 25 24 25 28 29 30 29 27 25 24 24 25 24 24 23 22 22 23 25 27 27 27 26 26 24 23 22 22 22 22 21 19 19 18 17 16 15 14 13 13 13 14 14 14 14 13 13 12 11 12 12
28 27 30 33 33 31 29 27 27 29 29 29 28 27 27 29 30 30 29 28 26 26 27 27 26 25 24 22 21 22 24 26 28 28 28 27 25 24 24 23 23 22 22 20 19 18 17 15 14 14 13 13 13 13 14 14 14 14 14 14 14 15 15
30 25 24 26 29 30 26 25 28 31 31 30 30 30 29 30 31 31 29 27 27 28 29 29 28 27 25 24 22 21 23 27 29 29 30 28 26 25 25 24 23 23 22 21 20 19 16 14 14 13 13 12 11 11 11 11 12 12 12 13 14 16 16
34 28 24 22 26 27 25 26 30 33 33 32 30 31 31 32 31 30 29 26 27 30 31 31 30 28 28 26 24 22 24 27 30 31 31 30 27 25 25 24 23 22 22 22 22 20 17 15 14 13 12 11 10 9 9 9 9 10 10 11 13 15 16
38 33 27 24 26 27 27 29 33 34 35 33 31 31 32 32 30 29 28 28 28 29 30 31 31 30 30 28 26 25 25 27 31 33 32 30 28 26 25 24 23 22 22 22 21 20 18 17 15 13 12 11 10 10 9 9 10 10 11 12 13 15 18
38 35 29 26 28 30 30 31 32 33 35 34 32 31 32 32 31 30 29 29 28 28 28 30 30 31 31 30 29 28 27 27 30 32 32 31 29 27 26 25 23 23 23 22 21 20 19 18 16 14 13 12 11 11 11 11 12 12 13 14 16 18 20
37 33 29 26 28 33 35 34 34 34 35 36 33 31 31 31 30 30 30 30 29 27 28 29 30 31 32 32 31 30 28 28 29 31 32 31 29 28 27 26 24 23 22 22 21 20 19 18 17 15 14 14 14 13 13 14 15 15 17 18 20 22 24
38 35 31 27 27 32 36 36 35 35 35 35 34 31 30 29 29 29 30 30 29 27 26 27 29 32 33 33 33 32 30 29 29 29 30 31 30 30 29 28 26 24 23 22 22 21 20 18 17 17 17 16 16 16 16 17 18 18 19 20 22 24 26
38 36 35 32 29 29 33 34 35 35 34 34 34 32 30 29 28 27 28 28 27 26 24 24 27 31 33 34 34 33 31 30 29 29 30 31 32 32 30 29 28 26 25 24 23 22 21 20 20 20 20 19 18 18 18 19 19 20 21 22 23 25 27
37 36 37 39 37 33 31 33 34 33 32 33 33 32 30 29 28 28 28 28 27 26 26 25 27 31 34 34 34 34 32 31 30 30 30 31 32 33 32 30 29 28 27 26 25 24 24 24 24 23 22 21 19 19 20 21 21 22 22 23 24 25 26
34 32 31 34 38 37 34 34 34 32 31 32 33 33 32 30 30 30 30 29 28 27 27 28 30 32 33 33 33 34 34 32 30 30 30 31 32 33 33 32 31 30 29 28 27 27 27 27 26 25 23 22 21 21 22 23 23 23 24 25 27 27 27
29 28 27 27 28 28 27 30 32 30 31 33 33 33 32 32 32 32 31 31 29 27 28 29 31 33 33 33 34 36 35 33 31 31 31 32 32 33 33 33 33 32 32 31 30 30 29 28 26 25 24 23 23 23 23 23 23 23 25 27 28 28 28
24 23 22 23 24 21 20 23 26 28 31 32 33 34 33 32 33 33 32 31 29 28 27 28 30 33 34 34 34 36 36 34 32 32 32 32 32 33 34 35 35 34 34 33 32 31 30 28 26 25 24 23 23 23 23 23 23 22 23 26 28 29 30
22 19 18 18 19 20 20 22 25 29 31 32 34 33 30 29 30 31 30 28 27 27 26 26 28 33 36 36 34 35 36 34 33 32 32 32 33 33 34 35 35 35 35 34 34 32 30 28 27 25 24 23 23 23 23 22 21 20 22 25 28 30 31
24 24 24 22 19 19 21 24 28 32 33 35 36 31 26 25 27 27 27 27 27 28 28 27 27 30 36 37 32 32 35 35 34 34 33 33 34 33 34 35 36 36 35 34 34 32 30 28 26 25 24 24 24 24 23 21 18 19 23 26 28 29 30
24 25 25 24 22 21 22 26 30 31 31 33 34 31 27 24 23 24 26 28 29 30 30 30 28 29 35 37 32 30 34 34 34 35 34 34 35 33 32 34 35 35 34 33 32 30 29 27 26 24 24 25 25 25 22 19 18 20 24 26 28 28 29
23 25 23 23 22 21 22 24 26 27 28 31 34 34 30 25 22 23 26 29 31 31 31 32 31 29 33 37 33 29 32 34 34 35 35 35 35 34 32 32 33 33 32 31 31 29 28 26 25 24 25 25 25 24 21 18 18 22 25 26 27 27 26
24 25 23 22 21 23 24 26 27 29 29 29 31 32 29 25 23 24 27 30 33 33 32 33 33 31 32 36 35 31 31 33 34 35 36 36 35 33 31 30 29 29 30 30 29 28 27 26 25 25 25 25 25 23 20 18 19 22 24 25 26 25 24
24 26 26 24 23 23 25 26 27 30 31 30 31 31 30 28 27 28 29 32 34 36 35 33 33 32 31 33 36 34 32 33 34 34 35 36 36 34 32 31 28 26 27 28 28 28 28 27 26 26 26 26 24 21 19 18 20 22 23 25 24 23 22
25 26 26 27 26 24 24 24 24 28 32 33 34 35 36 35 35 34 33 33 35 37 37 34 32 31 29 30 36 39 36 34 34 34 34 36 37 36 35 34 31 28 27 27 29 30 30 29 27 26 26 25 24 22 19 19 20 21 23 24 23 22 23
28 29 29 29 30 29 29 28 26 26 29 30 30 32 35 36 37 35 34 34 36 37 37 34 32 30 28 27 30 36 39 37 36 35 35 37 39 40 39 37 34 31 29 29 30 31 31 30 28 27 26 25 25 22 19 18 19 21 23 23 22 23 24
24 27 29 32 33 33 33 34 32 29 28 26 25 27 31 34 36 35 35 37 39 41 41 39 36 35 34 32 30 31 34 38 39 38 38 39 40 40 40 37 35 33 32 32 32 32 32 31 29 27 26 26 25 22 19 17 18 20 22 22 23 25 26
21 22 25 28 32 33 34 36 37 36 34 30 26 27 32 36 37 38 40 41 42 43 44 44 41 39 39 39 39 36 34 36 40 42 41 40 41 40 39 37 36 35 35 34 33 33 33 31 29 28 28 27 24 20 17 15 16 19 22 23 27 29 27
29 26 25 26 27 29 30 31 34 37 38 36 33 31 33 36 38 38 41 44 45 45 45 45 43 42 40 41 43 43 41 38 40 45 45 42 42 43 40 36 36 36 36 35 35 34 33 31 30 29 29 26 22 17 15 15 18 21 23 26 29 29 25
36 35 33 31 29 28 27 26 27 31 34 36 34 31 32 37 39 38 40 43 46 48 48 46 44 44 44 44 44 45 44 41 41 45 47 45 45 45 41 38 38 38 36 36 37 35 32 31 31 30 28 25 20 16 15 18 21 24 25 25 26 26 23
36 36 37 36 35 35 33 29 26 27 30 34 35 34 34 36 38 38 40 42 45 48 49 48 47 46 45 45 43 42 43 42 42 44 47 49 48 47 43 40 38 38 38 40 39 35 32 31 31 29 26 24 21 18 19 21 23 26 27 24 22 22 20
31 33 34 35 37 40 41 38 34 31 31 33 36 39 40 40 39 38 40 41 42 43 45 47 47 46 45 45 43 41 41 42 43 44 46 50 52 50 46 43 42 42 43 43 39 33 31 31 30 27 23 22 21 21 20 20 22 27 29 27 23 21 18
27 29 31 32 33 36 40 43 43 41 39 37 38 39 41 42 41 39 39 41 42 42 44 46 47 48 49 50 49 47 45 45 46 47 47 50 55 55 51 48 48 46 43 39 33 29 28 28 26 23 20 19 20 19 20 25 30 30 28 24 21 18 15
26 28 30 32 32 33 35 39 43 46 47 47 45 43 42 42 41 40 41 41 42 43 45 47 49 50 50 51 51 53 53 51 50 50 51 53 56 56 52 49 46 42 36 31 27 26 26 25 23 20 18 17 17 20 26 31 30 27 23 19 16 14 13
26 26 27 29 30 32 34 38 41 44 46 47 48 48 48 48 47 48 47 46 46 47 48 48 47 48 49 50 50 53 58 60 57 53 52 53 54 52 48 44 41 37 32 29 28 28 26 24 23 21 18 16 20 27 30 28 23 21 20 17 14 13 13
26 25 26 27 28 30 33 36 39 41 43 45 48 51 52 53 53 51 47 45 46 46 46 46 47 47 48 51 52 55 61 66 64 56 51 51 51 49 45 41 39 36 32 31 30 28 25 24 22 19 19 22 25 27 27 24 20 18 17 15 13 13 13
23 24 26 26 27 27 29 30 31 33 35 37 41 43 45 47 49 47 45 43 43 43 44 46 46 45 47 49 53 59 67 70 64 56 51 49 47 44 40 37 37 37 36 34 30 27 25 24 21 20 22 23 22 22 22 20 17 16 16 14 13 13 14

ECMWFFLT1_700_spd_021.txt.gz
Wind_Speed
36 32 30 31 33 34 35 34 31 27 24 24 24 23 24 24 24 25 27 30 31 32 32 33 34 34 33 31 30 28 27 27 27 26 26 24 23 22 22 21 19 19 19 18 16 15 14 16 17 17 17 17 16 16 15 13 11 10 9 7 6 5 4
41 36 32 31 32 34 35 35 34 31 27 25 24 24 25 25 25 26 27 29 30 31 31 31 32 33 33 32 31 30 29 28 28 28 27 26 25 24 23 21 20 20 20 18 16 16 17 18 18 18 18 18 18 17 15 13 11 10 11 10 8 7 7
41 39 35 32 31 32 34 36 36 34 31 28 26 25 26 26 27 27 26 27 28 29 30 31 31 31 31 32 32 32 31 30 29 29 29 27 26 24 23 22 21 21 21 20 19 18 19 19 20 20 20 19 19 18 16 13 11 11 12 12 10 9 8
39 39 37 34 32 32 33 35 35 35 34 30 27 26 26 26 26 26 26 25 25 27 28 29 30 30 31 31 32 33 32 31 31 30 29 27 26 25 24 23 22 22 22 21 21 21 21 22 21 21 21 20 20 19 16 14 12 11 12 12 11 11 10
39 40 39 36 35 34 34 35 35 35 34 32 28 27 27 27 26 26 25 24 23 24 24 25 26 28 29 31 32 32 32 32 31 30 29 28 27 26 25 24 23 22 22 22 22 23 24 24 23 22 21 20 20 19 17 15 13 11 11 11 11 11 10
34 37 39 37 35 34 33 34 35 35 33 31 28 27 28 28 27 26 26 25 24 23 22 23 24 25 27 29 30 31 32 32 31 30 29 28 27 27 26 24 23 23 24 24 24 24 25 25 24 23 22 21 20 19 17 15 14 12 11 11 10 10 10
27 29 35 37 34 31 29 30 32 32 31 29 28 29 30 29 28 27 26 26 26 25 24 24 25 26 27 28 29 30 31 31 31 31 29 28 28 27 26 25 24 24 25 25 26 26 26 26 25 24 22 21 20 19 18 16 15 14 14 13 12 12 12
25 25 30 34 32 28 26 28 29 29 28 29 30 32 31 29 28 27 27 27 27 27 27 27 27 28 28 27 28 29 29 30 31 30 29 28 29 28 27 26 25 26 27 27 27 27 27 27 26 25 24 22 20 18 18 17 16 16 16 14 14 13 13
27 26 27 31 31 27 25 26 27 28 29 30 32 32 30 29 28 27 27 28 29 29 29 29 30 29 28 28 28 28 28 29 30 30 29 29 29 29 28 27 27 27 28 28 28 28 27 27 26 26 24 22 20 19 18 17 17 17 15 14 13 12 12
29 29 28 31 33 28 25 26 28 30 31 32 33 31 30 29 29 27 27 28 30 31 30 31 31 31 30 29 28 28 27 28 28 29 28 28 30 30 29 28 28 29 29 29 29 29 28 27 27 26 25 23 21 19 18 17 17 16 14 12 11 10 11
22 26 29 33 36 30 26 27 30 31 32 32 32 31 29 29 29 29 28 28 30 31 31 31 33 33 32 30 29 29 28 28 28 28 27 27 29 30 29 30 30 30 31 30 30 29 28 27 27 26 25 23 21 19 18 17 16 15 13 12 12 12 13
19 21 26 33 37 33 26 27 28 30 31 32 32 31 30 30 30 29 28 28 29 31 31 32 34 34 33 31 31 30 30 29 29 27 26 26 29 30 30 30 31 32 32 31 30 29 28 27 26 25 24 22 21 19 18 17 16 16 15 15 15 15 16
21 19 23 33 39 36 29 28 28 27 28 30 31 32 32 31 31 30 29 28 29 31 33 34 35 35 34 34 33 33 32 31 30 28 26 25 27 31 31 31 32 32 32 32 31 30 29 27 26 25 23 22 21 20 19 18 18 18 17 17 18 18 19
26 24 23 29 37 40 35 30 29 28 27 28 31 33 33 32 31 30 29 29 29 31 34 35 35 34 34 35 36 36 35 33 32 29 26 25 27 31 32 31 31 32 33 32 32 31 29 28 27 26 25 24 23 22 21 21 20 19 19 19 19 19 20
28 29 25 24 30 40 40 33 31 30 29 29 31 34 33 31 30 29 29 30 30 31 34 35 34 33 33 35 36 36 36 35 34 32 29 26 27 30 32 32 31 32 32 32 32 31 30 29 29 28 27 26 24 23 23 22 20 19 19 19 19 20 21
25 27 27 24 26 36 41 37 33 32 33 32 32 33 33 31 30 29 29 30 31 31 32 34 35 33 34 35 35 35 35 36 36 34 31 29 27 29 32 33 32 32 32 32 32 32 31 30 30 29 28 26 25 24 23 21 20 20 19 19 20 21 23
21 22 25 24 24 33 39 39 36 34 34 35 34 33 33 31 30 30 29 30 31 31 31 33 34 34 34 34 34 35 36 36 37 37 34 31 29 29 31 34 34 33 32 33 33 32 31 31 32 31 28 26 25 24 23 21 21 21 21 21 22 23 24
16 18 23 25 24 28 34 37 38 33 31 33 35 35 34 32 32 33 32 31 30 31 31 33 34 34 32 31 32 34 36 37 38 38 36 34 31 30 30 33 35 34 34 34 34 32 32 32 33 31 28 27 26 25 23 23 23 23 23 23 24 25 25
18 16 21 26 27 28 30 33 34 32 30 31 32 33 32 32 33 34 33 31 30 31 33 34 34 33 31 31 32 33 34 36 38 38 38 35 33 32 32 33 34 35 34 35 34 34 33 34 34 32 29 28 27 25 24 24 25 25 25 25 25 25 26
24 18 18 24 28 30 30 31 31 31 32 33 33 32 31 31 33 33 32 32 32 33 34 34 34 33 32 33 34 34 34 35 37 38 38 37 35 34 33 33 34 35 35 36 36 35 35 36 35 33 31 30 28 27 26 27 27 27 26 26 25 26 28
28 23 19 21 25 27 29 31 32 32 32 33 32 30 29 31 32 31 31 33 34 34 35 34 34 34 35 35 36 36 35 36 37 38 39 39 38 37 36 34 33 34 36 37 37 36 36 37 37 34 32 31 30 29 29 28 28 27 27 26 27 28 29
29 25 22 21 22 23 25 26 27 25 25 26 29 29 30 32 34 33 33 34 33 32 33 34 35 35 35 34 35 35 35 36 37 38 39 39 39 39 37 36 35 35 36 37 37 37 38 39 38 36 35 33 31 31 31 30 29 29 28 28 28 29 30
26 25 25 24 23 23 22 22 22 21 20 21 25 28 31 32 33 34 34 33 30 30 31 33 35 35 34 33 34 34 33 35 38 39 39 40 40 40 38 37 36 36 36 37 39 40 40 40 39 37 36 34 33 33 33 31 31 30 29 28 29 30 30
23 24 27 28 27 24 21 19 19 19 20 22 24 26 28 30 31 33 33 32 30 29 30 31 31 32 33 33 33 32 32 33 37 40 40 40 39 39 39 38 37 37 37 38 39 40 40 40 38 38 37 36 35 35 34 33 32 30 30 29 30 30 30
24 26 29 30 29 27 23 20 19 20 21 24 26 26 27 29 31 32 34 33 31 29 29 29 27 26 27 28 30 31 31 32 36 40 41 40 39 39 39 38 37 37 38 38 39 39 40 40 39 39 38 37 37 36 35 34 32 31 30 30 30 30 28
27 28 30 30 30 29 27 24 23 22 24 26 26 26 27 28 30 32 35 35 34 32 30 28 26 25 24 25 27 30 30 30 34 39 41 40 38 38 39 39 38 39 39 39 38 38 40 41 40 39 39 38 38 37 36 34 32 31 31 31 30 29 27
26 28 29 31 31 31 31 29 28 27 27 28 28 28 28 29 31 33 35 37 37 36 32 29 26 26 26 26 28 31 30 29 31 36 40 41 39 38 39 40 40 41 41 40 38 38 39 40 39 39 40 40 39 38 36 34 32 31 31 31 29 27 26
23 25 26 28 30 29 29 30 31 31 32 32 32 32 32 33 34 35 36 38 39 36 34 32 30 29 29 28 29 32 32 28 28 29 31 35 38 39 40 41 41 43 43 42 40 39 38 38 38 39 41 40 39 38 37 34 32 31 31 30 28 27 27
18 19 21 24 26 28 29 29 29 30 32 34 35 35 36 37 38 38 39 41 40 37 37 37 36 34 33 32 31 32 32 29 26 25 25 27 30 35 39 42 43 44 45 45 43 40 39 37 37 39 41 41 40 39 37 35 32 31 31 29 27 26 25
15 16 17 19 21 23 25 28 29 29 29 32 34 34 35 37 39 40 41 41 40 39 39 40 40 38 36 34 33 35 35 32 29 30 31 29 27 30 35 40 43 45 46 47 46 45 42 39 38 40 41 41 40 39 37 33 31 30 30 28 25 24 24
18 18 19 20 21 22 23 24 26 28 28 30 32 33 34 36 37 38 38 37 37 38 39 39 41 41 39 37 36 38 39 38 36 36 37 37 35 34 34 37 41 44 46 48 49 48 46 44 42 42 42 40 38 37 33 31 29 29 28 24 23 23 25
20 21 22 23 24 26 27 27 28 28 29 29 31 32 33 35 36 37 37 37 38 39 39 40 40 41 41 40 40 40 41 42 42 41 41 43 42 40 39 40 41 42 44 46 48 49 50 49 47 46 42 39 37 34 31 31 29 27 25 24 23 24 24
20 22 24 26 27 28 29 30 31 32 32 32 32 32 32 32 33 35 37 38 40 41 42 43 43 43 43 42 41 42 44 45 44 44 46 48 48 49 48 45 44 45 45 44 45 49 53 54 52 49 43 39 36 34 33 32 30 26 25 25 24 24 23
20 22 23 25 27 28 29 30 32 33 34 35 35 35 35 34 34 34 35 38 40 41 43 44 45 45 45 45 44 45 46 47 48 48 49 50 52 56 56 51 48 49 49 46 46 50 55 55 52 46 40 37 36 35 33 31 27 26 27 27 26 26 25
19 21 22 23 24 25 27 28 30 33 35 36 37 38 39 39 39 38 38 38 39 40 42 44 45 46 47 47 47 48 48 49 49 51 53 54 55 57 58 57 55 55 54 51 48 48 52 53 48 42 37 35 34 32 30 27 25 27 29 29 28 27 26
17 19 21 22 22 23 24 25 27 29 31 34 36 38 39 41 42 44 44 43 42 42 42 43 45 47 49 50 51 51 52 52 52 52 53 55 56 56 56 57 59 59 59 57 53 50 48 46 42 39 37 33 31 29 27 26 28 30 31 31 30 27 27
19 19 21 22 22 23 23 23 25 26 28 30 32 35 37 39 40 42 46 48 49 48 47 46 46 47 49 51 53 53 53 54 55 54 53 52 53 55 56 57 58 59 59 59 57 53 48 43 39 37 36 33 32 32 30 30 32 32 30 31 30 27 29
23 23 24 23 23 22 22 23 24 25 27 29 31 33 35 37 39 41 44 47 50 53 54 54 53 52 51 51 52 53 54 54 53 52 51 51 52 54 56 58 58 57 56 57 56 50 44 41 39 36 35 36 36 35 34 33 33 31 30 30 28 28 30

ECMWFFLT1_700_spd_024.txt.gz
Wind_Speed
30 34 35 34 33 32 31 30 31 30 29 29 28 26 26 26 26 27 28 30 31 31 31 32 32 32 32 31 30 29 28 26 26 25 24 23 22 22 21 21 21 20 18 18 19 19 18 17 17 16 16 16 17 17 17 17 16 15 13 11 10 9 6
30 31 32 33 35 34 32 31 31 32 31 31 30 28 28 28 28 28 27 27 27 28 30 31 32 33 33 32 31 31 30 28 28 27 27 26 24 23 22 22 22 20 19 18 20 21 21 20 19 19 18 18 18 19 19 19 18 16 15 13 12 10 8
31 30 28 29 30 31 32 31 31 32 32 32 32 31 30 29 29 28 27 26 25 25 27 29 30 31 32 33 33 32 31 30 29 29 28 27 25 23 23 22 22 21 20 19 20 22 22 21 21 20 20 20 20 20 20 20 19 17 16 14 13 11 9
28 28 26 25 26 28 31 33 32 32 31 31 33 33 31 29 27 27 26 26 25 24 24 25 27 28 30 31 33 33 33 32 31 30 28 28 26 25 25 24 22 22 21 20 21 23 23 23 23 22 21 21 21 21 20 20 19 18 17 16 13 12 10
26 26 25 26 27 28 30 31 32 33 32 31 32 33 33 30 28 27 26 25 25 25 24 23 23 26 28 30 31 32 33 33 33 31 30 29 28 28 27 25 23 22 21 20 21 23 24 24 24 23 23 22 22 22 21 21 20 19 17 16 14 12 10
24 25 25 25 24 24 25 28 30 31 31 31 31 32 33 33 32 30 27 25 25 24 24 24 24 25 26 28 29 30 31 32 32 32 31 31 30 30 29 27 25 23 22 22 22 24 25 25 25 24 23 23 23 23 22 22 20 19 17 15 14 13 11
26 25 24 22 19 18 20 25 28 29 30 30 31 31 33 35 35 32 29 28 26 24 24 24 24 24 25 26 27 29 30 31 32 32 32 33 32 31 29 28 26 24 23 23 23 25 26 27 26 25 24 24 24 23 23 23 21 20 18 16 14 13 12
30 28 26 24 22 19 19 23 26 28 29 29 30 32 34 35 36 34 32 29 27 26 25 24 25 25 24 25 26 27 28 29 31 32 33 34 34 32 30 29 26 25 25 24 24 25 27 27 27 26 25 25 25 25 25 24 23 22 20 18 16 15 15
28 28 28 27 26 24 24 25 25 26 28 27 28 30 33 35 36 35 33 30 29 27 25 24 24 24 25 26 26 25 26 27 28 30 32 33 34 33 32 30 27 26 26 26 25 26 27 28 28 28 27 26 26 26 26 25 24 23 22 20 18 17 17
26 26 26 26 26 25 25 27 26 26 27 26 26 29 31 34 35 34 33 31 31 28 25 24 24 25 27 27 27 26 25 26 27 28 30 31 32 32 31 30 29 27 27 27 26 27 28 29 30 29 29 28 28 28 27 26 26 25 23 21 20 19 18
29 25 23 23 24 24 25 28 27 24 25 26 27 30 32 34 34 34 33 32 31 28 25 24 24 26 29 29 28 28 27 28 28 29 29 29 29 30 30 29 29 28 29 29 28 28 29 30 30 31 30 29 29 28 28 27 26 25 24 22 21 20 18
29 27 24 23 22 21 23 26 25 22 24 27 29 32 33 34 34 33 33 32 30 27 26 25 25 27 29 30 30 30 30 30 30 30 29 28 27 27 27 28 28 30 31 30 30 30 30 30 31 32 31 30 29 29 28 27 27 26 25 23 22 21 19
24 25 25 24 21 19 22 24 23 22 25 28 31 33 33 33 33 32 32 31 29 27 26 25 25 27 30 32 32 32 32 32 31 31 30 28 27 26 25 26 28 31 32 32 32 32 31 31 32 32 31 31 31 30 29 28 28 27 25 24 23 22 21
20 22 24 24 22 20 21 21 18 20 26 28 30 32 32 32 32 31 31 29 28 27 26 26 26 27 30 33 35 35 34 33 32 31 30 29 27 26 25 26 28 32 34 33 34 34 33 33 32 32 31 31 32 31 30 30 30 28 27 25 24 22 21
19 20 24 25 24 22 22 19 15 17 25 28 29 31 31 32 32 32 31 30 28 28 27 27 27 28 30 33 36 36 35 33 32 31 31 31 30 28 26 26 28 32 35 35 35 35 35 34 34 33 32 32 33 33 32 32 31 29 28 26 24 22 22
18 18 20 24 25 25 24 20 16 17 23 28 29 29 30 31 32 32 31 30 29 28 28 28 29 29 30 33 35 35 33 33 33 33 33 33 33 30 28 27 28 32 36 36 36 37 37 36 36 35 34 34 35 35 34 33 32 30 28 26 24 24 25
14 16 17 18 21 25 26 23 19 18 22 28 29 28 29 30 30 31 31 30 30 29 29 30 30 29 30 32 33 32 31 32 34 36 36 36 36 34 31 29 29 32 36 37 37 39 39 38 38 37 36 36 36 36 35 33 31 29 28 27 27 27 27
14 15 17 16 17 22 25 25 21 19 22 27 29 29 29 30 30 31 31 30 29 29 29 30 30 30 30 30 30 29 29 31 33 35 37 38 38 37 35 32 31 32 35 38 38 39 40 40 39 39 38 38 38 37 35 33 31 30 30 29 28 28 27
22 18 19 18 17 19 23 26 24 22 24 26 27 27 29 30 31 31 30 29 27 28 30 30 30 30 30 29 28 29 30 30 31 34 37 39 40 40 38 36 33 33 35 37 38 39 40 41 40 40 40 40 40 39 37 34 32 31 31 30 29 28 28
31 25 22 20 18 17 22 28 27 25 27 29 28 26 27 30 30 30 30 30 30 29 28 28 29 29 30 30 29 29 30 31 33 34 36 39 40 42 42 39 36 34 34 37 39 40 41 41 41 41 41 41 41 40 38 36 34 33 31 30 29 29 29
35 32 28 24 22 19 21 27 29 27 26 30 31 30 29 30 29 28 29 32 33 33 30 29 30 31 31 30 30 30 31 33 34 35 36 38 41 43 44 43 39 37 36 36 38 40 40 41 41 42 42 42 42 42 40 37 35 34 32 30 30 30 31
32 34 33 29 26 23 21 25 29 28 26 27 29 30 31 30 28 28 29 30 32 31 30 31 34 34 33 32 32 32 32 33 35 36 36 38 40 43 45 45 43 40 38 37 38 39 40 41 42 43 43 42 42 42 41 38 36 35 33 31 31 32 33
27 30 34 32 29 25 22 24 28 31 30 28 27 28 29 29 29 30 30 32 32 30 30 33 36 35 34 34 34 33 32 33 36 37 36 36 37 40 43 46 45 43 41 39 38 39 40 41 42 43 43 43 42 42 41 39 37 36 34 32 32 33 35
25 25 29 32 32 28 24 23 27 30 31 31 29 27 27 28 30 31 32 34 34 32 32 35 37 36 35 34 33 32 32 33 34 33 32 33 34 36 39 42 45 45 43 42 40 39 40 40 42 43 43 44 43 42 41 40 39 37 35 34 34 35 37
26 24 23 27 30 29 26 24 26 28 29 29 26 24 24 25 26 29 32 34 35 34 35 36 36 35 33 29 27 28 28 29 29 28 29 30 31 34 37 39 42 44 45 44 42 40 40 41 42 43 44 44 43 42 42 41 40 39 37 36 36 37 39
28 26 23 23 26 27 26 26 28 28 27 25 24 24 24 24 25 27 30 33 36 36 36 35 35 32 28 24 24 25 25 26 25 26 27 28 28 31 35 37 38 42 45 46 45 43 42 42 44 44 45 44 43 44 44 43 41 41 40 38 38 39 41
28 28 26 25 26 26 27 28 30 29 26 24 24 25 25 26 27 27 28 31 34 33 31 32 33 30 26 24 24 24 24 25 25 24 26 27 26 28 33 36 37 39 44 46 47 46 45 44 45 45 45 45 45 45 45 44 44 43 42 40 40 41 43
28 29 28 27 26 27 29 31 32 30 28 26 26 26 27 28 29 29 29 30 30 28 27 30 31 29 26 25 26 25 26 27 27 26 25 27 27 27 31 33 34 37 41 46 48 48 48 47 47 46 45 44 45 46 46 47 47 46 44 42 42 44 44
29 30 29 28 27 28 30 31 32 31 29 28 28 28 29 29 30 30 30 29 27 26 28 30 32 32 30 29 29 29 29 30 31 30 30 31 32 30 28 28 30 33 36 41 46 49 50 50 49 48 47 46 46 46 48 49 49 47 45 45 46 46 45
30 30 30 29 28 28 29 29 30 31 31 30 30 30 30 30 31 31 31 30 30 30 31 32 34 36 36 35 34 33 33 33 33 33 33 34 35 33 29 29 31 32 32 36 41 46 50 52 52 51 50 49 48 49 50 50 49 47 47 48 50 49 46
28 28 29 29 28 27 26 26 26 27 28 29 29 29 30 31 32 32 33 33 33 34 34 35 36 38 39 39 38 37 36 36 36 37 36 37 38 38 35 33 33 33 33 36 39 43 47 51 52 53 53 51 50 51 52 50 49 48 49 50 49 46 45
26 26 27 27 27 27 26 25 24 24 24 25 26 28 29 30 32 32 33 34 35 36 37 38 40 40 40 40 40 40 40 40 40 41 41 41 41 42 42 40 38 37 37 39 40 43 46 49 51 54 55 54 54 54 53 51 49 49 49 49 46 45 44
23 24 24 25 25 26 26 26 26 25 24 24 25 26 27 29 31 32 33 34 35 37 38 40 41 42 43 42 42 42 43 44 44 44 45 45 45 44 45 46 45 43 41 40 40 42 45 48 51 54 55 55 56 57 54 51 49 49 49 49 46 44 43
21 21 22 23 24 24 24 25 25 26 27 27 26 27 27 28 29 30 32 33 34 35 36 37 38 39 41 41 42 43 44 45 46 47 47 48 48 47 47 48 49 50 48 45 44 45 46 47 48 50 53 54 57 58 56 53 52 51 50 49 46 43 41
21 21 22 23 23 24 24 24 24 24 25 26 28 29 29 30 30 31 32 32 33 34 36 37 37 38 39 41 42 44 45 47 48 49 50 50 51 51 51 50 51 53 53 52 51 50 50 48 47 47 49 52 56 59 58 56 55 53 49 44 40 38 38
18 19 19 19 20 21 21 21 21 22 22 24 25 27 28 29 30 32 33 33 33 34 35 36 38 39 40 42 44 45 47 49 51 53 54 55 55 56 56 55 55 56 56 56 55 55 55 54 51 49 49 51 54 57 56 52 50 48 46 42 37 33 34
13 14 14 15 16 17 18 18 20 21 21 22 23 24 25 26 27 29 31 32 33 35 36 37 39 41 43 45 47 49 50 51 53 55 57 58 60 60 60 60 60 59 58 58 58 58 59 58 57 55 53 52 53 53 52 50 47 43 40 41 38 34 34
11 12 13 15 16 17 18 19 20 21 23 24 25 25 25 25 25 27 29 30 32 34 36 38 40 43 45 48 50 52 55 56 56 57 58 59 61 62 63 64 64 64 63 61 61 61 61 61 61 60 57 54 52 51 49 48 47 43 37 37 37 37 39

ECMWFFLT1_700_spd_027.txt.gz
Wind_Speed
20 19 17 17 19 24 28 30 31 31 31 31 30 26 24 26 28 30 30 31 32 33 33 34 34 33 32 31 29 27 27 26 26 25 24 23 21 20 19 19 19 18 17 15 13 14 16 18 19 19 19 19 18 20 22 22 22 20 18 17 16 14 11
21 19 19 18 18 20 23 28 31 31 31 32 32 30 28 26 26 28 30 31 31 31 32 33 33 33 32 31 30 29 28 27 26 26 25 24 23 21 21 20 20 19 18 17 15 15 17 20 22 21 21 21 21 21 23 24 24 22 20 19 18 16 14
23 21 19 19 19 17 17 22 28 31 32 31 32 33 31 29 27 27 28 29 30 30 31 32 32 32 31 31 30 29 29 28 28 27 26 25 23 23 23 22 22 21 20 19 17 16 18 21 23 23 23 23 23 24 25 26 25 24 22 21 19 18 16
23 22 20 19 19 18 18 18 22 27 32 32 32 32 31 30 29 28 26 27 27 28 29 30 30 31 31 31 31 30 30 29 29 28 27 26 25 25 25 24 23 22 21 20 19 18 18 21 24 25 25 25 25 26 26 27 27 25 24 22 20 19 17
24 22 20 19 18 17 17 14 15 19 26 31 32 32 32 31 31 31 29 28 27 26 26 26 27 29 30 31 31 31 31 30 30 30 29 28 28 28 27 26 24 23 22 21 21 20 19 21 24 26 26 26 26 27 28 28 28 27 25 24 22 20 19
27 23 20 19 17 16 15 13 13 15 19 24 29 31 32 33 34 34 32 31 29 28 28 27 27 27 27 29 31 31 31 31 31 31 31 30 30 30 29 27 26 25 23 22 22 22 20 21 23 25 26 27 27 28 29 30 29 28 27 25 23 21 20
30 27 21 20 20 18 16 13 12 14 15 18 23 28 32 34 35 35 34 33 31 30 30 29 29 28 26 26 27 29 31 32 33 32 32 32 32 31 31 29 28 27 26 25 24 24 23 22 23 25 26 27 28 29 30 31 30 29 28 26 24 23 21
26 28 25 23 23 21 19 18 17 16 15 16 20 24 30 34 36 36 36 34 33 33 32 31 30 29 27 26 25 25 27 30 32 33 33 33 33 33 33 32 31 30 29 27 26 25 25 24 23 25 27 27 29 30 30 31 31 30 29 28 26 24 22
20 25 27 27 26 25 25 24 21 18 16 16 18 20 25 31 35 36 36 35 35 35 33 31 31 30 28 27 26 24 24 26 28 30 32 33 33 34 33 33 32 32 31 29 28 27 26 26 25 25 27 28 29 31 32 32 32 31 30 29 27 25 23
20 21 24 27 27 27 26 24 22 20 17 15 15 18 22 26 31 35 36 37 37 35 33 31 31 30 28 27 27 26 26 25 25 27 30 32 33 34 34 33 33 33 32 31 30 28 28 28 27 27 28 29 30 32 33 33 33 33 32 30 28 26 24
21 21 21 22 23 23 22 21 21 20 17 15 15 16 20 24 27 32 35 36 37 36 34 33 32 30 28 28 28 28 27 27 26 26 27 29 30 31 32 33 33 33 33 32 30 29 29 30 29 29 29 30 31 32 33 33 34 33 33 32 30 27 25
21 22 21 22 21 21 20 17 18 19 15 14 16 17 20 24 28 30 32 34 35 35 35 34 33 31 29 29 29 29 28 28 28 28 27 28 28 27 28 30 31 31 31 31 30 30 31 31 31 31 30 30 31 33 33 34 34 34 34 33 31 29 27
16 18 18 19 21 22 23 19 19 19 16 14 17 19 21 24 28 30 32 33 33 34 34 34 33 31 30 30 30 30 30 30 30 30 29 28 27 26 26 27 27 28 28 28 30 31 32 32 33 32 31 31 32 33 33 34 35 35 34 34 33 31 29
12 12 13 16 17 19 22 23 22 20 16 13 16 21 23 24 26 29 31 33 33 33 33 33 33 32 31 31 32 32 32 31 31 31 30 29 28 27 27 27 27 26 26 27 29 31 32 33 34 33 32 32 33 34 35 36 36 36 35 35 34 32 31
10 11 12 16 17 16 18 22 23 21 17 13 15 21 24 24 26 28 31 33 33 33 34 34 33 33 32 32 33 34 33 32 32 31 30 30 30 30 30 29 28 27 26 26 28 30 33 34 35 35 34 34 34 35 36 37 38 37 36 35 34 33 32
16 16 15 14 12 13 15 19 23 23 21 17 15 20 24 25 26 29 32 33 34 34 35 34 34 33 33 34 35 34 33 33 32 31 31 31 32 32 32 30 29 29 28 27 27 29 32 35 36 37 36 36 36 37 38 39 39 37 35 35 35 33 32
23 20 17 14 11 12 14 18 23 24 22 20 17 19 25 26 27 29 32 32 32 33 33 33 33 33 34 35 34 34 34 33 33 32 32 32 32 33 33 32 31 30 29 29 29 29 31 35 37 38 38 38 37 38 39 40 39 37 36 36 36 35 34
26 22 19 17 15 13 12 16 22 24 22 20 18 20 24 27 28 30 32 32 31 31 31 32 33 33 34 34 34 34 34 33 33 33 32 32 32 33 34 34 33 33 31 31 30 30 31 34 38 39 39 39 39 39 41 41 39 38 38 37 37 36 35
29 25 21 20 19 17 14 15 18 22 24 21 19 20 23 28 30 30 31 32 31 32 33 32 32 33 34 34 34 34 33 32 32 32 32 32 32 32 33 34 35 35 34 33 32 31 32 34 37 39 40 41 41 41 41 41 40 39 39 39 38 37 37
30 28 25 22 22 21 19 17 17 20 24 24 22 21 22 28 31 30 31 33 33 33 33 31 32 33 33 34 34 33 33 32 32 31 31 31 32 32 33 34 36 37 37 36 34 34 34 35 37 40 41 42 43 43 42 42 40 40 40 40 39 38 38
30 28 27 24 23 24 24 22 19 19 22 24 25 24 23 25 30 31 31 33 34 33 31 29 30 31 32 33 33 33 33 32 32 31 31 31 31 32 32 33 35 37 38 38 37 36 36 36 38 40 42 43 44 44 44 43 42 41 41 41 40 39 39
28 27 26 25 24 26 27 26 22 20 20 22 26 28 26 25 29 32 32 33 34 33 30 29 28 28 29 31 32 32 32 32 32 31 30 30 30 31 32 33 34 36 38 39 38 38 38 38 39 40 43 45 45 46 46 45 43 43 43 42 41 40 40
25 25 25 24 23 26 29 29 25 22 21 21 25 30 29 26 29 34 34 33 34 32 30 30 29 28 29 30 31 32 32 30 30 29 29 30 30 30 31 33 34 36 37 39 40 40 39 39 40 41 43 45 46 47 47 47 45 44 44 44 43 42 42
23 23 23 22 21 22 27 30 28 25 23 21 24 30 30 27 29 35 35 34 33 31 31 30 28 28 30 32 33 33 30 28 29 30 30 30 30 31 31 32 33 35 36 37 39 40 39 39 41 42 43 45 46 47 47 48 47 46 46 46 46 45 44
23 23 22 20 19 19 22 28 29 27 25 22 23 28 30 27 28 33 35 33 31 30 31 30 29 28 30 33 35 34 31 30 32 33 32 29 28 29 30 30 30 31 32 34 36 38 39 39 41 43 45 44 46 48 49 49 49 48 48 48 49 48 47
23 23 22 20 19 18 18 23 27 28 27 24 24 26 29 28 28 30 32 33 32 31 30 30 31 31 32 32 33 33 33 32 33 32 31 30 28 26 27 27 26 27 28 31 33 36 36 37 37 40 45 47 47 48 49 50 50 50 50 50 50 50 50
22 23 22 22 21 19 18 19 23 26 26 26 25 26 27 28 27 28 30 31 32 30 27 27 30 34 36 35 35 34 33 33 32 30 31 33 31 27 26 27 26 26 27 29 32 33 33 34 33 35 41 48 50 49 49 50 51 51 51 51 51 51 51
22 22 22 22 22 21 20 19 20 23 24 25 26 27 27 27 25 26 27 28 28 27 26 25 28 32 35 37 38 37 34 32 32 31 32 34 33 29 28 28 28 28 28 29 32 33 33 34 34 35 40 46 51 52 50 50 51 52 52 52 53 52 52
23 22 22 23 23 23 21 20 21 23 24 25 26 27 28 27 26 26 27 26 26 26 26 26 26 29 32 35 37 38 35 32 31 32 33 33 32 30 30 30 30 30 30 31 32 34 34 35 36 37 39 43 48 52 53 51 51 52 53 54 54 54 53
25 25 24 23 24 24 23 22 22 24 26 26 27 28 29 28 28 27 26 25 24 24 25 27 29 30 32 33 34 35 34 33 33 33 33 32 32 33 32 31 31 32 32 32 32 34 35 36 37 39 39 39 43 48 53 54 52 52 53 55 56 55 55
27 26 26 25 25 24 24 24 24 24 26 26 26 28 30 30 30 28 27 26 25 25 26 29 31 31 31 32 33 34 34 35 35 35 34 34 34 35 33 32 33 34 34 34 33 34 35 36 39 41 42 41 41 43 48 54 55 54 55 55 56 57 57
28 28 27 26 26 25 25 26 25 25 25 26 26 28 29 29 30 29 28 28 28 28 29 30 32 32 32 32 33 33 33 35 37 37 36 36 36 36 36 34 34 35 37 37 36 37 37 38 40 43 45 45 44 43 46 52 56 58 58 56 55 56 59
29 29 28 27 26 26 25 26 26 26 26 26 27 28 28 29 29 29 30 30 31 32 32 32 33 32 32 33 33 33 34 35 36 38 39 39 39 40 40 40 39 40 40 41 41 43 43 43 44 44 45 46 47 48 49 51 55 60 61 59 56 55 57
29 28 28 27 26 25 25 25 26 27 28 28 29 29 30 30 30 30 31 31 32 34 34 34 34 34 33 33 33 34 35 36 38 40 41 43 44 44 45 46 45 46 47 47 47 48 49 49 49 47 46 45 46 48 51 53 56 58 60 60 59 58 59
28 28 28 27 27 25 24 24 25 27 29 30 31 32 32 32 32 32 32 32 32 33 33 33 33 34 34 34 34 36 37 39 41 43 44 45 46 47 49 50 50 51 52 52 52 53 53 54 53 52 50 49 47 47 48 51 54 55 56 58 58 58 60
27 27 27 27 27 25 24 24 25 26 28 28 29 30 31 31 32 32 32 32 32 33 33 33 33 33 33 34 35 37 38 40 42 43 45 46 47 48 50 51 53 54 55 56 56 56 56 57 57 57 56 55 53 52 51 51 51 51 52 55 56 57 60
26 25 25 25 25 24 23 23 24 25 25 25 25 26 27 28 29 29 29 30 30 31 32 32 33 34 35 36 37 39 40 41 43 44 45 47 49 50 52 53 55 57 59 59 59 60 60 60 59 58 59 59 59 58 56 54 53 52 53 54 54 53 56
23 22 22 22 22 22 21 20 20 21 21 21 22 23 24 25 26 27 28 29 29 31 32 33 34 35 36 38 39 40 42 43 44 46 48 49 51 53 55 57 59 61 62 61 61 62 62 62 61 61 62 62 63 63 62 59 57 55 56 56 54 52 53

ECMWFFLT1_700_spd_030.txt.gz
Wind_Speed
20 16 13 12 13 17 23 27 27 28 28 30 29 26 24 25 27 28 29 30 32 33 34 34 33 32 32 32 31 31 30 29 27 26 24 23 22 21 19 18 18 17 17 15 14 12 11 13 17 19 20 20 20 19 20 22 24 24 22 20 18 16 15
24 19 15 14 14 15 19 24 27 28 28 29 30 29 28 26 26 27 28 29 31 32 33 33 33 32 31 31 31 31 30 29 28 27 26 25 23 22 21 20 20 19 18 18 17 15 14 15 17 20 22 22 22 21 22 24 26 26 24 22 20 19 17
26 21 17 16 15 14 16 20 24 27 29 29 29 30 31 30 27 25 24 25 28 31 33 33 33 32 31 30 31 31 30 29 29 28 27 25 24 23 23 22 21 21 20 20 19 18 17 16 17 20 22 24 24 24 24 25 27 27 26 24 22 21 20
24 22 19 17 16 15 15 16 19 23 27 29 29 29 31 31 29 26 23 21 24 28 31 33 33 33 32 31 31 30 30 30 29 28 27 26 25 25 25 24 23 23 22 21 21 20 19 18 18 19 22 24 26 26 26 27 28 29 28 26 25 23 22
23 23 21 19 17 16 17 16 16 18 22 26 28 29 31 32 31 29 26 23 22 23 27 30 31 32 33 32 32 31 30 30 29 28 27 27 27 27 27 26 25 25 25 23 23 22 21 19 19 19 21 23 26 27 27 28 29 30 30 29 27 25 24
23 23 22 20 18 17 16 15 14 14 17 22 26 29 31 32 32 31 29 27 24 22 24 27 29 30 32 33 33 32 32 31 30 29 29 28 28 28 28 28 27 27 27 26 25 24 23 21 20 20 21 22 25 26 28 29 30 31 32 31 29 27 26
21 23 22 20 18 17 15 13 11 10 13 18 23 28 31 32 33 32 31 30 28 26 25 24 25 27 29 31 32 32 32 31 31 30 30 29 30 30 29 29 29 29 29 29 27 26 25 23 22 22 21 22 24 26 27 29 31 32 33 33 31 29 27
17 21 22 21 20 19 16 14 12 10 10 13 18 24 28 32 34 34 34 32 31 30 28 25 24 24 25 26 28 29 29 30 31 31 31 31 31 31 30 30 30 30 30 30 29 27 26 25 24 24 23 23 24 25 27 28 31 33 35 34 33 30 29
16 19 20 21 22 22 21 18 16 14 13 12 13 17 22 28 33 35 35 35 33 33 31 28 27 25 24 24 24 24 26 28 30 30 31 32 32 32 31 31 31 31 31 31 30 29 29 27 26 26 25 25 25 25 26 28 31 34 36 35 34 32 31
18 18 18 19 22 24 24 23 20 18 17 15 14 16 19 24 29 32 35 36 36 35 33 32 30 28 28 27 25 24 25 26 27 28 30 31 32 33 32 32 32 32 32 32 32 32 31 30 29 28 27 27 27 27 27 28 30 34 36 36 35 34 33
19 18 16 18 20 23 25 25 24 21 18 16 16 17 20 23 27 30 33 36 37 37 36 35 33 32 30 29 28 29 28 27 27 27 27 29 31 33 33 33 33 33 33 33 33 34 33 32 31 30 29 29 29 28 28 28 30 33 36 37 37 36 34
15 15 14 14 16 18 20 21 21 19 16 14 14 16 20 25 27 29 32 35 38 39 39 38 37 35 33 31 31 31 31 29 29 28 27 27 28 30 32 33 34 34 33 33 34 35 34 33 32 31 31 30 30 30 29 29 30 32 36 37 38 37 36
10 13 13 13 13 14 15 16 17 17 15 13 13 14 17 23 28 30 32 34 37 40 42 41 40 38 36 34 33 33 32 31 30 29 28 28 28 28 29 30 32 33 33 33 34 35 35 33 32 32 32 31 31 31 31 30 31 32 36 38 38 39 38
7 11 12 11 11 12 14 15 16 17 17 16 16 15 15 20 26 29 31 33 36 40 43 43 42 41 38 37 35 34 33 32 31 30 29 29 30 29 28 28 29 30 30 31 32 34 34 33 31 32 33 33 33 32 32 32 32 33 35 38 39 40 40
8 8 8 8 8 8 10 13 14 17 19 20 20 17 16 18 23 24 27 31 35 39 42 43 43 42 40 38 37 36 34 34 33 32 31 31 31 31 30 30 29 28 28 29 29 29 30 30 30 30 33 34 34 34 34 35 34 34 35 38 39 40 40
8 7 8 9 9 7 7 9 11 14 18 21 21 19 17 18 21 22 23 27 32 36 39 42 42 42 41 39 38 37 36 35 35 34 33 33 33 33 32 32 31 29 29 28 27 27 28 28 28 29 31 34 35 35 36 37 36 34 34 37 39 40 40
9 10 11 11 12 10 8 9 10 11 13 16 20 21 19 18 20 23 24 24 27 30 35 39 40 41 41 40 39 38 37 36 36 35 35 35 35 35 34 34 33 32 31 29 28 28 28 28 28 29 30 33 35 37 37 38 37 35 34 36 39 40 41
15 14 15 17 16 13 11 11 12 12 11 12 15 19 21 20 20 24 26 24 24 27 32 35 37 38 38 39 39 39 38 37 37 36 36 35 36 36 35 35 35 34 33 32 30 29 29 29 29 30 31 33 35 36 38 39 38 36 35 36 38 40 41
20 19 20 22 20 16 14 14 14 14 14 13 13 16 19 21 21 23 26 27 26 27 29 31 33 35 36 37 38 38 38 38 37 36 36 36 36 36 36 35 35 35 35 34 33 32 31 32 31 31 32 33 35 36 37 38 39 38 37 36 38 40 41
21 22 22 23 22 19 17 16 16 17 17 16 16 16 17 19 19 20 25 30 30 28 27 28 29 31 33 34 36 37 37 38 37 36 36 36 36 36 36 35 35 35 35 36 36 35 34 34 34 33 33 34 35 35 36 37 39 39 38 37 37 39 42
20 20 20 20 20 19 19 19 19 19 20 20 19 18 17 17 18 18 22 29 32 30 28 28 28 29 30 31 33 35 36 36 36 36 36 36 36 36 35 34 34 34 35 36 37 37 36 36 35 35 35 36 37 36 36 36 38 39 40 38 37 39 43
19 19 19 19 19 19 19 20 21 22 22 22 22 20 18 17 18 19 19 24 31 33 30 30 30 30 30 31 32 33 35 35 35 36 36 36 36 35 35 34 33 34 35 36 37 38 38 38 37 37 37 37 38 39 38 37 38 39 40 39 38 40 43
21 20 19 19 19 19 19 20 21 23 24 24 23 22 20 18 19 20 19 21 28 33 33 31 32 32 32 32 33 33 34 34 34 35 36 36 35 35 34 33 33 33 34 35 37 38 38 39 40 40 39 38 38 39 40 39 39 39 40 40 40 41 44
22 20 20 20 19 18 18 18 20 23 26 26 25 23 22 21 20 21 21 20 24 31 35 33 32 33 34 33 34 33 33 34 34 35 35 35 35 34 34 33 33 33 33 34 35 37 38 39 41 41 40 39 38 39 40 41 41 40 40 41 42 42 44
21 20 20 20 19 18 17 17 18 22 26 28 27 25 23 22 22 24 25 23 23 28 34 34 32 33 35 34 33 33 33 33 34 34 34 34 34 34 33 33 32 32 32 33 35 37 38 40 42 42 42 41 39 38 39 41 42 42 42 42 43 44 45
20 20 19 20 19 18 18 17 17 20 24 27 28 27 25 23 24 26 28 27 24 26 32 35 35 35 35 34 33 32 32 33 33 34 34 34 34 35 34 34 32 31 31 32 35 37 39 40 42 43 43 41 39 37 36 38 41 43 43 43 45 46 47
21 20 18 19 20 19 19 18 16 17 20 24 27 29 28 25 24 26 28 28 25 25 29 36 38 37 35 34 33 33 33 34 35 36 36 36 36 36 36 37 37 35 33 32 34 37 39 40 42 42 42 42 40 37 34 34 36 40 42 43 45 48 49
23 21 19 19 20 20 20 19 18 17 18 21 25 27 28 27 25 24 25 25 24 25 28 32 36 37 36 34 34 34 34 35 36 37 37 38 38 38 39 39 39 38 37 36 36 37 38 39 41 41 41 41 40 38 35 33 34 36 37 40 45 48 50
25 24 22 20 20 21 21 20 19 18 18 19 22 24 25 26 25 23 23 22 23 26 29 30 32 34 35 34 35 35 35 35 36 37 38 38 38 39 40 39 38 38 38 37 37 37 38 39 40 41 41 41 39 38 37 35 35 34 34 35 41 47 50
28 27 25 22 20 20 20 21 21 20 19 19 20 21 22 23 23 23 23 22 22 25 28 29 31 32 33 34 35 36 36 36 37 38 38 38 39 39 39 39 40 40 40 39 38 38 39 40 40 40 40 40 39 38 38 37 38 37 35 34 37 44 49
30 29 27 24 22 20 20 20 20 21 21 20 19 20 20 21 22 22 22 22 23 25 26 28 29 29 28 28 28 29 31 32 33 35 37 38 39 39 39 40 41 42 42 41 40 39 39 40 40 40 40 39 39 38 38 39 40 40 39 38 38 41 46
29 29 28 25 23 22 21 21 20 21 21 21 20 19 19 20 21 21 22 23 25 26 27 27 27 25 24 24 24 25 26 26 27 29 32 34 35 36 37 39 41 42 42 42 41 41 40 40 41 41 41 41 40 39 39 40 41 41 41 41 42 43 43
29 29 27 25 24 24 23 23 22 21 21 21 21 20 19 20 20 20 23 25 25 27 28 28 27 26 25 25 25 25 26 26 27 28 29 30 32 33 36 38 39 40 40 41 40 40 39 39 40 41 42 42 42 41 41 42 43 44 45 45 47 47 45
28 28 26 26 26 26 25 24 24 23 22 22 22 21 21 21 21 21 23 25 25 25 26 26 26 26 26 25 26 26 27 28 29 29 30 31 31 33 35 37 38 39 39 38 38 38 39 40 41 43 43 44 43 43 43 45 47 48 48 48 49 49 49
28 28 27 27 27 27 27 26 26 25 25 25 24 24 24 24 24 24 24 25 25 25 24 24 24 24 25 25 26 28 29 29 30 30 31 31 32 32 34 35 37 38 39 39 40 41 42 44 45 46 47 48 48 49 49 50 51 51 51 51 52 51 51
29 30 30 30 30 30 29 29 28 28 28 27 27 27 26 26 26 26 25 26 26 26 25 25 24 24 24 25 27 29 30 30 31 31 31 31 31 32 33 35 36 38 40 42 44 45 47 47 47 47 48 49 51 52 52 53 53 53 53 55 56 57 56
32 32 32 32 32 31 31 30 30 29 29 29 28 28 28 28 28 28 27 26 26 26 26 25 25 25 25 25 27 29 30 30 31 32 32 32 33 34 35 36 38 40 42 44 46 48 50 52 52 52 51 51 51 52 54 55 55 56 56 58 59 60 60
34 33 33 33 33 32 32 31 30 30 30 29 29 29 28 28 27 27 26 25 24 24 25 25 25 25 26 26 27 28 29 31 32 33 34 36 37 38 39 41 42 44 46 48 49 51 53 55 57 58 58 58 56 56 57 58 58 58 59 61 62 62 61

ECMWFFLT1_700_spd_033.txt.gz
Wind_Speed
24 25 24 18 19 27 29 26 25 24 24 23 22 22 22 21 22 24 26 27 29 31 33 34 34 32 30 29 28 27 27 28 27 26 25 25 25 24 21 18 16 15 13 12 10 9 10 12 15 18 19 20 20 20 19 18 18 19 20 20 19 18 16
27 25 26 22 18 22 27 26 25 25 24 23 23 23 24 24 23 23 25 26 27 28 30 33 34 33 32 30 29 28 27 28 28 27 26 26 26 24 22 20 18 17 15 13 12 11 11 12 14 16 18 20 22 21 21 20 19 20 22 22 22 21 19
30 27 26 24 19 18 22 24 24 24 24 24 23 23 24 25 24 22 22 23 25 27 28 30 32 33 33 32 30 29 28 28 29 27 26 26 25 24 23 21 20 19 17 17 16 14 14 14 14 15 17 20 22 23 22 21 21 21 23 24 24 23 22
30 28 27 24 20 18 19 20 21 22 24 24 23 23 24 24 24 23 21 20 22 26 28 29 30 31 32 32 31 30 29 29 29 28 26 26 25 25 25 24 22 21 20 19 19 18 16 16 15 15 17 18 21 23 23 23 22 22 24 25 26 26 25
29 30 28 25 23 22 21 19 19 19 21 22 23 24 25 24 25 25 23 20 19 21 24 26 28 29 30 31 31 31 29 29 29 29 28 27 27 27 26 25 24 23 22 21 21 20 19 18 17 16 17 18 19 22 24 24 24 24 25 26 28 28 27
30 30 29 27 26 25 23 19 17 17 17 19 21 24 27 27 26 26 25 24 21 19 20 24 27 29 29 29 30 30 30 29 29 29 29 29 29 28 27 26 25 24 24 23 23 22 21 21 20 19 19 19 19 20 22 24 25 25 25 27 29 29 29
29 30 27 27 27 25 22 19 17 17 17 18 21 23 27 28 27 27 27 26 25 23 21 22 24 27 28 29 30 30 30 29 29 29 30 30 30 29 28 28 27 26 26 26 25 24 23 23 22 22 21 21 21 21 22 23 25 26 26 27 29 30 31
27 28 27 28 29 24 20 18 17 17 17 18 21 23 25 28 28 29 28 27 27 27 25 22 21 22 25 28 30 31 30 30 30 30 30 30 30 30 29 29 29 28 28 28 27 26 26 25 25 24 23 23 23 23 23 23 24 26 27 27 29 31 32
24 28 27 26 26 24 22 19 17 18 16 15 18 20 22 26 28 29 29 29 28 28 27 25 23 20 21 25 28 29 30 31 31 31 31 31 31 31 30 30 30 29 29 30 29 29 29 28 28 27 26 25 25 25 25 24 23 25 26 27 28 31 32
22 25 25 24 23 22 24 23 21 20 18 15 15 17 19 22 25 28 30 31 30 28 27 27 26 23 22 23 24 26 28 30 31 32 32 32 32 31 31 30 30 30 30 30 31 31 31 31 30 29 28 28 27 27 26 26 25 24 25 26 28 30 33
20 24 25 25 23 22 23 25 25 24 21 18 16 16 17 19 22 27 29 30 31 30 29 30 30 28 25 23 23 24 26 27 29 30 31 32 32 31 31 31 31 31 31 31 31 32 32 32 32 31 31 30 29 28 27 27 26 25 25 25 27 29 32
21 24 24 22 20 19 20 23 26 25 23 21 18 16 18 19 21 25 28 30 32 33 34 33 33 33 30 27 26 26 26 26 27 28 28 28 29 29 29 30 31 32 32 31 31 32 33 32 32 32 32 30 30 30 29 28 28 27 26 26 26 28 31
20 21 19 16 15 15 16 17 21 22 21 20 18 17 19 20 21 24 27 29 32 36 37 37 36 36 34 31 30 29 28 28 27 27 26 26 26 27 28 29 30 31 31 30 31 32 33 33 32 31 32 31 30 30 30 29 29 29 28 28 27 27 29
14 15 15 15 14 14 14 15 15 16 17 17 18 18 18 19 20 23 26 29 32 37 39 39 39 39 38 35 34 32 31 30 28 27 26 25 24 25 26 27 27 28 29 29 29 30 32 34 33 32 32 32 31 31 31 31 31 31 30 30 29 28 28
8 9 12 14 15 15 16 16 15 15 16 17 18 18 18 17 16 18 22 28 33 36 38 40 40 41 41 39 37 35 33 32 30 29 27 26 26 26 26 27 26 26 27 27 27 27 29 32 33 33 32 32 32 32 32 33 33 33 32 31 31 30 29
6 7 9 11 13 14 15 17 18 18 18 18 18 19 19 18 16 16 18 23 30 35 38 40 40 40 42 41 39 37 36 35 33 31 30 29 28 27 27 28 28 28 28 28 28 26 27 29 32 32 31 31 32 31 32 33 33 33 33 33 32 32 31
5 6 8 9 10 11 13 16 17 17 18 19 20 20 21 20 18 18 18 20 25 32 37 39 38 37 39 41 41 40 39 37 35 34 32 31 31 30 30 30 30 30 30 31 31 30 28 28 30 31 29 29 29 30 30 31 31 31 32 32 33 33 33
5 6 8 8 8 9 11 12 13 15 18 19 20 20 20 20 20 19 19 19 21 27 34 37 35 33 34 38 42 43 41 39 37 36 35 34 34 34 33 33 33 33 33 34 34 34 32 30 30 31 30 28 28 28 29 29 30 30 30 30 32 33 34
7 5 7 9 9 9 11 12 13 15 17 18 19 20 20 20 20 19 19 20 21 24 28 32 33 30 29 32 37 40 41 40 39 38 37 36 36 36 37 36 36 36 35 36 37 37 35 33 31 31 31 30 29 29 29 29 30 30 29 29 30 32 34
12 11 10 11 12 12 14 17 17 16 17 18 19 20 20 20 20 20 18 18 20 21 22 27 31 30 27 28 32 35 37 38 38 38 38 38 38 38 38 38 37 37 37 37 37 38 37 35 33 32 32 32 31 31 30 31 31 31 31 30 29 31 34
17 16 14 14 16 17 18 19 19 18 19 20 20 21 21 21 21 22 20 17 18 19 20 23 28 29 26 24 27 31 33 35 36 37 38 38 38 38 38 38 37 36 37 37 38 37 37 36 35 34 33 33 33 33 32 32 33 33 33 32 31 31 32
15 15 17 19 21 21 20 20 21 21 21 21 21 21 21 21 21 21 20 18 18 19 20 22 26 29 26 23 24 27 29 31 34 36 37 37 37 38 37 37 36 36 36 37 38 37 37 37 36 35 34 34 34 34 34 33 34 34 34 33 32 32 33
17 19 21 23 23 22 23 23 23 22 21 21 22 22 22 21 20 20 19 19 20 20 21 21 23 26 27 25 24 26 27 29 31 33 34 35 36 36 37 36 36 36 36 37 37 37 37 37 36 36 36 35 35 35 34 34 34 33 34 34 34 34 35
21 21 21 22 22 22 24 24 24 24 23 23 23 24 23 22 21 20 19 20 20 20 20 20 19 23 27 27 26 26 27 27 28 30 32 33 34 34 35 36 37 37 37 36 36 37 37 37 37 37 37 36 36 36 36 35 35 34 34 35 35 35 37
21 18 18 21 21 21 21 22 24 25 24 24 25 25 25 24 23 22 20 19 20 21 21 20 18 20 27 30 28 27 27 27 27 28 30 31 31 33 35 36 37 37 37 37 37 37 38 38 38 38 38 38 37 37 37 37 37 36 35 35 35 36 37
19 18 19 21 21 20 19 21 23 24 24 25 26 26 27 26 25 24 23 20 20 21 22 22 20 20 25 31 32 29 28 29 29 29 30 30 31 33 35 36 37 38 38 38 38 39 39 40 40 40 40 40 39 38 37 37 38 37 35 34 35 36 37
20 21 22 22 22 20 20 20 21 22 23 24 24 26 28 28 27 27 25 23 21 20 21 23 22 21 22 29 34 33 31 31 32 31 31 31 32 34 36 37 38 39 39 39 41 41 41 42 43 43 42 41 40 39 37 36 36 37 35 34 34 35 36
22 22 23 23 22 20 20 21 21 22 22 22 22 25 28 29 29 29 28 26 24 22 22 24 25 24 23 26 33 36 35 34 35 35 34 33 34 36 38 38 39 40 41 42 43 43 43 43 44 44 44 43 41 40 38 36 36 36 35 34 34 36 37
24 24 24 24 23 21 20 20 22 23 23 22 22 23 25 28 30 30 30 29 27 25 25 26 28 28 26 26 31 37 38 37 36 37 36 36 37 38 38 39 40 41 41 42 43 44 44 44 44 44 44 44 42 41 40 38 38 38 37 35 35 36 37
26 25 25 26 26 23 20 20 22 24 25 23 22 22 23 24 26 29 31 32 30 27 26 27 28 29 28 27 30 36 40 40 38 39 39 39 39 40 40 41 41 42 42 43 44 45 45 45 45 45 45 45 45 44 42 41 40 40 39 37 37 37 37
26 26 27 28 27 25 23 22 22 24 25 25 23 21 21 22 24 26 29 31 31 29 27 26 27 27 27 27 30 34 40 42 41 41 41 42 43 43 43 42 43 43 43 44 45 46 46 46 46 46 47 47 47 45 43 42 42 42 41 40 39 38 37
26 28 28 28 28 28 27 25 23 23 25 26 24 22 21 22 23 23 25 27 28 28 27 26 25 24 25 27 29 34 40 43 44 43 43 45 45 45 44 43 43 43 44 44 45 46 46 46 46 47 47 47 45 44 42 42 42 43 43 42 41 39 39
25 27 28 29 29 29 29 29 26 24 24 25 25 23 22 21 21 21 22 23 25 26 27 26 25 25 26 28 30 33 37 40 41 41 41 41 41 40 39 39 39 41 41 42 43 43 44 45 46 46 45 43 41 39 38 38 39 39 40 41 41 40 41
23 25 27 28 29 29 30 31 29 27 25 25 24 23 22 21 21 20 20 21 21 23 24 25 26 26 27 28 29 30 31 33 33 33 32 32 31 30 31 31 32 34 36 37 39 41 41 42 41 40 39 38 36 36 35 35 36 36 37 40 42 42 43
23 24 25 27 29 30 31 31 30 29 28 25 23 23 23 22 21 20 20 19 19 19 21 24 26 27 27 27 27 28 28 27 27 26 26 25 25 25 25 26 27 28 30 31 33 35 36 36 36 36 36 36 36 36 37 37 36 36 38 41 43 44 44
24 25 26 27 28 30 31 30 30 29 28 26 24 24 24 24 23 21 20 20 20 20 22 23 25 26 27 27 27 27 26 25 24 25 24 24 24 24 24 25 25 26 27 28 29 31 32 33 33 34 35 37 37 38 40 40 40 40 41 43 44 46 47
27 28 28 28 28 29 30 30 29 28 27 26 25 25 25 25 24 23 22 22 22 22 23 24 24 25 26 26 26 26 25 24 24 25 25 24 24 25 25 25 25 26 27 28 29 30 32 33 34 35 36 38 39 40 42 43 43 44 45 46 47 48 49
31 30 29 27 28 29 29 28 28 27 27 27 27 27 27 27 26 25 25 24 24 24 24 25 25 25 25 25 25 25 24 24 25 25 24 23 24 25 25 25 27 28 29 30 31 33 34 36 37 39 40 41 42 43 44 45 45 46 48 49 49 49 50

ECMWFFLT1_700_spd_036.txt.gz
Wind_Speed
35 35 33 28 24 22 21 25 26 25 24 21 20 23 24 23 20 20 21 24 26 26 27 28 28 28 27 26 26 25 25 25 26 26 25 25 23 21 20 19 17 15 14 12 10 8 9 12 15 15 15 15 16 17 17 16 16 15 15 15 16 16 15
35 34 32 28 24 22 23 26 28 28 27 24 24 26 26 23 21 21 21 22 25 26 26 27 28 28 27 26 26 25 25 25 25 25 25 25 24 23 22 21 19 17 15 13 11 10 10 11 13 14 14 15 16 17 17 17 17 16 16 16 17 17 17
37 33 30 28 24 22 23 26 29 30 30 28 28 27 26 24 21 20 19 19 22 25 26 27 27 27 27 27 27 26 25 24 24 24 24 25 24 24 23 22 20 19 17 15 14 13 12 12 11 12 12 13 15 17 17 17 17 18 17 16 17 18 18
40 34 31 30 27 22 21 22 24 27 29 30 29 27 25 24 22 20 17 16 18 21 24 26 26 27 27 27 28 27 25 24 23 22 22 23 24 23 24 24 22 21 19 17 16 14 14 13 12 12 12 12 13 16 17 18 18 19 19 18 18 18 18
43 35 31 33 31 26 23 21 20 22 26 29 30 28 27 26 25 23 20 17 16 17 19 22 24 26 27 28 28 27 26 24 23 22 22 23 23 24 25 25 24 22 21 19 17 16 16 15 14 13 13 12 12 13 15 17 18 19 20 20 19 19 19
42 36 33 35 34 29 26 23 20 20 23 28 30 28 28 27 25 23 22 21 18 17 18 20 23 25 26 27 28 28 27 26 25 24 23 23 24 25 25 25 25 23 22 20 19 18 17 16 15 15 14 13 13 13 14 15 17 18 20 22 21 21 20
38 34 32 35 34 31 29 25 21 19 20 26 30 30 29 28 26 24 23 23 22 19 18 19 22 25 26 26 27 27 28 27 27 25 24 24 25 26 26 26 25 24 23 22 21 20 19 18 17 16 15 15 15 15 15 15 15 16 18 20 22 22 22
33 31 31 35 34 31 29 24 21 19 19 23 27 28 28 28 28 26 23 23 23 22 21 20 20 21 23 24 25 27 27 27 27 27 26 26 26 27 27 27 26 25 24 23 22 21 20 20 19 18 17 17 17 18 18 17 16 17 17 17 19 22 22
31 30 30 34 34 30 27 25 24 23 22 24 25 24 24 25 26 26 25 24 24 24 24 23 20 19 20 23 25 26 27 27 28 28 28 28 28 28 27 27 26 26 25 23 22 22 22 21 21 20 20 19 19 19 20 19 18 18 18 17 17 19 21
33 32 33 33 32 30 30 28 28 27 26 25 25 24 22 22 23 24 25 26 25 25 25 24 23 20 19 22 25 26 27 27 28 29 29 30 29 28 28 27 27 27 26 25 24 24 23 23 23 22 23 23 22 21 21 21 21 20 20 18 17 18 19
32 34 36 33 32 34 34 31 29 29 28 24 23 24 23 22 22 23 24 25 25 26 26 25 25 23 20 20 23 25 27 28 29 30 30 30 29 29 28 28 28 27 27 26 26 26 25 25 25 25 25 25 24 24 23 23 24 23 22 21 20 19 19
31 34 34 30 32 35 33 29 27 27 27 24 21 22 23 21 22 23 23 24 26 27 28 27 27 26 24 22 22 24 26 28 29 30 30 30 30 29 28 28 29 28 27 27 27 27 27 27 27 27 27 26 26 26 26 25 25 25 24 23 22 22 21
29 30 31 26 25 28 28 27 29 28 26 23 18 16 17 17 19 22 22 23 25 28 29 29 29 28 27 26 24 24 25 26 28 29 29 29 30 29 29 29 29 29 28 27 27 28 29 29 28 27 27 27 26 27 27 27 27 27 25 24 24 24 24
27 28 29 27 25 26 26 27 28 28 28 25 18 15 17 18 18 20 21 22 24 26 28 29 30 31 30 29 27 27 26 25 26 27 28 28 29 29 29 29 29 29 28 27 27 27 29 29 28 27 27 28 27 27 27 28 28 28 27 25 24 25 26
26 29 30 31 29 25 25 26 26 29 30 27 22 19 21 21 20 20 21 22 23 24 26 28 29 31 32 31 30 29 28 26 25 26 27 27 28 28 28 28 28 28 28 27 26 26 27 28 28 28 28 28 27 27 28 28 28 27 27 26 25 25 26
18 21 21 21 20 20 23 27 28 29 29 27 24 23 24 23 22 22 21 22 22 22 24 27 27 29 31 32 31 31 32 30 27 27 27 27 27 27 27 27 26 26 26 25 25 24 24 25 26 28 27 26 26 26 26 27 27 26 26 26 25 26 27
13 17 19 18 17 18 19 21 22 21 21 23 24 23 23 22 21 21 20 20 19 19 21 24 25 26 27 30 32 33 34 33 32 30 29 28 27 27 26 26 25 25 24 24 24 23 23 22 23 25 25 24 23 23 24 24 25 25 24 24 25 25 27
13 17 16 16 19 21 20 18 17 16 16 18 20 20 21 21 21 21 20 19 17 17 18 20 21 23 24 27 30 32 33 35 35 34 32 31 29 28 27 26 26 25 25 25 25 25 24 23 23 24 25 24 22 22 22 22 23 23 23 23 23 24 25
10 14 12 9 14 16 15 13 14 14 15 17 18 19 20 21 21 21 21 20 19 18 17 16 18 20 22 23 25 26 29 33 36 37 35 33 32 31 29 29 28 27 27 26 26 27 26 26 25 25 25 26 24 22 22 22 22 23 24 24 24 24 24
7 9 9 9 12 13 14 14 15 16 16 16 17 17 19 21 21 20 20 21 21 20 18 16 17 19 20 20 20 21 24 27 31 36 38 37 35 34 33 32 31 29 29 28 29 29 29 28 28 27 27 27 27 25 24 23 23 23 24 25 25 25 25
7 6 7 10 14 16 17 18 18 19 18 17 16 16 18 21 22 22 21 21 22 21 20 18 17 17 19 19 18 19 21 22 25 30 35 39 38 37 36 35 33 32 31 31 30 30 30 30 30 30 29 28 28 29 27 26 25 24 25 26 26 26 26
7 8 11 15 17 17 16 14 15 19 19 17 16 17 19 21 22 22 22 22 22 22 21 20 18 18 17 17 17 19 20 21 22 24 29 35 39 39 38 36 35 34 33 33 32 31 31 31 31 31 30 30 30 30 29 28 27 26 25 26 27 28 28
13 15 18 18 17 18 18 15 14 17 19 17 17 18 19 20 22 22 22 22 22 22 22 21 19 17 16 16 18 20 20 20 21 22 24 28 34 38 39 38 37 36 35 35 35 33 33 33 33 32 32 31 31 31 30 29 28 28 27 27 27 29 30
15 15 16 17 18 19 18 16 16 18 19 18 17 18 18 20 21 22 23 23 22 21 21 21 19 17 17 18 20 21 20 19 20 21 21 24 28 34 38 39 38 38 37 37 36 36 35 35 34 34 33 32 31 31 31 31 30 30 29 29 30 31 31
16 16 16 18 19 17 16 17 19 19 19 19 19 19 18 19 21 21 22 22 22 22 21 20 19 18 17 18 19 20 19 20 20 20 20 23 26 30 34 38 39 38 38 38 38 38 38 37 36 35 34 34 33 32 32 33 33 33 32 32 33 33 33
18 17 17 19 18 16 16 18 19 19 20 21 20 20 20 20 21 21 22 22 22 21 20 20 20 19 18 17 18 18 18 19 21 20 20 22 25 28 31 34 37 38 38 39 39 39 40 39 38 36 35 35 35 34 34 34 35 35 35 34 34 36 37
19 17 17 18 17 17 18 19 19 21 22 22 22 23 24 23 22 22 23 23 22 21 20 21 21 20 19 19 19 18 17 18 20 22 22 22 24 27 29 32 34 36 37 38 39 39 40 40 40 38 37 36 36 36 36 36 37 37 36 36 37 38 40
20 17 16 16 18 19 20 18 19 21 22 23 24 25 25 25 24 24 24 24 24 23 22 22 22 22 21 21 21 20 19 18 19 23 25 25 25 27 29 31 33 35 37 38 38 39 40 40 41 41 41 40 39 38 38 39 39 38 37 38 39 40 42
24 21 19 18 20 21 19 18 19 20 21 23 24 24 26 26 25 25 26 26 27 26 25 25 24 24 23 23 23 22 21 20 20 22 26 29 29 29 30 32 34 36 38 39 39 40 40 41 43 44 44 43 43 42 41 41 41 40 39 40 41 42 43
28 26 25 23 23 22 20 20 21 21 22 23 23 25 27 27 26 26 27 28 29 28 28 27 26 26 25 25 25 24 23 22 22 23 26 31 33 32 32 33 36 37 38 40 41 41 42 43 44 45 45 46 46 46 46 45 45 44 43 42 43 44 45
26 27 27 27 26 23 21 21 22 22 23 23 24 26 27 28 28 27 27 28 29 29 30 29 29 28 27 27 27 26 25 26 26 26 28 31 35 36 36 37 38 39 39 40 42 43 44 45 46 46 46 47 47 48 49 49 48 48 47 47 47 47 47
23 25 25 25 26 25 23 23 23 24 24 23 24 25 27 28 28 27 26 26 27 27 28 28 30 31 30 29 28 28 28 28 29 29 30 31 36 39 40 41 41 41 41 42 43 45 46 46 47 47 47 48 48 49 50 50 50 50 50 50 49 48 46
23 23 23 23 24 25 25 25 25 25 25 24 22 22 25 28 28 27 26 25 24 24 25 26 29 30 30 29 29 28 28 28 29 31 32 32 34 39 42 44 44 44 44 45 45 46 46 46 47 47 47 48 48 48 49 49 48 48 48 48 48 46 44
19 19 20 20 22 24 25 25 26 26 26 25 23 22 23 26 28 28 26 24 23 22 23 25 27 29 30 30 30 29 29 28 28 29 31 32 33 36 40 44 45 45 45 45 44 44 44 44 44 44 44 45 44 44 45 45 44 44 44 45 44 43 41
15 16 16 17 19 21 22 24 25 27 26 25 24 24 23 25 27 28 27 24 22 22 22 24 25 27 28 29 29 29 29 28 27 27 28 30 31 32 33 38 41 42 42 42 41 40 40 39 39 38 38 38 38 38 37 37 37 37 38 38 39 39 38
13 14 14 14 16 18 19 21 23 25 25 25 25 25 25 25 26 27 27 25 22 22 22 22 23 24 26 27 28 29 29 28 28 27 25 24 25 25 27 30 34 36 37 36 35 34 33 33 32 32 31 31 30 30 29 30 31 32 33 34 35 37 38
16 15 15 15 15 16 17 18 20 22 24 25 25 26 26 26 26 26 25 24 22 21 21 22 22 23 24 25 26 27 27 27 28 27 25 24 24 25 26 28 29 30 30 30 29 28 27 27 27 27 27 27 27 28 29 30 32 32 34 35 36 38 39
22 21 21 21 20 20 20 19 19 20 22 24 24 25 26 26 26 25 24 22 21 21 21 22 22 22 21 22 22 23 23 23 24 25 24 24 24 25 25 25 25 24 25 25 25 25 25 25 25 26 26 27 28 29 31 32 33 34 35 36 38 39 39

ECMWFFLT1_700_spd_039.txt.gz
Wind_Speed
41 38 33 29 26 23 22 23 24 26 27 27 28 27 25 24 21 20 20 22 23 23 24 25 24 25 26 25 25 24 24 24 24 24 23 22 22 21 20 18 17 15 14 13 13 14 14 14 15 15 14 14 15 15 15 14 13 12 11 10 9 9 9
42 38 33 30 28 25 23 23 24 26 25 24 26 26 25 23 21 20 20 20 22 23 24 24 24 25 26 25 26 26 25 25 25 24 24 24 23 22 21 20 18 16 15 14 14 14 14 14 14 15 15 15 15 15 15 15 14 13 12 11 10 9 9
41 37 35 32 28 24 23 24 25 25 23 23 25 25 23 21 19 18 19 19 20 22 24 25 25 25 25 26 27 27 26 26 25 25 24 23 23 22 22 21 20 18 17 16 15 14 13 13 12 13 14 15 15 15 15 15 14 13 13 11 10 9 9
43 38 37 35 30 22 21 25 26 25 24 23 23 21 19 20 20 19 18 18 18 21 23 25 25 25 25 26 27 27 27 26 25 24 23 22 21 21 22 22 21 20 19 18 17 15 14 13 12 11 12 13 13 13 13 13 13 13 12 12 11 10 9
44 41 38 36 33 27 24 26 27 26 25 24 22 21 21 21 22 21 19 17 17 19 21 23 25 25 26 26 27 27 26 26 25 24 22 21 20 21 23 23 22 21 20 19 18 17 15 14 12 11 10 10 10 11 10 10 11 12 11 11 12 11 10
44 42 37 37 35 29 27 27 27 27 27 25 24 25 26 25 23 21 20 18 16 17 21 24 26 27 27 27 27 27 26 26 25 24 23 21 20 21 22 22 22 22 21 21 20 19 17 15 13 12 11 10 9 9 8 7 7 7 8 9 10 11 11
44 41 36 35 32 27 27 28 26 25 26 26 26 27 29 28 25 23 22 20 17 17 19 23 25 27 27 27 27 27 27 27 26 25 24 22 21 21 21 22 22 22 21 22 21 20 19 17 15 13 12 11 10 9 9 8 6 6 6 6 7 8 9
45 41 32 26 23 23 26 28 25 23 24 27 28 28 29 29 28 25 23 20 19 18 18 19 21 23 25 26 27 28 28 28 27 26 25 24 23 22 22 22 22 21 22 22 22 21 20 18 16 15 14 13 12 11 10 9 8 8 7 7 7 8 9
43 39 29 22 20 22 24 24 24 23 24 26 27 26 26 28 28 25 22 21 20 20 19 18 18 20 22 24 25 26 28 29 29 28 27 26 25 24 23 23 22 22 22 21 21 21 20 19 17 15 15 15 14 12 11 10 9 9 9 9 9 9 9
44 37 29 24 22 24 25 23 24 25 25 26 25 23 25 27 26 25 24 23 22 22 21 20 18 18 19 20 22 25 27 29 30 30 30 29 28 26 25 24 23 23 23 22 22 21 20 19 18 17 16 15 15 14 13 12 12 11 11 11 11 11 11
43 36 28 26 26 27 28 26 27 27 27 27 24 22 24 26 26 25 25 25 24 24 24 23 21 19 18 17 19 23 26 28 29 30 31 30 29 28 26 25 25 24 24 23 22 22 21 20 20 19 18 16 15 14 14 14 14 14 14 14 13 13 13
36 31 27 27 28 30 29 28 29 29 28 27 26 24 24 24 25 25 25 26 25 25 25 25 25 23 21 19 18 21 24 27 29 29 30 30 29 29 28 27 26 25 25 25 24 23 22 21 21 20 19 18 16 16 15 15 16 16 16 16 16 15 15
31 29 28 29 30 31 30 27 28 29 29 28 27 26 25 24 23 24 24 25 25 25 26 27 27 26 25 23 21 20 22 25 28 28 28 28 28 28 28 28 27 27 26 26 25 25 24 23 22 21 20 19 18 18 17 17 18 18 17 17 17 17 16
32 31 31 32 33 32 29 25 22 24 27 27 26 26 25 22 21 21 21 22 22 24 26 27 28 29 28 27 26 24 22 21 24 26 26 27 27 28 28 28 28 28 27 26 26 26 25 23 22 21 20 20 19 19 19 20 20 19 18 18 17 17 16
34 37 34 34 35 33 30 26 21 18 21 25 25 24 22 20 19 18 18 18 19 20 23 25 27 29 29 29 28 26 24 21 21 22 24 27 28 28 28 28 28 28 27 27 26 25 24 23 22 21 21 20 20 20 20 21 20 19 19 19 18 18 18
37 41 37 37 37 35 32 28 23 19 19 22 24 23 20 18 18 18 18 17 18 19 20 22 25 27 28 29 28 27 26 25 23 21 22 25 27 28 28 28 28 27 27 27 26 25 24 24 23 22 21 20 19 19 20 20 20 19 19 19 19 19 19
43 42 38 38 36 33 32 28 25 24 23 23 24 24 22 19 17 18 19 19 19 19 20 21 22 25 26 27 27 28 28 28 27 24 22 23 24 26 28 28 28 27 27 27 26 25 24 24 23 22 21 20 19 18 19 19 18 18 18 18 18 18 18
42 42 41 40 34 31 30 27 25 26 27 27 25 24 23 22 21 22 21 21 20 20 20 20 19 20 22 24 26 28 29 29 29 28 26 24 23 24 25 27 28 27 27 27 26 25 24 24 23 22 21 19 18 17 17 16 16 16 17 17 17 17 17
35 39 41 37 32 28 26 24 24 25 26 26 24 23 23 23 25 26 25 23 23 22 21 20 19 17 17 19 22 25 27 30 31 31 30 28 26 25 24 26 27 27 27 27 26 25 24 23 22 22 20 19 18 17 16 16 16 17 17 18 18 17 18
27 30 32 30 28 27 25 23 23 24 24 23 22 23 24 25 27 28 27 25 24 23 22 20 19 17 15 15 17 19 22 26 29 32 32 32 30 28 27 27 27 27 27 26 26 25 24 23 22 21 20 19 19 18 18 17 17 17 18 19 19 20 20
24 24 23 22 23 25 24 22 23 23 23 22 21 21 21 23 26 28 28 28 26 24 23 20 19 18 16 15 15 16 17 19 22 27 31 33 34 33 32 31 29 29 28 27 26 25 24 23 22 22 21 21 21 21 20 19 18 19 19 20 20 21 23
21 21 21 19 20 21 19 19 21 21 20 21 22 23 22 21 22 24 26 28 28 26 24 22 20 19 17 16 16 16 17 17 17 19 23 27 32 35 36 35 33 31 30 29 28 27 26 26 25 24 23 23 23 23 22 20 20 20 21 22 23 24 25
19 20 22 20 17 16 15 15 16 16 16 18 20 22 23 22 23 24 24 25 27 26 26 24 22 20 18 18 17 17 18 17 17 16 16 19 23 29 34 37 37 35 33 32 31 30 29 28 27 26 26 25 25 25 23 22 22 23 23 24 25 26 27
20 19 19 18 17 15 14 14 14 14 16 18 18 18 18 20 23 25 25 26 25 25 25 24 23 22 21 20 19 19 19 18 16 16 15 15 17 19 24 32 37 38 37 36 34 33 31 30 30 29 28 28 26 25 24 24 25 25 26 26 27 28 29
19 18 15 16 17 17 16 16 16 17 16 18 20 19 17 18 20 21 23 25 25 24 25 23 22 22 21 21 21 21 21 19 17 16 16 16 16 16 17 22 29 35 39 39 37 35 34 33 33 32 30 29 28 26 26 26 27 28 28 28 29 30 31
17 17 15 15 18 20 20 20 20 21 19 19 22 23 21 20 19 19 19 21 23 24 24 23 22 21 21 21 21 22 23 21 18 17 17 16 17 17 16 17 21 27 32 37 39 39 38 36 35 34 32 30 29 29 29 29 29 30 30 31 33 34 34
19 17 15 16 19 21 22 22 23 24 24 23 25 26 24 22 21 20 20 20 22 22 22 22 23 22 22 22 22 23 23 22 19 18 18 17 18 18 18 18 19 22 25 30 34 37 38 38 36 35 33 32 32 32 31 31 31 32 33 35 36 37 37
19 16 15 17 19 20 21 22 23 24 25 25 26 27 26 25 24 23 23 22 23 23 23 24 24 24 24 23 23 23 23 22 20 18 18 18 19 20 20 20 21 22 23 26 29 33 35 36 36 36 35 35 34 34 34 34 34 36 37 39 39 40 40
16 14 13 15 16 17 20 21 22 23 24 24 25 26 27 27 27 27 27 25 24 24 24 25 25 25 25 24 23 22 22 22 21 19 19 19 20 22 23 23 23 24 25 27 29 31 33 35 36 36 37 36 36 36 36 36 37 39 40 41 41 41 41
19 20 22 22 20 18 19 20 21 23 24 24 24 24 25 27 28 29 28 27 26 26 26 25 25 26 26 25 24 22 22 22 22 21 20 20 20 23 25 25 26 26 27 29 30 31 33 34 35 36 37 38 39 39 39 39 39 40 41 41 41 41 41
24 27 29 28 25 23 23 22 22 23 24 24 23 22 23 25 28 29 29 29 29 28 27 26 26 26 26 26 26 25 24 23 23 23 22 21 21 22 24 26 28 29 29 30 31 32 33 34 34 36 37 38 39 40 41 41 41 42 43 42 41 41 42
26 26 26 25 25 27 28 28 28 27 24 22 22 22 22 22 24 27 29 30 30 30 29 29 28 28 27 27 28 28 27 26 25 24 24 24 24 23 23 25 28 30 31 32 33 33 33 34 34 35 36 38 39 40 41 42 43 44 45 44 43 44 45
21 21 21 21 22 24 26 28 29 27 24 22 22 23 22 21 22 24 26 29 30 30 30 30 30 30 29 29 29 29 29 28 27 26 26 26 27 26 26 26 27 29 32 33 34 35 35 35 36 37 37 38 39 40 41 42 43 45 45 45 45 46 46
15 15 16 17 18 19 21 22 23 23 22 22 24 24 23 20 20 21 23 26 29 30 31 30 29 28 27 28 28 29 30 30 29 29 29 28 28 29 28 28 28 29 31 33 36 37 37 37 38 38 39 40 40 41 41 42 44 45 45 45 44 43 42
11 10 11 12 14 15 16 17 18 19 20 22 25 25 23 21 20 19 21 24 27 29 30 29 28 26 26 26 26 27 28 29 30 31 31 30 30 30 29 28 28 28 29 30 33 35 37 38 38 38 40 40 41 41 41 41 42 42 41 40 38 36 33
9 8 9 9 10 11 12 12 12 15 18 21 24 25 24 23 20 19 20 21 24 28 29 29 28 27 26 24 24 24 25 27 29 31 32 31 31 30 28 27 27 27 27 27 27 30 33 35 36 37 38 38 38 38 38 38 37 36 34 32 30 28 27
10 10 9 9 10 10 11 10 10 11 14 18 21 23 24 24 22 21 21 21 22 25 27 28 27 26 25 24 23 23 24 25 28 29 29 30 30 30 29 28 27 27 26 25 24 25 27 29 31 32 33 32 32 31 31 30 29 28 27 26 26 26 26
13 12 12 12 13 13 14 13 12 11 12 14 17 19 21 22 22 21 21 21 21 22 24 26 26 25 24 23 23 22 21 22 23 24 24 24 25 26 26 26 25 25 24 23 22 21 21 23 24 25 25 25 24 23 23 24 24 24 25 26 26 27 27

ECMWFFLT1_700_spd_042.txt.gz
Wind_Speed
42 42 41 37 34 33 33 31 26 23 24 27 29 29 29 29 29 31 32 31 30 28 28 28 28 29 29 28 27 26 26 25 25 25 24 23 22 21 21 19 18 17 16 15 15 15 15 16 16 16 16 17 18 18 18 17 15 14 12 11 11 11 11
43 43 44 40 35 34 34 31 27 25 23 24 27 29 30 29 29 29 30 31 30 28 28 28 28 29 29 28 28 27 27 27 26 26 25 23 23 22 22 20 19 18 16 15 15 16 17 17 18 18 17 17 18 18 18 17 16 14 13 12 11 11 11
44 43 43 41 37 36 35 32 28 26 24 23 25 28 30 30 28 27 28 29 30 29 28 28 28 28 28 28 29 28 28 28 27 27 26 24 23 23 22 22 20 19 17 16 16 17 18 18 17 18 19 18 18 19 18 17 16 15 13 12 12 11 11
41 41 42 40 39 38 37 33 28 26 25 23 23 25 28 28 27 27 27 27 29 30 30 29 28 28 28 28 29 29 28 28 28 27 26 25 23 23 23 23 22 20 19 18 17 18 19 18 17 17 19 19 18 18 17 16 16 15 14 12 11 10 10
37 37 40 42 40 39 39 34 28 26 24 21 21 23 26 27 26 27 28 27 28 29 28 28 28 28 29 29 29 29 28 28 27 27 26 25 24 24 24 23 23 22 20 18 18 19 20 19 16 15 16 17 17 16 16 15 15 14 13 12 11 10 9
36 32 35 40 40 40 40 35 28 26 24 20 20 23 25 27 27 27 29 29 28 28 29 29 29 29 29 30 30 30 29 28 28 27 26 25 24 25 24 23 23 22 21 20 19 20 20 19 17 14 14 14 14 14 14 14 13 13 12 11 10 9 9
34 31 32 36 39 40 41 35 27 25 23 21 20 22 25 26 25 26 27 28 27 28 29 30 30 30 29 30 30 30 30 29 28 27 26 26 25 25 23 22 22 22 22 21 20 20 20 19 17 15 13 13 13 12 12 11 11 10 9 8 7 7 8
31 32 33 34 37 41 41 35 28 25 23 23 23 24 25 25 25 25 26 26 26 27 28 29 29 29 29 29 29 29 29 29 28 28 27 27 26 25 23 23 22 21 23 23 22 21 21 20 18 16 15 14 13 12 11 11 10 9 8 6 6 5 5
29 29 31 32 36 40 40 35 29 25 24 25 26 27 27 26 26 25 24 24 24 24 25 26 26 27 27 27 27 28 29 29 29 29 28 28 27 26 25 23 22 22 23 23 22 22 22 21 20 18 17 16 14 14 12 11 10 9 8 7 5 5 4
29 27 27 31 37 39 35 33 29 26 26 27 28 29 30 28 27 25 24 25 24 22 21 22 23 25 26 27 26 27 29 30 30 30 30 29 28 27 25 24 23 23 23 22 23 23 22 22 22 21 19 18 17 16 14 13 11 10 8 7 6 6 6
33 29 27 30 38 37 32 31 29 27 28 29 29 31 32 29 27 26 26 26 25 24 22 21 22 23 25 26 26 27 29 30 31 31 31 30 29 28 26 25 24 24 23 22 23 22 22 23 23 23 21 20 18 17 16 15 14 13 11 10 9 9 9
37 33 29 31 37 36 31 30 28 27 28 29 29 32 33 31 29 28 27 27 27 27 26 24 22 22 23 24 25 27 28 29 30 32 32 31 30 29 28 26 25 24 23 23 22 22 22 23 24 24 22 20 18 18 17 17 16 15 14 12 12 11 11
38 34 30 32 35 34 30 29 28 26 28 28 28 31 32 31 31 29 28 27 27 27 28 27 25 22 22 22 23 25 26 28 29 30 31 31 30 30 29 28 27 26 25 23 22 22 22 22 23 23 22 20 19 19 19 18 18 17 16 15 14 13 13
36 33 30 31 34 34 31 29 27 25 27 28 28 30 31 31 31 30 29 28 27 27 28 28 27 26 24 23 22 23 24 25 26 27 28 29 29 30 30 29 29 28 26 25 24 24 23 22 22 22 22 21 20 19 19 19 19 18 17 16 15 14 14
35 34 31 30 33 34 30 26 24 24 27 28 28 28 28 27 28 29 30 29 27 27 27 27 28 28 27 26 24 22 20 20 21 23 25 27 28 29 29 29 29 29 28 27 27 25 24 23 23 23 23 22 22 21 20 21 20 18 16 15 14 14 14
33 33 32 32 34 34 28 23 22 23 25 27 28 28 26 24 25 26 27 27 27 27 27 27 28 29 29 28 26 22 20 19 19 20 21 24 25 26 27 28 28 29 29 28 28 26 25 24 24 24 23 23 23 22 22 21 19 17 16 15 15 15 15
32 31 32 35 36 34 30 25 21 20 22 25 27 26 25 24 23 24 24 24 26 27 27 28 29 29 28 28 26 24 23 22 21 20 20 21 22 23 25 26 26 27 28 28 28 27 26 26 26 25 24 23 23 23 22 21 18 17 16 15 16 16 16
30 30 29 32 36 35 31 27 23 20 20 22 24 25 25 24 23 23 24 24 25 26 27 28 29 29 28 28 26 26 26 25 24 23 21 20 20 20 21 23 25 26 27 27 27 26 26 26 26 25 24 24 23 23 22 20 18 17 16 16 15 15 16
31 31 29 30 35 36 32 27 25 22 20 19 19 21 23 23 23 23 23 23 23 24 26 27 28 29 29 29 28 28 28 27 27 26 24 23 21 20 20 21 24 25 26 26 26 26 26 26 25 25 24 24 23 22 22 20 18 18 17 15 15 15 15
35 33 33 34 36 36 33 29 26 24 22 20 17 18 20 22 24 23 21 20 20 22 24 25 26 27 28 28 29 29 29 29 29 29 28 27 25 23 23 22 22 23 24 25 26 26 26 26 25 25 25 25 24 23 23 21 19 18 17 16 15 15 16
40 37 37 38 38 37 35 31 28 26 24 21 19 19 20 22 24 24 23 22 22 22 23 23 23 25 25 26 28 28 29 30 30 31 31 30 29 28 27 25 24 23 23 24 25 25 25 25 25 25 26 26 25 25 24 21 19 18 17 16 16 16 18
41 40 40 40 38 37 35 32 30 28 26 24 22 22 22 23 25 25 25 25 24 25 24 23 23 23 23 24 25 26 27 28 30 31 32 32 32 32 31 30 28 26 25 24 24 24 25 25 25 25 26 27 27 26 24 21 19 19 18 18 18 19 21
35 36 38 38 37 35 34 33 31 29 28 27 26 25 26 26 27 27 27 27 27 27 27 26 25 24 23 22 22 22 23 25 27 30 31 33 34 34 34 34 32 30 29 27 26 26 26 25 25 25 26 27 27 26 25 22 21 21 21 21 22 23 24
35 35 36 36 35 34 33 32 29 27 27 26 26 26 26 27 28 29 30 30 31 30 30 29 27 25 24 23 21 20 20 20 22 24 27 29 31 33 34 35 35 35 34 32 30 28 28 27 27 26 27 27 27 27 26 24 23 24 24 25 25 26 27
36 35 35 34 32 31 29 28 25 23 22 22 22 22 22 23 25 26 28 30 31 31 31 31 29 27 26 25 23 21 20 19 19 20 22 23 25 27 28 30 32 34 36 37 35 33 31 30 30 30 29 29 29 28 28 27 26 27 28 28 29 29 29
34 34 32 31 28 26 26 25 23 21 20 20 19 19 19 20 21 21 21 23 25 27 29 30 30 28 27 25 23 22 21 20 19 20 20 20 20 21 22 23 25 28 32 36 38 38 37 35 34 33 32 32 32 31 30 30 30 30 31 31 32 31 31
30 30 29 27 25 23 24 24 22 21 20 19 19 19 19 19 19 19 19 19 21 22 24 26 27 27 26 25 24 22 21 21 20 21 21 21 20 19 20 21 23 24 27 31 35 39 41 41 39 37 35 34 34 33 33 33 33 33 34 34 34 33 33
28 26 26 26 25 24 25 24 23 22 21 20 20 20 21 21 21 21 20 20 21 22 22 24 25 25 25 25 24 24 23 23 22 22 22 23 22 21 21 22 23 24 26 28 31 35 38 41 42 41 39 38 36 35 34 34 35 35 35 35 35 34 35
27 26 26 26 26 26 26 25 24 23 23 23 23 23 23 23 24 25 24 23 22 23 23 24 24 24 24 24 24 24 24 23 23 23 23 23 24 23 23 24 24 25 26 28 30 32 33 35 38 39 40 39 38 37 36 37 37 37 37 37 36 36 36
28 27 27 26 26 25 25 25 24 24 24 25 25 26 26 26 26 28 28 27 26 25 25 25 25 25 25 24 24 24 24 24 24 23 22 22 23 24 25 26 26 26 27 28 29 30 30 31 33 34 36 36 37 38 38 39 39 39 38 38 37 38 38
26 26 26 26 25 24 24 24 24 24 25 27 28 29 30 31 31 31 31 31 29 28 27 27 27 26 25 25 25 25 25 25 25 24 23 22 22 22 23 25 27 28 29 29 30 30 30 30 31 31 32 33 34 36 38 39 40 40 39 38 38 38 38
22 22 23 23 22 22 21 21 20 21 24 27 29 29 30 31 33 33 33 33 32 31 30 29 28 27 27 26 26 26 27 27 26 26 24 23 23 22 22 22 24 27 30 31 31 31 31 31 32 31 32 32 33 35 36 38 39 39 38 38 38 38 39
20 21 22 22 22 21 21 21 20 21 23 26 27 27 28 29 31 32 33 33 33 33 33 33 32 31 30 29 28 28 28 28 27 27 26 25 25 24 23 23 22 24 27 30 32 32 32 32 33 33 33 33 34 35 36 37 38 38 38 38 38 39 39
17 19 20 22 22 22 22 23 23 24 26 27 27 27 27 28 29 30 31 32 32 33 34 34 35 33 32 31 30 30 29 29 29 29 29 28 28 28 27 26 24 23 24 26 29 32 33 34 34 34 34 34 34 36 37 38 38 38 38 38 39 39 39
12 13 16 19 20 21 21 21 22 24 26 27 28 28 28 28 29 29 30 30 30 30 32 33 34 34 33 33 32 32 31 31 31 31 32 32 31 31 29 28 27 26 25 26 27 29 31 34 36 36 36 36 36 37 38 38 39 39 39 39 39 39 40
11 11 13 16 18 18 18 16 17 19 21 22 23 24 24 26 28 29 29 28 28 27 28 30 31 32 32 33 33 33 33 33 32 32 32 32 32 32 32 31 30 30 29 28 28 27 28 31 33 35 36 36 37 38 39 39 39 39 39 39 38 38 37
14 14 15 16 16 15 14 12 12 14 15 16 17 19 20 23 26 27 27 27 26 25 26 27 28 28 29 31 31 32 32 31 31 31 30 31 31 31 32 32 33 33 32 31 30 29 28 27 28 30 31 33 34 35 36 36 37 36 36 35 35 34 34
16 16 17 17 16 14 13 13 13 13 13 12 12 14 16 19 22 24 25 26 25 25 25 25 25 25 26 28 29 29 29 29 29 29 28 28 28 29 29 30 31 32 32 31 30 29 26 23 22 22 23 25 26 26 28 29 29 29 29 29 28 29 29

ECMWFFLT1_700_spd_045.txt.gz
Wind_Speed
37 38 37 37 34 33 31 28 28 29 29 29 30 30 30 30 31 32 33 33 31 31 30 31 32 32 31 30 29 28 27 26 26 25 25 25 24 23 21 19 18 18 17 17 16 16 15 15 16 15 14 14 15 17 17 16 15 14 14 14 14 13 13
39 37 36 37 37 36 34 30 29 29 29 29 30 31 31 31 32 32 33 33 32 31 31 31 32 32 31 30 30 29 29 28 27 26 26 26 25 24 22 20 20 19 18 17 17 16 16 16 16 16 16 16 16 17 18 18 18 16 15 15 15 14 13
45 41 37 36 37 37 36 33 31 31 30 29 30 31 31 31 30 30 31 31 31 31 31 31 32 32 32 31 31 30 30 29 28 27 27 26 25 24 23 22 21 21 20 19 18 18 17 17 17 18 18 17 17 18 20 20 19 18 17 16 15 15 14
45 43 40 37 35 37 38 36 33 32 30 29 28 29 30 30 29 29 29 29 29 30 31 31 32 32 32 32 31 31 31 30 29 28 27 26 25 25 24 24 22 22 21 20 19 19 19 19 19 19 19 19 19 19 21 21 20 19 18 17 16 15 15
43 43 43 42 39 39 40 39 37 34 31 28 27 28 29 31 31 29 28 28 29 29 29 30 31 31 32 32 32 32 31 31 30 28 27 27 26 26 26 25 24 23 21 20 19 19 20 20 20 19 19 20 20 20 21 21 20 19 17 16 15 15 15
41 42 43 43 42 41 40 40 39 37 32 28 26 26 28 32 33 31 29 29 29 30 30 31 31 31 32 32 32 32 32 31 31 29 28 28 27 27 27 26 25 24 22 21 20 20 20 20 20 19 17 18 19 19 19 19 19 18 16 15 14 14 14
38 39 40 40 39 39 39 40 41 39 34 29 27 26 28 31 33 32 31 30 30 30 31 32 32 32 32 32 32 32 32 31 31 30 29 29 29 28 27 26 26 25 24 23 22 21 21 20 20 18 15 15 17 17 17 17 17 17 16 15 15 15 15
34 36 38 37 34 34 35 39 42 41 35 31 29 28 27 30 32 32 32 31 30 31 32 32 32 33 32 32 32 32 32 31 31 30 29 29 29 28 28 27 26 26 25 25 23 22 21 20 19 18 15 14 15 16 16 16 16 17 17 16 16 16 16
31 33 34 32 31 31 31 36 42 43 37 32 31 28 27 28 30 30 30 30 30 31 31 31 32 32 32 32 33 32 32 32 31 31 30 30 30 29 28 27 27 26 26 25 24 23 22 21 21 20 17 16 15 15 15 15 16 16 16 16 15 15 14
34 33 31 30 30 30 29 33 40 43 40 34 32 29 27 27 27 27 28 29 30 31 31 30 31 32 33 33 33 32 33 33 32 32 31 30 29 29 28 27 27 27 26 25 24 24 23 22 22 22 20 19 17 16 15 15 16 16 16 15 14 13 12
39 36 33 32 32 31 31 34 38 42 41 35 32 30 28 26 25 25 26 28 29 30 30 30 30 32 33 33 33 33 33 33 33 33 32 31 29 28 27 27 27 26 26 25 24 24 23 24 24 24 23 21 19 18 17 17 17 17 16 15 14 12 11
45 40 35 33 33 31 32 33 34 40 43 37 32 31 28 25 24 25 26 26 26 27 27 28 29 30 32 32 33 33 34 34 34 33 32 31 30 28 27 27 27 26 25 25 24 23 23 24 25 25 25 23 21 19 18 18 18 18 17 16 14 13 12
49 44 37 34 33 30 31 32 31 37 43 38 33 31 29 26 26 26 26 25 24 24 24 25 26 27 29 30 31 32 33 33 33 33 32 31 30 28 28 28 27 27 26 25 24 24 24 24 24 25 25 24 23 22 20 20 20 19 18 17 16 14 13
42 40 36 35 34 31 31 30 28 34 42 39 34 32 30 28 29 28 27 25 24 23 23 23 23 23 25 26 28 29 30 30 31 32 32 31 30 29 29 28 28 27 26 25 25 24 24 23 23 23 24 25 25 23 22 23 23 22 20 19 17 15 14
36 35 34 35 35 32 30 26 26 33 40 39 35 32 31 30 31 30 28 26 25 25 24 24 23 22 22 23 25 26 27 28 28 30 30 30 31 30 29 29 28 28 27 26 26 25 24 23 23 23 24 24 25 25 25 25 24 23 22 20 19 17 15
34 35 34 35 34 32 28 26 27 31 36 38 35 33 31 31 32 32 29 27 27 27 26 26 26 25 24 23 22 21 22 24 26 28 29 30 30 30 30 29 29 28 28 27 26 25 24 24 24 24 24 24 25 26 26 26 25 24 23 21 20 18 18
34 34 34 35 34 31 27 28 30 32 33 35 35 33 31 30 32 32 30 28 28 28 28 28 29 29 27 25 23 21 20 21 23 25 27 28 29 29 30 30 30 29 29 28 27 26 25 25 25 25 24 25 25 26 27 27 26 25 24 22 21 20 19
34 34 34 35 34 30 28 30 33 32 31 33 34 33 30 28 30 31 30 29 29 28 28 29 30 30 30 28 26 25 24 22 22 22 23 25 26 27 28 29 29 29 29 28 28 27 27 27 26 25 25 25 26 27 27 27 26 25 24 22 21 20 19
32 33 33 33 31 28 30 32 33 31 31 32 33 32 29 26 27 27 27 28 28 28 29 29 30 30 30 29 28 28 28 27 25 24 23 23 23 24 25 27 27 28 27 27 27 27 28 28 27 26 25 26 26 26 27 26 25 25 23 22 21 20 20
29 32 32 31 29 30 32 33 32 31 31 30 30 29 26 24 23 22 22 23 25 27 28 27 28 28 29 29 30 30 30 30 29 27 25 24 23 23 23 24 25 25 25 26 26 27 27 27 27 26 26 25 25 25 26 26 25 24 23 22 21 20 20
29 33 33 31 30 32 33 31 31 30 29 29 29 27 25 22 21 19 18 19 21 24 25 25 26 26 26 28 29 30 31 30 30 29 28 27 26 25 24 23 23 23 23 24 25 25 25 26 26 26 25 24 24 24 25 24 24 23 23 21 20 20 21
30 33 34 32 31 32 31 29 29 28 27 27 27 26 23 20 19 19 19 20 21 23 24 25 26 25 24 25 27 28 29 29 30 30 30 30 29 28 27 25 24 23 23 23 23 24 24 25 25 25 24 24 24 25 25 24 23 23 22 21 21 21 23
30 33 35 33 32 32 31 30 30 29 27 26 26 24 22 20 19 20 21 23 24 23 23 25 25 24 24 24 24 25 26 27 29 30 30 30 30 30 30 29 27 26 25 24 24 23 23 24 24 24 24 25 25 25 25 25 24 24 23 22 23 24 25
32 34 35 35 34 34 33 33 33 32 30 27 25 24 23 23 22 23 24 25 26 25 25 25 25 24 24 23 23 23 23 25 27 28 29 31 31 32 32 31 31 30 29 28 27 25 25 24 24 24 25 25 25 25 26 26 25 25 25 24 25 26 27
33 35 36 37 37 35 33 33 34 34 31 27 25 25 25 25 24 24 25 26 26 26 27 27 25 24 23 22 22 21 21 22 24 25 27 29 30 31 32 33 33 33 32 32 31 29 28 27 27 26 25 25 25 26 28 28 27 27 27 27 27 27 27
34 36 36 37 38 37 34 33 34 34 31 27 27 28 28 27 25 25 26 26 26 26 26 26 26 25 24 23 22 21 21 21 21 22 23 24 26 28 30 31 32 33 34 35 34 34 33 32 30 29 28 27 27 27 29 29 28 28 29 29 29 29 29
32 33 33 33 34 33 32 31 32 32 31 30 31 31 29 27 25 25 25 25 24 25 26 27 27 26 27 26 24 23 21 20 20 21 21 21 21 23 26 28 29 31 32 34 35 36 37 36 35 34 32 31 30 30 30 30 30 30 30 31 31 31 32
29 28 28 29 29 29 29 30 31 31 31 32 31 29 27 25 23 23 23 22 22 24 28 29 28 27 26 26 26 24 22 20 20 20 21 21 21 22 24 26 28 29 30 32 33 35 36 37 38 38 37 36 35 34 33 33 33 33 33 33 34 34 35
31 31 30 30 30 30 29 30 32 32 32 31 30 27 25 23 22 21 20 19 20 21 23 24 24 22 21 20 21 21 20 19 19 19 19 19 19 21 23 25 27 29 30 31 32 33 34 34 36 38 39 39 39 38 37 37 36 36 36 36 36 37 37
35 35 34 33 33 32 31 31 32 32 31 30 29 27 25 23 21 20 19 19 18 18 18 19 19 19 18 17 17 18 19 19 19 19 18 18 17 17 18 21 25 29 30 32 32 33 33 33 34 35 37 38 40 41 41 41 40 40 39 39 39 39 38
37 37 36 35 34 33 32 31 30 30 29 28 27 26 25 23 22 21 21 21 20 20 20 19 19 19 19 20 19 19 20 20 20 20 19 18 18 17 17 18 20 24 28 31 33 34 34 33 33 34 34 36 37 39 41 42 43 43 42 42 42 41 40
36 36 36 35 34 34 34 32 31 30 29 28 27 26 25 24 24 23 23 22 22 22 22 22 22 21 22 22 22 22 22 22 22 21 21 20 20 20 19 19 19 19 21 25 30 34 35 35 34 34 35 35 36 37 38 40 41 42 42 41 41 40 39
33 33 33 33 33 34 34 33 32 31 30 29 27 26 26 25 25 25 25 25 25 25 25 26 25 25 24 24 24 24 24 24 24 23 23 23 23 23 22 21 20 20 19 20 23 29 33 36 36 36 35 36 36 36 37 38 39 39 39 39 39 39 39
30 30 30 30 30 31 31 31 29 28 28 27 26 26 26 27 27 28 29 29 29 30 30 30 29 28 27 27 26 26 25 25 25 25 25 25 25 26 26 24 23 23 22 21 21 24 28 33 36 37 36 36 37 37 37 37 37 37 36 37 37 37 37
24 24 25 26 26 27 27 27 26 25 25 25 25 25 26 28 29 30 31 32 33 34 34 34 33 32 30 29 29 28 28 28 28 28 28 28 28 28 28 28 27 26 25 24 24 23 24 27 31 34 36 37 37 37 36 36 36 36 35 35 36 36 36
20 20 21 21 22 22 22 22 22 22 23 24 25 25 25 26 27 28 29 30 32 33 35 35 35 34 33 32 32 32 31 31 31 30 30 30 30 31 31 30 29 29 28 27 26 26 25 25 26 29 31 34 35 35 35 35 34 34 34 35 35 35 36
19 19 19 18 18 18 18 18 19 19 20 21 22 23 24 25 26 27 28 30 31 32 34 35 36 35 34 34 33 34 34 34 34 33 33 33 33 33 32 32 31 30 30 29 28 28 27 26 26 27 28 29 30 31 32 32 33 33 34 35 35 36 36
19 19 18 17 16 15 14 14 14 14 16 17 18 20 22 24 26 28 30 31 32 32 32 34 35 35 34 33 33 33 34 35 35 35 35 34 34 33 33 33 32 31 30 29 28 27 27 27 26 25 24 25 25 26 27 29 29 30 31 32 33 34 35

ECMWFFLT1_700_spd_048.txt.gz
Wind_Speed
35 36 34 34 36 34 32 32 32 31 28 27 28 28 28 29 31 32 32 31 30 30 31 31 31 31 31 31 30 29 29 28 29 29 28 28 28 28 28 27 27 25 23 21 18 16 16 16 16 15 14 14 13 14 15 15 15 14 14 14 14 13 12
37 39 37 35 36 35 33 33 34 33 31 28 28 28 28 29 31 32 32 31 30 30 30 31 31 31 30 30 30 30 29 29 28 28 28 28 28 28 28 27 27 25 24 22 20 19 18 18 17 17 16 16 15 15 16 17 17 16 15 15 15 15 14
33 39 40 37 36 35 34 34 33 32 32 30 29 29 29 30 31 32 32 32 31 31 31 31 31 31 30 30 31 31 30 29 29 28 28 27 27 26 26 26 26 25 24 23 21 20 19 19 18 18 18 17 17 16 16 17 18 17 17 16 16 16 16
32 36 38 36 35 35 36 36 34 33 32 30 29 29 29 30 30 31 31 32 32 32 32 32 31 31 31 31 31 31 31 30 29 28 28 27 27 26 26 26 25 25 24 23 22 21 20 20 19 18 19 18 18 18 18 18 18 18 18 18 17 17 17
31 35 37 36 36 37 39 39 36 35 33 32 30 28 28 28 29 30 31 31 32 32 32 31 31 31 31 31 31 31 31 31 30 29 28 28 28 28 27 26 25 25 24 23 23 22 22 21 20 19 19 19 18 19 18 19 19 19 19 19 18 18 18
30 34 35 34 34 36 38 37 37 36 34 33 30 29 28 28 29 31 31 32 32 32 32 32 32 32 32 32 32 32 32 32 31 31 30 29 29 29 28 26 26 25 25 25 25 24 23 22 21 20 19 18 18 19 18 19 19 19 19 19 19 19 19
29 32 33 30 30 32 33 33 35 36 36 35 33 31 30 29 28 30 31 33 33 33 33 33 33 33 33 33 33 32 33 33 32 32 31 31 30 30 28 27 27 26 26 26 26 25 25 23 22 20 18 18 18 18 18 18 18 18 19 19 19 19 19
26 29 31 29 27 28 29 30 31 34 37 37 36 33 30 29 29 30 31 33 33 34 34 33 33 34 34 33 33 33 33 33 33 33 32 32 32 31 29 29 28 27 27 27 27 26 25 24 22 20 18 18 17 17 17 17 18 18 19 19 18 19 19
25 26 27 27 27 27 26 28 30 32 36 38 37 34 31 30 30 29 31 33 34 34 33 32 32 33 33 33 33 33 32 33 33 33 33 33 32 31 30 29 29 28 28 27 27 26 25 24 22 21 19 18 18 17 17 17 18 19 19 19 18 19 19
28 26 26 26 27 27 26 28 31 34 36 37 38 36 33 31 30 29 31 33 34 34 32 32 31 31 32 33 33 33 33 33 34 34 34 33 32 31 30 29 29 29 29 28 27 27 25 24 23 22 21 20 18 17 17 17 18 19 20 19 19 19 19
29 30 30 28 27 28 29 31 32 32 33 34 36 37 35 32 30 29 30 33 35 35 33 32 31 30 31 32 33 33 33 33 34 34 34 33 32 31 30 30 30 30 30 29 28 27 26 25 25 24 23 21 19 18 17 16 18 20 20 19 19 19 18
30 33 35 33 30 30 31 32 30 28 29 29 32 35 37 34 31 29 30 32 34 35 35 33 32 31 31 31 32 33 33 33 34 34 34 33 32 31 30 30 30 30 29 29 28 27 26 26 26 25 24 22 20 19 17 17 18 19 19 19 19 18 18
26 31 37 36 33 32 33 33 30 27 26 25 27 32 37 36 31 29 29 31 33 35 36 34 33 32 31 31 31 32 33 33 33 33 33 33 32 31 30 30 29 29 29 28 28 28 27 27 27 26 25 23 22 20 19 19 19 20 20 20 20 19 18
28 30 37 41 37 35 35 34 31 28 26 24 24 29 36 37 32 29 29 29 31 34 36 35 34 32 31 31 31 31 31 32 32 32 33 32 32 31 30 30 29 29 28 28 29 28 28 27 27 27 26 25 24 22 21 21 21 21 22 22 21 20 18
34 32 39 46 43 38 37 34 32 30 27 24 24 28 35 37 33 30 28 28 30 32 34 34 33 32 32 31 30 29 29 30 30 31 31 32 32 31 30 30 29 28 28 28 28 28 28 27 27 27 27 27 26 25 24 24 23 23 23 23 22 21 19
34 33 41 50 47 42 39 36 32 30 28 24 24 29 34 36 33 30 28 29 29 30 30 31 31 32 32 32 30 28 27 28 29 30 30 30 30 30 30 30 29 28 28 27 27 27 27 27 27 27 27 27 27 27 27 26 25 24 24 24 23 22 21
32 35 41 48 50 46 41 37 34 32 28 23 24 30 34 34 33 31 30 30 29 27 26 26 26 26 27 28 28 27 26 26 27 28 29 29 29 29 29 29 29 29 28 27 27 27 27 27 26 26 26 26 27 27 28 27 26 25 25 25 25 24 23
30 34 35 41 48 49 45 40 36 32 26 22 25 31 34 34 33 32 32 31 29 27 26 25 23 22 21 21 22 23 24 24 25 26 27 28 28 28 28 28 29 29 28 28 27 27 27 27 26 25 25 26 26 27 27 27 27 26 26 25 26 25 24
25 30 31 34 42 48 47 43 38 31 25 23 26 30 33 34 33 32 33 33 31 30 28 26 25 24 22 20 20 20 21 21 22 23 24 25 26 27 27 28 29 29 29 28 27 27 28 27 26 26 25 26 26 26 26 26 26 26 26 26 26 26 26
21 27 29 30 33 38 41 40 36 31 27 25 25 28 32 34 33 31 32 33 32 32 30 28 28 27 26 25 24 23 22 21 21 21 21 21 23 25 27 28 28 28 28 28 28 29 29 28 27 27 26 26 25 25 25 25 25 25 26 26 26 27 27
19 23 27 28 28 32 34 35 33 31 29 28 26 28 32 35 34 32 31 31 31 32 31 30 30 29 28 28 28 28 28 26 25 24 23 22 22 22 24 25 26 26 27 27 28 28 28 28 28 28 27 27 26 25 25 25 24 25 26 26 27 27 28
19 21 25 27 29 30 29 28 30 30 30 29 28 29 31 33 33 31 29 28 29 30 29 29 29 28 27 27 28 29 31 31 30 29 27 25 24 23 22 22 22 23 24 25 26 26 26 26 26 26 26 26 26 26 25 24 24 25 25 26 26 27 28
20 22 25 28 29 29 26 27 31 32 31 29 28 28 30 31 31 29 28 27 27 26 26 26 26 26 26 27 28 29 31 32 32 31 30 29 28 26 24 23 22 22 22 23 23 23 23 23 23 24 24 24 25 25 24 23 24 25 25 25 26 27 28
21 24 27 30 31 29 27 30 33 32 30 29 28 27 28 30 30 29 27 26 25 24 24 24 24 24 25 26 28 29 29 30 31 31 31 31 30 30 29 27 26 25 24 23 23 22 22 21 22 22 22 23 24 24 23 23 23 24 25 25 26 27 28
21 23 27 30 31 31 31 32 31 30 30 30 29 28 29 31 31 28 26 24 23 24 25 24 23 23 24 24 25 26 26 27 28 29 30 30 30 30 31 30 30 29 28 27 25 24 24 23 22 22 22 22 23 24 24 24 24 25 25 25 26 27 28
22 24 27 30 32 33 32 31 30 29 30 30 30 29 30 31 30 28 26 25 25 26 26 24 22 22 22 23 24 24 25 25 25 26 27 27 27 28 29 29 29 30 30 30 29 28 27 26 25 25 24 24 24 24 24 25 25 26 26 27 28 28 30
25 26 28 31 33 34 32 31 30 29 30 31 31 31 31 31 29 28 27 27 28 28 28 26 24 23 23 23 24 25 25 25 26 25 25 24 24 25 26 26 27 28 29 30 30 30 30 29 29 28 27 27 26 26 25 25 26 26 27 28 29 30 31
26 27 29 31 33 33 32 31 30 29 31 33 32 31 30 29 28 27 28 28 28 29 29 28 26 24 22 21 22 23 24 24 25 25 25 25 24 25 25 25 25 26 27 28 29 30 31 31 32 32 31 31 30 29 28 28 28 28 28 28 29 31 32
24 26 28 30 31 31 30 30 29 30 34 36 33 30 28 27 28 28 28 27 26 25 25 25 24 22 20 19 19 18 19 21 22 23 24 25 26 26 26 25 26 26 27 28 29 30 30 31 32 33 34 34 34 33 33 32 31 31 31 30 31 32 33
22 24 26 27 28 27 27 27 26 29 34 37 34 30 28 28 29 28 27 25 24 22 20 19 20 21 20 18 18 17 17 18 20 22 23 23 25 26 26 26 26 27 27 28 29 29 30 30 31 33 33 33 33 34 34 34 34 34 34 34 34 35 35
21 23 24 24 24 24 24 24 24 26 31 35 34 31 30 30 29 27 25 24 24 25 23 20 20 21 19 17 15 15 15 15 17 19 20 21 21 23 24 25 26 27 28 29 29 30 30 30 30 31 32 31 31 32 32 33 35 36 37 38 38 38 38
24 24 24 24 24 23 23 23 23 24 27 31 33 31 30 30 29 27 25 23 22 24 25 23 22 22 22 21 18 15 14 14 14 15 16 17 18 19 20 22 23 24 26 28 29 29 30 30 30 31 31 31 30 30 30 31 33 35 38 39 41 41 41
28 27 27 27 27 26 26 25 25 25 27 29 31 31 30 30 29 28 26 23 22 22 23 22 20 19 20 22 24 22 18 15 15 16 16 16 17 17 18 19 19 20 21 23 25 27 29 30 31 31 31 31 30 30 30 32 33 34 36 38 40 42 43
32 32 31 30 30 30 29 29 28 28 29 29 30 30 30 30 29 27 26 24 23 22 21 20 19 18 17 18 23 25 23 20 19 19 18 19 19 19 18 18 17 17 17 18 19 20 23 25 28 30 31 32 32 32 33 33 34 35 35 36 37 38 39
35 35 34 34 33 32 32 31 31 30 30 30 30 30 30 29 28 27 26 24 22 21 20 20 20 20 19 19 21 24 24 24 23 22 21 21 21 20 19 18 18 17 16 16 16 16 17 19 22 24 26 28 30 31 32 33 34 34 34 34 34 34 34
33 35 36 36 35 34 33 33 32 32 31 31 31 31 30 29 28 26 25 24 22 22 22 22 22 22 23 23 24 25 26 26 26 25 24 23 22 21 21 21 20 20 18 17 17 17 18 19 20 21 22 23 24 25 26 29 31 33 34 34 34 33 32
27 31 34 35 35 34 33 33 32 31 31 31 30 30 29 28 27 26 25 25 25 25 25 25 25 26 26 27 28 29 29 28 28 27 26 25 24 23 22 22 22 21 20 19 20 20 21 21 22 22 22 22 22 22 23 24 26 28 31 32 33 33 32
25 27 30 32 33 32 31 31 31 31 30 30 29 29 28 27 27 27 27 27 27 27 26 26 25 25 26 27 28 29 29 28 28 27 27 26 25 24 24 23 23 23 23 23 24 24 24 24 24 24 24 24 23 23 23 24 24 26 27 28 30 31 31

ECMWFFLT1_700_spd_051.txt.gz
Wind_Speed
24 23 24 26 26 26 27 28 29 29 30 29 28 29 30 31 32 32 33 33 33 32 33 33 32 32 31 31 30 30 30 29 29 30 30 30 30 29 28 28 27 26 24 22 19 18 17 16 15 14 13 13 12 12 12 13 13 13 12 12 12 11 11
25 22 23 26 29 29 28 29 29 30 31 31 30 29 30 30 30 30 32 32 32 32 32 33 32 32 31 31 31 30 30 30 30 30 30 31 30 30 29 29 29 28 26 24 21 20 20 19 18 16 15 15 14 14 14 15 16 15 14 14 14 13 13
26 22 22 25 30 31 30 29 30 30 32 32 31 30 31 30 29 29 30 30 31 32 32 32 32 31 31 31 31 31 31 30 30 30 30 30 31 30 30 30 30 29 28 26 24 22 21 20 19 18 18 17 16 16 16 16 17 17 17 16 15 15 15
27 23 21 23 28 32 32 31 31 31 33 33 32 32 31 30 29 29 28 29 30 31 31 31 31 31 31 31 31 32 31 31 30 30 29 30 30 31 31 31 31 31 30 27 25 24 23 22 21 20 20 19 19 18 17 17 18 19 19 18 17 17 17
27 23 22 23 27 32 33 32 33 33 33 33 33 33 32 30 30 29 29 29 29 30 31 30 31 31 31 31 32 32 31 31 30 30 29 29 30 32 32 32 32 31 30 28 27 25 24 23 22 21 21 21 20 20 19 19 19 20 20 20 19 18 18
28 24 23 23 26 30 33 33 33 34 34 34 33 33 32 31 31 31 30 29 29 30 31 31 32 32 31 31 31 32 32 32 31 30 30 29 30 32 32 32 31 30 30 29 28 27 26 24 23 22 22 21 21 21 20 20 19 20 21 21 21 20 19
28 25 23 23 25 28 31 33 34 34 34 35 34 34 33 32 32 32 31 30 29 29 30 32 33 33 32 32 32 31 31 32 32 32 31 30 30 31 32 31 31 30 30 30 29 28 27 26 25 23 22 22 21 21 21 21 20 20 20 21 22 22 21
25 23 23 23 24 25 28 32 34 34 34 35 36 35 33 32 32 32 32 31 30 30 30 31 32 33 33 34 33 31 31 32 33 33 32 32 31 31 32 31 30 30 30 29 29 29 28 27 26 24 23 22 21 21 21 20 20 20 20 20 22 22 22
25 22 22 22 22 22 26 30 32 34 33 34 35 34 33 33 32 32 33 32 31 31 31 31 31 31 33 33 33 32 32 33 33 34 33 33 33 32 32 31 31 30 30 30 29 29 28 28 27 26 24 23 22 21 21 20 19 19 20 20 21 22 23
27 24 22 21 20 20 26 29 30 32 32 31 33 34 34 33 32 32 33 33 33 32 32 31 31 31 32 33 33 33 33 33 33 34 35 34 34 33 33 32 32 32 31 30 30 30 29 29 28 27 26 24 22 21 20 19 19 19 19 20 20 21 22
26 24 22 22 21 20 25 29 29 30 30 29 31 33 35 34 33 32 32 32 33 33 32 32 32 31 31 32 33 34 34 33 33 35 35 35 35 34 33 33 33 32 32 31 31 30 30 30 29 28 26 24 22 21 20 19 18 18 19 20 21 21 22
25 24 22 22 23 22 24 27 28 28 29 29 29 30 33 34 34 33 32 32 33 33 33 33 33 32 32 31 32 34 34 33 33 34 35 35 35 34 34 34 33 32 32 32 31 30 30 30 30 28 27 24 23 21 20 19 19 19 19 20 21 22 22
27 28 26 24 25 25 24 25 26 27 28 29 29 27 28 32 34 34 33 32 33 33 33 33 34 33 33 32 31 32 34 34 33 33 34 34 34 34 34 34 33 32 31 31 31 30 30 30 29 28 27 25 24 22 21 21 20 20 20 21 22 22 23
27 28 29 28 28 28 28 27 27 27 28 29 30 27 25 27 33 35 34 33 33 33 33 33 34 34 33 32 31 30 32 33 33 32 32 33 34 34 34 34 33 32 31 31 30 30 29 29 28 28 27 27 25 24 22 22 22 22 21 21 22 23 22
25 26 26 27 28 29 30 30 30 30 29 30 30 27 23 24 30 34 35 35 34 33 32 32 33 34 34 34 31 29 30 32 33 32 32 33 34 34 34 34 33 32 32 31 30 30 29 28 28 28 28 27 26 25 25 24 24 23 21 21 22 22 22
22 24 25 26 27 29 30 31 32 33 32 31 31 28 23 23 28 32 34 35 34 33 32 32 33 34 36 35 32 30 30 30 31 32 32 32 32 33 34 33 33 32 31 30 30 30 29 29 29 28 28 28 27 27 27 26 25 24 23 22 22 22 22
20 22 24 27 28 29 31 32 34 36 35 32 31 28 24 25 29 31 32 34 34 33 32 32 32 34 36 36 34 32 31 30 30 31 32 32 31 32 32 32 32 31 30 29 29 29 29 29 29 28 27 27 28 28 28 26 25 25 24 23 23 23 24
21 21 23 27 30 32 33 35 38 39 37 33 31 30 26 26 30 32 32 33 33 32 31 31 31 33 36 37 36 35 33 30 29 30 31 31 31 31 31 31 31 31 30 29 28 27 28 28 28 27 27 27 27 28 28 26 25 25 26 25 24 25 26
23 22 22 25 31 35 38 41 43 43 39 34 33 31 26 25 30 32 32 33 32 31 30 30 31 33 35 36 36 36 34 32 31 29 29 30 30 30 30 30 30 30 29 28 27 26 27 27 27 26 26 26 26 26 26 26 25 25 26 26 26 26 27
23 22 22 26 32 39 43 45 45 45 41 36 34 31 26 25 30 32 33 34 33 31 30 30 30 31 33 35 36 36 35 33 32 30 29 29 29 29 29 29 29 29 28 28 27 27 27 27 26 26 26 25 24 24 25 25 24 24 25 26 27 28 28
21 21 22 26 33 39 41 43 45 45 42 38 37 34 27 26 30 34 35 35 32 31 31 30 27 26 26 29 32 34 34 33 32 30 28 28 28 28 29 29 28 28 28 28 27 27 27 27 26 26 26 25 25 24 24 23 23 23 24 25 26 28 29
21 22 22 24 30 34 34 37 42 45 42 41 39 33 26 28 33 36 36 36 34 33 32 31 28 25 23 23 24 26 28 29 28 28 27 27 28 28 29 29 28 28 27 27 27 28 28 27 27 27 27 26 26 25 24 23 22 23 24 25 26 28 29
22 22 19 22 27 30 31 34 41 44 44 43 39 30 26 31 36 38 38 37 36 35 34 33 32 30 27 25 24 23 23 24 23 23 24 24 25 26 27 27 27 27 27 27 27 27 27 27 27 27 26 27 27 27 26 24 24 24 25 25 26 28 29
23 21 17 22 26 29 32 36 42 45 45 45 40 31 28 32 36 39 39 38 36 36 36 35 35 34 32 30 29 28 26 25 24 24 24 23 23 23 23 23 23 24 25 25 25 25 25 25 25 25 25 26 27 27 27 26 26 27 27 27 28 29 29
23 19 15 23 28 29 33 37 43 46 45 43 39 32 30 33 37 39 39 36 36 37 37 36 34 34 34 34 33 32 31 30 30 29 28 27 26 25 24 23 22 22 22 22 22 22 22 22 23 23 24 25 25 26 26 26 27 27 28 29 30 30 30
23 17 15 25 30 31 33 36 40 42 41 39 35 32 32 34 37 39 37 35 35 35 35 34 32 31 33 34 34 35 35 34 34 33 32 32 31 30 29 27 26 25 24 23 22 22 21 21 22 22 22 23 23 24 25 25 26 26 27 29 30 31 31
22 17 15 25 30 31 32 34 35 36 35 34 32 32 33 34 35 37 36 34 33 33 33 31 29 30 32 33 35 35 35 35 34 34 33 33 33 32 31 31 30 29 28 28 27 25 25 24 24 23 23 23 23 23 23 24 24 25 27 28 29 30 31
21 17 16 23 28 28 29 31 32 33 33 32 31 32 32 32 33 35 35 34 33 32 31 29 29 31 33 33 34 34 33 33 32 32 32 33 33 33 33 32 32 31 31 31 30 29 29 28 28 27 26 26 25 25 24 24 23 24 26 27 28 30 31
20 17 16 21 25 27 28 28 31 33 32 31 32 32 32 32 33 34 34 33 33 32 31 30 31 31 32 32 31 31 31 31 31 31 32 32 32 32 32 32 32 32 32 32 31 31 31 31 31 31 30 30 29 29 28 27 26 26 26 27 28 29 30
18 16 16 19 22 26 27 28 30 32 32 33 34 34 33 32 33 33 34 34 34 33 32 31 31 31 30 29 28 28 28 28 29 29 29 29 30 30 31 31 31 31 32 32 32 32 32 32 33 33 32 32 32 31 31 30 30 29 29 29 29 29 29
16 16 17 19 21 23 25 27 29 31 33 35 37 36 34 33 34 34 35 35 33 32 31 30 30 29 27 25 23 23 23 23 23 24 24 26 27 28 29 31 31 31 31 32 32 32 32 32 32 32 33 32 32 32 32 32 32 32 32 32 32 32 31
16 16 18 20 22 23 24 26 27 29 32 36 38 37 35 35 35 35 34 33 32 31 29 28 26 25 23 21 20 20 21 22 21 22 24 26 27 28 29 30 31 31 31 31 31 31 31 31 31 32 32 32 32 32 32 32 33 33 33 34 34 35 35
16 18 20 22 24 24 25 26 27 29 32 36 38 38 36 36 36 35 33 32 31 30 28 26 24 22 20 19 20 22 22 21 21 22 23 25 27 28 29 30 31 31 30 30 30 30 30 30 30 30 30 30 30 30 30 31 31 31 32 33 34 35 36
17 19 20 22 25 26 27 28 28 29 32 35 37 38 38 37 36 35 34 32 31 29 27 26 25 25 22 19 19 22 22 20 18 18 19 20 22 23 25 27 28 30 30 30 30 29 30 30 29 29 28 28 28 29 29 29 29 30 30 31 32 33 34
21 21 22 23 24 26 28 30 29 30 31 33 36 38 39 38 37 36 35 33 32 30 28 26 28 31 29 24 21 22 23 22 20 18 17 15 15 17 19 21 23 24 25 26 27 27 27 27 27 27 26 27 27 27 28 28 28 29 30 31 31 32 33
25 24 24 25 25 26 28 29 30 30 31 32 34 37 39 39 39 38 37 35 32 31 29 26 26 28 28 26 22 21 22 24 24 23 21 18 15 15 16 18 19 20 20 21 21 22 22 22 22 22 23 23 23 23 23 23 24 26 28 30 31 33 33
27 27 26 27 27 27 27 28 29 30 31 32 34 36 38 39 38 38 38 35 32 30 29 26 24 23 24 23 22 20 20 20 21 22 22 19 16 15 16 18 19 20 21 21 21 21 21 21 21 21 21 21 20 20 20 20 21 23 25 27 29 31 33
27 27 27 27 27 27 28 28 28 29 31 33 34 36 38 38 38 38 37 35 33 32 30 27 25 24 23 22 22 22 21 20 20 20 20 19 17 16 16 18 20 21 22 22 22 22 23 23 23 22 22 21 20 20 21 21 22 24 25 26 27 29 31

ECMWFFLT1_700_spd_054.txt.gz
Wind_Speed
27 26 25 25 24 22 22 24 25 26 27 27 26 25 25 27 29 32 33 33 33 33 33 32 32 32 33 33 33 32 31 31 30 29 29 29 29 28 27 27 25 24 23 22 21 20 18 17 17 16 15 14 13 12 11 11 11 10 9 9 8 8 8
27 28 27 26 25 23 22 23 26 28 29 29 28 27 26 26 27 29 31 32 32 33 32 32 32 32 32 33 33 32 32 31 31 30 29 29 29 29 28 28 27 26 24 24 24 22 21 20 19 18 17 15 14 13 13 13 13 13 12 11 10 10 9
28 29 29 28 25 22 21 23 25 28 30 31 30 29 27 26 26 27 29 30 31 32 32 32 33 32 32 32 33 32 32 32 31 31 30 29 29 29 29 29 28 27 26 26 26 24 23 23 22 20 19 17 16 15 15 14 15 15 15 14 13 12 11
30 30 30 29 25 21 20 22 25 27 29 31 31 30 29 27 26 26 27 28 30 31 32 32 32 33 33 33 32 32 32 32 32 31 30 29 29 29 30 30 29 28 28 27 26 26 25 25 23 21 20 20 19 17 17 16 16 16 17 16 15 14 14
34 32 31 29 26 22 20 22 25 27 28 30 31 31 30 29 28 27 26 27 28 30 31 31 32 33 33 33 33 32 32 32 32 31 30 30 30 30 31 30 30 29 29 28 27 27 27 26 24 23 22 21 20 20 18 18 17 18 18 19 18 17 16
34 33 32 30 27 23 21 22 25 27 28 29 31 32 31 31 30 28 27 26 28 30 31 31 32 32 32 33 33 33 32 32 32 31 31 31 31 31 30 30 30 30 30 29 29 28 27 27 26 24 23 23 22 21 20 19 18 18 19 20 20 19 18
33 33 32 30 27 23 21 21 23 26 28 29 30 32 32 32 31 30 29 28 28 29 30 30 31 32 32 32 33 32 32 32 32 31 32 32 31 31 30 30 30 31 31 31 30 29 28 28 27 26 25 24 24 23 21 20 20 19 20 21 22 21 21
31 33 32 30 27 23 21 21 23 26 29 30 31 33 33 33 33 32 31 30 30 29 30 30 31 31 31 31 32 32 31 32 32 32 32 32 32 31 30 30 31 32 33 33 31 30 29 28 28 27 26 26 25 24 22 21 21 21 21 22 22 22 22
29 32 32 29 27 23 20 21 24 27 29 30 31 33 33 33 34 33 33 32 31 30 29 29 30 30 30 31 31 31 31 32 32 33 33 33 32 31 30 30 31 32 33 33 32 31 30 29 28 27 26 26 25 24 23 22 22 22 22 21 21 22 23
26 30 32 29 25 23 22 23 26 29 31 31 31 32 33 34 34 34 34 34 33 31 30 30 30 30 30 30 30 30 31 31 32 33 33 34 33 32 31 30 31 32 33 33 32 32 30 29 29 28 27 27 26 24 23 23 22 22 21 21 21 21 23
22 25 28 27 25 24 25 26 26 29 32 32 32 32 34 34 34 34 35 35 34 33 32 31 31 31 30 30 30 31 31 31 32 32 33 33 33 32 32 31 31 31 32 33 33 32 30 29 29 28 27 27 25 24 23 22 22 22 21 21 20 21 22
22 22 24 26 26 26 26 26 26 27 31 34 32 32 33 33 34 34 35 35 35 34 34 33 32 31 30 30 30 32 32 32 32 32 32 33 34 33 33 32 32 31 32 32 32 31 30 30 29 28 27 26 25 24 23 23 22 22 22 21 21 21 22
23 23 24 25 27 27 27 27 26 25 28 33 34 32 32 32 33 34 34 35 35 35 35 34 34 33 32 30 30 31 31 32 32 32 32 33 34 35 35 34 33 32 32 32 32 31 30 30 29 28 27 26 25 24 23 23 23 22 22 21 21 21 21
17 19 21 23 26 26 25 25 25 23 24 30 35 33 31 32 33 34 35 35 35 35 36 35 36 35 33 31 31 30 30 30 31 32 32 32 34 35 35 35 34 33 32 33 32 32 31 30 29 28 27 26 25 25 24 24 23 22 22 22 22 21 20
10 11 13 17 20 23 24 23 24 23 22 25 31 33 33 33 34 35 36 36 36 36 36 36 37 37 35 33 31 30 29 29 30 31 32 32 33 34 35 35 34 34 33 33 33 32 31 30 30 29 28 27 26 26 26 25 24 23 22 22 22 21 20
10 9 9 10 14 18 22 23 23 23 23 23 26 30 33 34 35 35 36 36 37 37 36 36 36 37 36 34 32 30 29 29 29 30 31 31 32 33 34 34 34 34 33 33 33 32 31 30 30 30 29 28 28 28 27 26 25 24 23 22 22 21 20
12 12 10 10 11 14 18 21 23 24 25 25 25 26 29 32 33 35 36 36 37 38 37 36 36 36 36 35 33 32 30 29 29 29 30 31 31 31 32 33 34 34 33 33 33 32 31 31 30 30 29 29 29 29 28 27 26 24 23 23 23 22 22
14 14 13 13 12 12 14 17 21 25 27 27 26 26 28 29 29 32 36 37 36 37 38 37 36 36 36 36 36 34 31 29 28 28 28 30 30 30 31 32 33 34 33 33 33 32 31 30 30 29 29 29 29 29 28 27 26 25 24 23 23 23 23
17 16 15 15 15 14 14 16 20 26 29 29 28 28 29 28 27 28 32 35 37 38 39 38 37 37 36 37 37 35 33 30 29 28 28 29 29 30 31 31 32 32 32 32 32 32 32 31 30 29 29 28 28 28 27 27 26 25 24 24 24 24 24
21 19 17 16 16 16 17 18 20 25 31 32 30 30 30 30 28 26 28 34 38 40 40 40 39 38 37 37 37 35 34 32 31 30 29 28 29 30 31 31 30 31 31 32 32 32 31 31 30 29 28 28 28 27 26 26 26 24 24 25 25 25 26
24 22 20 17 16 17 19 21 23 27 32 34 32 32 33 32 31 28 27 32 37 40 41 41 41 39 38 38 37 36 35 34 34 32 31 29 29 29 30 30 30 30 31 31 31 31 31 31 30 29 28 28 27 26 25 25 24 22 23 24 25 26 27
25 23 21 19 18 18 20 23 27 30 33 35 34 35 36 34 33 31 27 30 36 39 41 42 41 40 39 38 37 36 35 35 35 35 33 31 30 29 30 30 31 31 31 31 31 31 31 31 30 29 29 28 27 26 25 24 23 22 21 23 24 26 28
27 25 22 20 19 19 19 24 31 33 35 37 38 38 38 37 37 34 29 30 35 38 40 42 41 39 38 37 37 36 36 36 37 36 35 33 31 30 30 30 31 31 31 30 30 31 31 31 30 30 29 28 27 27 25 24 23 22 22 23 24 26 27
29 27 24 22 21 19 19 26 34 37 38 41 42 41 40 40 40 38 32 31 35 37 40 41 40 39 38 37 35 35 35 36 37 37 36 34 32 31 31 31 31 31 30 30 30 31 31 30 30 30 30 29 28 28 26 25 24 24 23 24 25 26 27
29 28 26 25 23 19 20 27 36 39 41 43 44 43 42 42 42 39 33 32 35 37 39 40 40 39 37 32 30 32 33 34 35 35 36 35 33 32 31 31 31 30 30 30 31 31 31 30 30 30 30 29 29 29 28 26 26 26 25 25 26 27 27
30 29 27 27 25 21 21 26 34 40 45 46 45 44 44 45 44 39 33 33 36 37 39 42 41 37 31 27 25 27 29 31 33 34 35 34 33 32 32 31 31 30 30 30 31 31 31 30 30 30 30 30 29 29 29 28 28 28 27 27 28 28 28
32 30 28 27 24 22 22 24 28 34 41 45 47 47 47 48 46 39 34 35 36 38 41 42 40 35 30 27 25 24 26 27 29 30 31 32 32 31 31 30 29 29 29 29 30 30 30 30 30 29 29 29 29 29 29 29 29 29 28 28 29 30 31
33 31 27 25 23 21 20 22 24 28 34 39 43 47 49 50 46 39 35 34 35 38 42 42 39 35 32 29 28 26 27 27 28 29 30 30 31 31 30 29 28 28 28 28 28 28 27 27 27 27 27 27 27 28 28 28 28 28 28 29 30 31 33
32 30 25 22 22 20 19 23 25 28 31 33 37 43 47 48 44 39 35 33 33 39 43 41 39 37 34 32 31 30 29 30 30 30 30 31 31 31 30 30 30 29 29 28 28 27 27 27 27 26 26 26 27 28 28 27 27 27 28 28 29 31 32
29 26 22 20 21 19 20 25 27 29 30 29 33 38 41 40 40 38 35 33 35 42 43 40 39 38 36 34 33 32 32 32 33 33 34 33 33 33 33 33 32 32 32 31 31 31 31 30 30 30 29 28 28 28 28 27 26 26 26 27 27 28 30
25 22 18 17 19 19 22 27 29 29 30 30 31 33 34 35 37 37 35 35 39 43 42 40 40 40 38 36 35 33 33 34 35 35 36 36 36 36 36 36 35 35 35 35 35 35 35 35 34 34 33 32 31 30 30 29 27 27 27 28 28 28 29
23 18 15 16 18 20 24 28 30 30 30 31 32 33 34 36 37 36 36 39 42 43 42 41 42 40 39 37 36 35 36 36 36 36 36 36 36 37 37 37 37 37 36 37 37 37 37 36 36 36 35 34 34 33 32 31 30 30 30 30 31 31 31
21 16 15 17 19 22 26 29 32 32 32 33 34 35 37 38 38 38 39 42 44 44 43 42 41 39 38 38 38 37 37 36 35 35 34 34 34 34 34 35 35 35 35 35 35 36 36 36 36 36 36 35 34 34 33 32 32 32 32 32 33 34 34
17 15 15 18 20 24 27 29 31 34 35 35 36 38 39 40 41 42 43 45 45 44 43 42 39 38 38 37 35 34 33 32 31 30 29 29 30 30 30 30 31 31 32 33 33 33 34 34 34 34 34 34 33 32 31 31 31 31 31 31 32 33 34
15 15 17 19 22 25 28 30 32 34 36 38 39 41 42 43 44 45 46 47 46 44 42 39 37 36 34 31 29 28 28 27 27 27 27 27 27 27 27 27 28 29 30 30 31 31 31 31 31 31 31 31 30 29 29 29 29 29 30 30 31 31 32
17 16 19 20 22 25 28 29 32 35 38 40 42 44 45 46 47 48 48 47 45 42 40 37 35 33 30 28 28 28 27 27 26 26 27 28 28 27 27 27 27 27 28 28 28 28 29 30 29 28 28 29 28 27 28 29 29 29 29 30 31 31 30
19 18 20 21 22 24 25 27 30 34 37 40 42 45 47 48 49 49 48 46 44 42 39 37 35 33 32 31 30 28 27 27 28 28 28 28 27 25 25 26 25 25 25 25 25 26 28 29 29 29 30 30 29 29 29 29 29 29 29 30 31 31 30
23 22 21 21 23 23 23 24 27 31 35 39 42 45 47 48 49 49 48 46 44 42 40 37 36 35 35 36 35 32 30 28 28 29 29 27 24 22 22 23 23 23 23 22 22 23 25 26 27 28 29 29 30 30 30 30 30 30 29 30 30 30 30

ECMWFFLT1_700_spd_057.txt.gz
Wind_Speed
27 28 30 31 27 24 24 23 23 25 25 24 24 24 23 24 26 29 29 28 29 30 31 31 30 31 32 32 31 31 30 29 29 28 27 27 26 26 25 25 24 23 21 20 19 19 18 17 16 15 14 13 13 12 12 11 10 9 9 9 8 8 7
28 29 33 34 31 28 24 21 23 25 25 24 24 24 25 24 24 27 28 28 28 29 30 30 30 30 30 31 31 31 31 30 29 29 28 28 27 26 26 25 25 24 22 21 21 21 21 19 19 17 15 14 14 13 13 12 11 11 10 10 9 8 8
29 29 31 32 33 32 26 21 23 26 26 25 25 25 25 24 24 24 26 27 27 28 29 30 30 30 30 30 31 31 31 31 30 30 29 28 27 26 26 26 26 25 23 22 23 22 22 21 20 19 17 16 15 15 14 13 13 12 11 11 10 9 9
28 28 29 30 32 32 26 20 21 24 26 26 25 24 25 24 23 23 24 26 27 28 30 30 30 30 30 30 31 31 31 31 31 30 29 29 27 27 27 27 26 26 25 24 24 24 23 23 22 21 19 18 17 16 15 14 14 13 13 12 11 10 10
27 27 28 30 32 32 27 22 19 21 24 26 26 25 24 24 24 23 23 24 26 27 29 29 30 30 30 30 30 30 30 30 31 30 30 30 29 28 28 28 27 27 26 25 25 25 25 24 23 22 20 19 19 18 17 16 16 15 14 14 13 12 12
28 28 28 29 32 34 33 27 21 19 20 24 27 26 26 26 25 25 24 23 25 27 29 30 30 30 30 30 30 31 30 30 30 30 30 30 30 29 29 28 28 28 27 27 26 27 27 26 25 23 21 20 20 19 19 18 17 16 15 15 14 14 14
30 30 29 30 31 35 37 32 24 20 20 21 25 27 28 28 27 26 25 24 24 26 28 30 31 31 30 30 31 31 31 30 30 30 31 31 31 30 30 29 28 28 28 28 28 28 27 26 27 26 23 22 21 20 20 19 18 17 16 16 15 15 16
31 31 30 30 30 35 38 34 27 22 20 20 24 28 28 27 27 27 27 26 25 25 27 29 30 31 30 30 31 31 30 30 30 30 31 31 31 31 31 30 29 28 28 29 28 28 27 27 27 27 26 24 23 22 21 20 19 19 18 17 16 16 16
29 31 31 30 30 32 36 36 29 23 20 19 21 26 27 26 27 27 27 27 26 26 26 28 29 30 29 30 30 30 30 30 30 30 31 31 31 31 31 30 30 29 29 29 28 28 28 27 27 28 27 26 25 24 22 22 21 20 20 19 17 16 16
25 28 30 30 30 29 31 33 30 25 22 20 20 24 27 26 26 26 27 28 27 26 26 27 29 29 29 29 29 29 30 30 30 31 31 31 32 32 31 30 30 29 29 29 28 27 27 28 28 28 27 27 26 25 24 23 21 21 22 21 19 17 16
23 27 28 29 31 29 28 29 28 26 24 20 19 23 27 27 26 26 27 28 28 28 28 29 29 28 27 28 29 30 29 30 30 31 31 31 31 31 31 30 29 29 28 28 28 27 27 27 29 29 27 27 27 26 25 24 23 23 23 22 20 18 17
18 24 27 27 29 29 29 29 28 27 25 20 18 22 27 28 26 27 27 28 28 29 29 30 30 29 27 27 29 30 29 29 30 30 30 30 30 30 31 30 29 28 28 28 29 29 28 27 28 28 27 26 26 26 25 25 24 24 23 22 21 19 18
17 20 22 25 26 26 27 28 29 28 25 21 19 21 26 28 29 28 28 28 29 30 30 30 30 30 28 28 29 29 29 29 29 29 28 28 29 30 30 30 30 29 28 28 29 29 29 29 27 27 26 25 26 26 26 26 25 24 23 22 21 19 18
15 17 18 22 26 26 27 29 30 28 24 21 20 21 25 29 31 31 30 29 30 31 32 32 31 30 29 29 29 29 28 28 28 29 28 28 29 30 30 31 31 30 29 29 29 29 30 29 27 26 25 25 25 26 26 26 25 24 23 22 21 20 18
7 12 12 14 19 22 25 28 28 26 23 23 23 22 24 28 32 34 33 32 32 32 33 33 32 31 30 29 29 29 28 28 29 29 29 28 29 29 30 30 31 32 31 30 29 29 28 28 27 26 25 25 25 26 26 25 25 24 23 21 21 20 19
2 9 11 12 13 13 15 18 20 21 21 21 22 22 24 27 31 35 36 34 34 34 35 34 33 32 31 29 29 29 29 29 29 29 30 29 29 29 30 30 30 32 32 31 29 29 28 28 28 26 25 25 25 25 25 25 24 23 22 21 20 20 19
3 9 13 16 15 11 10 11 13 17 19 18 18 20 22 26 30 35 37 37 37 36 36 36 34 33 32 30 30 30 29 30 29 29 29 29 29 30 30 30 30 31 32 32 30 30 30 30 29 27 25 25 25 25 25 24 23 22 21 20 20 20 20
11 12 14 16 11 7 9 11 11 14 16 17 17 17 20 24 29 34 37 39 38 37 38 38 36 35 34 32 32 31 30 30 30 29 29 29 29 29 30 30 30 30 31 31 31 31 31 31 30 29 28 27 26 26 25 24 23 22 21 20 20 20 21
17 16 14 13 6 6 8 11 12 14 15 17 17 17 18 20 25 31 36 38 39 39 40 40 38 37 36 35 34 32 30 30 30 29 28 28 27 28 30 31 31 30 30 30 30 30 31 32 31 30 30 29 29 27 26 25 25 23 21 20 21 21 22
21 19 16 13 13 14 12 11 12 15 16 18 19 20 19 19 21 24 28 33 37 39 41 41 41 39 38 37 35 34 32 31 30 30 28 27 27 27 29 31 32 30 30 30 30 30 31 32 32 31 31 30 30 29 27 27 26 24 22 21 21 22 23
25 23 22 21 20 18 15 14 14 16 17 18 20 21 22 23 23 23 24 27 33 38 40 41 42 41 40 39 38 36 35 33 31 30 29 28 28 28 28 30 31 31 31 31 31 31 31 32 32 31 30 30 30 30 28 28 27 25 23 22 22 23 25
28 26 26 24 21 20 17 15 16 18 19 20 21 22 25 26 26 25 25 26 30 34 38 40 42 42 41 41 40 38 36 34 32 31 30 30 30 29 28 29 31 31 31 31 31 31 31 31 32 31 31 30 30 30 29 28 28 27 24 22 22 24 26
32 30 29 25 23 21 19 17 17 19 21 22 23 25 27 27 28 28 28 27 28 32 35 38 41 42 42 42 42 41 38 37 34 32 31 31 31 30 29 29 30 31 32 32 32 32 32 31 31 32 31 31 31 31 30 29 29 28 24 22 23 25 27
34 33 30 27 25 22 21 20 19 20 22 24 26 28 28 29 30 31 31 29 29 30 32 36 39 41 41 42 43 43 41 39 37 34 32 32 33 32 31 30 29 30 31 32 32 31 31 31 31 32 32 31 31 30 30 29 28 27 25 23 24 25 27
35 34 31 29 27 25 24 23 21 21 21 23 27 29 30 31 32 34 34 32 30 29 29 32 36 39 40 42 44 45 43 41 39 36 33 32 32 33 33 32 30 30 30 30 31 31 31 31 31 32 32 32 31 30 30 29 28 27 25 24 25 25 27
34 33 31 30 29 27 26 24 22 21 21 22 27 30 32 33 34 36 36 35 34 32 28 27 31 35 38 41 44 45 44 43 40 37 35 33 32 33 34 34 32 31 30 30 31 32 31 31 31 31 31 32 32 31 31 30 29 28 26 26 26 26 27
31 31 30 30 29 27 27 24 22 22 21 23 29 33 34 36 37 38 37 37 37 34 29 26 28 31 34 38 42 45 45 44 42 39 36 34 32 33 34 35 34 32 30 30 31 32 33 32 32 32 31 31 32 32 32 30 30 30 28 27 27 27 27
27 27 28 28 28 27 27 25 24 22 21 24 30 35 37 40 41 41 40 39 38 35 31 29 30 32 33 36 40 44 45 44 42 39 36 35 34 34 34 35 35 33 31 31 31 33 34 34 33 32 31 30 31 32 32 31 31 32 30 28 28 28 29
27 26 26 27 27 27 27 25 24 23 23 25 30 36 40 41 43 44 43 41 38 36 34 33 32 33 33 35 40 44 45 43 40 37 36 36 36 35 34 34 35 33 32 32 33 34 34 35 34 33 32 31 31 32 32 32 31 32 31 30 29 29 30
31 29 28 27 26 26 26 26 24 23 23 25 29 35 38 39 42 46 45 42 40 39 36 35 34 33 33 36 41 43 43 40 37 35 35 36 35 34 33 33 33 33 33 33 34 35 35 35 34 34 33 33 32 31 32 32 32 31 32 31 30 31 31
35 34 32 29 27 25 24 24 23 21 21 23 27 33 35 36 41 46 45 43 42 40 37 36 34 34 35 38 41 42 40 36 33 31 30 29 30 31 32 32 32 33 34 34 35 35 36 35 34 34 34 34 33 31 31 31 31 30 30 30 29 30 30
35 35 33 30 28 24 21 21 20 19 19 20 23 27 29 31 35 40 43 43 41 38 38 37 35 34 37 40 41 40 37 33 29 27 26 25 27 28 29 30 31 31 31 31 32 33 32 31 31 30 30 29 29 28 28 28 27 26 26 26 27 28 29
32 33 31 30 27 22 20 20 19 18 21 22 21 23 25 27 29 33 37 39 38 38 39 37 35 36 39 42 42 40 36 33 30 28 27 27 28 29 29 30 31 31 30 29 29 30 29 28 27 27 26 27 27 27 28 28 26 25 25 25 26 28 29
30 30 29 28 25 21 21 21 19 19 23 26 25 25 26 26 26 27 31 35 37 40 41 37 36 39 42 44 43 41 37 33 31 30 30 31 31 32 32 32 32 31 31 30 30 31 30 30 30 29 29 30 31 31 31 31 30 29 28 27 27 28 30
30 29 27 26 22 18 20 23 21 20 25 28 28 27 27 28 28 27 30 34 36 39 40 38 38 43 46 46 46 43 39 36 35 34 34 35 35 34 32 32 32 33 33 33 33 33 33 33 33 33 33 33 33 31 31 31 31 30 30 30 30 30 31
32 30 28 26 19 14 18 22 22 21 25 29 29 27 26 28 28 28 30 33 34 36 39 40 42 46 48 48 47 46 43 40 39 38 38 37 35 33 32 32 33 34 34 34 33 33 35 35 34 32 31 31 29 28 27 27 28 28 29 30 31 31 31
33 30 28 25 20 13 13 20 21 21 25 29 31 30 29 29 30 31 32 32 31 33 38 43 46 49 49 49 48 47 46 45 43 41 40 38 33 31 32 32 32 32 32 32 31 30 31 32 30 28 28 27 25 25 25 25 25 26 27 28 28 28 29
31 30 27 25 22 18 15 17 19 20 24 29 32 34 34 34 34 34 33 33 32 33 38 44 49 50 50 50 50 48 47 46 45 41 39 37 32 30 30 30 30 30 29 29 29 28 27 27 27 26 26 26 25 25 25 25 25 25 25 26 26 26 26

ECMWFFLT1_700_spd_060.txt.gz
Wind_Speed
31 28 29 30 31 33 32 31 31 31 29 28 27 26 25 26 28 30 29 26 26 27 28 28 27 26 27 27 26 26 26 26 26 25 25 24 24 22 21 20 19 18 17 16 15 14 14 14 13 12 11 11 11 11 10 10 9 9 9 8 7 6 5
31 29 30 30 31 32 31 30 30 30 29 28 27 26 25 26 28 29 28 25 25 27 27 27 26 26 26 26 26 26 26 26 26 25 25 25 24 23 22 21 20 19 18 17 16 16 16 16 14 13 12 12 12 12 11 10 10 9 9 9 9 8 7
35 33 31 30 32 34 31 30 30 29 29 28 28 28 26 26 27 28 26 24 25 26 27 27 26 26 26 26 27 26 26 26 26 26 25 25 25 24 23 21 21 20 19 18 18 18 18 17 16 15 14 14 13 13 12 11 11 10 10 9 9 9 8
34 32 29 27 28 31 30 30 29 29 29 28 27 28 26 23 25 28 25 23 24 26 27 28 27 26 26 26 26 26 26 26 26 26 25 25 24 24 23 22 22 21 20 20 20 20 19 19 18 17 16 15 14 14 13 12 12 11 10 10 9 10 9
29 28 29 28 24 24 28 29 27 27 28 27 26 27 25 23 26 31 28 23 22 24 26 27 27 27 26 26 26 26 25 25 25 25 25 25 25 24 24 23 22 22 21 21 21 21 21 20 19 18 17 17 15 15 15 14 13 12 11 10 10 10 10
28 28 30 29 24 22 25 28 27 26 26 25 24 25 26 25 28 33 32 25 22 23 26 27 28 28 27 26 26 26 25 25 25 25 25 25 26 25 25 24 23 23 22 22 22 22 22 21 20 19 19 18 17 16 16 15 14 13 12 11 11 11 11
28 30 31 30 27 26 27 27 28 28 26 25 25 26 28 27 26 30 34 30 23 23 26 28 29 29 28 27 27 26 26 25 25 25 25 26 26 25 25 25 24 23 23 23 23 23 23 22 20 20 20 19 18 18 17 16 16 15 14 13 11 11 11
26 29 31 31 29 28 29 29 28 29 27 26 28 28 28 28 26 26 31 32 27 24 25 27 28 29 28 28 27 27 26 25 25 26 25 26 26 26 25 25 25 24 24 24 24 24 24 23 21 21 22 21 20 19 18 17 17 16 15 14 12 11 11
27 27 28 30 30 30 31 31 30 30 29 29 29 27 26 29 28 25 26 29 29 27 24 25 26 27 27 27 27 27 26 26 26 26 26 26 26 26 25 26 26 25 25 25 24 24 24 23 22 22 23 23 22 21 20 18 18 18 17 15 14 12 11
28 29 27 26 28 29 30 31 29 28 31 29 26 24 24 27 28 26 25 28 30 28 25 23 23 24 25 25 26 27 27 27 27 27 26 26 27 27 26 26 27 27 26 26 25 24 23 23 23 23 24 25 24 23 22 20 19 19 18 16 15 14 13
27 30 31 28 28 30 30 31 28 26 29 29 22 21 23 24 26 26 25 27 29 29 27 24 23 22 22 23 25 27 27 28 28 27 27 27 27 27 27 27 28 28 27 27 26 25 24 23 23 24 25 25 25 24 24 22 20 19 19 18 16 16 15
27 26 32 34 32 35 34 33 31 25 27 31 25 20 21 23 25 26 24 24 28 30 28 26 24 22 21 22 23 25 26 27 28 28 27 28 27 27 27 28 28 28 28 27 26 26 24 23 24 25 25 24 24 24 23 23 21 20 20 19 18 17 16
21 19 27 32 30 34 35 34 32 23 23 30 29 22 21 22 25 25 24 25 28 31 30 28 26 23 21 22 23 23 24 25 26 26 27 28 28 27 27 27 28 28 28 27 26 26 25 25 24 24 24 23 23 24 23 23 22 21 20 21 20 18 17
14 16 23 28 26 29 32 32 28 21 20 27 29 26 23 21 23 24 25 27 30 31 31 29 27 25 23 22 23 23 23 23 24 25 26 27 27 26 26 27 28 28 27 27 27 27 26 25 24 24 24 23 23 24 24 23 23 23 22 22 21 20 18
11 16 21 25 25 27 30 29 27 23 21 23 25 27 25 22 21 21 24 27 30 32 32 30 28 26 24 23 24 23 23 23 23 24 25 26 26 27 26 27 27 28 27 27 27 28 27 26 25 25 25 24 22 23 25 25 24 24 23 22 22 20 19
8 8 12 20 25 28 30 29 31 31 29 27 25 26 26 24 21 19 22 26 30 32 33 30 28 27 25 24 24 23 23 24 24 24 25 25 26 27 26 26 27 28 27 27 27 28 28 28 26 25 25 26 24 23 25 26 25 24 23 21 21 21 19
5 6 6 14 20 25 28 29 33 37 37 37 34 31 28 25 23 21 21 25 30 33 34 32 29 27 25 24 24 25 24 24 24 24 24 25 25 26 27 27 27 27 28 27 26 28 29 29 28 26 24 25 25 25 26 27 25 24 22 21 20 20 20
2 4 8 14 15 18 24 28 31 32 32 33 34 33 32 29 27 25 23 24 28 33 36 36 32 28 27 26 25 26 26 25 25 24 24 24 24 25 26 27 27 27 28 27 26 27 28 29 29 28 25 24 25 25 26 27 25 23 22 21 20 20 20
3 4 10 15 14 16 20 24 26 26 25 24 24 26 27 27 27 28 26 24 26 30 34 37 36 32 29 28 27 27 27 26 25 25 24 24 24 24 25 27 28 27 28 27 26 26 27 28 29 29 27 24 24 24 25 25 25 23 22 22 21 21 21
10 6 7 10 12 13 15 17 20 20 20 20 20 21 22 22 24 28 29 26 27 29 32 36 38 36 32 29 28 28 28 28 27 26 25 24 24 25 25 27 27 27 27 28 28 27 27 28 29 29 29 27 25 24 25 24 25 24 23 22 21 21 21
15 12 11 10 12 12 10 11 13 13 14 17 19 20 21 21 23 28 30 29 29 31 31 32 37 38 35 31 29 29 29 29 28 27 26 25 26 26 26 26 26 27 27 28 29 28 27 27 29 29 30 29 28 26 26 26 25 24 23 23 22 21 22
23 19 17 15 15 15 13 11 11 12 13 15 18 22 23 23 23 25 28 28 29 31 31 31 34 39 39 34 31 30 30 30 30 29 28 27 27 27 27 26 26 26 27 28 29 29 28 28 29 30 30 30 30 29 28 27 27 26 24 24 22 22 22
31 27 24 21 19 18 18 17 15 15 15 15 16 20 23 24 24 24 26 29 30 31 32 32 33 38 40 36 33 32 31 31 32 30 30 29 28 28 28 27 27 26 26 27 29 30 30 29 29 30 31 31 31 30 29 28 27 27 26 25 23 23 23
35 33 30 28 25 23 22 21 19 17 17 17 16 16 18 21 23 25 28 31 31 30 31 34 35 37 40 38 35 34 33 33 34 33 32 31 29 29 29 28 28 28 27 27 27 29 29 29 29 30 31 32 31 30 30 29 28 27 27 26 25 24 24
35 35 34 33 31 29 26 24 22 20 19 19 18 16 16 18 22 27 31 32 31 29 30 34 36 37 38 37 36 36 35 35 35 35 34 33 31 30 29 29 30 30 28 27 27 28 29 29 29 30 31 32 31 30 30 30 30 29 28 27 26 26 26
36 35 33 32 32 32 31 28 26 23 21 21 20 19 17 17 21 27 31 32 31 30 30 32 34 34 35 36 37 37 36 36 36 37 37 36 34 32 30 30 31 31 31 29 28 28 28 29 29 30 30 31 31 31 31 31 31 31 29 28 27 27 27
34 33 31 28 28 30 31 30 28 26 24 23 22 20 19 19 21 26 31 33 33 32 29 28 28 29 31 33 35 36 37 37 37 38 39 38 36 35 32 32 33 33 33 31 29 28 29 29 29 29 30 31 31 31 31 31 31 31 31 29 28 28 28
31 29 27 26 25 26 29 29 28 27 26 25 23 21 21 21 22 26 32 35 34 32 30 28 28 28 29 31 32 33 35 36 37 38 39 39 39 38 36 34 33 33 34 33 32 30 29 29 29 29 30 31 31 32 32 31 31 31 31 31 29 29 29
33 29 27 26 24 24 26 28 27 27 27 27 25 23 22 23 24 26 32 36 34 31 31 33 32 31 30 30 30 30 31 32 34 36 38 40 41 40 39 36 34 33 34 34 34 33 31 30 30 29 30 31 32 32 31 31 31 31 31 31 30 29 29
36 33 30 28 27 26 26 25 24 25 27 28 27 25 24 26 28 29 32 35 34 32 35 38 37 34 33 31 30 29 29 30 32 34 37 41 42 42 41 39 36 34 33 33 35 35 34 33 31 30 30 31 32 32 32 31 32 31 30 30 30 30 29
37 36 34 32 31 30 29 27 23 23 25 27 28 27 25 27 30 32 34 35 35 36 39 41 40 38 36 34 31 30 30 30 32 34 37 41 43 43 43 40 37 35 34 33 34 36 37 36 33 32 31 32 32 32 32 32 33 32 30 29 29 29 30
36 36 36 35 35 33 32 30 27 24 24 27 29 28 27 27 30 32 34 36 39 40 41 42 42 41 38 36 34 32 32 32 33 34 37 40 42 43 43 40 37 35 35 34 34 36 38 37 35 33 32 32 32 32 32 33 34 33 30 28 27 28 29
34 36 36 36 36 36 35 33 31 27 26 27 29 28 26 27 29 31 33 36 40 43 43 44 45 43 42 39 36 34 35 35 34 34 36 39 42 43 42 39 36 36 37 37 36 36 37 37 37 35 33 32 32 32 32 33 33 32 30 28 27 26 27
34 35 35 35 35 35 35 35 33 30 28 28 28 27 25 26 28 31 32 34 39 42 43 45 46 45 44 42 37 36 37 37 35 35 37 39 41 42 40 37 36 37 38 37 37 37 37 37 37 35 33 32 31 32 32 32 31 30 28 25 23 22 22
31 29 29 29 31 32 33 34 35 32 29 29 28 26 25 26 27 30 31 32 36 41 43 45 46 46 46 43 38 37 39 39 38 37 38 39 40 39 37 35 34 34 33 33 33 34 35 35 33 30 28 27 27 27 27 26 24 23 22 20 19 19 21
27 25 25 27 29 30 31 33 34 31 28 29 28 25 26 27 27 29 32 32 35 40 42 43 44 45 46 43 39 39 42 42 41 40 39 40 40 38 35 34 32 28 26 26 27 28 29 28 27 26 25 25 25 24 24 23 21 21 23 24 24 25 26
28 26 27 29 31 33 33 33 33 30 28 29 28 25 27 30 30 31 32 33 35 38 41 43 43 45 45 43 42 43 45 44 43 42 42 42 41 37 35 33 30 28 26 25 25 26 26 26 26 27 27 27 26 26 26 26 26 26 27 28 29 29 29
29 29 28 27 29 33 34 32 30 28 26 28 28 27 28 32 33 33 33 33 34 36 40 43 45 46 45 45 45 47 47 46 45 45 45 44 41 37 35 34 32 31 29 27 26 27 27 27 27 28 28 29 29 29 30 29 28 27 28 28 29 28 28

ECMWFFLT1_700_spd_063.txt.gz
Wind_Speed
28 27 28 30 30 31 32 33 32 32 33 33 33 31 31 30 28 27 27 27 26 25 25 25 25 26 26 25 24 25 27 27 26 25 24 25 25 24 22 20 19 18 17 17 16 15 14 14 14 13 13 13 12 11 11 10 9 8 8 8 8 8 9
29 25 25 28 29 29 30 31 31 32 33 32 31 30 30 30 28 27 27 26 26 25 25 24 24 25 25 25 25 25 26 27 26 26 25 25 25 25 24 22 20 19 18 17 17 17 16 15 14 14 14 13 13 13 12 11 10 9 9 9 9 8 9
28 22 23 24 26 28 27 29 31 32 33 32 30 30 30 30 28 26 25 26 26 25 25 24 24 24 24 25 26 25 26 26 26 26 26 25 25 25 25 24 22 20 19 19 19 19 18 17 16 15 15 14 14 14 13 12 12 10 10 10 9 9 9
28 21 21 22 23 24 26 27 28 30 33 33 30 29 30 29 27 25 24 25 25 26 26 25 24 24 25 26 26 25 26 26 26 25 25 25 25 25 25 25 24 22 21 21 21 20 19 18 17 16 16 15 14 14 14 13 13 12 11 11 10 10 9
29 23 22 24 24 24 24 26 27 29 31 32 31 30 29 28 27 25 25 24 25 26 26 26 25 25 25 26 26 26 25 25 25 25 24 25 25 25 26 25 25 24 22 22 22 22 21 19 19 18 17 16 15 15 14 13 13 13 12 12 11 11 10
32 27 24 22 22 22 23 25 27 29 30 30 30 30 29 29 28 26 25 24 25 26 27 28 28 27 26 26 26 26 26 26 25 25 25 25 25 25 25 24 24 24 24 23 23 23 22 21 19 19 18 18 17 16 15 14 14 13 13 13 12 12 12
31 26 23 21 21 21 21 24 27 29 30 30 29 29 30 30 29 27 26 25 26 27 29 30 30 29 27 27 27 27 27 27 26 26 26 26 26 25 24 24 24 24 24 24 24 23 23 22 21 19 19 19 18 17 16 15 15 14 14 13 13 13 13
27 23 20 19 21 22 19 21 26 30 31 30 29 30 31 31 31 29 29 27 26 28 30 31 30 29 28 28 28 28 27 26 26 26 26 27 27 26 25 24 24 24 25 25 24 24 23 22 21 20 20 20 19 19 18 17 16 16 15 14 14 13 13
22 19 18 19 22 22 18 18 22 27 30 30 29 29 30 31 32 31 30 28 27 28 29 31 31 30 28 28 29 28 27 27 26 26 27 27 28 27 26 25 24 24 25 25 24 24 24 22 21 21 21 21 20 20 19 19 18 17 16 16 15 14 14
28 20 18 20 24 24 20 19 21 24 28 29 29 29 29 30 32 32 31 28 28 28 28 29 31 30 29 28 28 29 29 28 28 27 28 28 28 28 27 26 25 25 25 25 25 25 24 23 21 21 22 23 22 21 20 20 19 18 17 16 16 15 14
34 27 22 18 23 26 22 22 23 24 26 27 29 30 29 30 31 32 30 28 26 27 28 29 31 30 28 26 27 29 30 29 29 29 29 28 28 28 28 27 27 26 26 25 25 25 24 24 22 21 22 23 23 22 21 20 19 18 17 17 17 16 15
24 30 31 23 21 23 22 23 24 24 25 25 27 29 28 28 29 30 29 28 27 26 27 28 29 28 27 26 26 28 29 30 30 30 29 29 29 28 28 28 28 28 27 26 26 25 24 24 23 22 22 23 23 23 21 20 20 19 18 18 18 18 17
22 37 43 35 29 26 23 23 24 24 24 23 24 26 27 27 27 27 28 28 28 27 28 28 28 28 27 27 26 26 27 28 28 29 29 28 28 28 28 28 28 29 28 27 27 26 25 24 23 23 22 23 24 24 22 21 20 20 20 20 19 19 18
24 36 42 40 39 38 34 31 28 25 23 21 20 22 26 28 26 25 26 27 28 29 29 30 30 29 27 27 26 25 24 25 26 27 28 28 28 28 28 28 28 28 29 28 28 27 26 24 23 22 22 23 24 24 23 22 21 21 22 22 21 20 20
26 30 33 36 40 42 41 40 37 34 29 25 21 21 24 27 25 23 23 25 28 31 31 31 31 30 29 27 26 23 21 23 24 26 27 28 28 28 28 27 27 28 28 28 28 28 27 25 24 23 23 23 24 24 24 24 23 22 22 23 22 22 21
29 28 27 33 39 40 41 43 42 41 38 33 28 26 28 31 29 27 25 26 30 31 31 31 32 32 31 27 25 23 22 23 23 24 25 27 27 28 27 27 27 27 27 27 28 28 28 27 25 25 24 24 24 25 25 25 25 23 23 23 23 23 22
25 28 25 27 30 28 35 42 42 42 41 38 34 30 31 33 34 32 30 29 33 36 36 35 34 33 33 30 27 26 25 24 23 24 24 25 26 26 26 26 26 26 26 26 27 27 28 28 27 26 25 24 24 25 26 26 25 25 24 24 24 24 23
19 22 21 22 22 19 23 30 36 40 40 41 41 37 33 33 33 33 31 29 32 37 40 41 39 38 37 35 31 29 27 25 24 24 24 24 25 25 26 25 25 26 26 26 26 27 28 28 28 26 25 24 24 25 26 25 25 25 24 24 24 25 24
11 14 14 14 14 15 19 21 24 27 30 34 39 39 36 34 33 33 32 30 29 32 35 38 40 41 42 41 37 33 30 27 26 25 25 24 25 25 26 26 25 25 26 25 25 26 27 28 28 27 26 25 24 24 24 25 25 25 24 24 24 25 25
4 5 7 6 5 7 10 13 14 15 18 24 30 34 35 33 33 32 32 31 29 28 30 33 35 39 42 42 39 35 33 31 28 27 26 25 25 26 27 27 26 24 24 25 25 26 27 28 28 28 27 26 25 23 23 24 24 25 24 23 23 23 24
14 9 5 4 4 3 3 7 8 9 11 13 17 25 29 30 31 32 32 32 29 27 28 28 30 33 34 35 35 35 34 33 31 29 28 27 27 27 28 28 27 25 25 25 25 25 25 26 27 28 28 27 25 24 23 23 23 24 23 22 22 23 24
22 17 11 9 8 6 4 5 4 5 7 8 9 15 21 23 26 29 31 31 28 25 25 25 27 30 29 29 32 34 34 35 34 32 30 29 28 28 28 29 28 27 26 25 25 24 25 26 27 28 29 28 27 25 24 24 24 23 23 22 21 22 23
27 24 19 15 12 10 8 7 6 4 6 8 8 11 15 18 23 26 29 29 28 27 27 26 27 29 29 31 32 32 32 33 34 34 33 31 30 29 29 29 29 28 28 27 26 25 25 26 26 27 28 29 29 28 26 25 25 25 24 23 22 23 24
28 27 25 22 19 16 13 11 10 8 7 7 9 11 14 18 22 25 26 27 28 29 30 29 28 29 31 33 34 32 31 32 33 35 35 33 32 30 29 29 28 29 29 28 28 26 24 25 25 26 27 28 29 29 28 27 26 26 26 25 24 24 25
31 30 28 25 23 21 18 15 13 13 12 10 11 12 14 17 21 25 28 28 28 30 31 31 30 30 32 34 35 34 33 32 32 34 35 34 33 31 30 29 29 29 29 29 29 28 26 25 26 26 27 28 29 29 29 29 27 27 27 26 26 26 26
37 35 32 28 25 24 23 21 17 16 15 14 14 14 15 17 20 24 28 30 31 33 34 33 32 33 34 35 37 37 36 35 33 33 34 34 34 33 32 31 30 30 30 30 30 30 29 27 26 26 27 28 28 29 30 30 29 28 27 27 28 28 28
40 39 37 34 32 30 28 25 22 20 19 17 17 17 17 19 20 23 26 31 33 33 33 34 35 36 36 37 39 40 39 36 34 34 33 34 34 35 35 34 33 32 32 31 31 31 31 30 28 26 27 28 28 30 30 30 30 29 28 28 28 28 29
40 41 42 40 38 36 33 30 26 23 21 20 20 20 20 21 22 23 26 30 34 34 33 34 36 37 37 38 41 43 42 38 36 35 35 34 34 35 37 37 36 35 34 33 33 33 33 32 30 28 27 27 28 29 30 30 30 30 29 29 29 29 30
41 41 43 43 40 38 37 34 30 26 23 20 20 22 23 24 24 25 27 30 32 33 34 35 36 37 38 39 42 44 42 39 37 37 37 36 35 36 37 38 38 38 37 36 35 35 35 35 33 31 29 28 28 29 29 29 29 30 30 29 29 29 29
41 41 43 43 41 39 38 37 34 30 26 23 21 22 24 26 26 27 28 30 30 32 34 35 36 38 38 39 41 43 42 39 38 38 37 37 37 36 37 38 40 40 39 38 37 37 36 36 36 35 32 30 29 28 28 28 28 29 29 29 29 28 28
39 39 42 42 41 39 39 38 37 34 31 26 24 23 24 26 28 28 28 29 29 31 33 35 37 38 39 39 39 40 40 39 39 38 37 36 37 37 37 39 41 42 42 41 40 39 38 37 37 37 36 34 31 29 28 28 28 28 27 28 28 28 27
34 35 38 38 38 39 39 38 37 37 35 31 27 25 25 26 28 28 28 28 29 31 33 34 36 38 39 39 38 37 38 38 38 37 36 36 36 37 37 39 41 42 43 43 42 41 39 38 38 38 37 37 35 32 29 28 28 27 26 26 27 27 26
31 32 34 35 35 36 37 38 38 38 37 35 31 30 29 28 28 28 28 28 29 30 32 34 36 37 37 38 39 38 38 38 38 37 36 36 36 37 38 40 42 43 44 44 43 42 40 39 39 38 38 38 36 35 32 30 29 28 27 26 27 27 26
29 30 31 32 33 34 35 37 38 38 38 38 35 33 32 31 29 28 28 29 30 31 32 34 37 38 38 38 40 41 40 40 39 39 39 38 38 38 39 39 41 42 42 41 41 41 41 40 39 38 37 37 36 35 35 33 32 30 28 27 26 25 25
28 29 31 32 32 33 34 35 37 37 38 39 37 36 35 33 31 29 28 28 30 32 34 35 38 40 41 41 42 43 43 43 43 43 42 41 40 40 40 40 40 41 41 40 41 42 41 39 38 36 35 34 34 35 36 35 33 29 26 24 23 22 23
27 28 31 32 32 32 32 34 36 37 38 38 38 37 36 35 34 32 30 29 31 34 36 36 38 41 43 45 46 46 46 46 46 46 46 45 44 42 43 43 41 41 40 40 41 41 40 38 37 35 32 32 32 33 34 34 32 28 24 22 21 20 20
26 28 31 33 33 32 30 30 32 35 37 38 38 38 38 37 36 35 32 31 33 36 37 38 38 40 43 46 48 49 49 49 49 50 50 49 47 45 45 45 43 41 39 39 40 40 38 37 35 34 33 32 32 31 32 32 31 29 26 21 18 19 20
23 26 30 33 34 33 29 26 27 31 35 37 38 39 39 38 38 38 36 34 35 38 38 38 39 40 42 45 48 49 51 51 52 54 53 52 50 48 47 46 44 42 40 39 38 36 35 34 34 33 33 33 33 32 31 31 30 29 25 22 20 21 21

ECMWFFLT1_700_spd_066.txt.gz
Wind_Speed
31 32 33 34 35 34 33 32 31 31 32 32 30 29 29 29 29 29 30 30 29 29 30 30 29 27 26 26 26 26 25 24 24 25 26 26 24 21 21 21 20 18 17 16 16 15 15 15 15 14 14 13 12 11 11 10 10 9 9 9 8 8 8
33 33 34 35 36 35 33 32 31 31 33 33 31 30 29 29 30 30 31 30 29 29 29 30 30 28 26 25 26 27 27 25 24 23 25 27 26 24 22 22 21 20 18 17 17 17 17 16 16 16 15 15 14 13 12 11 11 10 10 9 9 8 8
34 33 33 34 35 35 33 32 32 32 32 33 32 30 30 30 30 30 30 31 30 29 29 30 30 29 27 26 26 27 27 27 26 23 23 25 27 26 24 23 23 22 21 20 19 19 18 18 17 17 16 16 15 15 13 12 12 12 11 10 10 10 9
34 34 31 31 32 33 34 33 33 33 33 33 31 29 29 29 28 28 29 30 30 31 30 30 30 29 29 27 26 26 27 28 27 24 22 23 25 26 26 25 25 24 24 23 22 21 20 19 18 18 17 17 16 16 15 14 13 12 12 12 12 11 10
32 34 33 32 32 33 34 34 34 33 32 32 31 29 28 27 27 28 29 30 31 31 30 29 29 30 30 29 27 27 27 27 27 26 24 23 24 26 27 26 26 26 25 24 24 23 22 21 20 19 18 17 17 17 16 16 15 14 13 13 13 13 12
30 35 33 33 32 31 32 33 33 32 30 30 29 28 28 27 27 28 28 30 32 32 32 31 30 30 30 30 29 27 27 27 28 27 26 25 25 26 26 26 26 26 26 25 25 25 24 23 22 20 20 19 18 18 18 18 17 16 15 14 14 14 14
29 34 32 31 30 29 29 29 30 30 29 29 28 28 28 28 27 27 27 29 31 33 34 34 32 31 31 31 30 29 28 27 27 27 27 26 26 26 26 26 26 26 26 26 26 25 25 24 23 22 21 21 20 19 19 19 18 18 17 16 15 15 15
25 29 30 30 28 26 27 27 27 29 29 30 29 29 29 28 28 28 28 28 30 33 35 35 34 32 31 31 31 31 30 28 27 27 27 27 27 27 27 27 27 26 27 27 26 26 26 25 24 23 23 23 22 21 20 20 20 19 19 18 17 16 16
25 25 25 26 25 24 25 25 25 27 28 29 30 30 29 28 28 29 28 27 29 33 36 36 35 33 32 32 32 32 31 30 29 28 28 28 28 27 27 27 27 27 28 28 27 26 26 26 25 24 24 24 24 23 22 22 21 21 20 20 19 18 17
30 29 27 24 22 21 23 25 27 28 29 29 29 29 29 29 28 29 29 28 28 32 34 35 35 35 34 33 32 32 33 32 32 30 29 29 29 28 27 27 27 27 28 28 28 28 27 26 26 25 25 25 25 24 23 23 23 22 22 21 20 19 19
34 36 36 33 30 27 27 27 27 27 27 28 30 29 28 28 28 28 29 29 29 30 32 33 35 36 36 34 33 33 34 34 34 33 32 30 29 29 28 28 28 28 28 29 29 29 28 27 27 27 27 26 26 25 24 23 23 23 23 22 21 21 20
37 39 41 41 41 39 37 35 33 30 28 27 28 28 27 27 27 28 29 30 30 29 30 31 33 35 36 35 35 35 34 34 34 34 33 32 31 29 29 29 29 29 29 29 29 29 29 29 28 28 28 27 26 26 25 24 24 24 23 23 22 22 22
39 40 42 43 44 43 42 41 39 38 36 33 31 29 27 26 26 27 28 29 30 30 29 30 31 33 35 36 36 36 35 34 34 34 33 33 32 31 30 30 30 30 30 30 30 30 30 30 29 28 27 27 27 27 26 26 26 25 24 23 23 24 23
39 40 41 43 44 44 44 42 40 40 40 39 38 37 36 33 30 29 27 27 28 29 29 30 30 32 33 35 36 35 34 34 33 33 33 33 33 32 31 31 31 31 31 31 31 31 31 30 29 28 27 27 28 29 28 28 28 27 26 25 25 25 25
29 36 38 40 43 44 45 44 43 42 41 40 40 41 42 43 41 37 33 31 31 31 31 29 30 31 33 35 36 35 33 34 34 34 33 33 33 33 32 32 32 32 32 32 32 32 32 31 30 29 27 26 27 29 30 30 29 28 28 27 26 26 26
17 23 30 34 39 43 46 47 45 44 42 42 41 41 43 44 44 43 41 38 36 35 33 31 30 30 32 34 35 34 33 33 34 35 35 34 33 33 33 33 33 32 32 33 32 32 32 32 31 30 29 27 27 28 30 32 31 29 29 29 28 28 28
15 13 18 26 33 38 42 46 46 44 43 43 43 42 43 42 40 41 42 42 40 37 34 32 31 31 33 34 34 34 34 33 33 33 35 35 34 33 33 32 33 33 33 33 33 32 33 33 33 32 30 29 28 29 30 32 31 30 29 29 29 30 30
10 11 9 10 19 30 38 41 42 42 42 43 43 42 42 43 41 40 42 43 43 39 35 33 32 32 33 34 33 33 31 29 30 33 35 36 35 34 33 33 32 33 33 33 33 32 33 33 33 33 31 30 29 29 30 31 30 30 29 29 29 30 31
6 8 9 10 5 10 24 30 33 36 38 40 42 42 42 43 41 39 39 41 42 40 37 35 32 31 32 32 32 32 29 24 24 29 32 35 35 35 34 34 33 32 32 32 32 32 33 33 33 33 32 31 30 30 30 30 30 29 29 28 28 29 30
8 8 5 7 12 9 5 16 23 28 32 33 36 40 42 41 39 37 35 37 37 36 35 33 30 28 29 30 32 34 31 26 23 25 28 31 33 35 35 35 33 32 31 32 32 33 33 33 33 33 32 31 30 30 30 30 29 29 28 28 28 28 29
17 9 6 4 4 10 7 6 15 19 23 25 29 35 37 38 39 36 33 34 34 33 32 29 27 26 25 27 30 33 34 31 28 27 29 31 33 34 34 34 33 31 31 31 32 32 32 32 32 33 32 31 30 29 30 29 28 28 27 27 27 28 28
25 17 10 8 6 3 7 7 6 7 10 15 21 29 33 36 38 37 34 33 33 32 29 26 24 23 23 25 28 29 31 31 30 31 33 34 34 34 34 34 33 32 31 31 31 31 31 32 32 32 32 31 30 30 29 29 28 27 26 26 27 27 29
27 27 19 11 10 8 1 5 8 8 6 7 13 20 26 31 35 35 34 32 31 30 27 24 23 22 24 26 27 26 27 28 30 33 35 37 37 36 35 35 35 34 33 32 31 30 30 31 31 32 32 31 31 30 29 28 28 27 26 26 26 27 29
25 29 27 19 15 13 9 3 5 8 7 6 8 12 18 23 26 29 30 30 29 28 27 26 25 24 25 26 26 25 27 29 32 34 37 39 39 38 37 36 35 35 35 34 32 30 29 29 30 30 31 30 30 30 29 28 27 27 27 26 26 26 27
23 28 30 26 20 18 15 11 9 7 6 5 6 9 14 17 20 25 28 29 28 28 27 27 27 27 27 26 25 25 28 31 34 36 39 41 41 39 38 37 36 35 35 35 34 32 31 30 30 30 30 30 30 30 29 29 28 27 27 27 27 27 27
26 28 31 30 26 22 19 17 15 12 8 6 6 9 13 15 19 23 26 28 28 27 26 27 29 29 29 28 27 28 31 34 36 39 41 43 42 40 39 38 37 36 36 36 36 34 33 32 31 31 31 30 30 30 30 29 28 28 28 28 29 29 29
30 30 32 33 31 27 23 21 19 17 14 10 10 11 13 15 17 20 23 26 26 26 27 29 29 30 32 31 30 32 35 37 38 41 43 42 41 40 38 38 38 38 37 36 37 36 36 34 33 32 31 31 31 30 30 29 29 28 28 28 29 30 30
33 34 34 35 36 33 28 24 22 22 21 17 13 12 13 16 17 19 21 23 24 27 30 31 30 32 35 35 34 37 40 40 42 45 45 42 40 39 37 37 38 39 39 37 37 38 37 36 35 33 32 31 31 31 30 30 29 29 28 28 28 29 30
35 37 38 38 40 39 35 31 27 26 26 24 19 15 14 16 18 19 20 21 23 27 30 32 33 36 39 39 38 41 45 47 49 50 48 43 41 40 38 36 37 39 40 39 38 39 39 38 37 36 34 32 31 31 30 30 30 30 29 28 29 30 30
36 37 39 40 42 43 42 39 35 32 29 28 27 23 18 17 19 20 20 20 23 27 30 31 34 37 39 40 39 41 46 49 51 51 48 44 42 40 39 37 36 38 39 39 38 39 40 40 40 39 37 34 32 31 30 29 29 29 28 28 29 30 29
35 37 39 40 42 45 46 45 41 38 35 32 32 30 25 20 20 21 21 21 24 27 30 32 34 36 38 39 40 41 44 46 47 47 46 45 43 41 40 38 37 37 37 38 38 39 40 41 42 41 39 37 34 32 31 29 29 28 28 28 29 29 29
33 35 38 40 41 42 45 46 44 42 42 38 35 35 32 27 23 22 22 24 25 27 29 32 35 36 37 38 39 40 42 43 45 45 45 45 44 42 41 40 39 37 36 37 37 39 40 41 43 43 42 39 36 34 32 31 30 29 28 27 28 28 28
32 32 35 39 39 38 39 41 43 45 46 44 40 38 36 32 28 24 24 26 28 29 30 33 35 37 38 38 39 40 41 42 44 45 45 45 44 42 41 41 40 39 38 37 37 38 40 41 42 44 44 42 39 36 35 34 32 30 29 28 27 27 26
32 32 33 35 37 36 36 37 41 46 48 48 45 42 39 36 32 28 27 28 29 31 32 34 36 38 39 39 40 40 40 40 42 44 45 45 44 42 42 41 41 41 39 38 37 38 38 39 41 44 45 44 43 41 38 36 33 31 30 28 26 25 25
32 32 33 34 34 35 35 35 37 41 45 48 48 47 44 40 36 33 31 31 31 33 34 36 37 39 39 40 41 41 40 40 40 42 43 44 44 43 42 42 42 41 38 36 36 35 35 36 39 43 45 45 46 44 40 37 32 29 27 26 25 24 24
32 32 33 33 33 33 33 34 34 36 39 43 48 50 48 43 39 37 35 34 34 35 36 37 38 39 40 40 41 41 40 40 40 40 42 43 44 44 44 43 42 39 36 34 33 33 32 34 37 41 43 45 46 45 41 37 32 28 26 26 26 25 24
33 33 32 32 33 33 33 33 33 33 34 38 44 50 51 47 43 40 38 37 37 37 37 38 39 40 40 41 42 42 41 41 41 40 41 43 45 47 46 43 40 38 36 34 34 33 32 33 35 37 40 43 45 44 41 38 34 31 29 27 26 26 24
33 34 33 32 32 33 34 34 32 32 33 35 40 47 51 50 46 43 41 39 39 39 39 39 41 41 41 42 43 43 42 42 43 43 44 45 47 47 45 42 41 41 40 38 36 36 36 36 36 37 39 41 42 41 40 39 36 33 30 27 25 26 25

ECMWFFLT1_700_spd_069.txt.gz
Wind_Speed
30 31 31 32 32 34 35 36 35 33 30 29 28 28 28 29 29 29 29 28 27 26 26 26 25 24 24 24 24 24 23 23 23 23 22 21 20 20 19 17 17 16 15 14 13 12 13 13 12 11 11 10 10 10 10 9 8 6 5 4 4 3 2
31 31 32 32 32 32 34 37 37 35 33 30 29 28 28 28 29 30 30 28 27 27 27 27 26 24 23 23 24 24 24 23 23 24 24 22 22 21 20 19 18 16 15 14 14 15 15 14 13 13 12 11 11 10 10 10 9 8 6 6 5 3 3
27 28 30 31 31 31 32 36 38 37 35 32 30 29 29 28 28 29 29 29 28 27 28 28 27 25 23 23 24 24 24 24 23 24 24 24 23 22 21 20 19 18 17 16 16 16 17 16 15 14 14 12 12 11 10 10 10 10 9 8 6 5 5
26 25 25 27 30 31 32 34 36 36 34 32 29 29 28 27 26 26 28 28 29 28 28 29 28 26 25 24 24 24 24 24 24 23 23 23 23 23 23 21 20 20 19 18 17 18 18 17 16 16 15 14 13 13 12 11 11 11 11 10 9 8 7
28 27 26 28 30 32 33 33 34 34 33 31 29 28 28 27 26 26 26 27 29 29 28 28 28 28 27 26 25 24 23 23 24 24 23 23 23 25 25 23 22 22 21 19 19 19 19 18 17 17 16 15 15 14 13 13 13 13 13 12 11 10 9
28 28 28 28 28 30 32 32 32 32 32 30 29 27 27 28 27 26 26 27 28 29 30 29 29 29 28 27 26 25 25 24 24 24 24 24 24 25 26 25 24 23 23 22 21 20 20 19 18 18 17 17 16 15 14 14 14 14 14 13 13 13 11
26 25 24 25 26 28 30 31 31 30 31 31 30 29 29 28 27 26 26 26 28 30 31 31 31 30 29 29 27 27 26 26 25 24 24 25 25 26 26 25 25 24 24 24 24 23 22 20 19 19 19 19 18 17 16 15 15 15 15 15 14 14 14
25 26 25 25 26 26 27 29 30 29 30 32 32 32 30 28 27 27 26 26 27 30 32 32 32 31 31 30 29 28 27 27 26 26 25 25 26 26 26 26 25 25 25 26 25 25 24 23 21 21 21 20 20 19 17 16 16 16 16 16 16 16 16
25 30 32 32 30 30 31 31 31 30 29 31 32 31 30 29 28 27 26 26 27 29 31 32 32 32 32 31 31 30 29 28 28 28 27 27 26 26 26 26 26 26 26 26 26 27 26 25 24 24 23 22 22 21 20 18 17 17 18 17 17 17 17
26 31 35 35 33 34 37 38 38 37 34 32 32 32 30 28 27 27 26 26 27 28 30 31 32 32 33 33 32 32 31 30 30 30 30 29 27 26 26 27 27 27 27 26 27 28 28 27 27 26 25 25 24 23 23 21 20 19 19 18 18 18 18
27 31 34 34 33 33 36 39 41 41 40 38 35 34 32 30 28 28 28 27 26 26 27 29 31 33 34 34 34 34 34 32 31 31 31 30 29 27 27 27 28 29 28 28 28 28 28 28 28 28 28 27 26 25 25 24 23 21 20 20 19 19 19
24 28 30 31 31 32 33 37 39 41 41 40 39 38 36 34 32 30 29 28 26 26 26 28 29 31 34 35 35 35 35 34 33 33 32 31 30 29 28 28 28 29 29 29 29 29 28 29 29 29 29 27 27 26 26 26 25 24 23 22 21 21 21
15 21 25 28 29 29 32 35 38 40 40 40 40 40 39 38 37 36 34 32 30 29 28 28 28 29 32 35 37 37 36 36 35 34 33 32 32 31 30 30 30 30 30 30 30 30 30 30 29 29 28 28 27 27 26 27 27 26 25 24 23 22 22
7 14 20 24 26 27 29 33 37 38 39 39 40 40 41 40 39 39 38 36 35 34 33 31 30 30 30 33 36 37 37 37 36 35 35 34 33 33 32 32 31 31 31 30 31 31 31 30 30 29 29 28 28 27 27 27 28 28 27 26 25 24 24
4 9 15 19 22 24 27 31 35 37 38 39 39 40 41 41 41 41 41 40 39 39 38 37 36 34 32 31 33 36 37 37 37 37 36 36 36 35 34 34 33 33 32 32 32 32 32 31 31 31 31 30 29 28 28 28 28 28 28 27 27 26 25
13 6 9 15 19 22 26 28 31 35 37 38 38 39 39 39 40 41 42 42 42 42 41 39 39 39 37 34 31 31 33 35 37 38 37 37 37 35 35 34 35 35 34 34 34 33 33 33 32 32 32 31 31 30 29 29 29 28 28 28 28 28 27
16 14 6 9 15 18 23 27 30 32 35 36 37 38 38 38 39 39 41 41 41 42 42 39 35 35 36 36 34 31 30 32 35 38 39 39 38 37 36 36 35 36 36 36 36 35 34 34 34 34 33 32 32 31 30 29 28 28 28 29 29 29 29
7 12 13 6 7 13 17 22 26 30 32 35 36 37 37 38 37 38 39 40 39 41 43 41 35 31 32 35 37 35 33 32 33 35 37 38 39 38 38 38 37 37 37 37 37 36 35 35 35 34 34 33 33 32 31 29 28 27 28 28 29 30 30
5 6 11 12 6 6 12 15 18 24 28 31 34 37 37 37 37 37 38 39 39 40 40 37 35 32 30 30 33 34 33 33 33 32 32 33 36 37 37 38 38 38 37 37 37 37 37 36 36 35 34 34 33 32 31 29 28 27 27 28 28 29 30
11 9 6 8 10 5 5 9 11 15 20 25 28 32 35 37 37 37 36 37 38 37 34 31 30 31 29 28 26 27 31 34 33 30 28 29 32 35 36 37 37 37 37 37 37 38 37 37 36 35 35 34 33 32 31 30 28 28 27 27 27 28 29
19 17 14 7 5 7 4 3 6 7 11 15 15 19 27 32 35 35 34 34 36 34 31 28 27 29 30 27 23 22 27 32 33 29 27 27 29 31 33 34 35 36 37 37 38 38 37 36 36 35 35 34 34 33 32 30 29 28 28 28 27 27 29
25 25 22 16 9 3 3 1 3 4 6 8 7 10 20 25 29 32 33 34 34 32 29 27 26 27 28 26 22 20 23 29 32 31 30 29 29 30 31 31 32 33 34 35 36 37 37 36 35 35 34 34 34 33 32 30 29 29 28 28 27 27 28
22 27 27 25 20 13 7 3 2 1 3 5 4 6 13 20 24 27 29 31 32 30 27 26 26 26 26 25 24 22 22 25 30 31 32 33 33 32 32 30 29 30 31 33 35 36 36 36 34 34 33 33 33 32 31 28 27 28 28 28 28 28 29
18 22 26 29 29 24 18 14 9 6 4 3 4 3 7 14 19 20 20 23 25 25 25 26 26 26 26 25 23 23 24 26 29 30 32 35 35 34 32 31 30 29 30 31 33 34 35 36 35 34 33 32 31 30 29 28 26 26 27 27 28 29 30
18 18 21 27 31 31 29 24 19 15 12 7 4 4 4 8 13 17 19 20 21 22 24 26 27 28 28 26 25 25 26 28 29 31 34 36 35 34 33 32 31 30 31 31 31 32 33 35 36 35 32 31 30 29 29 27 26 26 26 27 29 30 31
20 19 19 21 26 31 34 31 26 24 21 15 10 7 7 7 9 15 19 21 22 23 24 25 28 29 29 28 28 28 28 29 31 32 34 35 34 33 33 33 33 32 32 32 31 31 32 34 35 35 33 31 30 29 28 27 26 25 25 26 28 30 31
22 21 21 21 22 28 35 35 31 29 27 23 16 11 9 10 10 12 16 21 24 26 26 26 28 30 30 29 30 31 32 31 32 33 33 34 35 34 34 34 35 34 34 33 32 32 33 34 35 35 34 33 32 30 29 27 26 25 24 25 27 29 31
25 23 23 22 22 25 32 37 36 34 32 29 24 18 13 11 11 12 14 19 25 27 28 28 29 30 31 31 31 33 34 33 33 33 33 34 36 36 35 34 35 35 35 34 33 33 34 35 36 36 36 35 33 32 30 28 27 25 25 25 26 28 30
28 27 26 25 25 25 29 34 38 39 37 33 30 26 20 15 13 13 14 18 23 23 24 29 30 30 31 32 31 32 33 34 35 34 34 33 35 36 34 33 33 35 36 36 35 34 35 36 36 37 37 36 35 33 31 29 28 27 26 26 27 28 29
29 30 29 29 28 27 28 32 36 39 40 38 34 32 27 22 18 16 15 18 21 20 21 26 31 31 32 32 31 31 33 35 35 34 32 32 32 34 34 32 31 33 35 37 37 36 36 36 37 37 37 37 35 33 31 30 29 28 28 28 28 28 29
29 29 30 31 30 29 29 30 33 37 41 42 39 36 33 29 25 21 19 19 21 21 21 25 29 31 32 32 32 32 33 34 35 34 31 31 32 34 34 33 32 31 32 35 38 39 39 38 38 38 38 38 37 34 32 31 30 29 29 29 29 29 29
30 29 28 30 32 31 30 30 32 34 37 41 42 40 37 36 33 30 25 23 23 23 23 25 28 30 31 32 33 33 34 35 35 34 33 33 33 34 36 36 35 33 33 34 36 39 40 40 40 40 39 39 38 36 34 32 31 30 30 30 30 30 30
33 30 28 28 30 32 32 31 32 33 34 37 40 42 42 41 40 37 33 28 26 25 25 26 28 30 31 32 33 34 34 35 35 34 33 34 35 35 38 40 39 38 36 36 37 38 39 40 41 41 40 40 40 39 37 36 34 32 31 31 31 31 30
34 33 30 27 28 31 33 32 32 33 33 33 36 41 44 45 45 43 40 36 32 29 28 27 28 30 31 32 33 33 33 35 35 34 33 34 35 36 39 43 43 41 39 39 39 39 38 39 40 41 41 41 40 40 40 40 37 33 32 32 33 32 31
35 34 32 28 27 29 32 33 32 32 33 33 33 37 42 45 46 47 47 44 40 36 33 30 29 30 31 32 32 32 33 34 36 36 34 34 35 36 40 43 44 42 40 40 40 39 38 38 38 40 40 40 40 40 42 42 39 36 35 37 36 33 32
37 36 33 30 28 29 31 32 32 32 33 33 33 35 38 41 45 49 50 49 45 42 39 35 33 31 31 31 32 32 32 33 35 36 36 35 34 36 38 41 42 41 40 40 40 39 38 37 37 37 38 39 40 41 42 42 40 38 39 39 37 34 33
41 39 36 33 31 29 29 31 32 32 33 33 34 34 35 37 41 47 51 52 50 46 43 40 37 35 33 32 32 33 33 33 34 35 36 35 35 35 36 37 38 38 37 37 38 37 36 35 35 35 36 38 40 41 42 43 42 40 40 40 39 37 36
43 42 39 37 34 31 30 30 31 31 32 33 34 35 35 35 36 41 46 51 52 50 47 44 41 39 37 34 33 34 34 34 34 35 35 35 36 36 36 36 36 34 33 33 34 35 34 33 32 33 34 36 37 38 39 40 39 39 39 39 39 40 39

ECMWFFLT1_700_spd_072.txt.gz
Wind_Speed
33 30 26 23 22 23 25 25 25 24 23 22 22 24 26 28 30 30 28 27 26 26 26 24 23 23 22 22 21 20 20 20 20 20 19 18 18 17 15 14 12 11 10 9 8 9 9 8 7 6 6 5 5 6 6 5 5 4 3 2 2 3 5
30 31 30 27 24 22 22 24 25 25 24 24 23 23 24 27 29 30 29 27 26 26 26 25 23 22 22 21 22 21 20 19 20 21 21 20 19 19 17 16 14 13 11 11 11 11 11 10 8 8 7 6 6 6 6 6 6 5 4 3 3 2 3
21 24 27 28 26 23 21 22 23 24 24 24 24 24 24 25 27 29 29 28 27 26 27 26 25 23 21 21 22 22 21 20 20 21 22 21 20 19 18 18 16 15 14 13 12 12 13 12 11 9 8 8 7 7 7 7 7 7 6 5 4 3 2
16 17 20 23 25 25 25 24 23 23 23 23 23 24 23 23 24 26 27 27 27 27 27 27 25 24 23 22 22 21 21 21 20 20 21 22 21 20 20 19 18 17 16 14 14 14 14 14 12 11 10 9 8 7 7 7 7 8 8 7 6 4 3
17 17 18 20 22 23 24 25 24 23 23 21 21 22 22 22 22 24 26 27 28 28 27 26 25 24 23 22 22 21 21 21 20 19 20 21 22 23 22 20 19 18 17 16 15 15 15 15 14 12 11 10 9 8 8 8 8 8 8 8 7 6 5
17 17 18 19 20 21 22 24 24 24 23 22 21 20 21 22 22 22 23 25 27 28 27 27 26 25 24 23 22 21 20 20 20 20 20 21 22 24 24 23 21 20 18 18 17 17 16 16 15 14 12 11 10 8 8 8 8 9 9 8 8 8 7
17 17 17 17 18 21 24 26 27 28 27 26 24 22 22 22 22 22 22 24 26 27 28 28 27 27 26 24 23 22 21 21 21 21 21 22 22 23 24 25 24 22 21 20 20 19 18 17 16 15 14 13 11 10 9 9 9 9 10 9 9 9 9
17 18 17 16 16 18 21 25 29 32 33 32 30 27 25 23 22 23 22 23 24 26 28 28 28 27 26 26 25 24 23 22 21 21 22 22 23 23 24 25 25 25 24 23 21 21 20 19 18 17 16 15 13 12 11 10 10 10 10 10 10 10 10
18 19 19 17 17 17 18 21 25 30 33 34 34 33 30 27 25 25 23 22 23 24 26 27 27 27 27 27 27 26 25 24 23 23 23 23 23 23 23 24 25 26 26 25 24 23 22 21 20 20 19 18 16 14 13 12 12 12 11 11 11 11 12
17 20 20 19 18 18 18 19 21 25 29 32 34 35 34 32 29 26 25 24 24 23 23 24 26 26 27 28 28 27 27 26 25 25 24 24 24 23 23 23 24 25 25 25 26 26 25 24 24 23 22 20 18 16 15 15 14 14 13 12 12 12 13
15 17 19 19 19 20 19 19 19 21 25 29 32 34 35 35 32 27 25 25 25 24 23 23 24 25 27 28 28 28 28 28 27 27 26 26 25 24 23 23 24 25 25 25 26 26 27 27 27 26 24 22 20 19 18 17 17 17 16 15 14 14 14
10 12 14 16 18 19 20 20 20 20 23 26 29 32 34 36 34 29 25 24 23 23 23 22 23 25 26 27 28 29 29 29 28 28 27 27 26 25 24 24 25 26 26 26 26 27 27 28 28 28 27 25 23 23 21 20 20 20 19 18 17 16 16
6 8 9 11 14 17 18 19 20 21 22 25 27 29 32 35 35 31 28 27 26 25 24 23 23 24 25 26 27 28 29 30 30 29 29 29 28 27 27 26 26 26 27 27 28 28 28 28 28 28 28 27 26 26 24 23 23 22 21 21 20 19 18
2 2 6 9 11 13 16 18 20 21 22 24 26 28 30 33 34 32 31 32 32 31 29 27 26 26 25 26 26 27 28 29 29 30 30 30 30 29 29 29 28 27 27 28 28 29 29 29 29 29 29 29 28 28 27 26 25 24 23 23 23 22 21
4 4 4 6 9 11 14 16 18 20 22 24 26 27 29 32 33 33 32 33 33 33 32 31 29 28 27 26 26 26 27 27 28 29 30 31 31 31 31 30 30 29 29 29 29 29 29 30 29 30 30 30 30 29 29 29 27 26 25 24 24 24 23
6 5 6 7 8 11 13 16 18 20 22 23 25 27 28 30 32 33 33 33 33 32 31 30 29 28 27 26 26 26 26 26 28 29 30 32 32 32 32 32 32 32 31 31 31 31 31 31 31 31 31 31 31 31 31 30 29 27 26 25 25 25 25
6 5 5 6 6 9 11 14 17 20 21 22 24 25 27 29 31 32 33 34 34 33 32 31 29 28 27 27 27 27 26 26 27 30 32 33 34 34 34 34 34 34 34 33 33 33 32 33 32 32 32 32 32 32 32 31 30 28 27 26 26 26 26
3 4 5 6 4 3 6 9 14 17 20 22 23 24 26 28 30 31 32 33 34 34 33 31 30 29 27 27 27 27 28 28 28 29 31 33 35 35 35 35 36 36 36 35 35 34 34 34 34 33 33 33 33 33 33 32 31 30 29 28 27 27 27
4 1 2 5 6 4 1 2 7 13 17 20 22 23 25 26 29 31 33 36 35 33 31 30 30 29 28 27 25 25 26 29 30 31 31 31 33 35 36 37 38 37 36 36 35 35 35 35 34 34 34 35 35 34 34 33 32 31 30 29 28 27 28
9 8 5 2 4 5 5 5 2 4 9 14 18 20 20 23 27 26 28 34 34 28 27 28 29 29 28 26 24 22 24 28 31 33 32 31 30 31 33 36 38 37 37 36 35 36 36 35 35 35 35 35 35 35 34 33 32 32 31 30 29 28 28
11 12 11 9 6 4 4 6 5 3 4 6 9 11 12 17 22 20 20 25 28 27 28 29 29 29 29 27 25 24 26 28 30 32 32 31 30 29 29 33 36 37 36 36 36 36 35 35 35 35 35 35 35 35 35 34 32 32 32 31 30 30 30
13 14 16 15 12 9 7 6 5 4 5 5 3 5 5 7 14 18 18 19 23 27 30 30 28 30 30 28 27 28 28 28 29 29 29 30 32 32 31 32 34 35 35 35 35 35 35 35 35 35 35 34 34 35 35 33 33 32 32 32 31 31 32
14 15 17 19 18 16 14 11 9 8 6 5 4 3 3 6 8 10 10 10 14 19 24 27 28 28 28 27 28 30 29 27 27 27 28 30 33 35 35 34 34 35 34 33 33 33 33 34 34 35 35 34 34 35 34 32 32 32 32 32 32 33 33
15 15 17 20 21 22 22 20 17 14 10 9 7 5 5 6 7 8 9 7 10 13 15 21 25 25 26 27 29 31 29 25 25 27 28 30 33 35 36 35 36 36 35 34 33 32 32 33 34 34 34 35 34 34 32 31 30 31 31 31 32 33 34
18 17 17 19 22 24 27 28 26 22 19 17 14 10 8 7 7 7 7 6 5 8 10 15 21 25 26 28 29 29 27 24 24 26 26 29 33 36 37 37 37 37 37 35 34 33 32 32 34 34 34 34 34 33 31 30 29 30 30 29 30 32 33
22 20 18 19 20 23 27 31 32 31 29 27 23 19 15 10 9 10 7 2 3 4 9 13 19 23 26 27 28 28 27 25 26 27 27 27 30 34 37 38 38 38 38 36 35 33 33 33 34 34 33 33 32 31 30 29 28 28 28 28 29 31 32
25 24 22 21 21 22 25 29 34 36 36 35 32 27 23 18 13 12 10 6 2 2 6 12 17 21 24 26 29 30 29 28 28 30 30 29 29 32 35 37 38 38 37 36 35 34 33 33 33 33 32 31 31 30 28 27 26 26 27 28 29 30 31
27 27 26 24 23 23 25 27 32 38 40 40 39 35 30 26 20 16 13 11 7 2 4 10 16 20 23 27 29 30 29 28 30 32 33 31 29 29 30 32 33 34 34 34 35 35 34 33 32 32 32 31 30 29 27 26 26 25 26 27 28 29 30
31 30 29 28 26 25 26 26 28 35 41 43 43 42 38 34 29 24 19 16 13 8 5 7 13 17 21 24 25 26 27 29 31 31 30 28 27 27 27 28 28 30 32 33 34 34 33 33 32 32 32 31 30 28 27 26 26 25 25 26 27 28 29
34 33 32 32 30 29 29 29 27 30 36 41 43 44 44 42 38 33 27 22 19 15 11 9 12 15 18 20 22 25 28 31 32 31 28 26 27 28 27 27 27 27 29 32 33 33 32 32 32 33 33 32 30 29 28 27 26 26 26 26 27 28 29
36 35 33 33 33 32 31 32 31 29 30 34 40 45 47 47 44 41 36 29 25 22 18 14 14 15 16 17 19 23 27 29 31 32 30 27 27 29 27 27 27 27 26 27 29 31 31 30 31 34 35 34 32 30 29 29 28 28 27 27 28 29 30
38 37 36 34 33 34 33 33 34 33 31 30 33 40 47 49 49 47 43 37 32 27 23 20 17 16 17 18 18 19 23 25 26 28 28 27 27 30 30 29 28 28 27 26 26 27 28 27 26 29 33 35 34 32 31 30 30 29 28 28 29 29 30
40 40 39 37 35 34 34 33 34 35 35 32 30 33 40 46 49 50 48 44 39 33 29 25 22 19 19 20 20 19 21 23 22 23 26 27 26 28 31 31 30 29 29 29 28 27 26 24 22 24 28 31 33 33 33 33 32 31 29 29 29 29 30
42 41 41 40 38 37 35 34 33 34 36 35 33 32 34 39 45 50 51 49 46 40 35 30 28 25 22 22 23 22 21 22 22 21 23 26 26 26 27 29 29 29 30 32 33 31 27 24 22 22 24 26 29 31 33 34 34 32 30 30 31 30 30
43 42 42 41 41 40 38 35 33 33 34 34 34 34 34 35 40 46 51 53 51 47 42 37 35 33 29 26 26 25 24 23 22 21 21 23 25 26 25 25 26 28 31 33 33 31 26 23 22 22 23 25 28 30 32 35 35 33 32 33 34 33 32
45 44 43 42 43 43 41 38 35 34 33 32 33 34 34 35 37 41 46 52 54 52 48 45 43 40 36 32 29 28 27 26 23 22 22 24 25 25 25 24 24 25 26 27 27 26 24 22 22 22 24 27 29 30 32 34 34 33 34 36 37 36 35
44 45 44 44 44 44 44 41 38 36 34 32 32 33 33 33 36 39 42 48 53 55 53 51 49 47 43 38 34 31 30 29 27 24 23 24 26 27 26 25 24 25 24 24 24 25 23 22 22 23 26 29 30 31 32 34 35 35 36 38 39 38 37
42 44 45 45 45 45 45 43 40 38 36 33 33 34 33 32 33 36 40 44 50 54 55 55 54 52 48 43 39 36 33 32 31 28 25 24 26 28 28 27 25 25 25 25 25 25 23 22 22 24 26 28 30 31 32 34 35 35 36 37 38 37 37

ECMWFFLT1_700_spd_075.txt.gz
Wind_Speed
15 18 20 21 20 20 20 20 21 21 21 22 24 27 28 29 28 27 26 25 24 23 22 21 21 21 20 20 19 19 19 19 18 17 17 17 16 14 13 11 10 10 9 9 8 8 8 8 7 7 6 5 5 5 4 4 4 4 5 5 5 6 6
14 15 18 20 20 19 19 18 18 20 21 20 21 24 27 28 28 28 27 26 25 24 23 22 21 21 20 20 20 19 19 19 19 19 18 18 17 15 14 13 12 12 11 10 10 10 9 9 8 7 7 6 5 5 4 4 4 4 4 4 4 4 5
14 15 17 19 20 19 18 18 16 16 18 20 20 21 23 26 27 28 28 27 26 25 24 23 22 21 20 20 20 20 19 19 20 20 19 18 18 17 16 15 15 14 14 13 12 11 11 10 10 9 7 7 6 5 4 4 4 3 3 3 3 3 3
12 13 15 16 18 18 19 20 19 17 17 18 20 20 19 20 22 25 26 27 26 26 25 24 22 21 21 21 21 21 20 20 19 19 19 19 19 18 18 17 17 16 15 14 13 13 12 11 11 10 9 8 6 5 5 4 4 3 3 3 2 2 2
11 11 13 15 16 18 18 19 20 21 20 19 19 19 19 19 19 20 23 25 26 26 25 24 23 22 22 21 21 20 21 20 20 19 20 20 21 20 20 19 18 18 17 16 15 14 13 12 11 11 10 9 8 7 6 5 4 4 3 3 3 3 2
10 11 13 14 15 16 15 15 16 19 20 19 18 18 20 20 20 20 20 22 24 26 26 25 25 23 22 22 21 20 20 21 21 21 20 21 22 22 21 20 19 19 19 18 17 16 15 13 13 12 11 11 9 8 7 6 6 5 4 4 4 4 4
7 11 13 14 14 15 15 14 13 13 15 16 17 17 18 20 22 23 22 22 22 23 25 26 26 25 24 23 22 21 20 20 21 21 21 21 22 22 22 22 21 20 20 20 19 18 17 15 14 13 13 12 11 10 9 8 7 6 6 5 5 5 5
6 9 12 14 15 16 17 16 14 13 13 15 16 16 17 20 23 24 25 25 24 23 23 25 25 25 25 24 24 23 22 21 21 21 22 22 22 22 23 23 23 22 21 21 20 19 19 17 16 15 14 13 13 12 11 10 9 8 7 7 7 6 6
5 6 9 13 15 17 18 19 17 16 15 15 16 17 19 21 23 24 25 25 24 23 22 23 24 24 25 25 25 25 24 23 22 22 22 23 23 22 22 23 23 24 24 23 22 21 20 19 19 18 16 15 15 14 13 12 12 11 9 9 9 8 8
5 5 5 10 14 16 17 18 17 17 16 16 17 18 19 19 20 22 23 22 21 21 20 21 22 24 25 26 26 26 26 25 24 24 23 22 22 22 22 23 23 24 25 25 24 23 22 22 21 20 19 18 16 16 15 14 14 13 12 11 11 10 10
5 5 4 5 11 15 16 16 16 16 16 16 16 17 18 17 17 19 20 19 19 19 19 20 21 23 24 25 26 26 27 26 26 25 25 24 23 22 22 23 23 24 25 25 26 25 25 24 24 23 21 19 18 17 17 16 16 15 15 14 14 13 13
4 5 5 3 5 10 14 15 15 15 15 16 17 18 18 17 17 19 18 17 18 18 18 19 19 21 23 24 25 26 27 27 27 27 26 25 24 24 23 23 24 24 25 25 26 26 26 27 26 26 24 22 20 19 19 19 19 18 17 17 16 16 15
5 4 4 2 2 5 8 11 13 14 15 16 17 18 18 17 18 19 18 19 21 21 20 21 21 22 23 24 25 26 26 27 27 27 27 27 26 26 25 25 25 25 25 25 26 26 27 27 27 27 26 25 24 22 22 22 21 21 20 19 19 18 17
6 4 1 2 2 4 5 7 10 12 14 16 17 18 18 18 19 19 19 22 25 24 23 23 24 23 24 24 26 26 25 26 27 27 27 27 27 27 27 27 27 26 26 26 26 27 27 27 27 27 27 27 27 26 25 25 25 24 22 21 21 20 20
3 4 4 4 4 5 7 7 9 10 13 15 17 18 19 19 19 20 20 23 25 25 24 24 24 24 25 25 25 25 24 25 26 27 26 27 28 29 29 29 29 28 28 27 27 28 28 28 28 28 28 28 28 29 29 29 28 26 25 23 23 22 22
1 1 3 4 4 6 8 9 9 11 13 15 16 17 18 18 19 20 21 23 25 26 26 25 25 25 25 25 24 24 25 25 25 26 27 27 28 29 29 30 30 30 30 29 29 29 29 29 29 30 30 30 29 30 31 31 30 28 27 26 25 25 25
1 4 4 0 3 5 7 8 10 12 14 16 17 17 17 18 19 19 21 23 24 25 26 27 26 26 25 24 24 24 25 26 26 26 27 27 28 29 30 30 31 31 31 31 31 31 30 31 31 31 31 31 31 31 32 32 31 30 29 29 28 27 27
3 4 6 6 3 2 4 6 8 10 13 15 17 17 18 18 18 19 21 22 23 24 25 26 27 27 25 24 24 25 26 27 27 26 27 27 28 29 30 31 32 32 32 32 32 32 32 32 32 32 32 32 32 33 33 33 32 31 31 31 30 30 29
6 5 4 5 6 5 4 3 4 5 6 9 13 15 18 19 19 20 21 22 23 23 24 25 25 25 25 24 25 26 26 27 28 28 28 28 28 29 30 31 32 33 33 33 33 33 33 33 33 33 33 34 34 34 34 33 32 32 32 32 31 31 31
7 8 7 6 5 5 6 5 4 1 1 0 4 7 9 13 16 18 20 23 24 24 24 22 20 22 24 24 24 25 26 27 28 29 30 30 30 31 31 32 32 33 33 34 35 35 35 34 34 34 34 34 34 34 34 34 33 32 32 32 32 32 32
8 8 9 9 8 6 5 4 5 4 1 3 2 2 2 3 7 10 14 18 21 23 23 21 21 22 24 23 23 24 25 26 28 29 30 30 31 33 33 34 34 33 33 34 35 35 35 35 35 35 34 34 34 34 35 34 33 32 32 32 32 32 33
12 11 11 11 11 11 9 6 6 6 3 0 1 4 5 4 3 2 4 9 14 18 20 19 21 24 24 23 23 24 24 25 26 27 29 30 31 33 34 34 34 34 34 35 35 36 36 36 36 36 35 34 34 35 35 34 33 33 32 32 32 33 34
16 15 14 14 14 14 14 12 10 9 6 4 2 0 3 4 5 4 3 3 10 16 18 19 21 23 25 25 23 23 24 25 24 26 29 31 32 32 33 35 35 35 35 37 37 37 37 36 36 36 35 35 35 35 34 33 32 32 32 32 32 34 35
19 18 17 17 16 16 16 16 16 14 12 10 7 5 3 1 3 4 4 1 5 10 14 16 18 22 25 25 23 24 26 27 26 27 30 33 34 34 35 36 36 36 37 38 39 39 39 38 37 36 36 36 36 36 35 33 32 32 32 32 33 34 35
20 21 20 20 19 18 18 18 18 18 18 16 14 11 9 6 3 1 1 0 3 5 8 11 14 17 21 24 24 26 27 28 29 29 30 32 34 34 35 36 36 37 38 40 41 41 40 39 38 37 36 36 36 36 35 34 32 32 32 32 32 33 34
22 22 23 23 22 21 21 20 20 20 21 21 21 18 16 13 10 6 4 4 5 5 5 7 11 13 16 19 23 27 28 29 30 31 32 33 34 34 35 36 35 36 38 41 42 42 41 41 40 38 37 36 36 35 35 33 32 31 31 31 32 33 33
26 25 25 25 26 26 24 23 23 23 23 24 25 24 22 20 17 14 10 8 8 8 5 5 8 10 10 13 19 25 29 30 30 32 34 36 36 34 34 34 34 34 36 39 41 42 42 41 41 40 38 36 35 35 34 33 32 31 31 31 32 32 33
29 29 28 28 28 29 29 28 26 26 25 25 27 27 26 25 24 21 17 13 12 12 10 7 8 9 9 9 13 19 24 28 31 33 36 38 37 34 32 31 31 31 33 36 40 42 42 42 41 40 38 37 36 35 33 33 32 31 31 31 31 32 33
31 31 30 30 30 31 32 32 31 29 28 27 27 29 29 29 27 26 24 21 17 16 16 13 10 11 11 9 10 14 17 21 26 31 33 33 34 34 33 31 30 31 32 34 38 40 41 41 40 40 38 37 36 35 33 32 32 31 30 31 31 31 32
33 33 33 32 32 33 34 35 34 33 31 30 29 29 30 31 30 29 29 28 24 21 21 19 16 15 15 12 10 11 13 15 19 24 28 29 30 31 33 32 33 34 31 28 30 34 38 39 38 38 38 37 36 35 34 32 31 29 29 29 30 30 30
36 36 36 35 34 34 36 37 36 35 34 33 32 31 31 32 33 32 31 31 30 27 25 25 22 20 18 16 14 12 11 11 13 18 23 27 27 28 30 32 35 33 28 23 23 27 32 33 33 34 34 35 35 35 34 32 30 28 28 29 29 29 28
37 38 39 38 37 37 37 38 38 37 36 36 36 35 34 33 35 36 34 34 35 34 32 30 29 27 23 21 19 17 15 12 11 12 17 21 23 25 29 33 36 34 28 23 21 21 24 26 27 29 30 32 33 33 32 32 31 29 28 28 28 28 28
35 37 39 40 40 40 39 40 39 38 37 36 37 39 38 36 36 37 37 37 37 38 38 36 34 33 30 27 24 22 19 17 14 12 12 14 17 21 26 31 34 34 32 27 23 21 22 24 24 25 26 27 28 28 30 32 32 31 30 30 29 29 28
32 34 36 38 40 41 42 42 41 40 39 37 36 38 40 39 38 37 38 39 39 39 40 40 39 37 35 33 31 27 23 20 19 17 15 13 13 15 19 23 27 30 31 30 27 26 25 24 24 24 23 22 22 23 26 29 30 31 31 31 30 29 29
29 31 32 34 37 39 41 43 43 42 41 39 37 37 38 39 40 39 39 39 39 40 40 40 41 41 39 37 36 34 30 26 23 22 20 17 14 12 14 17 21 25 28 29 30 31 30 27 25 24 23 23 23 23 24 25 25 26 27 27 29 29 28
30 30 30 31 34 36 38 41 42 43 43 41 39 38 38 38 39 41 41 40 40 40 40 39 41 43 43 41 40 39 37 33 29 25 23 22 19 16 14 15 17 22 26 27 29 33 35 33 28 24 24 25 26 25 25 24 23 24 25 26 28 29 28
32 32 31 31 32 34 36 38 40 42 43 43 42 41 40 39 39 41 42 41 41 40 40 40 40 41 43 44 44 43 42 39 36 31 27 26 25 21 17 16 16 19 23 25 26 29 34 37 35 29 26 26 26 25 25 25 25 27 28 29 30 31 31
34 35 34 34 34 34 36 37 38 40 41 42 43 43 42 41 39 40 42 43 43 42 41 40 40 40 42 44 46 47 46 43 41 38 32 29 29 26 21 19 17 17 19 23 25 27 30 35 38 35 30 27 27 26 26 26 27 30 32 33 34 34 34

ECMWFFLT1_700_spd_078.txt.gz
Wind_Speed
17 17 18 17 16 15 16 19 23 25 26 27 28 28 28 28 26 24 22 22 22 22 21 20 19 19 19 18 18 18 19 19 19 18 18 18 17 15 14 13 13 13 13 13 12 12 11 10 9 8 7 6 6 5 5 5 6 6 7 7 7 6 5
17 16 18 18 17 16 15 17 20 22 24 25 26 28 28 29 28 26 23 22 22 23 22 20 19 19 19 19 19 19 19 19 19 19 19 18 17 16 15 14 14 14 14 14 13 12 12 11 10 9 8 7 6 6 6 6 5 6 6 7 7 7 6
18 17 19 18 18 19 17 17 18 20 22 23 24 26 28 29 28 26 24 23 22 23 23 22 20 19 20 20 20 19 20 20 20 20 19 19 18 17 17 16 15 15 14 14 14 13 12 11 10 9 8 8 7 7 7 6 6 6 6 6 7 7 6
17 17 18 16 15 19 20 20 19 18 20 22 23 24 25 27 26 25 24 23 23 23 23 22 21 21 20 20 20 20 20 20 20 20 20 19 19 18 18 17 16 16 15 15 14 13 13 12 11 10 9 8 8 7 7 7 7 6 6 6 6 6 6
15 17 18 17 16 18 20 22 21 19 18 20 22 23 22 23 24 24 24 24 24 24 23 22 22 22 21 20 20 20 20 20 20 21 21 21 20 19 19 18 17 17 16 16 15 14 14 13 12 10 10 9 9 8 8 7 7 7 7 6 6 5 5
12 16 18 18 20 20 19 20 22 22 20 19 20 20 21 22 23 23 25 25 25 25 24 23 23 23 22 21 21 20 20 21 21 21 22 22 21 20 19 19 18 18 17 17 16 15 15 14 13 12 11 10 10 9 9 8 8 8 7 7 6 6 6
8 14 18 19 21 23 22 21 23 24 23 21 19 18 19 22 23 25 26 26 26 26 26 25 25 25 24 23 22 21 20 20 21 21 22 22 22 22 21 20 19 19 19 19 18 17 16 15 14 13 13 12 11 11 10 10 9 9 8 7 7 6 6
6 10 16 19 20 22 24 25 25 27 26 23 21 19 19 19 21 25 26 25 26 27 27 27 27 27 26 25 24 23 21 20 20 21 22 22 22 22 23 22 21 20 20 20 19 19 18 17 16 15 14 13 13 12 11 11 10 10 9 8 8 7 6
5 7 13 18 19 20 23 25 25 26 26 24 23 23 22 19 20 23 24 24 26 26 26 27 28 28 27 26 26 24 23 22 21 21 21 22 22 22 23 23 22 22 21 21 21 21 20 19 18 17 16 15 14 13 13 12 11 11 10 10 9 8 8
4 6 9 14 18 19 22 23 23 23 24 24 24 24 23 21 22 23 24 23 23 25 26 27 29 29 28 27 27 25 25 24 23 23 22 22 22 22 22 22 23 24 23 22 22 22 21 20 20 19 18 16 15 15 14 14 13 12 11 11 10 10 9
2 4 6 10 14 17 20 22 23 23 25 27 28 27 26 24 23 23 25 25 23 23 25 26 28 29 28 28 28 27 26 25 24 24 24 23 22 22 22 22 22 23 24 24 24 24 23 22 21 20 19 18 17 16 16 15 15 15 13 13 12 12 11
1 2 4 7 10 13 17 20 21 22 24 26 28 29 31 29 25 24 26 26 26 26 26 26 28 29 29 29 29 29 28 27 26 25 25 24 23 22 22 22 23 23 23 25 25 25 24 24 23 22 21 20 19 18 18 18 18 17 16 16 15 14 13
1 1 2 5 6 9 12 16 18 20 22 24 24 26 28 29 28 27 26 26 26 27 28 29 30 31 31 31 31 31 30 28 27 26 25 25 25 24 24 24 24 23 23 24 25 26 25 25 25 24 23 22 21 21 21 21 21 20 20 19 19 17 16
3 3 2 2 3 6 8 11 14 16 19 22 23 24 25 26 27 28 27 26 26 27 29 31 32 33 33 32 32 32 31 29 28 27 26 26 26 26 26 26 25 25 24 25 25 26 26 26 26 25 25 25 24 24 23 23 23 23 23 22 21 20 19
5 2 1 1 2 3 5 8 10 12 14 18 21 22 22 23 24 27 28 28 29 28 29 30 31 32 33 33 33 32 31 30 29 28 28 28 28 28 27 27 27 27 27 26 26 26 26 27 27 27 26 26 26 26 26 26 26 26 25 24 23 22 21
6 4 2 3 3 2 4 6 8 10 12 14 17 19 20 20 22 24 27 30 31 31 29 28 29 30 31 31 31 31 30 31 31 30 30 30 29 29 28 28 29 29 29 28 27 27 27 28 28 28 28 28 28 28 28 28 28 27 26 25 24 23 23
6 5 4 3 2 3 5 6 7 10 11 12 13 15 16 18 20 22 24 27 28 29 30 29 29 29 29 29 29 29 29 30 31 32 31 31 31 31 30 30 30 31 31 30 30 30 29 29 30 30 29 29 29 29 30 30 29 28 27 26 25 25 25
5 4 3 3 2 2 3 4 6 9 10 11 13 14 15 16 18 20 22 24 24 25 28 31 31 30 29 29 29 30 29 28 30 31 32 32 32 32 33 32 33 33 32 32 32 32 32 32 32 31 31 31 32 31 31 31 30 29 28 27 27 27 28
6 5 3 3 2 1 1 2 4 6 7 9 10 12 14 16 17 18 20 22 23 22 25 29 30 30 31 31 30 30 30 29 29 31 32 33 33 34 35 35 35 35 34 34 34 34 35 34 34 34 33 33 33 33 33 32 32 31 29 29 29 29 29
7 6 5 4 3 2 1 2 2 3 5 6 6 8 10 13 15 16 18 21 22 22 24 26 28 30 31 31 30 30 30 30 30 31 32 33 34 35 36 36 36 36 35 35 35 36 36 36 35 35 35 35 35 35 35 34 33 32 31 30 30 30 31
8 8 7 6 6 4 3 2 3 3 4 4 5 5 5 6 9 12 14 17 19 22 23 25 27 27 27 28 31 33 32 31 31 31 31 33 34 35 37 37 37 36 36 36 36 37 36 36 37 37 37 36 36 36 36 35 34 33 32 31 30 31 32
11 10 9 9 8 7 6 5 4 3 4 4 5 5 4 4 5 7 9 11 14 17 20 23 25 22 21 26 32 35 35 33 32 31 32 33 34 36 37 38 38 38 37 37 38 37 37 37 37 37 37 36 36 37 36 35 34 34 33 32 32 32 33
14 13 13 12 11 10 10 9 7 6 5 5 5 5 5 5 5 5 7 10 11 11 14 18 20 19 21 26 30 33 34 34 32 31 32 34 35 36 37 38 39 39 39 39 39 39 38 37 36 37 37 37 37 37 36 35 33 33 33 32 32 34 35
16 16 16 16 15 14 13 12 12 11 10 8 7 6 6 6 5 4 6 9 10 9 9 12 15 17 21 26 29 29 30 32 32 33 33 34 35 36 37 38 39 39 39 39 40 40 39 37 37 37 37 37 37 36 36 34 33 32 32 32 33 34 35
19 19 19 19 19 19 18 16 16 16 15 14 12 11 10 8 7 5 5 7 9 9 9 9 12 15 18 22 26 27 28 30 33 35 36 35 35 35 37 38 38 37 37 36 37 39 39 38 38 38 37 37 36 36 35 34 34 33 33 33 33 34 35
22 21 21 22 22 22 21 21 20 19 19 19 18 17 16 13 12 10 8 7 9 10 10 10 11 13 15 16 19 22 25 28 31 34 37 39 37 35 36 36 35 35 34 34 36 38 38 38 38 38 38 38 37 36 35 34 33 34 34 33 34 34 35
25 24 24 24 24 24 24 24 24 23 23 23 22 22 21 19 18 16 14 12 11 11 12 13 13 13 15 16 15 16 19 24 27 30 34 37 37 37 37 36 33 32 34 35 36 37 38 39 40 40 40 39 38 38 36 34 33 34 35 35 34 35 35
26 26 26 26 26 27 27 27 27 27 26 26 26 26 26 24 23 22 20 19 17 15 14 15 16 17 17 17 16 13 13 15 19 23 28 32 34 35 37 37 35 33 35 36 36 37 38 39 40 40 40 40 40 40 38 36 34 33 34 35 35 35 35
25 26 27 28 28 29 29 29 29 29 29 30 30 30 30 29 28 27 25 24 23 21 19 18 18 19 20 19 18 16 14 12 12 14 19 25 28 30 32 34 34 34 34 35 35 34 35 37 39 39 39 40 41 41 39 37 36 34 34 35 35 34 34
24 26 27 28 29 30 31 31 31 30 31 32 32 33 33 33 32 32 30 29 27 26 25 23 22 22 21 21 21 19 18 16 13 11 13 16 20 24 27 29 31 31 33 34 34 33 33 34 35 37 37 39 42 41 39 36 35 35 34 34 34 34 33
22 24 25 27 28 30 31 32 32 32 31 32 33 35 36 36 36 35 34 34 32 31 30 29 27 25 24 24 23 21 20 19 17 14 13 12 13 16 20 23 26 27 30 32 33 33 33 35 35 34 35 38 40 40 39 38 36 34 34 35 35 34 33
20 21 22 24 26 28 30 31 32 32 32 32 33 35 36 37 38 38 38 37 37 35 34 34 32 30 28 27 27 25 23 22 22 19 17 17 17 15 16 18 21 24 27 30 32 32 34 36 37 35 35 36 38 38 38 39 38 36 35 36 36 35 34
21 21 22 22 24 26 28 30 31 32 32 32 33 35 36 36 37 39 39 40 40 39 39 38 37 35 33 32 31 30 28 27 25 22 20 19 19 18 17 18 20 23 26 27 30 31 33 35 37 37 37 36 36 37 38 39 38 37 37 38 37 35 33
23 23 23 23 24 25 26 28 29 31 32 32 33 34 36 36 37 38 39 40 41 41 42 41 41 39 38 36 35 34 32 31 29 28 26 22 19 18 18 18 18 22 25 26 28 30 31 33 34 35 35 35 35 36 37 36 36 36 38 39 36 32 32
24 24 24 25 25 25 26 28 29 30 31 32 32 33 35 36 36 37 38 39 41 42 43 43 43 42 41 40 39 39 38 35 33 32 32 30 26 23 23 21 20 21 24 25 27 30 32 33 32 31 31 33 35 35 33 32 33 35 36 37 35 31 31
23 23 24 24 25 26 26 28 29 30 31 31 32 33 34 35 36 36 37 38 40 42 43 44 44 43 43 42 42 42 42 41 40 38 36 34 32 30 29 28 26 25 25 25 25 28 32 35 35 32 31 32 33 34 33 32 32 32 32 34 34 31 29
23 24 24 25 25 26 27 28 29 30 31 31 32 33 34 35 36 36 37 38 39 41 43 44 44 44 43 43 43 43 43 44 44 43 41 38 36 34 32 31 29 29 29 28 28 28 30 33 35 35 35 34 32 32 33 33 32 31 31 32 32 29 27
26 27 27 27 27 28 28 29 30 31 31 32 32 33 34 34 35 36 38 38 39 40 42 44 45 44 44 44 44 43 44 44 44 45 45 44 41 38 37 35 32 29 28 28 29 29 29 31 32 33 36 38 37 36 35 33 33 33 33 33 31 29 29

ECMWFFLT1_700_spd_081.txt.gz
Wind_Speed
20 22 22 22 22 24 28 29 28 28 28 27 27 27 27 26 26 25 23 23 22 20 19 19 18 18 18 19 19 19 20 19 19 19 18 18 17 16 15 14 13 13 12 11 10 10 9 9 9 8 7 7 6 6 6 7 7 7 7 6 6 6 5
18 21 22 22 21 23 26 28 28 29 28 25 25 27 28 27 26 26 24 23 23 22 21 20 19 18 18 19 19 19 20 19 19 19 19 19 18 16 16 15 14 14 13 12 11 10 10 9 9 8 8 8 7 6 6 7 7 7 7 6 6 5 5
15 19 20 20 20 21 21 23 25 27 27 25 25 26 28 28 27 27 25 23 23 22 22 21 19 18 18 19 20 20 20 20 19 19 19 19 19 17 17 16 15 15 14 14 12 11 10 9 9 8 8 8 8 7 7 7 7 7 7 7 6 6 6
13 17 19 20 22 23 21 22 24 26 28 27 25 25 27 28 26 26 25 23 22 22 22 22 20 19 19 18 19 20 20 20 19 19 19 20 20 20 18 17 16 16 15 14 13 12 11 10 10 9 8 8 8 8 8 7 7 7 8 8 7 7 6
14 16 20 21 24 25 23 23 24 25 27 28 28 28 28 27 26 26 25 23 24 23 22 22 21 20 20 19 19 20 20 20 20 20 20 20 21 21 20 18 17 17 16 15 14 13 12 11 11 10 9 8 7 8 8 8 7 7 8 8 8 7 6
15 19 21 20 21 24 25 24 24 25 25 25 27 29 28 29 28 28 26 25 25 24 24 23 22 21 20 19 19 19 20 21 21 21 20 21 21 21 20 19 19 18 17 16 15 14 14 13 12 11 10 9 8 8 8 8 8 8 8 8 8 8 7
15 22 24 20 19 21 22 22 23 25 26 24 24 26 26 29 30 28 27 27 27 27 25 23 22 22 21 20 20 19 20 21 21 22 21 21 21 21 20 20 21 20 19 18 17 16 15 14 14 13 12 11 10 10 9 9 9 8 8 8 8 8 8
11 20 25 23 22 22 20 20 22 25 25 23 23 23 22 24 27 26 26 27 28 27 26 24 23 22 22 22 21 20 20 21 22 22 22 22 22 21 21 21 21 21 20 20 19 18 17 16 15 15 14 13 12 12 11 10 9 9 9 9 8 9 8
7 16 24 24 22 23 21 19 21 23 23 23 24 23 20 20 23 25 25 26 26 24 21 21 22 23 23 23 23 22 21 21 22 23 23 23 23 22 22 21 21 21 20 20 20 19 19 18 17 16 15 14 14 13 12 12 11 10 10 10 9 9 9
6 13 22 23 20 22 21 19 19 21 22 24 25 26 24 21 23 25 24 24 23 20 18 16 17 20 23 24 23 24 23 23 23 23 23 23 23 23 23 23 23 22 21 21 21 21 20 20 19 18 17 16 15 15 14 14 13 12 12 11 11 10 10
7 10 19 23 21 21 21 20 20 20 21 22 24 26 27 25 25 25 25 24 22 20 20 20 19 19 23 24 24 25 25 24 24 24 24 24 23 23 23 24 24 23 23 22 22 22 22 21 21 20 18 17 16 16 16 16 16 15 14 13 13 12 11
8 9 14 20 22 21 20 20 21 21 21 20 20 23 26 26 25 26 26 26 24 22 22 24 24 21 21 23 26 27 27 26 26 25 25 24 24 23 22 23 24 24 23 23 23 23 23 23 22 21 20 19 18 18 17 17 17 17 16 16 15 15 14
7 8 10 15 19 21 21 21 22 21 22 22 22 24 26 26 26 26 27 28 27 26 26 26 25 24 23 24 27 28 27 28 28 27 27 26 25 24 23 23 24 24 24 24 24 24 24 24 24 23 22 20 20 19 19 19 19 19 18 18 18 17 16
6 7 9 10 12 15 18 20 21 21 22 23 24 26 25 24 26 27 27 27 28 28 28 27 27 28 28 29 29 29 29 29 29 29 29 28 27 26 25 23 23 24 25 25 24 24 24 25 25 24 23 22 22 21 21 20 21 21 20 20 20 20 19
7 7 7 7 7 8 11 15 18 20 20 21 23 24 25 25 27 28 27 28 28 28 27 27 28 29 30 30 31 32 32 31 31 31 31 30 30 29 27 27 25 24 25 25 25 24 24 25 25 25 25 25 24 24 24 23 22 22 22 22 22 21 20
7 6 5 5 5 5 5 8 11 14 16 19 21 23 25 26 27 28 28 29 30 29 29 29 29 29 31 32 34 35 35 34 34 34 33 32 32 31 30 29 28 26 26 26 25 24 24 25 26 26 26 26 26 26 26 26 26 25 24 23 22 22 22
8 7 6 6 6 5 4 4 5 7 9 13 17 20 22 24 25 27 28 30 31 31 31 31 31 31 32 35 36 37 37 37 36 37 37 35 34 33 32 31 31 30 29 28 28 27 26 26 26 26 26 26 26 26 27 27 27 27 26 25 24 24 23
10 9 8 8 7 6 6 5 6 6 6 8 11 14 18 21 23 25 26 28 31 32 33 33 34 34 35 36 37 36 37 37 35 35 36 36 35 34 34 34 33 33 32 31 31 30 29 28 28 28 27 26 26 27 27 27 28 29 28 27 26 25 26
12 11 10 8 7 7 7 7 7 7 7 8 9 10 13 16 19 22 23 25 28 31 33 34 35 36 36 36 36 36 36 36 35 35 35 36 36 36 36 36 36 35 35 34 34 33 32 31 31 31 30 29 29 28 27 27 27 28 29 27 26 26 27
13 12 10 9 7 7 7 7 6 6 6 8 9 10 12 13 15 18 20 22 25 28 30 33 36 37 36 35 34 33 34 36 37 37 37 37 38 38 38 38 38 37 37 37 36 35 35 34 33 33 33 32 32 31 29 28 28 29 29 27 26 25 26
13 12 11 10 9 7 7 6 6 6 6 6 7 8 10 12 14 16 18 20 22 24 26 29 33 35 37 38 36 31 31 35 37 37 38 39 40 39 37 38 38 39 39 39 37 36 36 35 35 35 34 33 33 33 32 30 29 30 30 28 26 26 26
14 13 12 11 10 9 8 7 6 6 7 6 6 7 7 9 11 13 15 17 19 21 23 26 28 31 33 35 35 33 31 32 35 36 37 39 40 38 36 36 37 38 38 37 35 34 35 35 34 34 34 34 33 34 33 32 31 32 31 29 27 26 27
14 14 13 12 12 10 9 8 8 8 7 7 7 7 7 8 8 9 10 12 14 16 18 20 23 26 27 26 30 34 34 33 35 37 38 39 39 38 38 37 36 36 37 36 36 35 35 35 34 33 33 33 33 34 33 33 32 32 32 30 29 28 29
15 15 14 13 12 12 11 10 9 9 9 9 9 8 8 8 8 8 8 9 10 11 13 15 16 19 22 22 24 31 35 36 37 39 41 41 38 35 35 36 35 35 36 36 36 35 37 38 36 35 33 33 33 33 33 33 33 32 32 32 31 31 31
18 17 16 16 15 14 13 12 11 11 11 11 11 10 10 10 9 9 9 9 9 10 11 12 13 14 16 18 21 27 32 35 37 40 42 41 38 33 30 31 33 34 35 36 36 36 37 38 38 37 36 35 35 34 33 32 32 32 33 33 32 32 33
21 20 20 19 19 17 16 16 16 15 15 15 14 13 13 12 11 11 10 10 10 10 11 12 12 12 12 14 17 22 28 32 35 38 40 41 40 36 32 29 30 33 35 37 39 39 38 38 38 36 36 36 36 35 34 32 32 32 33 33 33 32 33
23 23 23 24 23 21 21 22 21 20 20 19 18 18 17 16 16 15 13 13 13 12 12 12 12 13 13 13 14 17 22 28 30 32 35 38 39 38 35 33 31 32 35 37 40 42 41 39 38 37 36 36 36 36 36 34 33 33 32 33 33 33 34
25 24 24 25 25 25 26 26 26 25 25 24 23 23 22 21 20 19 18 18 17 16 15 14 14 14 14 15 15 15 17 21 23 24 27 32 33 33 33 34 34 34 35 36 37 39 40 39 38 38 37 37 37 37 36 36 36 35 34 34 33 32 33
27 26 26 26 25 27 28 28 28 28 28 28 28 28 28 27 26 24 23 23 22 21 20 19 18 17 17 17 18 17 17 18 19 20 22 26 29 30 30 31 32 33 34 34 33 34 36 37 38 39 39 38 38 38 37 37 37 37 37 38 37 35 34
27 27 27 27 27 28 27 27 28 28 28 29 30 30 31 31 31 30 29 28 27 27 25 25 24 22 21 20 20 20 20 20 21 22 22 22 24 27 29 30 29 27 27 29 32 35 36 36 37 39 40 39 39 39 38 38 38 39 41 43 41 39 37
26 26 27 27 28 28 27 27 28 28 28 29 30 30 31 32 33 33 33 33 33 32 31 31 29 28 26 25 24 24 23 23 23 23 23 23 22 22 24 28 29 26 24 24 27 32 35 36 37 38 39 38 39 39 37 37 38 39 41 40 39 38 38
23 24 24 25 26 26 25 25 26 27 28 29 29 30 32 32 33 34 34 35 35 35 36 36 35 34 32 30 29 28 27 27 26 25 24 24 23 21 21 22 24 25 26 26 26 28 30 32 34 36 37 37 38 38 35 34 35 36 35 35 36 38 37
21 21 21 22 23 23 23 23 24 24 25 26 27 29 30 31 32 33 34 35 36 37 38 39 38 38 38 37 35 33 32 31 30 29 28 26 25 23 23 23 23 23 25 28 29 30 30 30 30 33 35 36 38 37 34 34 35 35 33 32 33 34 33
18 19 19 20 21 22 22 22 22 22 22 23 24 26 28 29 30 31 33 34 35 36 38 39 40 40 41 40 40 39 38 36 35 34 33 31 29 28 27 26 25 25 25 26 28 31 32 32 32 32 33 35 37 36 35 36 36 35 33 33 33 31 30
15 16 17 17 18 19 20 21 21 21 21 21 22 24 25 26 27 29 31 32 33 35 36 38 39 40 41 42 42 42 42 41 40 40 38 36 35 33 31 29 28 28 27 26 27 29 32 33 33 33 33 35 36 35 35 37 37 34 34 35 33 31 30
14 14 15 16 17 18 19 20 21 22 21 21 21 22 24 24 25 27 28 30 32 33 35 37 38 38 40 41 42 43 44 44 44 44 44 42 40 38 36 33 32 31 30 29 28 29 30 31 31 32 34 35 36 35 35 36 34 33 34 33 32 30 30
15 15 16 17 18 19 20 21 22 23 23 23 23 23 24 24 25 26 27 29 30 31 33 35 36 37 39 40 41 43 44 45 46 47 47 46 45 43 42 39 36 35 35 33 31 31 31 32 32 32 34 35 35 35 36 35 34 33 33 33 32 32 32
18 18 19 19 20 21 22 23 24 25 25 25 26 26 26 26 27 27 27 28 30 31 32 33 35 36 38 39 40 42 44 45 46 47 48 48 48 47 47 45 42 40 38 37 36 35 35 34 34 34 34 35 35 35 36 37 37 36 36 36 35 35 35

ECMWFFLT1_700_spd_084.txt.gz
Wind_Speed
15 20 24 25 26 26 27 28 28 27 27 27 27 26 26 25 23 22 21 20 19 18 18 17 17 17 17 17 16 15 16 17 17 16 17 16 15 15 15 14 14 13 12 11 11 10 9 9 9 8 6 6 6 6 7 7 8 7 7 6 5 5 5
14 18 22 24 25 26 27 27 27 26 26 26 26 27 28 28 26 25 22 21 20 18 17 17 17 17 17 17 17 16 16 17 17 17 17 17 16 15 15 14 14 13 12 10 10 9 9 8 8 8 7 6 6 5 6 7 8 8 7 6 6 6 5
13 17 21 21 23 25 26 25 24 25 25 24 26 28 30 30 31 30 26 23 22 20 19 18 17 17 17 17 17 16 16 16 16 16 17 18 17 16 16 15 15 14 13 11 10 9 8 8 7 7 7 7 6 5 5 6 7 8 7 6 6 6 6
12 16 20 20 21 24 24 23 24 26 25 25 27 29 30 30 30 30 27 24 23 22 20 19 18 17 17 17 17 17 16 16 16 16 17 18 18 17 17 16 15 15 14 13 11 10 9 8 7 7 7 7 6 5 5 5 6 6 6 7 6 6 6
10 13 18 20 21 24 23 22 24 26 27 27 27 26 28 30 29 29 26 23 23 23 21 20 19 18 18 18 18 18 17 16 16 17 17 19 19 19 18 17 16 16 15 14 12 11 10 9 9 8 7 7 6 6 5 5 6 6 6 7 7 6 6
13 13 18 22 22 23 23 22 23 25 26 27 25 25 27 28 27 27 25 22 22 22 21 21 20 19 18 18 18 19 18 17 17 17 18 19 20 19 18 18 17 16 15 14 13 12 11 10 10 9 8 8 7 7 6 6 6 7 7 7 7 7 6
18 17 20 23 24 24 24 23 24 24 23 24 25 26 26 25 24 25 24 23 23 21 20 21 21 20 19 18 18 19 19 19 18 18 18 19 20 20 19 18 18 17 17 16 14 13 12 11 11 10 9 9 8 8 8 7 7 7 7 7 7 7 6
16 20 23 24 24 26 27 26 26 25 24 25 27 28 28 26 23 23 24 24 24 22 21 21 21 21 21 21 20 19 19 19 19 19 19 19 20 21 20 20 19 18 18 16 15 14 13 12 11 10 10 9 9 9 8 8 7 7 7 7 7 7 7
13 19 23 25 24 24 27 27 27 26 26 26 27 27 26 24 22 23 24 24 22 21 20 20 22 23 23 23 22 20 19 20 20 21 20 20 20 21 21 21 20 19 19 17 16 15 14 13 12 11 11 10 9 10 9 9 8 8 7 7 8 7 8
11 14 19 22 20 19 23 27 26 25 26 26 26 25 24 23 23 25 25 24 22 21 20 21 22 23 23 24 24 23 21 20 21 21 21 21 21 20 21 21 21 21 20 19 18 17 16 15 14 13 12 12 11 11 11 10 10 9 9 8 9 9 8
10 11 15 19 18 15 18 23 23 23 24 25 26 26 25 25 27 29 28 26 24 24 23 22 22 22 23 25 25 26 26 24 21 21 21 22 21 20 20 21 22 22 21 20 20 19 18 17 16 15 14 13 12 12 12 12 12 11 11 10 10 10 10
10 13 15 17 19 19 18 19 20 20 21 23 26 28 27 27 30 31 30 28 27 27 26 23 22 22 25 27 29 30 30 27 25 22 20 20 20 20 20 21 21 21 21 20 20 21 20 19 18 17 16 15 14 14 14 14 14 13 13 13 13 13 12
12 17 18 16 17 20 20 19 19 20 22 23 24 27 28 30 31 30 29 29 29 28 25 23 23 24 27 28 29 31 31 29 28 27 23 20 20 20 20 21 21 21 20 20 20 21 21 21 20 19 18 17 17 16 16 16 16 16 16 16 16 15 15
12 17 22 20 18 18 19 19 18 19 21 21 20 21 25 30 32 31 30 30 29 27 25 24 26 28 29 29 28 28 29 29 28 27 26 25 23 21 20 20 20 20 20 20 20 21 21 21 21 20 20 19 19 19 19 19 19 18 18 18 18 18 17
11 13 18 21 21 19 17 17 16 15 17 18 19 20 21 26 31 31 30 30 28 27 26 26 29 31 30 31 29 25 23 25 26 25 24 24 23 22 21 20 19 18 18 18 19 20 21 21 22 22 22 21 21 21 21 21 21 21 20 20 20 20 19
11 11 13 15 18 19 18 18 17 16 14 15 18 20 22 25 28 28 27 27 27 28 27 27 29 29 27 29 29 25 21 22 24 24 23 22 22 22 23 22 21 20 19 19 18 19 20 22 23 24 23 22 22 23 23 24 23 22 22 21 21 21 21
11 11 12 12 13 15 16 16 17 18 17 15 15 18 20 24 24 23 23 24 26 27 28 29 30 29 27 28 29 26 24 23 23 23 23 23 24 24 25 25 24 23 24 23 21 19 20 21 23 24 24 24 23 23 24 25 25 25 24 23 23 23 23
9 10 11 12 12 12 13 13 13 14 15 15 15 17 19 21 22 21 22 23 26 28 29 29 30 30 30 31 31 29 26 25 26 26 26 26 27 27 27 27 27 25 25 25 24 23 23 22 22 23 24 25 24 23 23 24 25 26 26 25 24 25 25
11 11 11 11 12 11 11 11 11 11 12 13 14 16 18 20 21 22 22 24 26 27 27 27 28 29 29 30 30 28 26 27 29 29 29 29 29 28 27 28 29 28 27 27 27 26 25 24 24 23 23 24 24 24 23 22 23 25 26 25 24 24 26
14 13 13 11 11 11 10 9 9 9 10 11 12 13 14 17 20 21 21 22 22 23 24 26 28 29 30 30 30 28 27 28 30 31 31 30 30 30 29 30 31 31 31 31 30 29 28 27 27 26 25 25 25 25 25 24 23 24 25 25 23 22 23
16 15 15 14 12 12 11 10 9 8 8 9 9 10 11 12 14 16 17 18 18 18 21 24 26 28 30 31 32 31 29 29 29 28 29 29 30 30 31 32 32 32 33 32 31 32 31 31 31 30 28 28 28 29 29 28 27 27 27 27 25 23 22
17 15 15 15 14 13 12 11 11 9 9 9 8 8 8 8 8 10 12 13 14 15 18 20 22 24 27 29 31 32 32 32 30 29 29 30 31 31 32 31 31 32 33 33 33 33 33 33 32 31 31 31 32 32 32 31 30 30 31 30 28 26 24
17 16 16 16 15 15 14 12 12 11 10 10 9 8 7 7 6 7 7 8 10 11 13 15 17 19 21 24 26 28 30 31 32 33 33 32 31 32 32 32 31 31 32 34 35 35 34 34 33 33 33 33 34 35 35 33 31 32 32 32 32 30 28
18 17 16 17 16 15 14 13 13 12 11 11 10 9 9 8 7 6 6 6 6 7 8 10 11 12 14 17 19 21 24 26 28 32 35 33 31 32 33 34 33 33 34 36 36 36 34 34 34 35 36 36 35 36 36 35 34 33 34 34 34 34 33
21 19 18 19 17 15 15 15 14 14 13 12 11 11 10 10 9 8 7 7 7 7 7 7 8 7 8 10 11 14 18 21 23 27 32 34 34 34 35 35 35 35 36 36 37 36 36 35 36 38 38 38 36 35 37 37 36 35 36 35 35 36 36
22 20 20 19 17 15 16 16 16 15 15 14 13 13 13 12 11 10 9 9 9 8 8 8 8 7 7 7 8 9 11 15 19 23 28 32 34 34 34 35 35 35 35 35 36 38 37 36 37 38 39 40 38 36 37 38 38 39 39 37 35 35 36
22 21 21 20 18 18 18 18 16 16 16 15 15 16 15 14 13 13 12 12 12 11 10 9 8 9 9 8 8 8 8 10 12 17 22 27 30 32 33 33 34 35 36 36 36 37 37 37 38 39 40 40 38 37 38 40 43 44 42 38 35 35 36
21 21 22 21 21 22 22 20 19 19 18 18 18 18 18 17 16 16 15 15 15 14 13 11 10 10 10 10 10 10 10 9 10 11 13 16 20 24 27 30 32 34 36 37 37 37 37 37 38 39 40 39 37 37 40 41 42 42 40 36 34 33 35
22 22 22 23 24 24 24 23 23 23 22 23 23 22 21 21 20 20 19 20 19 18 17 16 15 14 14 13 13 13 12 12 12 12 12 12 12 13 16 21 25 27 30 33 36 38 39 39 39 40 41 40 38 38 40 40 41 41 39 35 33 33 36
24 23 23 25 26 26 25 25 26 26 27 27 27 27 26 26 25 25 25 25 24 23 23 22 20 19 18 17 17 17 17 16 15 15 14 14 13 13 12 13 15 17 20 24 29 34 38 40 41 41 43 43 41 39 38 36 37 40 40 37 35 36 36
27 26 27 28 28 27 26 26 27 28 28 30 30 30 30 30 30 30 30 30 29 29 28 28 27 25 24 23 22 22 21 21 20 19 18 17 16 16 15 15 15 16 16 18 21 26 31 34 36 37 39 41 41 40 38 35 34 37 39 39 38 36 35
28 28 28 28 28 26 26 27 28 28 28 29 30 31 31 32 33 33 34 34 33 33 33 33 33 31 30 29 29 27 26 26 25 24 24 23 21 20 19 19 19 18 18 18 18 20 24 27 30 32 33 34 36 37 36 35 35 37 38 38 37 36 35
27 27 27 28 28 26 26 26 27 28 28 29 29 30 31 31 32 33 34 35 35 35 36 36 36 36 35 34 34 33 32 32 30 29 29 28 27 25 23 23 23 22 21 20 20 21 22 24 26 28 30 31 31 30 30 32 34 36 38 37 36 34 33
26 27 27 27 27 27 26 26 26 27 28 28 28 29 30 31 31 32 33 34 35 36 36 36 36 37 37 37 37 37 37 36 36 35 34 33 32 31 29 28 27 27 26 24 24 24 25 24 24 25 27 27 26 25 26 27 30 32 34 35 34 33 32
25 26 26 26 27 26 25 25 25 25 26 26 27 28 28 29 30 31 31 32 33 34 35 35 36 36 36 37 37 37 38 38 39 39 39 38 37 36 35 34 33 32 30 29 28 28 28 28 27 26 26 25 23 23 23 24 26 28 30 32 33 34 35
24 24 23 23 23 23 22 22 22 22 23 23 24 24 25 26 26 28 29 30 31 32 32 33 33 33 34 35 36 37 37 38 39 40 41 41 41 41 41 40 38 36 35 33 33 32 31 31 30 29 28 27 25 24 24 24 23 25 28 30 32 34 35
20 19 19 18 18 19 20 20 20 21 21 21 21 22 23 23 24 25 26 26 27 28 29 29 30 31 31 32 33 34 35 36 37 38 40 41 42 43 44 43 43 42 40 39 38 37 36 35 34 33 32 30 28 28 27 26 25 26 26 28 30 32 34
17 17 17 17 17 19 20 21 21 22 22 22 22 23 23 23 24 24 24 25 26 26 27 28 28 29 29 30 31 32 32 33 34 35 37 38 40 41 43 45 45 45 44 44 43 43 41 40 38 37 36 34 33 31 30 29 29 29 29 29 30 31 33

ECMWFFLT1_700_spd_087.txt.gz
Wind_Speed
22 25 26 28 30 31 33 34 33 31 26 23 24 24 22 20 20 19 19 18 16 15 14 13 13 13 12 12 12 12 13 14 14 14 13 11 10 10 10 11 11 12 12 12 11 11 11 10 8 7 7 7 7 7 7 7 7 7 7 8 8 8 7
20 22 24 27 29 31 32 33 34 32 29 27 27 26 24 21 20 19 20 20 19 17 16 15 14 14 13 13 12 12 12 13 15 14 13 12 11 10 11 11 11 11 11 11 11 12 11 10 9 7 6 6 6 6 7 7 7 7 7 7 6 7 7
17 19 23 25 27 30 31 31 33 33 33 32 30 28 25 22 20 17 18 19 19 19 18 17 16 15 14 14 14 13 12 13 14 14 13 13 12 11 11 11 11 11 12 11 11 11 11 10 9 7 6 6 6 5 6 7 7 7 7 6 6 6 7
17 18 21 23 24 29 31 32 34 36 36 35 32 29 27 24 22 18 17 19 19 18 18 18 17 16 15 15 15 14 13 12 13 14 14 13 13 13 12 12 12 12 12 11 11 11 10 10 9 8 7 6 5 5 6 7 8 7 7 7 7 7 7
19 20 20 21 24 28 31 31 33 33 34 35 33 29 27 25 24 22 19 20 19 18 17 18 19 18 17 16 16 15 14 13 13 13 14 14 14 14 14 13 13 12 12 12 11 11 10 10 9 8 7 6 6 5 5 6 7 7 7 7 6 6 6
19 20 20 21 24 26 27 26 27 27 29 30 29 27 26 26 26 24 22 21 21 19 18 20 20 19 19 18 17 17 16 14 13 13 14 14 14 15 14 14 14 13 13 12 11 10 9 9 9 8 7 7 6 6 6 6 6 7 7 6 6 6 6
22 22 20 20 22 24 23 23 25 26 27 28 27 27 28 27 26 26 24 24 23 20 20 21 22 21 20 20 19 18 17 16 15 14 14 14 14 15 15 15 15 14 14 13 12 11 9 9 9 9 8 8 7 7 7 7 6 6 6 7 7 7 6
26 26 22 21 22 23 24 24 26 27 27 29 30 30 29 28 28 27 25 25 24 22 22 22 23 24 24 22 20 19 19 18 17 16 15 14 14 15 15 16 16 15 15 14 13 12 11 10 10 10 9 9 8 8 8 8 7 7 6 7 7 7 6
25 24 22 24 24 22 21 22 24 27 28 30 31 31 31 30 30 28 27 25 24 24 24 24 24 25 26 24 21 20 20 20 19 18 17 15 14 14 15 16 16 16 16 15 14 13 12 11 10 10 10 10 10 9 9 8 8 7 7 7 6 7 7
21 20 19 23 25 23 21 19 20 25 28 31 32 32 32 30 28 28 27 26 26 27 27 26 27 27 27 25 22 21 21 21 20 20 20 18 16 15 15 15 16 17 16 16 15 14 13 13 12 11 11 11 11 10 10 9 9 9 8 8 7 7 7
19 18 17 19 23 25 23 21 21 24 26 30 31 31 31 29 29 29 28 27 29 30 31 31 31 30 28 26 23 23 23 21 21 21 20 19 18 17 16 15 16 17 17 18 17 16 15 15 14 13 13 12 12 11 11 11 11 10 10 10 10 9 9
15 16 15 14 17 22 22 22 23 23 23 25 26 27 28 28 29 29 27 28 29 30 31 31 29 26 24 23 23 24 23 21 20 20 18 18 18 18 17 17 16 17 18 19 19 18 18 17 16 15 14 14 13 13 13 13 13 12 12 12 12 12 12
12 12 12 11 12 15 18 20 22 22 23 24 24 24 24 25 26 26 26 27 28 28 30 29 26 23 22 23 24 25 24 23 22 20 18 19 19 19 19 19 19 19 19 20 20 20 20 19 18 17 16 16 15 15 15 14 14 14 14 14 14 14 14
12 13 13 13 12 13 15 17 20 22 23 23 23 23 24 24 25 26 27 28 27 28 29 27 25 24 23 24 25 25 26 26 24 23 22 21 21 21 20 20 21 21 21 20 21 21 21 20 19 18 18 17 17 17 17 17 16 16 15 15 16 16 15
13 14 15 15 15 14 14 15 18 20 21 22 22 22 23 23 23 25 26 26 25 26 27 26 25 24 24 25 25 26 26 27 26 26 25 24 24 23 22 21 22 22 22 20 20 21 21 21 20 19 19 18 18 19 19 19 18 17 17 17 17 17 17
13 15 18 18 17 15 15 15 16 17 18 20 21 22 22 22 22 23 24 24 24 24 24 24 24 23 24 25 26 27 27 27 28 27 27 27 26 26 25 23 22 22 22 21 20 21 23 23 23 22 21 19 19 20 20 20 20 19 18 18 18 19 19
12 13 17 19 19 18 18 17 16 16 16 17 20 22 23 22 23 24 24 24 24 23 21 21 21 22 23 23 24 25 26 26 26 26 27 28 28 28 27 25 24 23 21 20 19 19 21 23 24 24 23 21 20 20 21 21 20 20 20 20 20 20 20
12 12 13 17 19 19 19 19 18 17 16 15 17 20 22 22 22 23 24 25 24 23 21 20 20 22 23 23 22 22 23 23 22 20 21 25 28 29 28 26 25 23 22 21 21 19 19 20 22 23 23 22 21 20 21 21 21 21 21 21 21 21 21
14 13 12 13 15 16 17 18 18 17 16 16 17 18 20 21 21 21 22 23 24 24 23 22 22 22 23 23 22 22 22 23 22 19 19 22 25 27 27 27 27 26 25 24 23 22 22 22 21 21 21 21 21 20 19 20 21 22 23 22 21 21 22
15 14 12 11 13 13 14 14 15 17 17 18 18 18 19 20 20 20 21 23 24 25 24 23 22 21 22 23 22 22 23 24 24 23 22 22 22 23 25 26 28 28 28 27 26 25 25 25 25 24 23 22 21 21 21 20 19 20 21 22 21 21 22
14 14 13 12 13 13 14 14 14 15 16 17 17 17 17 17 18 18 20 22 24 24 24 23 22 22 24 24 23 22 23 24 24 23 21 21 21 22 23 25 27 29 29 28 28 27 27 27 28 28 27 25 23 23 23 23 23 22 22 22 22 22 21
13 13 13 13 14 14 14 14 14 14 13 14 15 15 16 15 15 15 15 17 18 18 18 18 18 19 21 23 24 23 23 25 25 23 22 20 20 21 22 23 26 29 31 30 29 29 29 30 30 30 30 28 27 27 25 25 26 28 27 26 25 24 24
13 13 13 13 13 14 14 14 14 14 13 13 13 13 13 13 13 12 13 13 13 12 11 11 12 14 16 18 20 19 20 23 23 23 24 24 23 23 23 23 24 28 31 33 32 31 31 32 33 33 32 31 31 30 29 29 30 31 29 29 28 26 26
15 16 15 13 12 14 14 14 14 13 13 13 12 12 12 11 10 10 10 11 10 10 9 8 7 9 10 12 14 15 16 17 18 20 23 25 26 27 26 25 26 28 31 33 33 33 32 33 33 34 34 34 33 33 33 33 33 32 30 29 29 29 30
21 21 19 15 14 16 15 15 15 13 12 12 12 11 11 10 10 10 9 9 10 9 9 8 7 7 7 8 10 11 13 14 15 18 21 24 26 28 28 28 29 30 31 32 33 33 32 31 31 32 33 34 34 35 36 36 34 33 31 30 31 31 31
26 23 20 17 17 18 17 16 16 14 13 13 13 12 12 10 10 10 9 9 9 9 8 8 8 8 7 7 7 8 9 11 13 15 18 21 24 27 28 29 30 31 32 31 31 31 31 31 30 30 30 32 34 36 36 35 33 32 32 32 33 33 32
26 22 19 18 20 20 19 17 17 16 15 16 16 15 14 13 13 12 12 11 10 9 9 8 8 8 8 7 7 7 7 7 8 9 11 14 17 21 24 27 28 30 31 31 31 31 30 31 30 29 29 30 33 35 34 32 32 31 31 32 33 33 33
23 21 20 21 22 21 19 18 18 19 19 20 19 18 17 16 15 15 15 14 13 11 11 10 10 10 9 9 8 8 7 7 6 6 6 6 8 12 17 21 25 27 29 30 31 30 30 30 30 30 30 30 31 32 31 30 30 30 30 31 32 32 32
20 21 22 24 24 21 20 20 21 22 23 22 21 20 19 19 18 18 17 17 16 15 14 14 13 12 11 10 10 9 9 8 8 7 6 5 5 6 8 13 17 21 24 27 28 29 30 31 32 32 32 32 32 32 31 31 31 30 30 31 31 30 30
20 20 22 24 24 22 23 24 24 24 24 24 22 22 22 22 21 21 20 20 19 19 18 17 16 15 15 14 14 13 12 11 10 10 9 9 7 6 6 8 10 13 16 20 23 25 27 30 31 33 34 35 34 33 34 34 33 32 32 32 30 30 30
26 25 25 26 25 24 25 27 27 27 26 25 25 25 25 26 25 25 24 23 23 23 22 21 20 20 19 19 18 18 17 16 16 15 14 14 13 11 11 10 11 12 13 15 17 18 20 23 25 28 30 32 33 34 35 36 36 36 35 34 32 31 31
30 29 29 28 27 26 26 27 28 28 28 27 27 28 28 29 29 29 29 28 28 27 27 26 26 25 25 24 24 23 23 22 21 21 20 20 19 18 17 16 16 16 16 16 16 16 16 17 18 19 21 23 25 28 31 33 34 34 34 33 32 32 32
29 28 27 27 27 27 27 27 28 28 28 28 28 29 30 30 31 31 31 31 32 32 31 31 31 30 30 30 30 29 29 29 28 27 27 26 25 24 24 23 23 22 22 21 20 20 19 19 18 18 17 17 18 20 23 26 29 30 30 30 30 30 30
27 27 26 26 26 26 26 26 26 27 27 27 28 28 29 29 30 30 31 32 33 33 33 34 34 34 34 34 35 35 35 34 34 33 33 32 31 30 29 29 29 28 28 27 27 26 25 24 23 22 21 20 19 19 20 21 23 26 27 29 29 29 29
27 27 27 27 26 25 25 25 26 26 27 27 27 27 27 28 28 29 30 30 31 32 33 33 34 34 35 36 36 37 37 37 37 37 36 36 35 35 34 34 34 33 33 32 32 32 30 29 28 27 26 25 24 23 22 21 21 23 24 25 27 28 27
26 26 26 26 25 25 25 26 26 26 26 26 25 26 26 27 28 28 29 29 30 31 32 33 33 34 34 35 36 36 36 36 36 37 37 38 38 37 37 37 37 38 38 37 37 37 36 35 33 32 31 30 28 28 27 26 25 24 23 23 24 25 25
25 25 25 25 25 26 26 26 26 25 24 23 23 24 25 25 26 26 27 28 29 30 30 31 32 32 32 33 34 34 35 35 35 35 36 36 37 38 39 39 39 39 40 41 41 41 41 40 39 37 36 34 33 32 32 31 30 29 27 26 25 25 25
23 22 23 24 25 26 26 25 23 22 22 21 22 23 23 24 24 24 25 26 27 28 28 29 29 29 30 30 31 32 32 33 33 33 33 34 34 35 36 37 38 39 40 41 43 44 44 44 43 42 41 40 39 38 36 35 35 34 33 31 29 28 28

ECMWFFLT1_700_spd_090.txt.gz
Wind_Speed
29 30 32 34 35 36 37 36 33 30 26 24 23 23 24 24 23 23 22 20 20 19 19 18 17 17 16 15 15 15 15 14 13 12 11 10 10 9 9 8 9 10 9 9 9 10 10 9 8 8 7 7 7 7 8 8 8 8 9 9 9 9 9
28 29 32 34 35 37 40 39 37 34 31 28 25 24 25 25 24 24 23 21 20 19 19 18 18 17 17 16 16 15 15 15 14 13 12 11 11 9 10 10 10 10 10 10 9 9 9 9 8 7 7 7 7 7 8 8 8 9 9 9 9 9 9
27 29 32 34 36 39 42 43 40 37 35 32 28 25 25 25 25 24 24 22 21 19 20 19 18 18 17 17 17 15 15 15 14 14 13 12 11 10 11 11 10 10 10 10 9 10 10 9 9 7 7 8 8 8 8 9 9 9 9 9 8 8 8
26 29 30 29 30 31 34 36 36 36 37 34 30 26 24 23 24 24 24 24 21 19 19 19 19 18 18 17 17 16 15 14 14 14 14 13 12 12 12 11 11 10 11 11 10 10 10 10 9 8 8 8 8 9 9 9 9 9 9 8 7 7 7
24 26 25 24 26 27 29 32 34 37 38 35 30 27 24 23 22 23 24 25 23 20 19 19 19 19 18 18 17 16 16 14 14 14 15 14 14 13 13 12 12 11 11 11 11 11 11 11 10 10 9 8 8 8 8 9 9 9 8 7 6 6 7
25 24 22 23 25 25 25 28 32 36 36 33 30 28 27 25 23 22 22 23 24 23 21 21 20 19 18 18 18 17 17 16 15 15 15 16 15 15 14 13 13 13 12 12 12 12 12 11 11 10 9 9 8 7 7 8 8 8 7 6 6 6 6
26 25 24 25 24 22 21 25 30 35 35 34 33 33 31 29 27 25 23 23 23 24 23 22 21 20 18 18 18 17 17 17 16 16 16 16 16 16 16 15 14 14 13 13 13 12 11 10 11 10 10 9 8 8 8 8 8 8 7 6 6 5 5
25 25 23 22 21 21 22 26 31 34 35 36 37 36 33 32 32 30 28 27 27 28 27 24 22 22 21 20 19 18 18 17 17 17 16 16 16 16 16 16 15 14 14 14 13 12 11 10 10 11 10 9 8 8 8 8 8 8 8 7 6 6 5
24 22 21 20 20 21 23 27 31 33 33 34 36 36 35 35 35 32 31 33 32 30 27 24 23 24 24 23 21 20 20 19 19 18 17 17 17 16 16 16 16 16 14 13 13 13 12 10 10 10 10 9 8 8 8 8 8 8 8 8 7 7 7
24 22 21 21 21 22 23 24 27 30 29 30 33 36 35 35 34 31 32 33 32 28 25 23 23 24 25 25 23 22 21 21 21 20 19 19 18 17 17 17 17 17 16 15 13 13 12 11 11 10 10 9 9 9 8 8 8 8 8 8 8 8 8
23 22 22 22 21 21 22 23 25 27 27 28 31 32 33 33 32 31 30 31 30 28 25 24 24 24 25 27 26 24 24 23 23 22 21 20 19 19 19 19 19 19 18 17 15 14 13 12 12 11 10 9 9 9 9 9 9 8 8 8 8 8 8
22 20 20 23 24 22 21 22 22 22 23 25 28 29 30 31 30 30 30 30 29 28 26 25 26 25 23 25 26 26 26 24 23 21 21 21 20 20 20 20 21 21 20 19 18 17 15 14 13 12 11 10 10 10 10 10 10 10 10 10 10 9 9
26 23 20 21 25 25 23 21 20 19 19 20 23 26 28 29 30 30 30 29 28 27 25 25 26 24 22 22 25 25 25 24 23 22 22 22 22 21 21 21 21 22 22 21 21 19 18 16 15 14 12 12 12 11 11 11 11 11 11 11 11 11 11
26 25 22 20 22 25 26 22 19 20 19 19 21 24 27 29 29 30 29 27 26 24 24 24 24 24 23 24 24 24 24 24 24 24 24 23 23 23 22 22 22 22 22 22 22 21 20 19 18 17 16 15 14 14 14 13 13 12 12 12 12 12 12
23 22 19 16 17 22 26 24 21 21 20 18 19 22 25 26 27 29 28 26 24 23 23 23 23 24 24 24 23 23 25 26 25 25 24 23 22 22 22 22 21 21 22 22 23 22 22 21 20 19 19 18 18 17 17 16 15 14 14 14 14 13 13
19 16 14 14 15 17 20 21 21 21 21 18 16 18 20 22 24 25 24 24 24 24 24 24 24 25 24 23 21 22 25 26 26 25 25 24 23 22 22 21 21 21 21 21 22 23 23 23 22 22 21 21 21 20 20 19 18 17 17 17 17 16 16
17 15 14 16 17 17 17 17 17 18 20 19 18 17 18 20 20 18 17 20 22 22 23 23 24 26 24 23 22 22 22 24 25 25 26 26 25 24 24 23 22 21 21 21 21 22 24 24 24 23 23 23 23 23 23 22 21 20 20 20 19 19 19
17 17 15 16 18 17 18 18 16 16 17 18 18 18 19 18 16 14 15 17 17 18 20 21 21 23 24 23 23 23 21 22 24 25 26 27 27 27 26 25 24 23 22 22 21 21 23 25 25 24 22 22 23 23 24 24 23 23 23 23 22 22 22
15 19 18 18 19 18 17 19 18 16 17 17 17 17 18 17 16 15 15 15 14 16 17 16 17 19 22 24 22 20 20 20 22 26 28 29 28 28 28 28 26 25 24 25 24 22 22 24 25 25 23 22 22 22 23 23 24 24 24 24 24 24 25
13 16 18 20 22 21 19 20 19 19 18 17 17 16 16 16 15 14 14 14 15 16 16 15 14 15 19 21 20 18 18 18 19 23 26 28 27 26 26 27 28 27 26 26 26 25 24 23 24 24 23 22 21 20 20 20 21 22 22 23 23 24 24
13 12 13 15 17 19 19 19 18 19 18 18 18 16 15 14 13 13 13 14 16 17 17 17 16 17 18 18 17 16 16 16 16 19 22 23 23 21 20 22 25 27 27 27 28 28 27 26 25 23 23 23 22 22 20 19 19 19 19 20 20 21 23
14 13 13 13 14 14 14 14 14 15 16 16 17 17 14 13 13 13 13 14 15 16 16 16 17 17 18 17 17 18 18 17 17 18 20 22 23 21 20 20 21 24 26 28 29 29 29 29 28 27 26 26 25 25 24 22 21 20 20 19 19 20 21
15 14 14 15 15 15 13 12 11 11 11 12 13 14 13 12 12 12 11 12 14 15 15 15 16 17 18 19 20 21 21 21 21 22 22 23 24 23 21 21 22 23 25 27 29 29 30 31 31 32 32 31 30 29 27 25 24 23 23 23 22 22 22
16 15 15 16 17 16 14 13 12 11 10 10 11 11 11 11 10 10 9 9 11 12 12 13 15 18 19 21 23 23 24 24 25 25 25 25 25 24 23 22 23 24 26 28 29 31 32 34 36 37 37 36 34 33 31 29 27 27 27 27 27 26 25
17 16 17 18 18 16 14 12 13 12 10 10 11 11 11 10 9 9 9 9 9 9 8 10 12 15 16 18 20 22 23 24 25 25 26 28 29 28 27 27 26 26 27 28 30 32 34 36 38 38 36 35 33 32 31 31 31 31 30 29 29 29 29
16 16 18 18 17 16 13 13 15 14 13 13 12 11 11 11 10 10 10 10 10 9 9 9 10 12 13 14 16 17 18 19 20 21 24 27 30 31 32 32 31 30 30 30 31 33 35 36 36 35 35 35 33 31 32 32 33 33 32 31 30 30 31
14 16 18 17 16 15 15 15 16 15 14 14 13 12 12 11 11 12 12 12 12 12 12 11 10 11 11 12 12 13 14 15 16 18 21 24 27 30 32 33 34 34 34 34 34 36 37 37 35 34 34 33 32 32 33 33 31 31 33 33 32 32 33
12 16 18 17 16 16 17 16 16 16 14 14 14 14 13 13 12 12 13 13 14 14 13 12 12 11 11 11 12 12 13 14 14 16 18 20 22 25 27 30 32 35 36 37 37 38 39 38 36 34 33 31 30 30 31 30 29 30 32 32 32 33 33
9 13 17 18 17 18 19 19 19 18 17 16 15 15 16 15 15 15 15 15 14 14 13 13 12 13 12 12 12 12 12 12 13 13 14 15 16 18 20 23 26 30 33 36 37 38 38 36 35 34 33 31 29 28 27 27 28 29 29 30 31 31 32
10 11 14 18 19 21 22 21 21 20 19 19 19 18 18 18 18 18 18 18 17 15 14 14 13 13 13 13 13 13 13 13 12 13 13 13 13 13 14 15 18 21 24 26 29 31 32 33 32 32 31 31 29 28 28 28 29 29 30 31 32 32 32
15 13 13 16 20 23 24 23 22 22 22 22 22 22 22 21 21 21 21 21 20 19 17 17 17 16 16 16 16 15 15 15 15 14 14 14 13 13 12 12 13 14 15 16 18 19 21 23 25 26 27 28 28 28 29 30 31 31 32 34 34 34 33
20 18 17 17 20 23 25 25 25 25 25 26 26 26 26 25 24 24 24 24 23 22 21 21 20 20 20 20 20 20 19 19 18 18 17 17 16 16 16 16 16 16 16 16 16 16 16 17 17 18 19 20 21 23 24 26 27 29 30 32 33 32 33
24 23 22 22 23 25 27 28 28 29 29 30 30 30 30 29 28 27 27 27 27 26 26 25 25 24 24 24 24 24 23 23 23 23 22 22 22 22 22 21 21 21 22 21 22 21 21 19 18 18 17 18 18 19 19 20 22 24 26 27 28 29 29
26 27 28 27 27 27 27 28 29 31 32 33 33 33 32 32 32 31 30 30 30 30 30 30 29 29 29 29 29 28 27 27 27 27 27 27 27 28 28 28 28 28 28 28 27 27 27 26 25 23 22 22 22 21 21 20 21 23 24 25 26 26 27
30 31 32 31 29 28 27 28 28 29 31 31 32 33 33 33 34 34 33 33 33 33 33 33 33 32 32 32 33 33 32 32 32 32 32 32 32 32 33 33 33 33 34 34 34 33 33 32 31 30 29 28 27 27 26 26 25 26 26 26 25 25 25
34 33 33 31 30 28 28 29 29 29 28 28 29 31 32 32 33 33 33 33 34 34 34 34 34 34 34 34 35 35 35 36 36 36 36 36 36 36 37 37 38 38 38 38 38 38 38 38 37 36 35 34 33 33 33 32 31 31 31 30 29 28 27
33 32 31 30 28 28 29 29 29 28 27 26 27 28 29 29 30 30 31 31 32 33 33 33 33 34 34 35 35 35 36 37 37 37 37 38 38 38 38 39 39 40 40 40 40 41 41 42 42 41 40 40 39 38 37 37 37 36 36 35 34 33 32
32 30 29 29 29 29 28 28 27 26 25 24 25 26 26 27 27 28 28 29 29 29 30 30 30 31 32 32 34 35 35 36 36 37 37 38 39 39 40 40 39 39 40 41 42 43 43 43 44 44 44 44 43 42 42 41 41 41 40 40 39 39 38

ECMWFFLT1_700_spd_093.txt.gz
Wind_Speed
33 35 35 35 37 38 37 35 32 29 25 21 19 19 19 18 18 18 18 18 18 18 18 17 16 16 16 15 15 15 15 14 13 12 11 10 9 9 8 7 6 7 7 8 9 9 9 9 9 9 8 8 9 9 9 9 10 9 9 9 10 11 10
32 33 34 34 35 38 38 36 33 31 28 24 21 20 20 20 19 18 18 18 18 18 18 17 16 16 16 15 16 16 16 15 14 14 12 11 11 10 9 8 8 8 8 8 8 8 8 8 9 8 8 9 9 8 8 8 9 9 9 9 9 10 10
32 32 32 31 32 35 37 37 36 34 30 26 23 22 22 22 20 19 18 18 19 19 19 18 17 16 16 16 16 16 16 16 16 15 14 13 12 12 10 10 9 9 8 9 8 8 8 8 9 8 8 9 8 8 7 7 8 9 9 9 9 9 9
30 30 30 30 31 32 33 35 36 35 30 26 25 23 23 22 20 20 19 19 20 20 20 19 17 17 17 17 17 16 17 16 16 16 15 14 14 13 12 11 10 9 9 9 9 9 9 9 9 8 8 8 7 8 8 8 8 8 9 9 8 8 8
26 28 29 29 31 31 32 33 34 33 31 30 28 25 24 23 22 21 20 20 21 21 21 20 19 18 18 17 17 16 17 16 16 16 16 16 15 14 13 12 11 10 9 10 10 9 9 9 9 8 7 7 6 7 7 8 8 8 8 8 8 8 8
26 29 30 30 31 30 31 32 33 34 34 34 32 29 27 25 23 23 22 21 23 24 24 22 21 20 19 18 18 17 17 17 17 17 16 17 16 15 15 13 12 12 11 11 10 10 10 10 10 9 7 7 6 6 7 8 8 8 8 7 7 8 8
26 27 29 30 30 30 30 30 32 34 35 36 35 32 30 28 26 24 24 25 26 27 26 24 23 22 21 20 19 18 18 17 17 17 17 18 17 16 16 15 14 13 12 12 11 11 11 10 10 9 9 8 7 7 7 7 8 8 8 7 7 7 7
24 25 26 27 27 28 29 29 30 31 34 37 38 36 33 31 29 27 25 26 28 29 27 25 25 24 23 22 21 19 19 18 18 18 18 18 18 18 17 16 15 15 14 13 12 12 11 11 11 10 10 9 8 8 7 7 8 8 8 7 7 7 7
22 23 24 25 24 24 25 26 28 29 32 37 40 39 36 34 33 30 26 25 27 29 28 26 26 25 24 24 23 22 21 20 20 20 19 19 19 19 18 17 17 16 16 15 14 14 13 12 12 11 11 10 9 8 8 8 8 8 8 8 8 8 7
21 23 23 24 23 21 22 24 27 29 31 34 37 38 37 37 35 32 28 26 26 28 28 28 27 27 26 25 24 23 22 21 21 21 21 20 20 20 20 19 19 19 18 17 16 16 15 14 13 12 12 11 10 9 9 8 9 9 9 9 9 9 9
20 22 23 23 22 19 19 22 25 28 30 31 33 35 37 37 35 33 31 29 28 29 29 28 28 28 27 26 25 24 24 23 22 22 22 21 21 21 21 21 21 20 20 19 19 18 17 17 15 14 13 13 12 11 10 10 10 10 10 10 10 10 10
20 22 23 23 21 18 18 21 24 27 26 27 31 34 36 37 36 35 33 31 30 31 31 29 29 28 27 26 26 26 25 24 23 23 22 22 21 21 22 23 23 22 22 21 20 20 19 19 18 16 15 14 14 13 12 12 11 11 11 10 10 10 10
20 22 23 23 20 18 18 20 23 24 24 26 29 29 30 32 32 33 32 32 33 35 35 34 31 29 28 28 28 28 27 26 24 23 23 22 22 22 22 23 23 23 23 22 22 21 20 20 19 18 17 16 15 14 14 13 13 12 12 11 11 10 10
21 21 22 22 20 18 18 20 21 21 22 23 22 20 22 24 26 28 30 34 37 38 38 36 33 31 31 30 30 29 28 27 26 25 24 23 24 23 23 23 23 23 24 24 23 22 21 21 20 20 19 18 17 16 15 15 14 14 13 12 12 12 11
23 23 23 23 22 21 21 21 21 19 18 18 17 17 19 21 22 24 28 32 34 34 34 33 33 32 31 31 31 30 29 29 29 27 26 25 25 24 24 23 23 24 24 24 24 23 23 22 22 22 21 20 20 19 18 17 16 15 15 14 14 14 13
25 25 25 24 23 23 22 21 22 20 15 14 17 18 18 19 21 23 26 29 30 29 30 30 30 30 31 33 34 31 29 30 29 29 28 28 27 25 25 24 24 24 24 25 25 25 24 24 24 23 22 22 21 21 20 20 18 18 17 17 17 16 16
22 21 21 21 19 19 18 17 19 21 16 13 16 17 16 16 18 20 22 24 25 26 26 27 27 29 32 35 35 33 30 29 29 28 28 29 28 27 26 25 24 25 25 25 25 25 25 25 25 25 24 24 23 23 22 21 20 20 20 19 19 19 19
14 14 15 15 14 14 13 11 13 18 18 15 13 14 14 14 14 17 20 21 22 22 22 23 23 26 31 33 33 31 30 29 29 28 28 29 28 27 26 25 24 25 26 25 25 25 25 25 26 26 25 25 25 25 25 23 22 21 21 21 21 21 21
12 13 13 13 14 15 16 16 14 13 15 16 13 11 12 12 12 13 16 17 19 20 20 21 21 23 27 30 30 30 29 29 29 28 27 28 28 27 26 26 26 25 25 25 24 24 25 25 25 26 26 26 26 27 27 26 24 23 23 22 22 22 23
11 14 13 12 13 14 16 17 17 15 13 13 13 12 13 13 13 13 14 15 17 17 18 19 20 22 25 27 28 28 29 28 28 26 26 27 27 27 28 28 28 27 26 26 25 25 25 25 25 25 26 26 27 27 28 27 26 25 24 23 22 23 24
10 14 16 15 14 15 16 15 16 18 16 13 11 12 11 11 13 15 16 17 17 16 17 18 19 20 21 21 23 26 27 27 27 27 27 27 27 28 28 29 29 29 29 29 29 29 28 28 27 26 25 25 25 26 26 27 27 26 25 23 22 22 24
8 11 14 16 17 18 18 17 17 18 18 16 15 15 13 11 11 13 14 15 16 16 16 16 16 17 17 16 19 22 24 26 27 27 26 26 26 27 27 28 28 29 30 32 33 33 32 31 29 26 24 24 23 23 24 24 25 25 24 23 22 21 22
8 10 12 13 13 12 13 15 15 14 14 14 15 15 14 13 12 12 12 13 14 15 15 15 16 17 18 18 19 20 21 22 24 25 25 24 23 24 25 26 27 28 30 32 32 33 33 32 29 26 25 25 25 24 24 24 24 24 23 23 22 21 21
9 10 12 11 9 8 9 10 9 7 7 7 8 8 9 10 11 11 11 12 12 14 15 16 17 18 19 19 20 20 20 20 22 24 25 24 22 22 22 24 25 26 26 26 27 29 31 31 29 27 28 29 28 27 26 26 26 25 25 25 24 24 23
10 10 11 10 8 7 7 8 7 6 5 4 4 5 6 7 8 8 9 9 10 10 11 12 14 17 18 20 21 21 21 22 23 24 24 22 22 22 22 23 25 26 26 26 25 27 30 30 28 27 29 32 30 28 28 28 27 27 28 29 28 28 27
9 10 11 11 9 7 7 7 7 6 6 6 6 6 7 7 8 8 7 7 7 7 7 8 10 13 15 17 19 20 21 22 23 24 24 22 21 22 24 26 27 27 28 27 26 27 29 29 28 27 31 34 32 30 28 28 28 30 31 31 31 31 31
10 11 11 11 10 8 7 7 7 7 8 8 9 10 9 9 9 9 9 9 8 7 7 8 9 10 11 12 14 15 17 19 21 22 23 23 25 26 28 29 29 30 30 30 30 31 30 28 27 28 31 34 33 30 28 27 29 31 32 32 33 34 33
10 11 11 11 10 9 8 8 9 10 9 10 10 11 12 12 11 11 10 10 10 9 9 9 9 9 9 10 11 12 13 15 17 19 21 23 26 28 28 29 29 30 31 32 33 34 33 30 29 29 31 34 33 29 26 26 28 30 32 33 34 34 34
10 9 8 9 9 10 10 10 11 12 13 13 12 12 12 12 12 12 12 11 10 10 10 9 9 9 10 10 10 11 12 12 13 14 16 18 21 23 24 25 26 26 27 28 30 32 32 31 31 31 32 33 31 28 27 28 30 31 32 32 32 34 35
8 7 7 7 8 10 11 12 13 13 14 15 15 14 14 14 14 14 13 13 13 12 11 11 11 12 12 12 12 12 12 11 11 11 12 13 15 16 17 18 20 20 21 22 23 25 27 28 29 31 31 31 29 27 28 30 31 32 33 32 31 33 34
8 8 8 8 9 10 12 13 15 15 16 16 17 17 17 17 17 16 16 15 16 16 15 14 14 14 14 14 14 14 14 14 13 13 13 13 13 13 14 14 15 15 15 16 16 17 18 18 20 22 23 24 24 25 26 28 30 32 33 33 32 32 32
9 10 10 11 12 12 13 13 15 17 19 19 20 20 20 20 20 19 18 18 18 18 18 18 17 17 17 17 17 16 16 16 16 16 16 16 16 16 16 16 16 16 16 16 15 15 14 13 14 14 15 15 16 17 18 20 22 24 27 30 32 33 34
12 12 13 14 15 16 16 17 17 18 20 22 23 23 23 23 23 22 22 21 21 21 21 21 21 21 21 20 20 20 20 20 20 20 20 20 20 20 20 20 20 20 19 19 19 18 18 17 17 17 16 16 15 15 15 16 17 17 19 21 24 27 30
15 15 17 18 19 20 20 21 21 22 22 23 24 25 26 26 26 26 26 25 24 24 24 24 24 24 24 24 23 23 23 23 24 24 24 24 24 24 24 24 24 24 24 23 23 23 23 23 23 23 22 22 21 21 20 20 20 20 20 20 20 21 23
19 20 21 22 23 24 25 25 25 26 26 26 26 27 27 28 29 29 30 29 29 28 28 27 27 26 27 27 27 26 26 27 27 27 27 27 28 28 28 28 28 28 28 28 28 29 29 29 29 29 29 28 28 28 27 26 27 27 27 26 26 26 26
23 24 25 25 27 29 30 30 29 29 29 29 28 28 28 29 30 31 32 32 32 32 31 31 30 30 30 30 30 30 30 30 30 30 30 30 31 31 32 32 32 32 32 33 33 33 34 34 34 34 34 34 34 33 33 32 32 32 32 32 32 33 33
27 27 28 30 31 32 33 33 32 32 31 30 30 30 30 30 30 31 31 32 33 33 33 33 33 32 32 32 33 33 33 33 33 33 33 33 33 34 34 35 35 36 36 36 37 37 38 38 38 38 38 38 37 37 37 36 36 36 36 36 37 38 38
31 31 32 34 35 35 35 34 33 32 30 30 30 30 30 30 30 30 30 31 31 32 33 33 34 34 34 34 34 34 35 35 35 35 36 36 36 36 36 37 37 38 39 39 39 39 39 40 41 41 42 42 41 41 40 40 39 39 40 40 40 41 41

ECMWFFLT1_700_spd_096.txt.gz
Wind_Speed
32 32 32 32 29 26 23 21 20 20 19 17 16 15 15 15 14 13 14 14 15 15 14 14 14 14 14 14 14 14 14 13 12 11 10 9 9 8 8 7 7 6 6 6 7 7 7 8 8 9 9 10 10 10 10 10 10 10 9 9 9 10 10
32 31 32 32 30 28 25 24 23 22 21 19 17 16 15 16 16 14 12 12 14 14 14 14 13 13 14 15 15 15 15 14 13 12 11 10 9 9 8 8 8 8 7 7 7 7 7 8 8 8 9 9 10 10 10 10 10 9 9 8 9 9 9
30 30 29 27 26 27 27 26 25 24 23 21 20 18 16 16 16 14 12 10 12 14 15 15 14 14 14 15 15 16 16 15 14 13 12 11 10 10 9 9 9 9 8 8 8 7 8 9 9 8 9 9 9 9 9 9 9 9 8 8 8 8 8
27 28 27 26 27 29 29 28 27 27 25 24 22 20 18 17 16 15 13 11 11 13 15 15 15 14 14 15 16 16 16 16 15 15 14 13 12 12 11 10 10 9 9 9 9 8 8 9 8 8 8 8 8 8 8 8 8 9 9 8 8 8 8
25 27 29 30 32 31 29 26 25 26 26 26 25 23 21 20 18 17 16 14 13 13 15 16 16 16 16 16 16 16 16 17 16 16 16 15 15 14 12 11 11 11 10 11 10 10 9 9 9 9 8 8 7 8 8 8 8 9 9 8 8 8 8
23 26 29 31 30 27 25 23 23 24 25 26 27 26 24 22 21 20 18 17 16 15 16 18 18 18 17 17 17 17 17 17 18 17 17 17 17 15 14 13 13 12 12 12 12 11 11 10 10 10 8 8 7 8 8 8 9 9 9 9 8 8 7
21 23 26 26 25 23 23 22 21 22 24 26 27 28 27 24 23 22 22 21 20 18 18 19 20 20 19 19 19 18 18 18 18 19 18 19 18 17 16 16 15 14 14 13 13 13 12 12 12 11 10 9 8 8 8 8 9 10 10 9 9 8 7
17 19 21 21 21 21 22 21 21 23 25 26 27 27 28 26 25 24 24 24 22 20 20 20 20 20 20 20 20 20 19 19 19 20 20 20 20 19 18 18 17 16 16 15 15 14 13 13 13 13 12 11 10 9 8 8 9 9 10 10 9 9 7
13 14 16 17 19 20 21 22 22 23 24 25 26 28 28 28 27 26 26 25 24 22 21 20 21 21 21 21 21 21 20 20 20 21 20 20 21 21 20 19 19 19 18 17 16 16 15 15 15 14 13 12 12 11 10 9 9 9 10 10 10 9 8
12 13 14 16 17 18 20 21 21 21 23 25 26 27 27 27 28 29 28 27 26 24 23 23 23 23 23 23 23 23 22 21 21 21 21 21 21 21 21 21 21 20 19 19 18 17 17 16 16 15 14 13 13 12 11 11 10 10 11 11 10 9 9
11 13 14 15 16 17 17 18 19 20 21 23 24 25 25 25 28 30 30 29 28 28 28 28 27 26 25 25 25 25 24 23 22 22 21 21 20 20 21 22 22 22 21 20 19 19 18 17 16 16 15 14 14 13 13 12 11 11 11 11 10 9 9
11 12 13 13 15 16 16 17 18 18 19 20 21 21 22 23 26 28 31 32 32 32 31 30 29 29 27 26 27 27 26 25 24 22 22 21 20 19 20 22 22 22 22 21 21 20 19 18 17 16 15 14 15 14 13 13 12 11 11 11 10 9 9
13 12 12 12 13 15 16 16 16 17 17 18 19 19 20 22 25 27 30 33 35 34 32 30 29 29 28 28 28 28 27 26 25 24 22 21 21 21 20 21 22 23 23 22 22 21 20 19 18 17 16 15 15 15 14 14 13 12 11 11 10 10 9
12 12 12 12 13 14 16 15 16 16 16 17 18 19 20 22 24 26 28 31 34 34 33 31 31 31 30 28 28 28 27 27 27 26 25 23 23 22 22 22 22 22 23 23 23 22 21 20 19 19 18 17 16 16 16 15 14 13 12 12 11 11 10
9 10 11 12 14 15 15 15 14 14 14 15 17 18 20 21 22 23 24 26 30 33 33 32 32 32 30 29 29 30 29 29 28 27 27 26 25 24 23 23 23 23 23 23 23 22 22 21 21 21 20 19 18 18 17 17 15 14 14 13 13 13 13
9 10 12 14 15 15 15 15 15 14 14 14 15 16 19 19 19 21 22 23 27 30 31 31 32 32 31 31 32 32 31 30 28 28 28 28 26 26 25 24 24 24 24 23 23 23 23 23 23 23 22 21 20 20 19 18 17 17 16 16 16 15 15
13 14 15 16 16 17 16 16 15 14 13 13 13 15 17 18 20 21 20 21 24 27 28 29 30 31 31 30 32 32 31 29 28 29 30 29 27 27 26 25 25 25 25 24 24 23 23 23 24 24 24 23 22 22 21 20 19 19 19 19 18 18 18
15 16 17 16 15 16 15 13 11 10 11 12 12 14 16 18 19 18 17 19 22 24 25 26 27 27 27 28 29 31 32 31 31 32 33 32 30 30 28 27 27 26 26 26 25 25 25 25 25 25 25 25 24 24 23 22 22 21 21 21 21 20 20
13 13 13 11 9 8 6 4 3 5 11 14 14 13 15 17 15 13 13 17 21 23 23 23 24 25 25 26 28 30 33 35 36 36 34 32 32 32 31 30 30 29 29 28 28 28 27 27 26 26 26 26 25 25 25 24 24 23 23 23 23 23 22
6 6 6 5 4 5 5 6 5 4 7 14 17 14 13 13 12 10 12 15 18 20 22 22 23 23 22 23 26 28 31 34 35 33 31 30 30 32 33 32 31 31 30 29 28 27 27 27 27 26 26 27 26 26 26 25 25 24 24 24 24 24 24
1 2 4 3 4 5 7 8 8 7 7 12 16 15 13 13 12 12 13 13 14 16 19 20 20 19 19 21 24 26 28 31 31 31 31 31 31 32 33 32 31 31 31 29 27 25 25 26 27 27 27 27 27 27 27 26 26 25 24 24 25 25 26
4 2 3 6 7 7 7 8 9 11 12 13 14 13 13 13 12 12 13 12 12 14 16 16 16 15 17 21 24 23 23 26 28 29 31 32 33 33 32 31 30 30 30 28 27 27 26 26 27 27 27 27 27 27 27 27 27 26 25 25 25 26 26
5 5 2 4 7 9 9 9 11 13 15 18 17 13 12 12 12 10 10 11 12 13 13 15 16 17 19 21 22 20 19 22 25 27 28 30 32 32 32 32 31 29 28 27 27 28 28 28 28 28 26 26 27 27 27 27 27 26 25 25 25 25 26
7 7 5 2 2 4 5 5 7 9 12 17 18 15 12 12 12 11 11 11 11 11 12 14 16 17 18 19 18 17 18 20 22 24 27 28 29 30 30 31 31 28 26 26 27 29 30 31 31 30 29 28 28 28 29 28 26 25 24 24 24 24 24
9 8 7 4 2 1 2 3 2 2 5 9 11 11 8 7 8 10 11 10 10 10 11 11 12 14 15 16 16 15 16 17 18 20 23 24 25 28 29 29 28 26 24 24 26 28 31 32 33 32 30 28 28 28 29 28 27 26 26 25 24 24 24
8 8 7 5 3 1 1 2 2 1 2 3 5 5 5 4 5 7 8 8 8 8 9 9 11 13 15 16 16 16 16 16 17 17 17 18 20 24 25 25 24 22 22 23 25 27 30 31 30 28 26 26 25 25 26 27 27 28 27 26 26 26 26
6 7 7 5 3 1 2 2 2 2 3 3 4 4 4 5 5 6 6 6 6 6 7 7 9 11 13 15 15 16 16 17 18 18 17 17 19 20 21 22 22 22 23 25 27 28 29 28 27 25 24 24 24 23 24 26 26 27 27 27 27 27 28
6 6 5 4 3 3 3 4 5 6 6 6 6 6 6 6 5 6 6 6 5 6 6 6 7 7 8 9 10 11 13 15 16 17 18 18 19 20 21 22 24 25 26 26 27 25 23 24 26 25 23 22 22 22 22 23 25 26 26 26 26 27 28
7 6 4 3 2 4 5 5 5 6 7 8 9 8 8 8 7 7 7 7 7 6 6 5 5 5 5 5 6 7 8 9 10 11 12 13 14 15 16 17 19 21 22 22 21 19 16 17 19 20 20 21 23 23 22 22 25 27 27 27 27 27 28
7 5 4 2 2 3 5 6 6 7 7 8 9 9 10 9 9 9 8 8 8 8 7 7 6 6 6 6 6 7 7 7 8 8 9 9 9 10 10 10 11 12 13 13 13 12 11 11 13 15 17 19 20 20 20 22 23 23 23 25 26 28 29
8 7 5 3 2 2 3 4 6 8 9 9 10 10 11 11 11 11 10 10 10 10 10 10 9 9 9 8 9 9 9 9 9 8 8 8 9 9 9 8 8 8 8 8 8 7 7 7 8 9 10 10 11 12 14 18 21 22 24 25 27 30 32
10 9 7 5 4 3 3 3 5 7 9 10 11 11 12 14 14 14 13 13 13 13 13 13 13 13 13 12 12 12 12 12 12 11 11 11 11 11 11 11 11 10 10 10 9 9 8 8 8 7 6 5 6 7 9 10 13 16 19 21 23 25 27
11 10 8 7 6 6 6 6 6 6 8 9 11 12 14 15 16 17 17 17 17 16 16 16 16 16 16 16 16 15 15 15 15 15 15 15 15 14 14 14 14 14 14 14 13 13 12 12 12 11 10 9 9 9 9 9 10 11 12 14 15 17 18
11 10 10 9 9 9 10 10 9 9 10 11 12 14 15 15 17 18 20 20 20 20 20 20 20 20 19 19 19 18 18 18 18 18 18 18 18 18 18 18 18 18 18 18 18 18 17 17 17 17 16 16 15 15 15 15 15 16 16 17 17 18 18
11 11 11 12 13 13 14 14 14 14 15 16 16 17 17 17 17 18 19 21 22 23 23 23 23 23 23 22 22 22 21 21 22 22 22 22 22 22 22 22 22 22 22 22 22 22 22 22 22 22 22 21 21 21 21 21 21 21 21 22 22 22 23
14 14 14 16 17 17 17 18 18 19 20 20 21 21 20 20 19 19 19 20 22 23 23 24 24 25 25 25 25 25 25 25 25 25 25 25 26 26 26 25 25 25 26 26 26 26 26 26 26 26 26 26 26 26 25 25 25 25 26 26 26 27 27
17 18 18 19 20 21 21 21 22 23 24 25 25 25 24 23 22 21 21 21 22 22 23 24 24 25 26 26 27 27 28 28 28 28 28 28 28 28 29 29 29 29 29 29 29 29 29 29 29 29 29 29 29 29 29 29 29 29 29 29 29 30 30
20 22 23 23 23 24 24 25 26 27 28 28 28 27 27 26 25 24 23 23 23 23 23 24 24 25 26 26 27 28 29 29 29 29 29 30 30 30 30 31 31 31 31 31 31 31 31 32 32 32 32 32 32 32 32 33 33 33 32 32 32 32 33

ECMWFFLT1_700_spd_099.txt.gz
Wind_Speed
26 28 29 29 29 27 26 25 24 23 21 19 18 16 15 15 14 15 17 17 17 15 14 14 13 13 13 13 13 14 13 12 11 10 10 9 9 9 9 9 10 10 10 10 9 8 8 7 7 7 7 8 8 8 8 8 8 8 8 7 8 8 8
27 26 27 29 30 29 28 26 24 23 22 19 18 17 16 16 15 13 14 15 16 16 14 14 13 13 13 13 14 14 14 13 12 11 10 9 9 8 9 9 9 10 10 9 9 8 8 8 8 8 8 8 8 8 8 9 10 10 9 8 8 9 9
28 27 27 29 29 26 27 28 26 24 23 21 20 19 17 17 15 13 12 12 14 15 15 14 13 13 13 13 14 14 14 14 13 13 11 10 9 9 9 9 9 10 9 9 8 8 9 9 8 8 8 8 8 9 10 10 11 11 10 9 9 9 9
27 26 27 28 27 24 25 28 27 25 25 23 21 20 19 17 16 15 13 12 12 12 13 13 13 13 13 13 14 14 14 14 13 13 13 12 11 10 10 9 9 9 9 9 9 8 9 9 9 9 9 9 9 10 10 11 11 11 11 10 9 9 8
23 25 25 26 27 26 26 27 27 26 26 25 23 23 22 20 18 17 16 14 13 11 11 13 15 15 15 14 14 15 15 15 14 14 14 14 13 12 11 10 10 10 9 10 9 9 9 9 9 10 10 10 10 10 11 11 11 11 11 11 10 9 9
20 23 23 24 24 25 26 25 23 26 26 25 25 25 24 23 22 20 19 17 15 13 13 13 15 16 16 16 15 15 16 16 16 15 15 15 15 13 12 12 11 11 10 11 11 11 11 10 11 11 11 11 10 11 11 12 11 12 11 11 10 9 9
15 18 20 21 20 23 26 24 20 22 23 23 24 25 25 25 25 24 23 21 19 17 15 14 14 15 16 16 16 16 16 16 16 16 16 16 16 15 14 13 13 12 12 12 12 12 12 12 12 12 12 11 10 10 11 11 12 12 12 11 11 10 10
12 14 16 18 18 22 28 27 21 19 18 19 21 22 24 25 25 26 25 24 22 20 19 16 15 15 15 16 17 17 16 16 16 17 17 18 18 17 16 15 15 14 13 13 13 13 13 13 13 13 13 12 11 10 11 11 11 11 12 12 12 11 11
11 13 15 17 18 21 24 26 24 21 19 18 19 20 23 24 26 26 26 25 24 23 21 20 18 17 17 17 18 18 18 17 17 17 18 19 19 18 18 17 17 16 15 15 14 14 14 14 14 14 14 13 12 11 10 10 10 11 12 12 12 12 12
10 12 14 16 17 19 20 22 23 22 20 19 19 20 21 22 23 26 26 26 25 24 24 23 21 20 19 19 19 20 20 19 18 18 19 19 19 19 19 19 19 18 17 17 16 16 16 16 15 15 14 13 12 12 11 10 10 10 11 12 12 13 12
9 10 13 14 16 17 18 18 19 18 18 18 18 21 22 20 20 23 24 25 26 26 26 26 24 23 21 20 21 21 21 21 21 20 20 19 20 20 20 21 21 20 19 18 18 17 17 17 16 15 15 14 13 12 12 12 11 10 11 12 12 13 13
9 10 12 13 14 15 15 16 16 16 17 17 17 20 23 21 20 20 22 24 25 26 28 28 27 26 24 23 23 23 23 23 23 23 22 21 21 21 22 22 22 22 21 20 19 19 18 18 17 16 15 15 15 14 13 13 12 11 12 12 12 12 12
10 11 13 13 14 15 15 15 15 15 15 17 18 20 22 22 21 21 21 22 24 27 29 30 30 29 28 27 26 25 25 25 26 25 24 23 23 23 23 23 23 23 23 22 21 20 20 19 19 18 17 17 16 15 15 15 13 13 12 12 12 12 12
13 13 14 14 14 14 15 14 14 14 15 16 17 18 19 21 22 23 23 24 25 26 28 31 32 32 32 31 30 28 27 27 27 27 26 25 24 24 24 25 25 24 24 24 23 22 21 20 20 20 19 19 18 17 17 16 15 14 13 13 13 13 13
15 15 14 14 14 14 15 14 14 14 15 16 17 17 18 18 20 22 23 24 25 26 28 31 33 33 33 33 31 29 28 28 28 28 27 26 26 25 25 25 25 25 25 25 24 24 22 22 22 22 21 20 20 19 18 17 16 15 15 15 14 14 14
14 14 14 14 14 14 14 15 15 15 16 16 16 16 17 18 20 21 21 23 25 26 28 30 31 31 32 32 30 28 29 29 28 28 28 27 27 26 26 26 26 26 25 25 25 25 24 24 23 23 23 22 22 21 19 18 17 17 16 16 16 16 16
11 11 11 11 11 12 13 14 15 16 17 17 17 17 18 18 19 18 19 21 23 26 27 27 27 28 30 33 31 29 29 29 28 30 30 29 28 27 27 27 26 26 26 25 25 25 25 25 25 24 24 23 23 22 21 20 19 19 18 18 18 18 17
8 9 9 9 10 11 12 13 15 16 18 19 19 19 18 17 15 16 17 18 20 22 23 22 23 25 28 31 31 28 28 29 30 32 33 31 28 27 27 28 27 26 26 26 25 25 24 25 25 25 25 24 24 23 22 21 20 20 21 20 20 19 19
6 6 7 7 8 9 10 12 14 16 18 19 19 18 17 14 13 14 15 16 17 18 18 18 20 22 25 28 29 29 30 30 30 32 33 32 30 29 30 29 27 26 26 25 25 25 25 24 25 25 25 25 25 24 23 23 23 22 22 22 21 21 20
5 6 7 7 7 8 10 11 12 12 13 14 15 15 13 12 13 14 13 13 15 15 14 15 17 19 22 24 26 28 30 30 30 32 33 33 33 33 33 32 29 26 25 25 25 25 25 25 25 26 26 26 25 25 25 25 24 24 24 23 23 23 22
5 7 9 9 10 9 10 11 10 9 9 10 11 11 11 11 12 12 11 12 13 12 11 12 14 17 20 22 23 24 27 28 30 33 34 35 36 37 36 35 33 30 27 26 26 26 26 26 27 27 28 27 26 26 26 26 25 25 25 24 24 25 24
7 8 9 10 10 10 9 8 8 8 9 9 9 10 10 11 12 12 11 12 12 10 9 10 12 15 17 18 20 21 24 26 27 29 31 34 36 38 37 36 34 32 29 29 29 28 28 27 28 28 28 28 28 28 28 27 26 25 25 25 25 25 26
8 9 10 10 10 9 9 9 8 8 9 10 9 10 10 11 12 11 11 12 12 11 10 11 13 13 14 14 15 18 21 22 23 24 26 29 32 34 35 34 31 29 28 29 30 31 30 29 28 28 28 28 29 28 28 28 28 27 26 25 26 26 27
9 9 9 9 9 10 10 10 9 8 9 11 12 11 10 10 10 9 9 10 11 12 12 13 13 14 15 14 13 15 17 18 17 18 20 21 24 27 29 30 29 29 30 31 30 30 30 29 28 28 29 30 30 29 28 28 28 28 27 27 26 26 27
9 9 8 7 7 7 7 7 6 5 5 7 9 9 9 9 9 9 9 10 10 11 12 12 13 15 16 16 15 16 16 16 16 17 17 18 20 21 23 26 27 28 31 33 31 30 30 29 29 30 32 33 31 29 29 29 27 26 27 27 26 26 26
9 9 8 7 6 5 4 4 3 3 3 3 4 4 5 6 7 7 7 9 10 11 12 12 13 13 14 15 16 16 15 16 16 15 15 16 19 20 22 24 26 27 30 32 32 32 33 33 34 33 32 31 30 29 28 28 27 27 27 27 27 27 26
8 7 7 7 7 7 6 5 4 4 4 5 5 5 4 5 5 5 5 6 7 9 10 11 11 12 12 12 13 13 14 15 14 13 12 12 15 17 18 20 21 23 25 28 30 31 33 35 35 33 30 28 27 27 26 25 26 27 27 28 29 29 28
7 6 6 6 7 7 7 6 6 5 5 6 6 6 6 6 6 5 5 6 7 7 7 7 8 9 9 9 10 11 12 13 13 12 12 11 11 13 14 16 17 15 15 20 24 26 28 30 31 29 28 28 27 25 24 24 24 25 25 27 29 28 27
5 5 6 6 7 8 9 8 8 7 7 7 6 6 7 7 6 6 5 5 5 6 6 6 6 6 6 6 7 7 8 8 8 9 10 10 10 11 12 13 14 14 13 15 18 19 21 25 27 26 25 25 24 24 24 24 23 23 23 25 27 27 26
3 3 4 6 8 9 11 10 9 9 8 7 7 7 7 7 7 7 6 5 5 6 6 6 6 6 6 5 5 5 4 5 5 5 6 6 7 8 9 9 10 11 12 12 13 12 12 15 21 24 25 25 24 24 24 24 23 23 24 25 26 25 24
1 2 4 5 7 9 10 11 11 10 9 8 8 7 7 8 8 8 8 8 8 8 8 7 7 6 6 6 6 5 4 4 4 4 4 4 3 5 6 6 6 6 5 5 6 6 5 5 9 14 19 21 20 19 22 25 26 27 28 28 28 27 25
3 4 5 7 7 8 9 9 10 10 10 10 9 8 8 8 8 9 9 10 11 10 10 10 9 8 8 8 7 7 7 6 6 6 6 5 5 5 5 5 5 4 4 4 5 5 5 4 5 6 8 10 8 8 12 16 19 21 21 19 20 24 26
5 5 7 8 8 8 8 8 8 9 9 10 10 9 9 9 9 10 11 11 13 13 13 13 12 12 11 10 10 10 10 9 9 9 9 8 8 7 7 7 7 6 6 6 6 6 6 6 7 7 7 7 7 7 8 9 10 11 11 9 9 15 19
6 6 8 9 9 8 8 8 8 9 9 9 9 10 10 11 11 12 12 12 13 15 16 16 16 16 15 14 13 13 12 13 12 12 12 12 11 11 10 10 10 10 10 9 9 9 9 9 9 9 9 9 9 9 10 10 10 10 10 10 10 11 13
9 9 9 11 11 10 9 10 10 11 10 10 10 10 11 11 12 12 13 13 14 16 17 18 19 19 19 18 18 17 16 15 15 15 15 15 15 14 14 13 13 13 13 13 13 13 13 13 13 13 13 13 13 13 14 14 14 14 14 14 15 15 15
12 11 11 12 11 11 11 12 13 13 12 12 12 13 13 13 13 13 13 14 15 16 17 18 19 20 21 21 21 21 20 19 18 18 18 18 18 18 17 17 17 17 16 16 17 17 17 16 16 16 16 17 17 17 17 18 18 18 18 19 19 19 20
14 14 14 14 14 13 13 14 15 15 14 14 15 16 17 17 17 16 15 15 15 15 16 17 19 20 21 21 22 23 23 23 22 22 21 21 21 21 21 21 20 20 20 20 20 20 20 20 20 20 20 20 20 20 21 21 22 22 23 23 24 24 24
15 16 16 16 16 15 15 16 17 16 17 17 18 19 20 20 20 19 18 17 17 16 16 16 17 18 20 21 22 23 23 24 24 24 24 24 24 24 24 24 24 23 23 23 23 23 23 23 23 23 23 24 24 24 24 24 24 25 26 26 27 27 28

ECMWFFLT1_700_spd_102.txt.gz
Wind_Speed
37 35 33 33 32 29 26 26 27 27 26 26 23 21 19 19 20 19 19 19 19 18 17 16 15 14 14 14 14 13 12 11 10 10 10 9 9 9 9 10 11 11 11 10 10 10 10 11 11 11 11 11 10 10 9 9 9 8 7 7 7 7 7
38 37 33 33 34 31 28 27 27 28 27 25 23 20 18 18 17 17 17 19 19 18 17 17 16 15 15 15 15 14 13 12 11 11 10 10 9 9 10 10 10 11 11 10 9 9 9 10 10 10 10 10 10 10 9 9 9 8 8 8 8 8 8
36 38 35 33 34 33 32 30 29 29 27 25 23 21 19 17 15 14 15 16 18 18 18 17 16 16 16 16 16 15 15 14 13 12 12 11 10 10 10 10 10 11 11 10 9 9 9 9 10 10 10 10 11 10 10 9 9 9 9 8 8 9 9
31 35 35 33 33 34 34 33 32 30 28 26 25 22 19 17 15 15 15 16 16 17 17 17 17 17 17 17 17 17 16 15 14 14 14 13 12 11 11 11 10 10 11 10 10 10 10 10 10 10 10 10 11 11 11 10 10 10 10 10 9 10 9
27 30 32 31 31 33 34 33 33 32 30 28 26 25 23 20 19 17 16 16 16 16 16 18 18 18 18 18 18 18 17 16 16 16 15 15 14 12 12 12 11 11 11 11 11 11 11 11 11 11 10 10 10 11 11 11 11 11 11 11 11 10 10
25 27 28 27 27 29 29 29 31 32 31 30 28 27 25 23 23 21 18 18 17 16 17 19 19 19 19 18 18 18 18 18 17 16 16 16 16 14 13 13 13 12 11 11 11 12 12 12 12 11 11 11 11 11 11 11 11 12 12 12 12 11 11
21 24 24 24 25 26 26 27 30 32 32 31 30 28 27 26 25 24 22 21 19 18 18 18 19 19 19 19 19 19 18 18 18 17 17 18 17 16 15 14 14 14 13 12 12 12 12 12 12 12 12 11 11 11 11 11 11 12 12 13 13 12 12
16 19 21 23 24 25 26 28 31 32 33 33 32 30 29 28 28 27 25 24 22 21 20 18 18 18 19 19 19 19 19 18 18 18 18 18 18 18 17 16 15 15 14 13 13 13 13 13 13 12 12 12 12 12 12 12 12 12 12 12 12 12 12
14 15 18 21 22 24 26 29 31 31 30 30 30 32 32 30 29 28 27 27 26 24 22 20 19 19 19 20 20 20 20 19 19 19 19 19 19 18 18 17 17 17 16 15 14 14 14 14 14 14 13 13 12 12 12 12 12 12 12 12 12 12 13
15 15 17 20 22 24 24 27 29 28 25 22 21 26 31 30 30 31 30 30 28 27 25 23 22 22 21 20 20 21 21 21 20 20 20 20 19 19 19 19 19 18 18 17 16 15 15 15 15 15 14 14 13 12 11 11 11 12 12 12 12 13 13
14 14 17 19 21 23 24 25 26 26 27 26 20 20 24 24 26 31 33 33 31 29 28 27 26 24 23 21 21 22 23 22 22 22 21 20 20 19 19 20 20 20 19 18 17 17 16 16 16 16 15 15 15 14 13 12 12 11 11 12 12 13 13
13 14 16 18 20 23 23 24 26 27 30 32 27 24 26 25 25 26 28 31 33 33 31 30 29 27 25 24 23 23 24 24 24 23 22 21 21 20 20 21 21 21 20 20 19 19 18 17 17 16 16 16 16 15 14 14 13 12 12 12 12 13 13
13 13 15 17 20 22 24 24 26 29 31 33 31 30 30 31 31 29 26 26 30 33 34 33 32 31 29 27 26 26 26 26 26 25 24 23 22 22 22 22 22 21 21 21 21 20 19 18 18 17 17 17 17 17 16 15 14 13 13 12 12 12 13
13 13 14 16 18 21 23 25 26 28 29 30 30 29 28 29 30 32 32 28 26 29 33 34 34 33 32 31 29 28 27 28 28 28 27 26 25 24 23 23 23 23 22 21 21 21 21 20 19 19 18 18 17 17 17 16 15 15 14 13 13 13 13
15 15 15 16 18 20 21 23 24 24 25 25 25 25 24 24 25 29 33 33 30 29 30 32 34 35 35 34 33 31 30 29 29 30 29 28 27 25 24 24 24 23 23 22 22 22 22 21 21 20 20 19 19 18 18 17 17 16 16 15 14 14 14
16 16 16 17 18 19 20 20 20 20 21 21 22 21 21 22 22 25 30 33 34 32 30 30 32 34 35 35 34 33 33 32 30 30 30 30 29 27 26 26 25 25 25 24 24 23 23 23 22 22 21 20 20 20 19 19 18 18 17 17 16 15 15
17 17 17 18 18 18 18 19 19 19 20 20 20 20 20 20 21 22 25 27 29 28 27 28 29 30 32 33 35 36 36 34 33 32 30 29 29 29 28 27 26 27 27 26 26 25 24 24 23 23 22 22 22 22 21 21 21 19 19 19 18 17 17
17 18 18 18 18 17 18 18 19 20 20 21 21 20 20 19 19 20 20 21 21 20 22 25 27 28 29 30 34 37 37 36 36 34 31 30 29 29 28 28 28 28 28 27 27 26 25 25 24 24 24 23 23 23 23 23 24 22 21 21 20 19 19
16 17 17 17 16 17 17 18 18 19 20 20 21 20 20 20 19 19 19 19 18 17 19 22 23 25 27 28 31 34 36 36 35 33 31 31 31 30 28 28 28 28 28 28 28 27 27 26 25 25 25 25 25 24 24 26 26 24 23 23 22 21 20
15 15 14 15 16 18 18 18 19 19 20 20 20 21 21 20 20 20 19 19 18 17 18 19 20 21 23 25 28 30 31 33 34 34 33 33 33 32 29 28 29 29 28 28 29 30 28 27 27 27 26 26 26 25 27 29 27 25 25 25 23 22 21
13 13 14 16 18 18 18 18 18 17 17 17 17 17 17 18 20 20 19 19 18 17 17 18 19 19 19 20 22 23 25 27 29 32 33 33 34 33 31 31 33 33 32 31 32 31 30 29 29 29 29 28 27 27 29 29 26 25 26 26 25 24 23
14 15 16 17 16 16 16 16 15 13 12 12 12 12 13 15 17 18 19 18 16 16 16 16 18 18 18 18 19 20 22 24 26 29 31 32 34 35 34 35 37 37 36 35 35 33 32 31 30 30 30 30 30 31 31 28 25 25 26 26 26 25 25
16 17 18 18 17 16 16 14 12 10 10 9 9 10 12 13 14 15 15 15 14 14 14 14 15 16 15 15 17 18 20 21 23 25 28 29 31 33 35 36 36 36 36 37 38 37 34 32 32 31 31 31 32 33 30 27 26 26 25 25 25 25 26
17 18 19 18 16 14 13 11 10 9 9 9 9 9 11 13 13 13 13 13 13 13 13 14 14 13 13 13 13 13 15 18 21 22 23 25 26 27 29 30 31 34 34 35 38 40 38 36 34 32 32 34 34 32 28 27 27 27 25 25 24 25 26
16 16 16 15 14 13 11 10 10 10 9 10 11 11 11 12 13 13 13 13 12 12 12 13 14 13 12 13 12 10 12 15 18 18 18 20 21 21 22 23 23 26 29 32 37 39 39 39 38 35 34 34 32 27 25 26 27 26 26 26 25 25 26
13 13 13 13 12 11 11 11 10 9 8 9 9 11 11 11 12 13 12 12 13 12 12 12 13 12 13 14 15 14 12 12 14 15 16 17 18 18 20 20 18 18 21 24 28 32 34 37 40 38 35 31 27 24 24 24 25 25 25 25 26 26 26
13 13 12 12 12 11 11 11 11 10 9 9 9 9 10 10 11 11 11 11 12 11 11 11 11 11 13 13 14 15 14 13 13 14 15 16 17 18 19 19 18 18 18 17 19 24 28 32 37 39 36 31 27 25 24 24 25 25 25 26 27 27 28
12 13 13 13 12 12 12 11 11 12 12 12 11 10 9 10 10 10 9 10 9 9 8 8 8 9 10 11 11 11 12 13 14 14 13 13 15 18 18 17 16 17 19 20 22 24 24 24 28 33 33 31 29 29 28 28 28 27 27 27 28 28 29
12 12 12 12 12 12 12 12 12 12 12 12 12 10 10 9 9 9 9 9 9 8 8 7 7 8 8 8 9 9 10 12 14 14 14 14 14 15 16 16 16 15 18 22 25 26 26 25 25 25 24 25 27 29 31 31 31 30 28 28 27 28 28
12 12 12 11 11 11 11 12 12 12 12 12 11 11 10 10 9 9 9 10 10 9 9 8 8 7 7 8 8 7 8 9 10 10 12 13 13 12 12 14 15 15 16 18 19 19 21 23 25 25 24 21 22 25 28 30 30 29 30 30 31 30 28
10 12 12 12 12 11 12 12 12 12 12 12 12 11 11 11 10 10 11 11 11 10 10 10 9 8 7 7 7 7 8 8 7 6 7 7 8 8 8 9 10 11 13 15 15 14 15 17 21 26 28 26 24 25 26 26 26 26 28 30 32 32 30
8 9 11 13 13 13 13 13 13 12 12 12 12 12 12 12 12 11 11 12 12 12 12 11 11 10 9 8 8 8 8 8 7 6 5 5 5 5 5 6 6 7 8 9 11 12 12 13 14 18 22 25 26 25 24 24 24 25 26 28 30 31 31
9 9 11 13 14 15 15 14 13 13 13 13 13 13 13 13 13 12 12 12 12 12 13 13 13 12 12 10 9 9 9 8 8 8 7 6 6 7 6 6 6 6 6 7 8 9 9 9 10 10 11 14 16 17 18 19 22 25 26 28 30 30 29
12 12 12 13 14 14 15 15 14 14 14 14 14 13 13 13 13 13 13 13 13 13 14 14 14 14 14 13 12 12 11 11 10 10 9 8 8 8 8 8 8 8 8 8 9 9 8 8 9 9 9 10 10 11 12 13 14 16 17 18 18 19 19
13 14 14 14 15 15 15 15 15 16 16 15 14 14 13 13 13 13 13 13 14 14 14 14 15 16 16 16 15 15 14 14 14 13 12 11 11 11 10 10 10 10 10 10 10 11 10 10 10 10 11 11 11 12 12 11 11 11 11 10 11 11 11
13 15 16 16 16 16 17 17 16 16 16 15 14 14 14 14 14 14 14 14 14 15 15 15 15 16 17 17 18 18 17 17 17 17 16 15 15 14 14 13 13 13 12 12 12 12 12 12 12 12 13 13 13 13 14 13 13 13 13 13 13 13 13
15 15 15 15 15 15 16 18 19 18 17 16 15 15 14 15 15 15 15 15 15 15 16 16 17 16 17 17 18 19 20 20 20 19 19 19 19 18 18 17 17 16 16 16 16 16 15 15 15 15 16 16 15 15 16 16 16 16 16 16 16 17 17
16 16 15 15 15 16 16 18 19 19 18 17 16 16 16 16 17 16 16 16 16 16 16 17 17 18 18 18 18 18 19 20 21 22 22 22 22 22 22 22 21 20 20 20 20 20 19 19 19 19 19 19 19 19 18 19 19 19 19 19 20 20 21

ECMWFFLT1_700_spd_105.txt.gz
Wind_Speed
36 35 34 31 29 27 25 24 23 23 23 23 23 23 22 22 21 21 21 20 18 17 16 15 14 15 15 15 14 13 12 11 9 8 8 7 7 7 8 9 11 11 11 11 12 11 11 11 11 11 11 11 10 10 10 10 10 9 9 9 9 9 8
37 37 36 33 31 29 26 25 23 23 23 24 24 24 23 24 23 22 22 21 20 18 17 16 15 15 15 15 15 14 13 12 11 11 9 8 8 8 8 8 9 10 11 11 10 10 10 10 10 10 10 10 11 11 11 11 11 10 10 9 9 9 9
38 38 36 33 31 29 27 26 24 24 24 24 24 24 24 25 23 22 22 21 21 20 18 17 16 16 16 16 16 16 15 13 13 12 11 11 10 10 9 9 9 10 10 10 9 9 10 10 10 10 10 10 11 11 11 11 11 11 10 9 9 9 10
38 37 36 34 32 30 28 28 26 25 24 24 25 25 25 25 23 22 22 21 21 21 19 18 17 17 17 17 17 16 15 14 13 13 12 12 11 11 11 10 10 10 10 10 10 10 11 10 10 10 10 10 10 10 11 10 10 10 9 9 9 9 10
36 36 35 35 34 31 29 30 29 26 25 25 25 25 24 23 23 23 21 21 21 21 19 18 18 18 18 18 17 16 16 15 14 14 14 13 12 11 11 12 11 11 10 11 11 11 11 10 10 10 10 10 10 10 10 10 10 10 9 9 9 9 10
33 35 35 35 35 33 30 31 31 28 27 27 27 27 25 23 24 24 22 21 22 21 20 19 19 19 18 18 18 17 16 16 15 15 15 14 13 12 12 12 11 11 11 12 12 11 11 11 11 10 10 10 10 10 10 10 11 11 10 10 9 10 10
28 32 35 36 36 34 32 32 31 29 29 30 30 27 26 24 24 23 22 21 21 21 21 20 20 20 19 19 18 18 17 17 16 16 16 16 15 14 13 12 12 12 12 12 11 11 11 11 11 11 11 11 10 11 10 10 10 11 10 10 9 10 11
22 27 32 36 36 35 33 32 32 31 31 32 29 26 26 26 24 23 22 20 20 22 22 21 21 21 20 20 19 19 18 18 18 17 17 16 16 16 15 14 13 13 12 11 11 11 11 12 12 12 12 12 12 11 11 10 10 10 10 9 9 10 11
19 23 27 32 35 35 34 33 35 36 35 34 31 27 26 27 26 25 24 23 23 23 23 22 22 21 21 21 21 20 19 19 18 18 17 17 17 17 16 16 15 14 13 12 12 12 12 12 13 13 12 13 12 12 11 11 11 11 10 10 10 10 12
18 21 24 29 32 34 34 33 34 36 37 37 35 32 29 28 28 27 26 25 24 23 23 23 23 23 23 23 22 21 20 20 19 18 18 19 18 18 17 17 17 16 15 14 14 14 13 13 14 13 13 13 13 12 12 11 10 11 10 10 11 11 12
18 20 23 26 30 32 32 30 30 32 35 39 39 35 31 30 30 29 28 27 25 24 24 24 24 25 25 24 23 23 22 21 20 20 20 19 19 18 18 18 18 17 16 15 16 15 14 14 14 14 14 14 14 14 13 12 11 10 10 10 11 11 11
18 19 20 22 26 30 29 29 29 30 33 38 40 37 34 32 31 29 28 29 29 27 27 26 26 26 25 24 24 25 24 23 22 21 21 21 20 18 18 18 18 18 17 16 17 17 16 16 15 14 15 15 15 15 15 14 13 11 10 10 10 10 11
18 18 19 20 23 26 27 28 29 30 32 36 38 36 34 34 33 30 29 30 31 31 30 29 28 27 27 25 25 26 26 25 24 23 22 22 22 20 19 19 19 19 19 18 18 17 17 17 16 15 15 16 16 16 16 16 15 13 12 11 11 10 10
19 18 18 18 20 22 24 26 28 29 31 35 35 32 30 32 33 31 31 32 32 33 33 32 31 30 29 28 27 28 27 27 27 26 25 24 23 23 22 21 20 21 21 20 19 18 18 18 18 17 16 16 16 16 17 17 17 16 13 12 12 11 11
22 20 18 18 18 19 22 25 26 27 29 33 35 32 31 32 31 31 34 35 34 33 32 33 33 34 33 31 30 29 29 29 29 29 28 26 25 24 23 23 22 22 22 22 20 19 18 18 18 18 17 17 17 17 17 17 18 16 15 14 14 12 11
20 22 21 20 19 19 20 21 22 24 26 29 32 34 34 34 32 31 34 36 36 34 32 32 31 32 33 34 34 33 33 32 31 31 30 29 28 27 25 25 24 24 23 23 22 21 20 19 18 18 18 18 17 17 17 17 18 18 16 15 15 13 12
18 20 21 20 19 18 18 18 19 22 25 27 30 33 35 35 33 32 32 34 35 36 36 34 32 31 32 34 36 38 38 37 35 33 33 32 31 30 29 27 26 26 25 24 24 23 22 21 19 19 19 18 18 18 17 18 19 19 17 16 16 16 15
19 19 18 18 18 18 18 18 19 20 22 24 26 27 30 32 32 32 31 31 32 33 35 35 33 32 33 33 34 36 39 40 39 37 36 34 33 32 31 30 29 29 27 26 25 24 24 23 21 20 19 19 19 18 18 19 21 21 19 17 18 18 17
20 19 18 18 19 19 19 19 20 20 21 22 22 23 26 28 29 29 28 28 28 28 30 33 33 34 36 35 34 34 36 39 40 40 38 37 36 35 33 32 32 31 30 28 27 27 26 24 23 22 21 21 20 20 21 22 22 22 22 20 20 20 19
21 19 19 19 19 19 19 19 20 21 22 22 23 23 24 25 25 25 25 25 25 25 27 30 32 34 36 36 36 37 37 37 39 40 39 39 40 39 36 34 33 33 32 31 30 29 27 25 24 24 23 22 21 22 25 25 23 23 23 21 21 22 21
21 20 20 20 19 19 19 20 20 21 22 22 23 23 24 24 24 24 24 25 25 24 24 25 26 29 30 31 32 33 35 35 36 38 40 42 42 41 39 38 36 35 34 33 32 29 27 27 26 26 26 25 25 27 28 27 25 24 23 22 22 23 23
20 21 21 20 20 21 21 20 21 22 22 22 24 25 25 25 25 25 25 25 25 24 24 23 24 25 25 24 25 27 28 29 29 31 35 38 39 40 40 40 39 38 36 34 33 31 30 30 30 30 30 29 29 30 28 26 25 26 24 23 22 23 23
18 18 19 20 20 20 19 19 20 20 20 22 22 22 22 23 24 25 25 25 24 23 23 23 23 23 23 22 22 24 24 24 24 26 29 31 34 37 38 38 39 40 38 36 34 33 32 34 35 34 33 31 31 30 27 25 26 26 25 24 23 23 23
16 16 17 17 17 17 17 17 17 17 17 18 17 16 17 17 18 19 21 21 21 21 21 20 20 20 19 19 20 21 21 21 22 24 26 26 28 31 33 35 36 37 36 36 36 36 36 36 37 35 34 33 31 29 27 26 26 25 25 24 23 22 24
13 14 15 15 14 15 16 14 14 14 14 14 14 14 15 15 15 15 16 16 17 17 17 17 17 17 16 16 17 17 18 18 19 21 22 22 23 25 27 28 30 31 31 33 35 37 37 37 37 37 36 34 31 28 27 28 28 26 25 25 25 25 25
12 13 14 15 15 14 14 14 13 13 13 13 13 14 14 14 14 15 15 15 16 16 16 16 15 15 15 15 16 16 16 16 15 16 18 19 19 21 22 23 24 25 27 29 30 32 34 35 35 36 37 35 33 30 29 29 31 29 26 25 25 26 27
15 15 15 15 14 12 13 13 13 13 12 13 13 13 13 12 13 13 14 14 15 15 16 16 14 14 14 14 15 15 15 15 14 14 15 16 17 18 20 21 22 23 25 26 26 26 26 26 26 28 32 34 33 32 33 32 32 31 29 28 26 26 27
15 16 14 14 13 13 13 12 12 13 13 12 12 12 11 11 12 12 12 12 13 13 14 14 13 13 13 13 13 13 14 15 15 15 15 15 15 16 18 19 21 22 23 24 25 25 23 21 19 21 26 29 30 32 34 35 34 31 29 29 29 28 28
13 14 13 13 13 13 13 12 12 13 13 12 12 11 10 10 10 10 10 10 10 11 11 11 11 10 11 11 10 10 10 11 12 14 14 14 14 15 16 18 20 21 21 22 24 26 24 22 20 19 20 23 25 27 28 31 36 36 32 30 30 30 29
10 11 12 12 12 12 12 12 12 13 13 13 13 12 12 11 10 10 9 8 8 8 8 8 7 7 8 8 8 8 9 9 9 11 13 14 15 14 15 17 18 19 20 20 21 21 20 20 23 23 20 16 17 22 26 27 31 35 34 33 33 34 32
7 8 9 10 11 11 12 12 12 13 13 13 13 13 13 12 12 12 11 9 9 8 7 7 6 6 6 6 6 7 8 8 9 10 11 12 13 13 14 14 14 15 17 17 19 18 16 17 21 24 24 19 15 19 26 26 25 28 31 33 34 36 37
8 7 8 9 10 10 11 12 13 13 13 12 12 12 12 12 12 12 12 11 11 10 9 8 8 7 7 7 7 7 7 7 8 8 8 9 9 9 11 11 12 13 14 14 15 15 14 14 15 18 23 26 24 23 25 24 21 23 27 29 29 30 32
12 11 10 11 11 11 12 13 14 15 15 14 13 13 12 12 12 12 12 12 12 12 12 11 10 10 10 9 8 8 8 8 8 7 7 7 7 8 8 8 9 10 11 10 11 12 12 13 15 16 20 25 27 27 26 25 22 22 23 25 26 26 25
16 15 14 14 14 14 14 14 15 16 16 15 15 14 14 13 13 13 14 14 14 14 14 13 13 12 12 12 11 11 11 10 10 9 8 8 8 8 8 8 7 7 7 7 7 8 9 10 12 13 15 16 18 21 24 25 25 24 24 24 26 27 27
15 14 14 13 14 16 16 17 17 17 16 16 16 16 16 16 15 15 15 15 15 15 15 15 15 15 14 14 14 13 13 13 12 12 12 12 11 10 10 9 9 8 8 8 7 7 8 8 8 9 9 9 10 12 14 15 17 18 18 18 19 21 23
15 15 15 15 15 17 18 19 19 18 18 17 17 17 17 17 17 17 16 16 16 16 15 16 16 16 16 16 16 15 15 15 15 15 14 14 14 13 13 12 12 11 11 10 10 10 10 10 10 10 9 9 10 10 10 10 11 12 12 12 13 14 15
16 16 17 17 18 19 20 21 21 21 20 19 19 18 18 18 18 18 17 17 16 16 16 16 16 17 17 17 17 18 18 18 18 18 18 17 17 16 16 15 15 15 14 14 13 13 13 13 13 13 13 13 13 13 12 13 13 13 13 14 14 14 14
17 17 17 19 21 21 21 22 23 23 23 22 21 20 20 20 20 19 18 18 17 17 16 16 17 17 17 17 17 18 18 19 19 19 20 20 20 19 19 18 18 18 17 17 17 17 17 17 17 17 16 16 16 16 16 16 17 17 17 17 17 17 18

ECMWFFLT1_700_spd_108.txt.gz
Wind_Speed
38 36 35 34 31 29 28 26 25 23 23 24 23 21 20 19 18 17 17 17 16 15 14 14 14 14 13 12 11 10 9 9 8 8 9 9 9 10 10 10 10 11 11 11 12 12 11 10 10 9 9 9 8 8 9 9 9 8 8 8 7 8 8
41 40 37 35 32 30 28 26 25 25 25 24 23 22 20 19 19 18 17 17 16 16 15 15 15 14 13 12 11 11 10 9 8 8 7 7 8 9 9 9 9 10 10 10 11 11 11 11 10 10 9 9 9 9 9 9 9 9 8 8 8 8 8
42 41 38 35 32 30 28 26 26 26 25 24 24 22 21 21 20 18 17 17 17 17 16 15 15 15 14 13 12 11 11 10 9 9 8 7 8 8 8 8 8 9 10 10 10 11 11 10 10 10 10 9 9 9 9 8 9 9 8 7 8 8 8
38 39 38 35 32 31 29 27 26 26 24 24 24 22 22 22 21 19 17 17 18 18 17 16 16 15 14 13 13 12 11 10 10 9 9 8 7 8 8 8 9 9 9 9 10 10 9 9 9 9 9 9 9 9 9 9 8 8 8 8 8 8 8
34 39 40 37 33 32 31 28 26 25 23 23 23 23 24 23 22 20 18 18 18 18 18 17 17 16 16 14 13 13 12 11 12 11 9 9 8 7 7 7 8 8 8 8 9 8 9 8 9 9 8 8 9 9 9 9 9 9 9 8 8 8 8
33 38 41 39 36 33 30 28 27 25 23 23 24 24 24 24 23 22 20 19 19 19 19 19 18 17 17 16 15 14 13 13 13 12 12 11 10 8 8 8 8 8 8 8 8 8 9 9 9 9 8 8 9 9 9 9 9 9 8 8 8 8 8
30 37 41 40 37 33 31 28 27 25 24 25 25 24 25 24 23 23 23 22 21 20 20 19 19 18 17 16 16 15 14 14 14 13 13 12 11 10 9 9 9 8 8 7 8 8 9 8 9 9 8 8 9 9 9 8 8 8 8 8 8 8 8
27 36 40 40 37 35 33 30 27 25 24 25 24 23 24 24 24 24 25 26 25 22 20 20 19 18 17 17 16 15 15 14 14 14 14 13 13 12 11 10 10 9 8 7 8 8 8 8 9 9 9 9 9 9 9 8 7 8 8 8 8 8 8
25 34 38 38 35 34 33 30 29 27 25 25 24 23 23 24 25 24 24 27 24 21 19 19 19 18 18 17 16 15 15 14 14 14 14 14 14 13 13 12 11 10 9 8 8 8 9 10 10 9 9 9 9 10 9 8 8 8 8 8 7 8 8
22 30 35 36 34 34 34 32 31 29 27 25 24 24 24 24 23 22 23 25 20 16 18 20 20 20 19 17 17 16 15 15 15 15 14 14 14 14 14 13 13 12 11 11 10 9 9 10 11 9 9 10 10 10 9 9 9 9 7 7 7 8 8
21 28 33 35 34 34 35 34 33 31 30 28 26 26 26 25 23 21 22 22 18 16 19 20 20 21 19 18 18 17 16 16 16 16 15 15 15 14 14 14 14 13 13 12 12 11 11 11 11 10 10 11 10 11 10 10 10 9 7 8 8 8 8
21 26 30 33 35 37 36 35 34 34 33 32 29 29 29 28 27 24 22 22 20 19 21 21 21 21 19 18 18 18 17 17 17 17 16 16 15 15 15 15 15 14 14 13 13 13 13 12 12 11 11 11 11 11 11 11 11 10 9 9 8 7 7
19 23 26 29 33 37 38 37 36 36 35 34 32 33 33 32 31 27 24 24 23 21 22 21 20 20 20 19 18 19 19 19 18 18 17 17 16 16 16 15 15 15 15 14 14 14 14 14 14 13 11 12 12 12 12 12 12 11 11 10 9 9 8
20 22 24 26 28 32 37 38 37 36 35 34 34 34 34 32 31 28 25 25 24 23 23 21 20 20 21 20 20 21 21 21 22 21 20 18 17 17 17 16 16 15 15 16 16 15 15 15 15 14 13 12 13 13 13 13 13 12 12 11 11 11 10
23 21 21 23 25 28 33 36 38 38 35 34 34 33 33 32 31 28 27 25 24 24 24 24 23 23 23 22 22 23 22 24 25 24 22 21 21 20 18 18 18 17 17 17 17 16 16 15 15 16 14 12 13 14 15 14 13 13 12 12 12 12 12
22 22 21 22 24 26 29 31 33 35 35 32 31 30 31 33 33 31 30 28 26 26 26 27 27 27 26 26 26 26 26 26 25 23 21 22 24 24 22 21 20 20 20 20 19 18 18 17 16 16 15 14 14 14 15 16 14 13 13 13 13 13 13
20 21 23 23 23 24 24 25 26 29 30 29 29 29 31 32 33 32 32 31 29 28 27 27 29 30 29 28 29 30 30 29 27 25 24 24 25 25 26 25 23 23 23 22 22 22 20 19 17 16 16 16 16 15 16 17 15 13 14 14 14 14 13
19 19 21 21 20 20 20 21 21 22 23 23 25 27 29 30 31 31 30 30 29 28 26 25 28 31 31 30 30 30 31 30 29 28 27 27 28 28 29 28 27 27 27 26 26 25 22 21 20 19 18 17 17 18 18 17 16 15 15 15 15 15 14
16 18 20 19 17 16 16 16 17 19 21 22 25 27 27 27 28 28 27 27 28 27 26 26 28 30 30 31 31 31 31 29 29 28 27 28 29 30 31 30 29 30 31 31 29 25 22 22 22 22 21 19 20 22 20 17 16 16 16 16 16 16 15
13 15 18 18 17 17 16 14 15 17 19 20 22 24 24 24 25 26 27 29 30 30 29 29 29 29 30 31 32 32 32 31 29 30 29 28 28 29 29 28 28 30 31 32 31 27 25 26 24 24 24 23 23 23 21 19 19 18 17 17 17 16 16
16 17 16 16 16 16 15 15 15 16 16 16 17 19 20 21 23 25 28 30 32 32 32 32 31 30 30 30 30 30 31 30 30 30 30 30 30 30 31 30 30 31 33 34 33 30 30 32 29 27 26 25 24 24 22 21 21 20 19 19 18 17 17
17 18 16 16 15 14 15 16 17 16 17 18 19 19 20 21 23 24 26 28 30 31 31 31 30 29 29 28 27 28 28 30 30 30 31 33 33 33 34 34 34 34 35 37 36 35 35 36 33 30 29 27 26 26 24 23 23 22 21 21 21 19 19
17 17 15 15 14 13 14 16 16 18 19 21 21 21 21 23 23 24 25 25 26 28 28 27 27 27 26 25 25 25 26 27 28 29 30 32 32 31 31 32 33 33 34 36 39 40 40 38 35 32 31 30 29 27 24 23 25 25 23 22 21 20 21
17 17 14 14 16 15 15 15 15 17 18 19 19 19 20 22 23 24 24 24 25 26 26 26 25 25 25 24 24 24 24 25 25 26 27 28 27 26 26 27 28 30 31 33 37 40 40 39 38 35 33 33 33 31 28 27 27 28 26 24 22 21 21
13 13 12 14 15 14 14 14 14 14 15 16 17 18 18 20 22 23 22 22 24 25 25 25 25 25 25 25 24 23 22 22 23 24 24 25 24 24 25 25 25 25 26 27 31 33 35 36 37 36 35 36 35 33 32 30 30 31 30 27 24 23 23
8 8 9 9 10 11 13 13 12 11 12 13 14 13 13 15 16 16 16 17 19 19 20 21 22 22 22 22 22 21 20 20 21 21 21 21 22 22 23 23 23 23 22 22 24 27 29 30 31 32 34 36 36 35 34 32 30 31 33 31 28 25 24
5 7 9 10 11 13 13 12 11 10 11 11 11 11 11 11 11 11 12 13 13 13 14 15 16 17 17 18 18 18 18 18 18 19 19 18 17 18 19 19 20 21 21 21 20 21 22 23 24 24 27 31 33 34 35 34 32 31 32 35 34 32 30
8 10 11 12 12 12 11 12 12 12 11 11 11 12 12 12 12 11 11 12 12 13 13 13 13 14 15 16 15 15 16 18 18 18 18 17 15 15 16 16 17 19 20 20 20 19 19 19 19 19 20 23 26 27 29 31 32 31 31 33 35 35 35
7 8 8 9 9 9 9 10 10 9 9 9 11 12 12 12 12 12 12 12 12 13 14 14 13 13 14 15 14 14 14 16 16 17 18 17 16 15 15 15 16 16 17 18 19 19 18 17 18 19 19 19 19 19 20 21 24 29 32 34 35 35 34
4 6 7 7 7 7 7 7 7 7 8 8 9 11 11 10 10 10 11 10 10 10 10 10 11 11 10 10 10 10 11 11 12 13 14 14 15 15 15 15 15 15 16 16 17 18 18 17 18 20 20 19 18 18 20 21 23 26 29 31 32 33 32
4 6 7 7 6 6 7 7 7 7 7 8 8 8 9 9 8 8 8 8 7 6 6 6 7 7 7 7 6 6 7 8 9 10 10 10 11 12 13 13 14 15 15 16 16 17 18 18 17 16 17 19 20 21 23 25 23 22 24 26 27 28 30
6 7 7 7 7 7 8 8 8 8 8 9 9 8 8 8 7 6 6 6 5 5 5 5 5 5 5 5 5 5 5 6 6 7 7 8 8 9 10 10 11 12 13 14 14 14 15 15 15 15 15 17 20 23 24 23 20 19 22 24 23 23 25
6 7 6 6 8 8 8 8 8 8 8 9 9 9 9 8 8 8 7 7 7 7 7 6 6 6 6 6 6 6 6 6 7 7 7 7 6 6 7 7 7 8 9 9 10 11 12 12 12 13 13 13 17 21 24 25 23 20 21 21 21 21 23
9 9 7 7 8 9 9 9 8 8 9 9 10 10 10 10 10 10 10 10 9 9 9 9 8 8 8 8 8 8 8 9 8 8 9 9 7 6 6 6 6 6 6 7 7 8 8 8 8 9 10 11 13 16 21 26 27 24 22 23 21 21 21
12 12 10 9 11 11 9 8 8 8 10 10 10 11 11 11 12 12 13 13 13 12 12 11 11 11 11 11 11 11 11 11 11 10 11 11 10 9 8 8 8 8 7 7 7 7 7 7 7 6 6 8 10 10 14 20 22 21 22 23 23 22 22
14 14 12 12 12 12 11 10 11 11 11 11 12 12 13 14 14 14 15 15 16 15 15 14 14 14 13 13 13 13 14 13 13 13 14 13 12 12 12 11 11 11 10 10 9 9 9 9 8 7 6 8 8 7 8 11 13 14 15 16 16 17 18
16 15 14 14 14 14 14 14 15 15 14 15 15 15 15 16 16 16 17 17 18 17 17 16 16 16 15 14 14 15 15 15 14 15 16 15 14 14 15 15 14 14 14 13 13 13 12 12 11 10 10 10 10 10 9 9 10 11 11 11 12 12 12
16 17 16 16 16 16 16 17 18 18 18 18 18 18 18 18 18 18 19 19 19 19 18 18 17 17 16 15 16 16 16 16 16 16 17 17 16 16 17 18 17 17 16 17 17 17 16 15 15 14 14 13 13 14 14 13 13 14 14 14 14 14 14

ECMWFFLT1_700_spd_111.txt.gz
Wind_Speed
36 35 33 32 31 30 29 29 26 23 22 23 22 20 19 17 16 16 14 13 13 13 14 14 14 13 12 11 10 9 8 7 9 10 10 10 10 9 10 10 10 9 10 11 10 11 10 10 10 9 9 9 8 8 8 8 7 7 7 7 7 7 7
37 36 36 34 33 31 29 29 27 25 23 23 23 23 21 17 15 16 15 14 14 13 13 13 13 13 12 12 11 9 8 7 8 8 8 8 8 9 9 9 9 9 9 10 10 10 10 9 10 9 9 9 9 9 8 8 8 7 7 8 8 8 8
36 36 37 35 34 32 30 29 28 28 26 25 25 24 22 18 16 17 15 14 15 14 13 13 13 13 13 12 11 10 9 8 7 7 6 7 8 9 9 8 7 8 8 9 9 9 9 9 9 9 10 10 9 9 9 8 8 7 8 8 8 8 8
35 36 37 36 36 33 31 29 28 29 27 26 27 24 21 19 17 17 16 14 14 14 14 13 13 13 13 12 12 10 10 9 7 7 6 7 7 7 7 7 6 7 7 8 8 8 8 8 8 9 9 10 10 10 10 9 9 8 8 9 8 8 8
32 35 37 38 38 36 33 31 31 32 30 28 28 24 22 20 18 18 17 15 14 14 14 14 13 13 13 13 12 11 10 9 9 8 7 6 5 4 5 5 6 6 6 6 6 6 7 7 8 8 9 9 9 10 10 9 9 9 9 9 8 8 8
28 33 36 38 40 38 36 34 32 31 30 29 28 25 23 22 20 19 17 16 15 15 15 15 15 14 13 13 13 12 11 10 10 9 8 7 5 4 5 5 5 6 5 5 6 6 7 7 7 8 8 8 8 9 9 8 8 9 9 8 8 9 8
24 29 34 38 40 39 37 35 31 29 29 29 28 26 25 24 22 21 19 19 18 17 17 17 16 15 15 14 14 13 12 11 11 10 9 8 8 7 7 6 6 6 5 5 6 6 6 6 7 7 7 7 8 8 8 7 8 8 8 8 8 8 8
22 26 30 36 39 38 37 35 31 30 30 30 27 26 25 24 23 21 20 20 18 17 17 17 18 17 16 16 15 14 13 12 12 11 10 10 9 9 8 7 6 6 6 6 6 6 6 6 6 7 7 8 8 8 7 7 7 7 7 7 7 8 8
20 24 27 34 38 40 38 36 33 32 31 29 27 25 24 24 23 20 19 18 17 15 15 16 17 18 17 17 16 14 13 13 12 11 11 10 10 9 8 8 7 7 7 6 6 6 6 6 7 7 7 7 7 7 7 7 7 6 7 7 7 8 8
19 22 27 33 38 40 39 37 34 33 30 28 27 25 23 22 21 20 19 18 17 16 16 16 17 18 19 18 16 15 14 13 12 11 11 10 9 9 9 9 9 8 8 8 7 6 6 6 7 6 6 6 6 7 7 8 7 6 6 6 6 7 7
17 20 26 31 37 40 40 37 35 34 31 28 26 25 23 22 21 21 20 19 18 17 18 17 18 20 21 20 17 16 15 14 13 12 12 11 10 10 10 10 10 10 9 8 8 8 7 7 6 5 6 7 7 7 7 8 8 7 7 7 7 7 6
16 18 23 27 34 40 40 39 38 36 33 30 27 25 25 24 23 22 21 20 19 18 17 17 18 23 23 21 18 16 15 15 15 14 13 12 11 11 11 11 11 11 10 10 9 9 9 8 7 6 7 8 8 8 8 8 8 8 8 7 7 7 6
17 19 22 26 33 39 40 42 42 41 40 36 32 29 27 25 24 23 22 20 19 18 17 17 19 24 23 18 17 17 18 17 17 15 14 13 13 12 12 12 12 11 11 11 11 11 10 10 10 8 9 10 9 9 9 9 9 9 9 9 8 8 7
19 20 22 28 36 41 42 43 42 41 41 38 34 31 27 25 24 24 23 21 19 19 19 19 20 22 21 17 17 20 20 19 17 14 14 14 13 13 13 12 13 12 12 12 13 13 12 13 12 11 10 10 11 11 10 10 10 10 10 10 10 9 8
18 17 19 25 34 40 41 39 38 37 36 33 30 29 27 26 25 25 25 24 23 23 22 22 20 20 19 18 18 20 19 17 15 15 14 14 14 13 13 13 13 13 13 13 13 13 14 14 14 13 12 12 12 12 12 11 10 11 11 11 11 11 10
17 16 18 22 28 34 36 36 37 37 36 31 28 29 31 30 29 29 29 30 30 28 26 24 21 20 21 21 18 19 18 16 16 16 15 15 15 15 15 14 15 15 15 15 15 14 15 14 15 15 14 14 14 14 13 11 11 11 11 12 13 13 13
18 18 19 21 25 29 32 35 37 38 37 34 31 33 34 32 31 32 32 32 31 29 26 24 22 22 24 22 20 19 19 18 19 18 17 16 16 15 15 16 17 17 17 17 17 17 17 17 17 18 17 16 15 14 14 13 12 12 12 13 14 15 15
19 19 19 20 23 25 26 30 33 34 35 34 32 32 32 29 29 30 30 30 28 26 25 24 24 24 24 23 21 21 21 22 21 20 19 19 19 18 18 18 19 19 19 19 19 20 20 20 19 20 19 19 17 16 14 14 13 14 14 14 14 15 16
19 19 20 21 23 22 21 24 27 28 29 28 27 29 29 28 28 28 28 29 27 25 25 25 25 25 25 25 24 23 24 24 23 22 22 22 22 23 23 23 23 23 23 23 23 23 23 21 21 21 22 22 21 19 16 15 14 14 14 14 15 16 16
19 19 18 17 20 20 18 18 20 19 19 20 21 24 25 25 25 25 25 26 25 25 26 28 29 28 26 25 25 24 23 24 25 25 24 23 23 24 25 25 25 25 26 27 26 26 25 24 24 24 25 25 25 24 20 18 17 16 15 15 15 16 16
22 21 16 12 16 18 16 15 16 15 15 17 17 19 21 22 21 21 21 22 22 23 25 28 29 28 25 24 23 22 23 23 24 25 26 26 25 25 26 26 26 26 26 27 27 26 25 25 25 26 27 28 28 27 24 21 20 19 18 17 16 16 17
20 20 16 13 16 18 16 15 16 16 18 19 19 19 21 22 21 19 18 18 19 21 24 26 26 24 24 25 24 24 24 25 25 26 26 24 23 25 26 26 26 27 27 27 27 27 26 26 27 27 28 30 30 29 27 25 23 22 20 19 19 18 18
15 13 13 12 14 19 21 20 19 20 21 21 23 23 21 20 20 18 16 16 17 20 24 26 24 23 24 26 26 26 24 23 23 23 23 22 22 24 26 26 27 27 28 29 29 28 27 28 29 29 30 32 33 31 29 28 27 26 24 21 21 21 21
13 9 8 8 8 14 19 18 18 20 21 20 23 24 23 23 22 20 19 19 19 21 23 23 22 23 24 25 25 24 22 21 20 21 20 21 21 23 24 24 25 25 25 26 26 25 25 26 28 29 31 33 34 33 32 31 31 30 28 25 24 24 24
4 1 1 3 5 12 15 13 13 15 16 17 19 21 23 25 24 22 21 21 20 20 21 20 21 21 22 22 22 21 20 20 20 20 20 21 21 22 22 23 23 22 22 23 23 23 23 23 25 27 29 31 33 33 34 36 36 33 30 28 27 27 26
3 4 3 2 7 9 8 7 7 7 9 10 9 11 13 15 14 14 15 16 17 19 20 20 20 20 21 21 21 21 21 21 21 21 21 21 22 22 22 22 22 21 20 21 21 20 20 20 21 23 24 26 28 29 31 35 37 35 32 31 32 31 31
6 4 3 0 3 6 7 6 4 3 3 2 2 4 5 6 7 9 10 11 13 16 17 18 18 18 19 19 20 21 21 21 21 21 21 21 21 20 20 19 19 18 17 18 19 19 19 18 16 17 18 19 22 23 24 27 30 33 33 33 33 33 32
5 3 3 2 4 5 6 6 5 4 2 1 1 2 2 3 5 6 7 9 10 11 11 12 12 12 13 14 15 16 16 17 18 19 20 20 19 18 17 17 16 15 14 15 16 18 18 17 15 14 15 15 17 18 18 19 23 28 33 34 33 32 32
0 2 2 2 2 3 5 6 6 5 3 3 3 3 4 5 5 6 7 8 9 10 9 9 9 10 11 11 12 13 14 14 14 16 18 18 17 17 17 16 16 15 14 13 14 15 15 14 14 16 16 16 16 16 16 17 19 22 26 29 30 31 33
1 2 2 3 4 4 2 3 4 5 5 4 6 6 6 6 7 7 8 8 9 10 10 10 10 11 11 12 12 13 13 13 13 13 14 14 14 15 14 14 15 15 14 14 13 13 13 13 14 15 16 16 17 18 18 18 19 19 20 20 21 22 25
1 1 1 4 5 4 3 2 1 1 2 4 6 7 6 6 6 5 6 7 8 8 8 9 9 9 10 11 11 11 12 11 10 10 9 10 10 10 10 10 11 13 14 14 13 12 12 12 14 15 16 16 17 18 19 20 21 21 19 17 16 17 17
1 2 0 2 3 3 3 2 1 1 1 2 4 4 4 3 3 3 4 5 6 6 5 5 6 6 7 8 8 9 9 8 7 6 6 7 7 7 8 8 8 8 9 11 12 12 11 11 11 12 14 15 16 17 18 20 22 22 18 15 15 18 20
3 3 2 2 2 2 2 3 3 3 2 2 3 3 3 2 2 2 2 3 4 4 4 4 5 5 5 6 6 6 6 5 4 4 4 3 4 5 6 6 5 4 4 6 7 8 8 8 8 9 11 13 14 15 16 17 20 21 20 18 15 16 19
1 2 3 4 4 3 3 2 4 4 4 4 4 4 4 4 4 5 4 4 4 5 5 5 6 6 6 6 6 7 6 4 4 4 3 3 4 5 5 5 5 4 4 4 5 5 5 5 5 7 9 9 10 13 14 15 16 19 20 19 17 16 16
2 4 5 6 6 3 2 2 4 4 4 4 5 5 6 7 7 7 7 7 7 7 7 7 8 8 8 8 8 10 9 7 6 7 7 5 6 7 7 6 5 5 5 6 6 6 6 5 5 6 6 6 7 9 10 11 13 15 16 18 19 19 19
5 6 8 8 7 4 3 4 6 7 6 6 6 7 7 8 8 9 9 9 10 10 10 10 10 10 10 10 11 11 11 9 9 9 9 9 9 9 9 9 8 8 8 8 8 8 8 8 8 8 8 7 6 6 7 7 8 9 10 12 15 17 17
8 9 10 10 9 8 7 8 10 11 10 10 10 10 10 10 10 11 11 11 11 12 12 13 12 12 13 14 14 13 12 12 11 10 9 10 11 12 11 11 11 11 11 11 11 11 11 11 11 11 11 10 9 8 8 8 8 7 7 8 9 11 12
10 11 12 12 12 11 10 11 12 13 14 14 14 13 13 13 13 13 13 13 13 13 14 14 14 14 15 16 16 15 14 14 13 12 10 9 10 12 12 12 12 13 14 15 15 14 14 14 14 14 14 14 13 13 12 11 11 11 10 10 10 10 11

ECMWFFLT1_700_spd_114.txt.gz
Wind_Speed
38 38 40 40 39 37 34 32 28 26 23 21 23 22 21 22 22 21 19 18 18 18 18 17 16 15 14 13 13 12 11 11 10 10 11 12 12 12 11 11 11 11 11 11 11 11 11 10 11 10 9 9 9 9 8 8 8 8 8 8 7 7 8
39 38 39 40 40 37 34 33 31 29 26 23 24 23 21 23 23 21 19 18 18 18 18 18 17 16 15 14 13 12 12 11 10 10 10 11 12 12 12 12 12 12 12 12 11 11 11 10 11 10 10 10 10 10 10 9 9 8 8 8 7 8 8
40 39 40 40 40 38 35 34 33 31 28 25 25 24 22 22 22 20 20 19 18 18 18 19 18 17 16 15 14 13 12 11 10 9 9 10 11 11 12 11 12 12 12 12 11 12 12 11 11 11 10 11 11 11 10 10 10 9 9 9 8 8 9
39 39 40 39 39 38 35 35 34 31 28 26 26 24 22 21 21 20 20 19 19 18 18 18 18 19 18 16 15 14 13 12 11 11 10 10 11 11 11 11 11 11 11 11 12 13 13 12 12 12 11 11 11 11 11 10 10 10 10 10 9 8 9
37 39 41 40 40 39 37 36 34 32 29 28 27 24 22 21 21 21 21 20 20 18 17 16 17 19 19 18 16 14 14 14 13 13 11 10 10 10 10 10 11 11 11 11 11 12 12 13 13 12 12 11 11 12 12 11 11 10 10 10 10 9 9
34 38 40 41 41 40 39 38 35 33 31 29 28 25 23 22 22 22 21 21 20 19 19 18 17 18 18 18 17 16 16 15 14 14 13 12 11 10 10 10 11 11 11 10 11 11 12 12 12 12 12 11 11 12 12 11 11 11 11 10 10 10 10
31 35 38 41 41 41 40 39 37 35 32 30 28 25 25 24 23 22 22 22 21 21 21 20 19 18 17 17 17 17 17 16 15 15 14 13 12 11 11 11 11 11 11 11 11 11 11 11 11 11 11 11 11 11 11 11 11 11 11 10 10 11 10
27 30 35 38 40 40 40 39 38 37 34 32 31 29 28 28 25 24 24 23 22 22 21 20 20 19 18 17 17 17 17 16 16 16 15 14 13 12 11 11 11 11 11 11 11 11 11 10 10 10 10 10 10 10 10 10 11 11 11 11 11 11 11
22 25 28 34 39 41 41 41 40 38 36 34 32 30 30 30 27 25 25 23 23 22 20 19 20 20 19 18 18 18 18 17 17 16 16 15 15 14 12 12 11 11 11 11 11 11 11 10 10 10 10 10 10 10 10 10 10 10 10 10 11 11 11
19 22 24 29 37 41 43 44 42 40 37 35 33 30 30 31 28 27 26 24 23 22 20 19 20 20 21 20 19 19 19 18 17 16 16 15 15 15 14 13 12 12 11 11 10 10 10 10 10 10 10 10 10 10 10 11 10 10 10 10 10 10 10
18 21 24 28 37 45 47 46 43 40 37 35 33 31 30 30 27 27 26 23 22 21 20 20 20 20 21 21 21 21 21 20 19 18 16 16 15 15 15 14 13 13 13 12 11 11 10 9 9 10 10 10 10 11 11 11 11 11 11 11 10 10 10
18 20 22 25 32 41 48 46 42 39 38 37 35 32 31 30 28 27 27 24 22 22 21 21 20 19 20 22 22 23 22 21 21 20 18 16 16 15 15 15 15 15 14 13 12 12 11 10 10 10 10 11 11 11 12 12 12 11 11 11 11 11 10
18 18 19 20 22 29 38 42 40 39 39 39 37 33 32 31 28 27 27 25 24 23 22 21 20 19 20 21 21 21 21 20 20 19 18 17 17 16 16 16 15 15 14 13 13 13 13 13 12 12 12 12 11 11 12 12 12 12 12 11 11 11 11
16 16 16 17 18 20 27 35 40 42 42 41 39 37 39 40 37 35 34 31 28 26 24 22 20 19 20 20 20 19 19 19 19 18 18 17 18 17 16 15 14 13 13 13 13 13 13 13 13 14 14 13 12 12 12 12 12 13 13 13 13 12 12
16 16 15 15 16 18 23 31 38 42 43 43 42 43 43 42 40 39 36 33 31 29 28 25 22 19 19 19 19 18 17 17 18 19 17 17 16 16 15 14 13 13 13 13 12 13 13 13 13 13 14 14 13 13 13 13 13 13 14 14 14 13 13
16 15 14 14 15 16 20 27 33 38 40 39 40 42 40 35 31 30 28 26 25 25 26 25 23 20 20 20 18 16 16 17 19 19 18 17 16 15 14 13 13 13 13 13 13 12 12 12 12 12 12 13 13 14 14 14 14 14 14 14 15 15 15
17 14 13 14 14 14 16 21 29 35 37 36 35 37 35 31 29 28 25 23 22 22 23 22 20 20 22 23 22 20 19 21 21 20 18 18 17 16 15 14 14 14 14 14 14 14 13 13 13 12 12 12 13 14 15 14 14 14 15 15 16 16 17
16 14 13 13 13 13 13 17 23 29 32 32 32 33 32 30 30 27 22 21 22 22 22 21 20 20 22 24 25 25 25 24 22 21 20 19 18 17 16 15 15 15 16 15 15 15 15 15 15 15 15 15 14 14 14 14 14 16 17 16 16 17 19
16 15 14 14 13 12 13 16 21 26 29 31 33 33 31 30 29 25 20 20 22 23 22 22 23 23 23 24 25 25 26 25 24 24 24 23 21 19 17 17 16 17 17 17 17 17 17 17 17 17 17 17 16 17 16 15 15 17 18 17 17 18 19
16 16 14 13 13 13 15 16 19 23 26 28 30 30 29 29 27 25 24 25 27 26 24 25 27 26 25 25 26 26 27 26 24 25 25 24 24 22 21 21 21 21 20 20 21 21 21 21 21 20 20 19 19 19 19 18 17 18 19 18 18 18 19
13 14 14 13 13 15 15 14 15 18 19 21 24 26 28 29 28 28 29 30 31 29 25 25 27 27 24 23 24 26 27 24 22 22 22 23 23 23 23 23 24 24 23 24 25 25 24 25 25 24 24 23 23 23 22 21 20 20 20 21 21 20 20
11 12 12 12 12 14 14 13 13 15 15 16 18 21 23 24 25 29 32 34 33 31 27 26 23 20 19 20 22 24 26 24 22 22 23 23 23 24 26 26 25 25 24 24 25 26 26 26 26 27 27 26 26 26 26 26 25 24 23 23 23 23 22
7 9 11 11 9 10 12 13 14 14 13 14 15 17 19 21 23 26 27 28 27 25 24 22 19 15 15 18 21 23 25 25 26 26 25 23 23 25 26 26 25 26 26 25 26 26 27 28 28 28 28 28 28 28 28 29 29 27 26 25 25 25 24
3 5 8 10 9 9 10 13 14 14 14 15 16 17 19 21 22 21 20 19 20 19 17 17 16 14 14 14 15 19 21 23 26 27 24 21 22 22 20 19 18 20 23 25 25 27 29 30 31 30 29 30 31 32 32 31 30 29 28 27 27 27 26
3 3 3 4 6 10 13 15 16 15 16 17 18 19 20 18 16 16 16 16 16 15 15 15 15 14 13 13 15 18 21 25 29 27 20 17 18 18 16 16 16 17 19 21 23 25 28 30 30 27 25 27 29 31 32 33 32 31 30 29 30 30 30
3 4 5 4 3 7 10 12 13 14 16 15 14 14 15 13 11 11 11 12 13 14 15 15 14 14 15 16 18 21 24 27 27 22 17 15 16 16 16 17 18 18 18 19 21 24 27 26 25 22 20 22 25 27 29 30 31 31 31 31 32 33 33
1 5 7 6 5 2 3 5 8 12 15 13 11 11 12 12 13 13 12 12 14 16 16 15 14 16 18 19 21 23 23 22 21 18 16 16 17 17 17 18 17 17 18 19 20 23 24 23 21 20 19 20 21 22 23 25 29 31 31 33 33 34 35
4 4 6 7 8 6 5 5 6 9 10 10 10 10 10 9 11 12 13 15 17 17 15 13 13 14 16 17 19 19 19 18 17 17 17 17 17 17 17 17 16 16 17 17 18 19 19 19 20 20 19 19 20 19 18 20 25 28 30 32 33 32 33
10 8 6 6 7 7 6 5 5 5 5 6 6 6 5 6 7 8 10 13 14 13 11 9 8 9 11 12 13 14 14 14 14 14 14 14 14 15 15 15 16 16 16 16 16 16 16 17 18 19 20 20 20 19 16 16 19 21 24 27 27 27 28
8 8 7 5 5 7 7 5 4 4 4 6 6 3 1 1 2 2 3 5 6 7 6 6 6 7 8 8 9 10 10 11 11 11 12 12 12 13 14 15 16 16 16 15 15 15 15 15 15 17 18 19 19 19 17 16 17 19 21 22 21 21 23
8 8 7 6 5 5 5 4 3 3 3 4 4 3 2 1 0 1 1 2 2 3 4 4 5 6 6 7 8 9 10 11 12 12 12 12 11 11 12 13 14 14 14 15 15 15 15 15 15 15 17 17 18 18 18 18 19 20 21 20 19 19 19
9 10 9 8 7 6 5 5 4 4 4 4 4 4 5 4 4 4 4 4 3 3 4 4 4 4 5 6 6 6 8 9 9 9 10 10 10 10 10 11 11 11 11 12 12 13 14 15 15 16 16 17 18 18 19 19 20 21 21 20 20 20 19
10 10 10 9 8 7 6 5 4 3 4 4 4 5 6 6 6 6 5 5 4 5 4 4 3 3 3 4 3 3 3 3 4 5 6 7 8 8 8 8 8 8 8 8 8 9 10 12 13 14 15 15 16 17 18 18 19 19 19 19 20 21 20
5 6 8 9 7 5 5 4 3 2 2 2 3 3 4 4 4 4 3 3 3 3 3 3 3 3 3 3 3 3 4 4 4 5 6 7 7 7 6 6 7 6 6 6 6 6 6 8 9 11 12 12 13 14 14 15 16 16 17 17 18 21 22
1 2 4 6 5 4 3 3 3 2 0 0 1 1 2 2 2 2 3 3 3 3 3 3 4 5 5 4 3 3 4 5 6 6 7 8 8 8 7 7 6 6 6 6 6 5 5 5 6 7 8 9 9 10 10 10 11 12 13 14 15 17 20
2 2 1 0 2 2 2 3 3 3 3 3 3 3 3 3 3 4 4 4 4 4 4 4 5 6 6 5 4 4 5 6 6 7 8 9 9 9 9 9 9 8 8 8 8 8 7 7 7 7 8 8 8 8 8 8 8 8 9 10 11 13 16
5 4 4 4 3 2 2 3 4 5 5 5 5 6 6 6 6 6 6 6 6 5 5 5 6 7 7 7 6 6 6 6 7 8 9 9 10 10 11 11 11 11 11 11 10 10 10 10 9 9 10 10 10 10 10 9 9 9 9 9 10 10 11
7 6 6 7 7 6 5 5 6 7 7 8 9 9 9 9 9 10 10 10 10 9 9 8 9 9 9 9 8 8 8 8 8 8 9 9 9 9 10 11 12 13 13 13 13 13 13 13 13 13 13 13 13 13 12 12 12 12 12 12 12 12 11

ECMWFFLT1_700_spd_117.txt.gz
Wind_Speed
41 40 39 37 34 29 26 25 24 22 22 22 22 22 23 23 21 21 20 20 20 19 18 18 17 17 17 16 16 16 15 14 13 13 13 13 13 12 12 11 11 11 11 11 11 11 12 11 11 10 9 9 8 8 7 7 7 7 8 8 7 8 8
41 41 40 39 36 32 27 26 26 24 23 22 23 23 24 24 22 21 20 20 21 20 19 18 18 17 17 17 16 16 16 15 14 14 14 14 13 13 12 12 11 11 11 11 12 12 12 11 11 10 10 9 9 9 8 8 8 8 8 8 8 8 8
42 42 42 41 38 34 30 29 27 26 24 23 24 24 25 24 22 21 20 21 21 20 20 19 18 18 17 17 17 17 16 15 14 14 13 13 13 13 13 13 12 12 12 12 12 12 11 11 11 11 11 10 10 10 9 9 9 9 9 9 9 9 9
42 42 42 41 39 36 33 31 29 28 26 24 24 24 24 23 23 22 21 21 22 21 20 20 19 18 18 18 17 17 16 15 14 13 13 13 14 14 14 13 13 13 13 12 12 12 12 12 12 12 11 11 11 11 11 11 10 10 10 10 10 10 10
42 42 42 41 40 38 37 35 31 29 27 25 25 24 23 22 23 24 22 22 22 21 19 19 19 19 18 18 18 17 16 15 14 14 14 14 15 15 14 14 14 14 14 14 13 14 13 13 13 13 12 12 12 12 12 11 11 11 11 11 11 11 10
41 43 42 41 41 40 38 36 33 30 28 27 25 24 23 22 24 25 24 23 23 22 21 20 21 21 20 19 18 18 17 16 15 15 15 15 14 14 14 14 15 15 15 15 15 15 15 14 14 14 13 13 13 13 12 12 12 11 11 11 11 11 11
38 42 42 42 42 41 40 38 35 33 31 29 27 26 25 24 25 26 26 25 25 24 23 22 21 21 21 20 20 19 18 17 16 16 16 15 14 15 15 15 15 15 15 15 15 16 15 14 14 14 15 15 14 14 13 13 13 12 12 12 12 12 12
31 37 40 42 42 42 40 39 38 35 33 32 31 29 26 25 26 27 27 27 26 26 24 23 22 21 21 21 21 20 19 18 18 17 16 16 15 15 16 16 15 16 15 15 15 15 15 14 15 15 15 15 14 14 14 14 13 13 13 13 12 13 13
25 30 35 40 43 43 42 42 41 39 36 34 32 30 28 27 27 27 28 27 26 25 24 23 22 21 20 20 20 20 20 20 19 19 18 17 17 16 16 16 16 16 15 15 16 15 15 14 15 15 15 15 14 14 14 13 14 13 13 13 13 14 14
21 26 31 36 40 43 44 44 42 42 40 37 35 32 30 29 28 28 28 28 27 25 24 23 23 22 21 21 20 21 22 21 21 21 20 19 19 18 17 16 16 16 16 16 16 16 15 15 15 15 15 15 15 14 14 14 14 13 13 13 14 14 15
20 22 26 31 35 39 42 42 41 40 40 39 38 35 32 32 30 28 28 28 27 25 24 23 23 23 23 22 21 22 22 22 22 22 21 20 20 19 18 17 17 16 16 16 16 15 15 15 15 15 15 15 15 15 15 15 14 14 13 13 14 14 14
18 19 21 25 30 35 40 42 42 40 40 43 43 40 39 39 36 34 32 30 28 27 27 26 24 23 24 23 23 23 23 22 22 22 21 21 21 21 20 19 18 17 17 16 15 15 15 15 14 14 14 15 15 15 15 15 15 14 14 14 14 14 14
18 19 21 21 23 27 33 40 43 42 42 44 44 41 41 41 40 38 36 35 34 34 32 30 27 25 25 25 24 24 24 23 22 21 21 20 21 21 21 21 20 19 18 17 16 16 15 15 14 14 14 14 14 14 15 15 15 15 15 15 15 15 15
17 18 19 18 18 21 26 34 41 43 42 42 41 40 40 40 40 37 35 33 33 32 29 27 26 26 26 26 25 25 24 23 22 21 21 22 22 22 22 21 21 20 20 19 18 18 16 16 15 15 15 15 14 14 15 15 15 15 15 16 16 16 16
15 16 15 15 16 17 21 27 35 41 44 43 42 41 40 41 40 36 33 31 29 28 27 26 26 26 26 27 27 26 25 24 23 23 24 24 24 23 22 22 21 20 21 20 19 18 18 17 16 16 15 15 15 14 15 15 15 15 16 16 16 16 16
12 12 13 15 15 17 21 24 28 35 40 43 44 43 41 40 38 35 32 30 29 29 28 27 26 26 25 25 26 26 27 28 28 28 28 28 27 25 23 22 21 19 19 19 19 18 18 17 16 16 15 15 15 15 14 14 15 15 15 16 16 17 17
11 12 15 16 16 19 21 22 24 27 31 36 41 43 43 40 37 35 34 31 31 30 28 27 26 25 24 25 25 26 27 28 30 30 31 31 30 28 25 24 22 19 18 18 18 18 18 17 16 15 15 15 15 16 15 15 14 14 15 16 16 17 18
10 12 15 16 16 19 20 20 21 22 24 29 33 37 41 40 37 37 34 30 29 29 27 27 27 25 24 24 25 26 26 27 27 28 28 29 28 26 24 23 23 21 20 19 18 18 18 17 16 15 15 16 16 16 16 15 15 15 15 16 16 17 18
10 12 13 14 16 18 19 19 19 19 21 24 27 32 38 39 38 37 34 29 26 26 29 30 28 26 25 24 23 24 24 25 26 26 26 26 27 25 23 23 23 22 22 21 20 20 19 18 18 17 17 17 17 17 17 17 16 16 17 17 17 17 18
10 12 13 14 16 16 16 16 16 16 20 22 24 28 33 36 36 34 31 28 25 26 31 31 28 28 28 26 24 23 24 26 27 26 25 25 27 26 23 22 22 21 21 22 22 21 21 20 19 18 18 18 18 19 19 18 18 18 19 20 19 18 18
10 10 11 13 14 12 11 13 12 12 15 18 20 24 28 30 30 28 28 29 29 28 28 27 26 26 26 25 24 24 26 27 27 25 24 24 24 23 20 19 21 21 22 23 23 24 24 23 22 21 20 20 19 20 20 20 20 20 21 22 22 21 20
8 8 9 11 11 9 10 12 12 10 11 13 16 21 25 26 26 26 28 30 29 26 25 26 27 27 25 24 25 26 27 26 25 24 22 21 20 20 19 19 22 23 25 26 27 29 29 28 26 24 22 22 22 22 22 22 22 22 23 23 23 23 22
7 8 8 8 8 7 10 12 11 10 10 11 14 17 20 22 24 27 29 30 27 26 28 29 28 27 25 25 26 28 27 26 27 26 23 20 20 21 20 21 23 24 28 30 31 33 33 31 27 24 24 24 23 23 23 23 24 25 25 25 26 26 26
5 7 7 5 4 5 8 9 9 9 10 11 13 14 16 18 20 23 27 28 27 27 27 26 23 23 24 23 25 27 26 25 27 27 23 21 22 22 23 24 25 26 29 31 32 34 33 28 25 26 27 25 25 25 25 25 26 26 27 28 29 29 30
6 6 9 7 4 3 5 7 7 8 10 9 9 12 14 14 16 18 21 22 22 21 21 20 19 19 19 18 18 22 24 23 22 23 23 22 23 23 23 25 26 27 29 30 31 33 31 24 23 28 28 26 26 27 28 29 29 30 30 30 31 32 33
7 4 6 7 5 4 4 5 5 5 7 6 4 6 7 7 11 13 13 13 14 14 14 15 14 13 13 13 14 18 22 23 22 23 23 22 21 20 20 22 24 25 28 29 28 27 22 18 22 26 25 25 26 28 30 31 30 30 31 32 33 34 35
3 1 4 6 4 4 5 4 4 2 3 5 4 2 2 4 6 8 10 11 11 11 11 12 11 11 13 14 16 19 21 23 24 24 22 21 20 19 18 20 22 25 27 27 25 21 17 16 20 22 22 24 26 28 30 30 27 27 29 31 32 33 35
5 6 5 5 4 2 3 3 4 3 0 2 5 5 4 4 5 6 9 12 14 14 13 12 12 14 16 18 20 21 22 23 22 21 21 22 22 21 21 22 24 26 26 25 24 20 17 18 20 20 20 23 25 27 29 27 25 25 27 29 29 30 32
10 9 8 8 7 5 3 2 2 2 2 1 0 2 3 3 4 5 8 11 14 15 15 14 14 15 16 16 16 15 15 16 16 17 20 23 21 20 21 23 25 25 24 22 21 17 14 15 17 17 18 21 25 27 27 26 25 25 24 25 25 26 27
11 10 10 10 9 7 7 5 4 3 3 2 3 3 2 3 4 6 7 9 11 11 11 10 10 10 11 14 14 10 8 9 11 12 14 16 15 15 17 19 20 21 20 19 18 15 13 13 14 15 16 20 24 24 23 24 26 25 24 24 23 22 23
11 10 10 10 9 9 9 9 8 7 5 3 3 3 4 4 4 6 7 7 8 8 7 6 5 4 5 8 9 6 4 4 6 7 8 9 10 12 13 14 14 15 17 17 16 16 15 14 15 15 16 19 21 21 20 22 23 24 23 23 21 21 21
10 10 10 10 10 10 11 11 10 9 7 6 5 5 6 6 6 7 7 5 5 5 4 3 2 2 2 3 3 2 2 3 5 7 8 9 9 10 10 11 11 12 13 14 15 15 15 14 15 15 16 18 19 19 19 19 20 21 22 22 21 22 22
10 9 9 10 10 10 11 10 9 9 9 8 8 8 9 9 9 10 10 9 8 6 5 5 5 5 6 6 5 5 6 6 7 7 7 7 7 7 8 8 8 8 9 10 12 13 13 13 13 14 15 17 18 19 19 19 19 20 21 21 22 22 22
8 8 8 8 9 10 9 8 7 7 7 7 7 7 7 8 9 9 9 9 9 8 8 8 8 8 8 7 6 7 7 7 7 7 6 6 5 5 5 5 6 6 6 7 7 8 9 9 10 11 12 13 14 16 16 17 17 18 19 19 19 20 20
6 6 5 5 6 7 6 6 6 6 5 5 5 5 5 5 5 5 6 6 6 6 6 6 6 6 6 5 5 5 6 6 6 6 7 7 6 6 6 6 6 6 6 6 6 6 6 6 6 7 8 8 9 11 11 12 13 14 15 15 15 15 16
2 3 3 2 2 3 3 3 3 3 3 3 3 3 3 2 2 2 3 3 3 3 4 4 4 5 5 5 5 6 6 6 6 6 6 7 7 8 8 8 8 8 8 8 8 8 7 7 7 8 8 8 8 9 9 9 10 10 11 11 11 11 11
4 3 2 2 2 2 1 2 2 2 2 2 2 2 2 2 2 2 3 3 3 4 4 4 4 5 5 6 6 6 7 7 7 6 6 6 7 8 9 9 10 10 10 10 10 10 10 10 10 10 11 11 11 11 11 11 11 11 11 10 10 9 9
5 4 4 3 4 4 5 4 4 4 4 4 5 5 5 6 6 6 6 6 6 6 5 5 5 5 6 6 6 6 7 7 7 7 7 7 8 8 9 9 10 10 11 11 11 12 12 12 13 13 14 14 14 15 15 15 14 14 13 12 12 11 10

ECMWFFLT1_700_spd_120.txt.gz
Wind_Speed
35 35 34 32 29 26 24 22 21 22 23 21 20 20 20 19 18 18 16 15 16 16 16 15 15 15 14 14 14 14 14 14 13 13 14 14 14 14 14 14 13 12 12 12 12 12 12 12 11 11 11 11 10 10 9 9 8 7 7 7 7 7 8
37 37 36 34 31 28 25 23 21 23 24 23 21 20 21 21 20 19 18 16 16 17 17 16 15 14 14 14 15 14 14 14 14 14 14 15 15 15 15 14 14 13 13 13 13 13 12 12 11 11 11 11 11 10 10 10 10 9 8 8 8 8 8
39 38 37 35 33 29 26 25 23 22 24 24 22 21 21 21 20 19 18 17 17 17 18 17 16 15 15 15 15 15 14 14 14 14 14 15 15 16 16 15 14 14 14 14 14 13 12 12 12 11 11 11 11 11 10 10 10 10 10 9 9 10 9
41 40 39 37 35 32 28 26 24 23 23 23 22 21 21 21 19 19 19 18 18 18 18 18 17 16 16 16 16 15 15 15 15 15 15 16 16 17 17 16 16 15 15 15 15 14 13 13 12 12 12 12 12 12 11 11 11 10 10 10 10 10 10
39 41 40 39 38 35 32 28 26 24 22 22 22 20 20 20 20 20 20 19 19 19 19 18 18 18 17 17 16 16 16 16 16 16 17 17 17 18 17 17 17 16 16 16 15 15 14 13 13 13 12 12 12 12 11 11 11 11 11 11 11 11 11
33 37 37 37 36 36 33 30 27 25 23 22 21 20 19 20 21 21 20 20 20 20 20 20 20 20 19 18 17 17 17 17 17 17 17 17 18 17 17 17 18 17 16 16 16 16 15 14 14 14 13 13 13 12 12 12 12 12 12 12 12 12 11
27 32 34 34 33 33 32 31 29 27 25 23 22 21 20 21 21 21 20 21 21 21 21 21 21 21 21 20 18 17 17 17 17 16 16 17 17 17 16 17 17 17 17 17 17 17 16 15 14 14 14 14 13 13 13 13 12 13 13 13 13 13 12
21 28 32 33 32 31 31 30 29 28 27 25 24 23 22 22 22 22 21 21 21 22 23 22 21 20 21 21 20 18 18 18 17 16 16 16 16 15 15 16 16 16 17 16 16 16 16 15 15 15 16 15 14 14 14 14 14 14 14 14 14 14 13
18 23 29 34 35 33 32 31 30 29 29 27 26 25 24 23 23 23 22 21 22 23 23 23 22 21 21 22 21 20 19 19 18 17 17 16 15 15 15 15 16 16 16 15 16 16 16 15 16 17 17 16 15 15 15 15 15 15 14 14 15 15 14
17 19 24 30 34 34 34 33 32 32 31 30 28 26 26 25 25 25 24 23 24 25 24 23 23 23 23 23 22 21 21 20 20 18 17 17 16 15 15 16 16 16 15 15 15 15 15 15 16 17 17 16 15 14 15 15 15 15 14 15 15 15 15
16 18 20 25 30 34 35 35 35 34 33 32 31 29 29 29 29 29 29 28 27 27 26 25 25 25 24 23 22 22 21 22 21 20 19 18 17 17 17 16 16 16 16 15 15 15 15 15 16 16 16 15 14 15 15 16 16 15 15 15 15 15 15
14 15 17 21 25 30 35 37 38 37 36 35 34 32 31 32 33 33 33 31 30 29 28 27 27 27 26 25 24 22 22 22 22 21 20 19 18 18 18 18 17 16 16 15 15 15 15 15 15 15 15 15 15 16 16 16 16 16 15 16 16 15 15
11 13 13 15 19 25 30 35 39 40 40 40 39 38 35 33 33 33 33 32 30 29 28 28 28 28 28 27 26 25 23 23 23 23 22 21 20 20 20 20 19 18 17 16 16 16 15 15 15 15 15 15 16 16 17 17 17 17 16 17 16 16 15
9 11 11 13 17 21 25 30 36 41 43 44 44 43 41 38 35 33 33 33 30 28 28 28 29 29 28 28 27 26 25 24 24 24 23 23 22 22 22 22 21 20 19 18 18 17 16 16 15 15 16 16 16 17 17 18 17 17 17 17 17 16 16
10 12 13 14 17 19 21 25 30 33 36 40 42 43 43 41 40 37 34 34 32 30 30 31 31 30 28 28 27 27 26 25 25 24 23 23 23 22 23 23 23 23 22 21 20 19 18 17 17 17 17 16 16 16 17 17 17 16 16 17 17 17 17
10 10 12 14 15 16 18 20 20 21 25 31 35 38 40 40 40 37 35 36 36 34 32 32 33 31 30 28 27 27 27 27 26 25 24 23 23 22 23 24 24 24 24 23 22 21 20 19 19 18 18 18 17 17 16 16 15 15 15 16 16 16 16
9 9 10 12 11 12 15 15 15 16 19 22 24 28 33 36 38 37 37 39 40 38 36 35 35 34 32 30 28 28 28 29 28 26 25 24 23 23 24 25 25 25 24 24 23 22 22 21 20 19 19 19 18 18 17 16 15 15 16 16 16 15 16
6 7 9 9 8 10 13 13 14 16 18 18 17 20 26 31 35 38 39 40 41 41 41 40 38 37 36 33 31 31 30 30 29 27 26 26 25 25 25 26 26 25 25 24 24 23 22 22 21 20 20 20 19 19 18 18 18 18 17 17 17 17 17
6 7 9 9 8 9 11 12 13 15 17 17 17 19 21 24 28 33 38 40 40 42 43 41 38 37 38 35 32 31 32 31 30 29 28 28 27 27 26 26 26 26 26 25 24 24 23 22 21 21 22 21 21 20 20 19 19 19 19 19 19 19 19
7 7 9 9 8 8 10 11 13 15 16 16 16 17 19 21 22 26 32 37 41 42 42 42 38 34 35 33 29 29 31 31 30 29 28 28 29 28 27 26 26 25 25 26 26 25 23 21 21 21 21 21 21 21 21 21 20 19 19 20 20 21 21
9 10 10 9 9 8 9 11 13 13 13 13 13 13 14 17 17 19 24 31 38 41 40 39 36 33 34 34 29 28 29 29 29 29 29 29 29 28 28 27 26 24 24 26 27 25 22 21 21 21 22 22 22 22 22 22 21 20 20 21 21 22 22
10 11 11 11 11 9 8 9 10 11 11 11 12 11 10 12 13 15 18 23 30 34 34 34 32 33 35 34 29 28 28 29 28 27 27 28 28 28 28 29 29 27 26 26 26 24 22 22 22 23 24 24 24 24 24 24 23 22 21 21 22 22 23
9 10 11 11 11 10 9 7 7 8 9 10 11 10 9 11 11 11 13 16 21 26 29 31 31 32 34 33 28 26 26 27 27 26 26 26 26 27 28 30 30 27 25 26 27 26 24 24 25 26 26 26 26 26 26 25 25 24 24 24 25 25 25
7 6 7 8 10 10 9 7 6 6 6 7 7 7 7 9 11 12 12 12 15 19 23 26 28 28 29 28 26 23 24 27 28 26 25 26 26 26 27 30 29 26 25 27 28 26 25 26 28 28 28 29 30 29 29 29 29 28 27 27 27 28 28
3 3 3 4 5 6 7 7 6 6 5 4 5 4 4 7 10 10 10 10 13 17 19 23 26 26 25 25 25 25 27 29 28 26 26 27 27 27 28 29 29 27 26 26 27 26 26 27 28 29 31 33 34 33 32 33 34 32 29 29 29 29 30
2 2 2 3 3 3 4 4 4 3 2 3 3 2 3 5 5 6 8 10 13 16 20 23 24 24 25 25 27 28 29 31 30 29 29 29 28 27 28 28 27 26 25 24 24 24 25 26 26 29 32 34 36 37 36 36 36 33 31 30 30 31 31
4 4 3 2 3 4 5 5 4 2 2 3 3 1 2 2 3 5 8 10 11 14 18 20 21 22 22 22 24 25 26 27 26 25 26 26 25 25 26 26 25 24 23 22 22 22 22 22 23 25 27 28 31 35 36 34 33 31 30 30 30 30 31
5 4 3 2 4 5 6 7 6 4 3 4 4 3 2 2 1 3 8 12 12 13 16 17 17 18 18 18 20 21 21 20 20 21 22 22 20 20 22 23 23 23 23 23 23 22 21 22 22 22 22 20 20 25 29 29 27 27 27 28 28 29 30
4 3 2 2 4 6 7 7 8 7 5 5 5 4 4 5 4 3 8 12 14 15 16 16 17 18 18 19 20 20 18 17 17 20 22 21 20 23 25 25 24 24 25 25 25 25 24 24 25 26 24 21 20 24 28 28 26 26 27 27 27 29 30
4 3 2 3 4 5 7 8 9 9 7 6 7 7 7 8 7 4 6 7 9 13 14 13 14 16 17 18 17 15 16 18 19 20 21 21 22 23 23 24 24 23 24 25 26 25 23 23 27 29 29 28 27 28 29 27 26 28 29 28 29 30 30
6 5 5 5 5 6 7 10 11 11 9 8 8 8 7 7 6 5 5 6 7 9 11 12 12 11 12 12 9 8 11 14 15 15 15 17 18 17 14 16 19 19 20 21 21 20 18 19 23 26 28 30 30 29 28 27 26 28 28 27 28 29 28
8 8 8 9 8 9 9 10 12 12 11 10 10 10 10 9 8 7 7 7 7 8 10 12 11 9 8 7 6 7 8 8 7 8 8 9 10 10 9 9 11 12 13 14 14 14 14 14 16 18 21 23 23 24 25 25 24 24 24 25 26 25 25
8 8 9 9 9 9 9 9 10 11 12 11 11 11 11 11 10 11 10 9 10 10 9 9 8 6 6 5 5 5 5 4 3 3 3 2 3 5 6 6 6 7 7 7 7 9 10 10 12 14 16 16 17 18 20 20 20 20 21 21 22 22 22
8 8 8 7 7 8 8 8 8 9 10 10 10 10 10 10 10 10 10 10 10 10 10 9 8 7 6 5 4 4 3 3 3 3 2 2 3 4 4 4 4 4 4 4 5 5 6 7 9 11 13 14 14 15 15 15 15 15 15 16 17 18 19
7 7 7 6 6 5 5 6 6 6 6 7 7 7 7 7 7 7 7 6 6 6 6 6 6 6 6 5 4 4 4 4 4 5 5 5 4 4 4 4 4 4 4 5 6 6 6 6 7 8 9 10 10 11 11 10 10 10 10 10 10 11 12
5 4 4 4 4 4 4 3 3 3 3 3 3 4 3 3 3 3 3 3 3 2 1 1 2 3 4 4 4 5 5 6 6 7 7 6 6 6 6 6 6 6 6 7 7 7 8 8 8 8 9 9 9 9 9 9 9 8 8 8 7 7 8
3 3 2 2 2 1 2 2 2 1 1 1 1 1 1 1 0 1 1 1 1 1 2 3 4 4 5 5 6 6 7 8 9 9 9 9 9 8 8 8 7 7 7 8 8 8 9 9 10 10 10 10 11 10 10 11 11 10 10 10 9 8 9
2 2 2 1 1 0 0 0 0 1 1 1 1 2 2 3 3 4 4 4 5 5 5 6 6 7 7 7 7 8 8 9 9 9 10 10 10 10 9 9 8 8 8 8 8 8 8 9 9 10 11 11 12 13 13 13 13 13 13 13 13 12 12